<?xml version="1.0" encoding="UTF-8" standalone="no" ?>
<gpx xmlns="http://www.topografix.com/GPX/1/1" xmlns:xsi="http://www.w3.org/2001/XMLSchema-instance" xsi:schemaLocation="http://www.topografix.com/GPX/1/1 http://www.topografix.com/GPX/1/1/gpx.xsd" version="1.1" creator="VisuGPX - https://www.visugpx.com">
  <metadata>
    <name>GTJ-1</name>
    <desc><![CDATA[US-CERGY-CYCLO]]></desc>
  </metadata>
  <trk>
    <name><![CDATA[20150628_GTJ-1_50]]></name>
    <trkseg>
      <trkpt lat="46.91365" lon="6.45885">
        <ele>1053.26</ele>
        <time>2015-06-28T06:49:04Z</time>
      </trkpt>
      <trkpt lat="46.91366" lon="6.45884">
        <ele>1053.26</ele>
        <time>2015-06-28T06:49:05Z</time>
      </trkpt>
      <trkpt lat="46.9136" lon="6.45897">
        <ele>1056.63</ele>
        <time>2015-06-28T06:49:09Z</time>
      </trkpt>
      <trkpt lat="46.91359" lon="6.45898">
        <ele>1059.99</ele>
        <time>2015-06-28T06:49:10Z</time>
      </trkpt>
      <trkpt lat="46.91358" lon="6.45899">
        <ele>1063.36</ele>
        <time>2015-06-28T06:49:11Z</time>
      </trkpt>
      <trkpt lat="46.91358" lon="6.45899">
        <ele>1066.72</ele>
        <time>2015-06-28T06:49:12Z</time>
      </trkpt>
      <trkpt lat="46.91358" lon="6.459">
        <ele>1072.01</ele>
        <time>2015-06-28T06:49:14Z</time>
      </trkpt>
      <trkpt lat="46.91357" lon="6.45901">
        <ele>1077.78</ele>
        <time>2015-06-28T06:49:16Z</time>
      </trkpt>
      <trkpt lat="46.91358" lon="6.459">
        <ele>1081.14</ele>
        <time>2015-06-28T06:49:17Z</time>
      </trkpt>
      <trkpt lat="46.91358" lon="6.459">
        <ele>1085.95</ele>
        <time>2015-06-28T06:49:19Z</time>
      </trkpt>
      <trkpt lat="46.91358" lon="6.459">
        <ele>1091.23</ele>
        <time>2015-06-28T06:49:21Z</time>
      </trkpt>
      <trkpt lat="46.91358" lon="6.459">
        <ele>1095.56</ele>
        <time>2015-06-28T06:49:23Z</time>
      </trkpt>
      <trkpt lat="46.91357" lon="6.459">
        <ele>1098.92</ele>
        <time>2015-06-28T06:49:25Z</time>
      </trkpt>
      <trkpt lat="46.91358" lon="6.45899">
        <ele>1103.25</ele>
        <time>2015-06-28T06:49:27Z</time>
      </trkpt>
      <trkpt lat="46.91358" lon="6.45898">
        <ele>1108.06</ele>
        <time>2015-06-28T06:49:30Z</time>
      </trkpt>
      <trkpt lat="46.91358" lon="6.45897">
        <ele>1111.42</ele>
        <time>2015-06-28T06:49:32Z</time>
      </trkpt>
      <trkpt lat="46.91357" lon="6.45895">
        <ele>1115.27</ele>
        <time>2015-06-28T06:49:35Z</time>
      </trkpt>
      <trkpt lat="46.91358" lon="6.45893">
        <ele>1119.59</ele>
        <time>2015-06-28T06:49:38Z</time>
      </trkpt>
      <trkpt lat="46.91359" lon="6.45893">
        <ele>1119.59</ele>
        <time>2015-06-28T06:49:39Z</time>
      </trkpt>
      <trkpt lat="46.91359" lon="6.45893">
        <ele>1123.44</ele>
        <time>2015-06-28T06:49:42Z</time>
      </trkpt>
      <trkpt lat="46.9136" lon="6.45894">
        <ele>1126.32</ele>
        <time>2015-06-28T06:49:45Z</time>
      </trkpt>
      <trkpt lat="46.91361" lon="6.45895">
        <ele>1130.17</ele>
        <time>2015-06-28T06:49:49Z</time>
      </trkpt>
      <trkpt lat="46.91361" lon="6.45896">
        <ele>1133.53</ele>
        <time>2015-06-28T06:49:53Z</time>
      </trkpt>
      <trkpt lat="46.91361" lon="6.45896">
        <ele>1134.97</ele>
        <time>2015-06-28T06:49:55Z</time>
      </trkpt>
      <trkpt lat="46.91361" lon="6.45896">
        <ele>1139.3</ele>
        <time>2015-06-28T06:50:00Z</time>
      </trkpt>
      <trkpt lat="46.91361" lon="6.45896">
        <ele>1138.34</ele>
        <time>2015-06-28T06:50:01Z</time>
      </trkpt>
      <trkpt lat="46.91359" lon="6.45895">
        <ele>1142.18</ele>
        <time>2015-06-28T06:50:10Z</time>
      </trkpt>
      <trkpt lat="46.91364" lon="6.45894">
        <ele>1145.07</ele>
        <time>2015-06-28T06:50:25Z</time>
      </trkpt>
      <trkpt lat="46.9136" lon="6.45896">
        <ele>1147.47</ele>
        <time>2015-06-28T06:50:43Z</time>
      </trkpt>
      <trkpt lat="46.9136" lon="6.45891">
        <ele>1147.47</ele>
        <time>2015-06-28T06:50:46Z</time>
      </trkpt>
      <trkpt lat="46.9136" lon="6.4588">
        <ele>1147.95</ele>
        <time>2015-06-28T06:50:59Z</time>
      </trkpt>
      <trkpt lat="46.91359" lon="6.45879">
        <ele>1147.95</ele>
        <time>2015-06-28T06:51:10Z</time>
      </trkpt>
      <trkpt lat="46.91358" lon="6.45873">
        <ele>1146.99</ele>
        <time>2015-06-28T06:51:13Z</time>
      </trkpt>
      <trkpt lat="46.91359" lon="6.45861">
        <ele>1146.99</ele>
        <time>2015-06-28T06:51:26Z</time>
      </trkpt>
      <trkpt lat="46.91357" lon="6.45856">
        <ele>1146.51</ele>
        <time>2015-06-28T06:51:31Z</time>
      </trkpt>
      <trkpt lat="46.91355" lon="6.45852">
        <ele>1146.51</ele>
        <time>2015-06-28T06:51:40Z</time>
      </trkpt>
      <trkpt lat="46.91355" lon="6.45847">
        <ele>1145.55</ele>
        <time>2015-06-28T06:51:53Z</time>
      </trkpt>
      <trkpt lat="46.91355" lon="6.45847">
        <ele>1145.55</ele>
        <time>2015-06-28T06:52:35Z</time>
      </trkpt>
      <trkpt lat="46.91356" lon="6.45849">
        <ele>1145.55</ele>
        <time>2015-06-28T06:52:56Z</time>
      </trkpt>
      <trkpt lat="46.91356" lon="6.45851">
        <ele>1145.55</ele>
        <time>2015-06-28T06:53:42Z</time>
      </trkpt>
      <trkpt lat="46.91356" lon="6.45852">
        <ele>1146.03</ele>
        <time>2015-06-28T06:54:25Z</time>
      </trkpt>
      <trkpt lat="46.91355" lon="6.45851">
        <ele>1146.51</ele>
        <time>2015-06-28T06:54:46Z</time>
      </trkpt>
      <trkpt lat="46.91355" lon="6.45851">
        <ele>1146.51</ele>
        <time>2015-06-28T06:55:05Z</time>
      </trkpt>
      <trkpt lat="46.91355" lon="6.45851">
        <ele>1146.03</ele>
        <time>2015-06-28T06:55:19Z</time>
      </trkpt>
      <trkpt lat="46.91356" lon="6.45851">
        <ele>1146.03</ele>
        <time>2015-06-28T06:55:38Z</time>
      </trkpt>
      <trkpt lat="46.91357" lon="6.45851">
        <ele>1146.03</ele>
        <time>2015-06-28T06:56:09Z</time>
      </trkpt>
      <trkpt lat="46.91356" lon="6.45851">
        <ele>1145.07</ele>
        <time>2015-06-28T06:56:21Z</time>
      </trkpt>
      <trkpt lat="46.91357" lon="6.4585">
        <ele>1146.03</ele>
        <time>2015-06-28T06:56:57Z</time>
      </trkpt>
      <trkpt lat="46.91356" lon="6.45851">
        <ele>1146.51</ele>
        <time>2015-06-28T06:57:23Z</time>
      </trkpt>
      <trkpt lat="46.91357" lon="6.45854">
        <ele>1146.99</ele>
        <time>2015-06-28T06:57:26Z</time>
      </trkpt>
      <trkpt lat="46.9136" lon="6.45858">
        <ele>1146.99</ele>
        <time>2015-06-28T06:57:39Z</time>
      </trkpt>
      <trkpt lat="46.9136" lon="6.45856">
        <ele>1145.07</ele>
        <time>2015-06-28T06:57:55Z</time>
      </trkpt>
      <trkpt lat="46.9136" lon="6.45856">
        <ele>1146.99</ele>
        <time>2015-06-28T06:57:57Z</time>
      </trkpt>
      <trkpt lat="46.91361" lon="6.45856">
        <ele>1150.35</ele>
        <time>2015-06-28T06:58:10Z</time>
      </trkpt>
      <trkpt lat="46.91361" lon="6.45856">
        <ele>1141.7</ele>
        <time>2015-06-28T06:58:12Z</time>
      </trkpt>
      <trkpt lat="46.91361" lon="6.45856">
        <ele>1148.43</ele>
        <time>2015-06-28T06:58:13Z</time>
      </trkpt>
      <trkpt lat="46.91361" lon="6.45857">
        <ele>1146.99</ele>
        <time>2015-06-28T06:58:44Z</time>
      </trkpt>
      <trkpt lat="46.91361" lon="6.45856">
        <ele>1151.32</ele>
        <time>2015-06-28T06:58:53Z</time>
      </trkpt>
      <trkpt lat="46.91361" lon="6.45856">
        <ele>1146.03</ele>
        <time>2015-06-28T06:58:54Z</time>
      </trkpt>
      <trkpt lat="46.91361" lon="6.45856">
        <ele>1149.87</ele>
        <time>2015-06-28T06:59:03Z</time>
      </trkpt>
      <trkpt lat="46.91361" lon="6.45856">
        <ele>1146.51</ele>
        <time>2015-06-28T06:59:09Z</time>
      </trkpt>
      <trkpt lat="46.91361" lon="6.45856">
        <ele>1149.39</ele>
        <time>2015-06-28T06:59:14Z</time>
      </trkpt>
      <trkpt lat="46.91361" lon="6.45856">
        <ele>1147.47</ele>
        <time>2015-06-28T06:59:16Z</time>
      </trkpt>
      <trkpt lat="46.91366" lon="6.45851">
        <ele>1147.47</ele>
        <time>2015-06-28T06:59:29Z</time>
      </trkpt>
      <trkpt lat="46.91366" lon="6.4585">
        <ele>1147.47</ele>
        <time>2015-06-28T06:59:52Z</time>
      </trkpt>
      <trkpt lat="46.91365" lon="6.45849">
        <ele>1147.47</ele>
        <time>2015-06-28T07:00:20Z</time>
      </trkpt>
      <trkpt lat="46.91367" lon="6.45846">
        <ele>1147.47</ele>
        <time>2015-06-28T07:00:39Z</time>
      </trkpt>
      <trkpt lat="46.91382" lon="6.4583">
        <ele>1146.03</ele>
        <time>2015-06-28T07:00:46Z</time>
      </trkpt>
      <trkpt lat="46.91401" lon="6.45807">
        <ele>1144.59</ele>
        <time>2015-06-28T07:00:56Z</time>
      </trkpt>
      <trkpt lat="46.91401" lon="6.45806">
        <ele>1141.22</ele>
        <time>2015-06-28T07:01:06Z</time>
      </trkpt>
      <trkpt lat="46.91401" lon="6.45806">
        <ele>1145.07</ele>
        <time>2015-06-28T07:01:07Z</time>
      </trkpt>
      <trkpt lat="46.91401" lon="6.45807">
        <ele>1144.59</ele>
        <time>2015-06-28T07:01:38Z</time>
      </trkpt>
      <trkpt lat="46.91404" lon="6.4579">
        <ele>1144.59</ele>
        <time>2015-06-28T07:01:57Z</time>
      </trkpt>
      <trkpt lat="46.91404" lon="6.45772">
        <ele>1143.14</ele>
        <time>2015-06-28T07:02:00Z</time>
      </trkpt>
      <trkpt lat="46.91406" lon="6.45734">
        <ele>1140.74</ele>
        <time>2015-06-28T07:02:04Z</time>
      </trkpt>
      <trkpt lat="46.91393" lon="6.45699">
        <ele>1140.26</ele>
        <time>2015-06-28T07:02:08Z</time>
      </trkpt>
      <trkpt lat="46.91375" lon="6.45661">
        <ele>1142.66</ele>
        <time>2015-06-28T07:02:14Z</time>
      </trkpt>
      <trkpt lat="46.91375" lon="6.45655">
        <ele>1142.66</ele>
        <time>2015-06-28T07:02:15Z</time>
      </trkpt>
      <trkpt lat="46.9135" lon="6.45567">
        <ele>1144.59</ele>
        <time>2015-06-28T07:02:30Z</time>
      </trkpt>
      <trkpt lat="46.9132" lon="6.45519">
        <ele>1147.95</ele>
        <time>2015-06-28T07:02:43Z</time>
      </trkpt>
      <trkpt lat="46.91319" lon="6.45515">
        <ele>1147.95</ele>
        <time>2015-06-28T07:02:44Z</time>
      </trkpt>
      <trkpt lat="46.91304" lon="6.45449">
        <ele>1148.43</ele>
        <time>2015-06-28T07:02:58Z</time>
      </trkpt>
      <trkpt lat="46.91294" lon="6.45342">
        <ele>1145.55</ele>
        <time>2015-06-28T07:03:10Z</time>
      </trkpt>
      <trkpt lat="46.91283" lon="6.45235">
        <ele>1141.7</ele>
        <time>2015-06-28T07:03:20Z</time>
      </trkpt>
      <trkpt lat="46.91282" lon="6.45222">
        <ele>1141.7</ele>
        <time>2015-06-28T07:03:21Z</time>
      </trkpt>
      <trkpt lat="46.9128" lon="6.45182">
        <ele>1140.26</ele>
        <time>2015-06-28T07:03:24Z</time>
      </trkpt>
      <trkpt lat="46.91281" lon="6.45153">
        <ele>1139.3</ele>
        <time>2015-06-28T07:03:26Z</time>
      </trkpt>
      <trkpt lat="46.91282" lon="6.45139">
        <ele>1138.82</ele>
        <time>2015-06-28T07:03:27Z</time>
      </trkpt>
      <trkpt lat="46.91275" lon="6.45072">
        <ele>1138.82</ele>
        <time>2015-06-28T07:03:32Z</time>
      </trkpt>
      <trkpt lat="46.91244" lon="6.45038">
        <ele>1139.78</ele>
        <time>2015-06-28T07:03:38Z</time>
      </trkpt>
      <trkpt lat="46.91239" lon="6.45038">
        <ele>1139.78</ele>
        <time>2015-06-28T07:03:39Z</time>
      </trkpt>
      <trkpt lat="46.91202" lon="6.45038">
        <ele>1142.18</ele>
        <time>2015-06-28T07:03:47Z</time>
      </trkpt>
      <trkpt lat="46.91181" lon="6.45008">
        <ele>1144.59</ele>
        <time>2015-06-28T07:03:58Z</time>
      </trkpt>
      <trkpt lat="46.91175" lon="6.44969">
        <ele>1147.47</ele>
        <time>2015-06-28T07:04:09Z</time>
      </trkpt>
      <trkpt lat="46.91161" lon="6.44923">
        <ele>1147.95</ele>
        <time>2015-06-28T07:04:22Z</time>
      </trkpt>
      <trkpt lat="46.91148" lon="6.44866">
        <ele>1147.47</ele>
        <time>2015-06-28T07:04:33Z</time>
      </trkpt>
      <trkpt lat="46.91147" lon="6.44861">
        <ele>1146.99</ele>
        <time>2015-06-28T07:04:34Z</time>
      </trkpt>
      <trkpt lat="46.9113" lon="6.44824">
        <ele>1145.55</ele>
        <time>2015-06-28T07:04:40Z</time>
      </trkpt>
      <trkpt lat="46.91133" lon="6.44776">
        <ele>1146.03</ele>
        <time>2015-06-28T07:04:47Z</time>
      </trkpt>
      <trkpt lat="46.91131" lon="6.44762">
        <ele>1146.51</ele>
        <time>2015-06-28T07:04:50Z</time>
      </trkpt>
      <trkpt lat="46.9109" lon="6.44717">
        <ele>1144.59</ele>
        <time>2015-06-28T07:05:04Z</time>
      </trkpt>
      <trkpt lat="46.91042" lon="6.44701">
        <ele>1141.7</ele>
        <time>2015-06-28T07:05:16Z</time>
      </trkpt>
      <trkpt lat="46.91031" lon="6.44694">
        <ele>1140.74</ele>
        <time>2015-06-28T07:05:21Z</time>
      </trkpt>
      <trkpt lat="46.9103" lon="6.44688">
        <ele>1141.22</ele>
        <time>2015-06-28T07:05:23Z</time>
      </trkpt>
      <trkpt lat="46.9103" lon="6.44672">
        <ele>1141.7</ele>
        <time>2015-06-28T07:05:28Z</time>
      </trkpt>
      <trkpt lat="46.91018" lon="6.4465">
        <ele>1140.26</ele>
        <time>2015-06-28T07:05:40Z</time>
      </trkpt>
      <trkpt lat="46.91016" lon="6.44646">
        <ele>1139.3</ele>
        <time>2015-06-28T07:05:43Z</time>
      </trkpt>
      <trkpt lat="46.91006" lon="6.44634">
        <ele>1136.9</ele>
        <time>2015-06-28T07:05:55Z</time>
      </trkpt>
      <trkpt lat="46.91003" lon="6.44637">
        <ele>1136.42</ele>
        <time>2015-06-28T07:06:08Z</time>
      </trkpt>
      <trkpt lat="46.91004" lon="6.44636">
        <ele>1136.9</ele>
        <time>2015-06-28T07:06:25Z</time>
      </trkpt>
      <trkpt lat="46.91016" lon="6.44621">
        <ele>1137.86</ele>
        <time>2015-06-28T07:06:38Z</time>
      </trkpt>
      <trkpt lat="46.91022" lon="6.44614">
        <ele>1138.82</ele>
        <time>2015-06-28T07:06:51Z</time>
      </trkpt>
      <trkpt lat="46.91022" lon="6.44615">
        <ele>1139.3</ele>
        <time>2015-06-28T07:07:10Z</time>
      </trkpt>
      <trkpt lat="46.91022" lon="6.44613">
        <ele>1139.78</ele>
        <time>2015-06-28T07:07:14Z</time>
      </trkpt>
      <trkpt lat="46.91023" lon="6.44611">
        <ele>1140.26</ele>
        <time>2015-06-28T07:07:16Z</time>
      </trkpt>
      <trkpt lat="46.91024" lon="6.44606">
        <ele>1140.26</ele>
        <time>2015-06-28T07:07:29Z</time>
      </trkpt>
      <trkpt lat="46.91013" lon="6.44583">
        <ele>1141.7</ele>
        <time>2015-06-28T07:07:41Z</time>
      </trkpt>
      <trkpt lat="46.91" lon="6.44556">
        <ele>1141.22</ele>
        <time>2015-06-28T07:07:53Z</time>
      </trkpt>
      <trkpt lat="46.90999" lon="6.44553">
        <ele>1141.22</ele>
        <time>2015-06-28T07:07:54Z</time>
      </trkpt>
      <trkpt lat="46.90994" lon="6.44544">
        <ele>1142.18</ele>
        <time>2015-06-28T07:08:01Z</time>
      </trkpt>
      <trkpt lat="46.90989" lon="6.44538">
        <ele>1143.63</ele>
        <time>2015-06-28T07:08:13Z</time>
      </trkpt>
      <trkpt lat="46.90987" lon="6.44524">
        <ele>1144.11</ele>
        <time>2015-06-28T07:08:25Z</time>
      </trkpt>
      <trkpt lat="46.90985" lon="6.44519">
        <ele>1143.63</ele>
        <time>2015-06-28T07:08:37Z</time>
      </trkpt>
      <trkpt lat="46.90984" lon="6.44519">
        <ele>1143.63</ele>
        <time>2015-06-28T07:09:19Z</time>
      </trkpt>
      <trkpt lat="46.90983" lon="6.44518">
        <ele>1143.63</ele>
        <time>2015-06-28T07:09:55Z</time>
      </trkpt>
      <trkpt lat="46.90984" lon="6.44518">
        <ele>1144.11</ele>
        <time>2015-06-28T07:10:24Z</time>
      </trkpt>
      <trkpt lat="46.90983" lon="6.44518">
        <ele>1144.11</ele>
        <time>2015-06-28T07:10:41Z</time>
      </trkpt>
      <trkpt lat="46.90982" lon="6.44517">
        <ele>1144.59</ele>
        <time>2015-06-28T07:10:45Z</time>
      </trkpt>
      <trkpt lat="46.90971" lon="6.44514">
        <ele>1143.14</ele>
        <time>2015-06-28T07:10:50Z</time>
      </trkpt>
      <trkpt lat="46.90964" lon="6.44512">
        <ele>1142.66</ele>
        <time>2015-06-28T07:10:52Z</time>
      </trkpt>
      <trkpt lat="46.90952" lon="6.4451">
        <ele>1141.7</ele>
        <time>2015-06-28T07:10:55Z</time>
      </trkpt>
      <trkpt lat="46.90947" lon="6.44508">
        <ele>1140.26</ele>
        <time>2015-06-28T07:10:56Z</time>
      </trkpt>
      <trkpt lat="46.90932" lon="6.44499">
        <ele>1138.82</ele>
        <time>2015-06-28T07:10:59Z</time>
      </trkpt>
      <trkpt lat="46.90926" lon="6.44497">
        <ele>1138.82</ele>
        <time>2015-06-28T07:11:00Z</time>
      </trkpt>
      <trkpt lat="46.90915" lon="6.44496">
        <ele>1138.34</ele>
        <time>2015-06-28T07:11:02Z</time>
      </trkpt>
      <trkpt lat="46.90911" lon="6.44494">
        <ele>1138.34</ele>
        <time>2015-06-28T07:11:03Z</time>
      </trkpt>
      <trkpt lat="46.90908" lon="6.44492">
        <ele>1138.82</ele>
        <time>2015-06-28T07:11:04Z</time>
      </trkpt>
      <trkpt lat="46.90905" lon="6.44489">
        <ele>1138.34</ele>
        <time>2015-06-28T07:11:05Z</time>
      </trkpt>
      <trkpt lat="46.90902" lon="6.44487">
        <ele>1138.34</ele>
        <time>2015-06-28T07:11:06Z</time>
      </trkpt>
      <trkpt lat="46.909" lon="6.44484">
        <ele>1138.34</ele>
        <time>2015-06-28T07:11:07Z</time>
      </trkpt>
      <trkpt lat="46.90898" lon="6.44482">
        <ele>1138.34</ele>
        <time>2015-06-28T07:11:08Z</time>
      </trkpt>
      <trkpt lat="46.90897" lon="6.44479">
        <ele>1138.34</ele>
        <time>2015-06-28T07:11:09Z</time>
      </trkpt>
      <trkpt lat="46.90895" lon="6.44476">
        <ele>1138.82</ele>
        <time>2015-06-28T07:11:10Z</time>
      </trkpt>
      <trkpt lat="46.90894" lon="6.44471">
        <ele>1138.34</ele>
        <time>2015-06-28T07:11:11Z</time>
      </trkpt>
      <trkpt lat="46.90892" lon="6.44466">
        <ele>1137.86</ele>
        <time>2015-06-28T07:11:12Z</time>
      </trkpt>
      <trkpt lat="46.9089" lon="6.44462">
        <ele>1137.86</ele>
        <time>2015-06-28T07:11:13Z</time>
      </trkpt>
      <trkpt lat="46.90888" lon="6.44458">
        <ele>1137.86</ele>
        <time>2015-06-28T07:11:14Z</time>
      </trkpt>
      <trkpt lat="46.90887" lon="6.44454">
        <ele>1137.86</ele>
        <time>2015-06-28T07:11:15Z</time>
      </trkpt>
      <trkpt lat="46.90885" lon="6.44448">
        <ele>1137.38</ele>
        <time>2015-06-28T07:11:16Z</time>
      </trkpt>
      <trkpt lat="46.90883" lon="6.44443">
        <ele>1137.38</ele>
        <time>2015-06-28T07:11:17Z</time>
      </trkpt>
      <trkpt lat="46.90882" lon="6.44438">
        <ele>1136.9</ele>
        <time>2015-06-28T07:11:18Z</time>
      </trkpt>
      <trkpt lat="46.90879" lon="6.44433">
        <ele>1137.38</ele>
        <time>2015-06-28T07:11:19Z</time>
      </trkpt>
      <trkpt lat="46.90877" lon="6.44428">
        <ele>1136.9</ele>
        <time>2015-06-28T07:11:20Z</time>
      </trkpt>
      <trkpt lat="46.90874" lon="6.44423">
        <ele>1136.9</ele>
        <time>2015-06-28T07:11:21Z</time>
      </trkpt>
      <trkpt lat="46.90863" lon="6.44409">
        <ele>1136.42</ele>
        <time>2015-06-28T07:11:25Z</time>
      </trkpt>
      <trkpt lat="46.9086" lon="6.44407">
        <ele>1136.42</ele>
        <time>2015-06-28T07:11:26Z</time>
      </trkpt>
      <trkpt lat="46.90858" lon="6.44403">
        <ele>1136.42</ele>
        <time>2015-06-28T07:11:27Z</time>
      </trkpt>
      <trkpt lat="46.90836" lon="6.44366">
        <ele>1135.45</ele>
        <time>2015-06-28T07:11:37Z</time>
      </trkpt>
      <trkpt lat="46.90831" lon="6.44358">
        <ele>1134.97</ele>
        <time>2015-06-28T07:11:41Z</time>
      </trkpt>
      <trkpt lat="46.9083" lon="6.44356">
        <ele>1134.97</ele>
        <time>2015-06-28T07:11:42Z</time>
      </trkpt>
      <trkpt lat="46.90828" lon="6.44353">
        <ele>1134.97</ele>
        <time>2015-06-28T07:11:43Z</time>
      </trkpt>
      <trkpt lat="46.90827" lon="6.44351">
        <ele>1134.97</ele>
        <time>2015-06-28T07:11:44Z</time>
      </trkpt>
      <trkpt lat="46.90819" lon="6.44338">
        <ele>1134.97</ele>
        <time>2015-06-28T07:11:56Z</time>
      </trkpt>
      <trkpt lat="46.90817" lon="6.44333">
        <ele>1135.94</ele>
        <time>2015-06-28T07:12:09Z</time>
      </trkpt>
      <trkpt lat="46.90815" lon="6.44331">
        <ele>1134.49</ele>
        <time>2015-06-28T07:12:13Z</time>
      </trkpt>
      <trkpt lat="46.90812" lon="6.44325">
        <ele>1134.49</ele>
        <time>2015-06-28T07:12:21Z</time>
      </trkpt>
      <trkpt lat="46.9081" lon="6.44323">
        <ele>1134.49</ele>
        <time>2015-06-28T07:12:22Z</time>
      </trkpt>
      <trkpt lat="46.90808" lon="6.44322">
        <ele>1134.49</ele>
        <time>2015-06-28T07:12:23Z</time>
      </trkpt>
      <trkpt lat="46.90772" lon="6.44292">
        <ele>1134.97</ele>
        <time>2015-06-28T07:12:37Z</time>
      </trkpt>
      <trkpt lat="46.90734" lon="6.44291">
        <ele>1136.42</ele>
        <time>2015-06-28T07:12:49Z</time>
      </trkpt>
      <trkpt lat="46.90692" lon="6.44261">
        <ele>1135.94</ele>
        <time>2015-06-28T07:13:03Z</time>
      </trkpt>
      <trkpt lat="46.90662" lon="6.44203">
        <ele>1133.05</ele>
        <time>2015-06-28T07:13:16Z</time>
      </trkpt>
      <trkpt lat="46.90657" lon="6.44173">
        <ele>1132.57</ele>
        <time>2015-06-28T07:13:25Z</time>
      </trkpt>
      <trkpt lat="46.90658" lon="6.44171">
        <ele>1133.05</ele>
        <time>2015-06-28T07:13:26Z</time>
      </trkpt>
      <trkpt lat="46.9066" lon="6.44171">
        <ele>1133.53</ele>
        <time>2015-06-28T07:13:27Z</time>
      </trkpt>
      <trkpt lat="46.90661" lon="6.44172">
        <ele>1133.53</ele>
        <time>2015-06-28T07:13:28Z</time>
      </trkpt>
      <trkpt lat="46.90662" lon="6.44169">
        <ele>1133.53</ele>
        <time>2015-06-28T07:13:37Z</time>
      </trkpt>
      <trkpt lat="46.90661" lon="6.44167">
        <ele>1134.01</ele>
        <time>2015-06-28T07:13:38Z</time>
      </trkpt>
      <trkpt lat="46.90659" lon="6.44165">
        <ele>1133.05</ele>
        <time>2015-06-28T07:13:39Z</time>
      </trkpt>
      <trkpt lat="46.9065" lon="6.4415">
        <ele>1132.57</ele>
        <time>2015-06-28T07:13:51Z</time>
      </trkpt>
      <trkpt lat="46.90649" lon="6.44139">
        <ele>1133.05</ele>
        <time>2015-06-28T07:14:02Z</time>
      </trkpt>
      <trkpt lat="46.90649" lon="6.44134">
        <ele>1132.57</ele>
        <time>2015-06-28T07:14:08Z</time>
      </trkpt>
      <trkpt lat="46.90648" lon="6.44132">
        <ele>1133.05</ele>
        <time>2015-06-28T07:14:09Z</time>
      </trkpt>
      <trkpt lat="46.90633" lon="6.44096">
        <ele>1132.09</ele>
        <time>2015-06-28T07:14:19Z</time>
      </trkpt>
      <trkpt lat="46.90628" lon="6.44086">
        <ele>1132.09</ele>
        <time>2015-06-28T07:14:21Z</time>
      </trkpt>
      <trkpt lat="46.90622" lon="6.44076">
        <ele>1131.13</ele>
        <time>2015-06-28T07:14:23Z</time>
      </trkpt>
      <trkpt lat="46.90619" lon="6.44071">
        <ele>1130.65</ele>
        <time>2015-06-28T07:14:24Z</time>
      </trkpt>
      <trkpt lat="46.90616" lon="6.44065">
        <ele>1130.65</ele>
        <time>2015-06-28T07:14:25Z</time>
      </trkpt>
      <trkpt lat="46.90609" lon="6.4404">
        <ele>1130.17</ele>
        <time>2015-06-28T07:14:29Z</time>
      </trkpt>
      <trkpt lat="46.90608" lon="6.44035">
        <ele>1129.69</ele>
        <time>2015-06-28T07:14:30Z</time>
      </trkpt>
      <trkpt lat="46.90607" lon="6.4403">
        <ele>1130.65</ele>
        <time>2015-06-28T07:14:31Z</time>
      </trkpt>
      <trkpt lat="46.90607" lon="6.44025">
        <ele>1130.65</ele>
        <time>2015-06-28T07:14:32Z</time>
      </trkpt>
      <trkpt lat="46.90607" lon="6.44022">
        <ele>1130.65</ele>
        <time>2015-06-28T07:14:33Z</time>
      </trkpt>
      <trkpt lat="46.90606" lon="6.44018">
        <ele>1130.65</ele>
        <time>2015-06-28T07:14:34Z</time>
      </trkpt>
      <trkpt lat="46.90605" lon="6.44016">
        <ele>1131.61</ele>
        <time>2015-06-28T07:14:35Z</time>
      </trkpt>
      <trkpt lat="46.90604" lon="6.44015">
        <ele>1131.13</ele>
        <time>2015-06-28T07:14:36Z</time>
      </trkpt>
      <trkpt lat="46.90603" lon="6.44013">
        <ele>1131.61</ele>
        <time>2015-06-28T07:14:37Z</time>
      </trkpt>
      <trkpt lat="46.90596" lon="6.43992">
        <ele>1131.61</ele>
        <time>2015-06-28T07:14:44Z</time>
      </trkpt>
      <trkpt lat="46.90576" lon="6.43951">
        <ele>1128.73</ele>
        <time>2015-06-28T07:14:55Z</time>
      </trkpt>
      <trkpt lat="46.90552" lon="6.439">
        <ele>1127.28</ele>
        <time>2015-06-28T07:15:08Z</time>
      </trkpt>
      <trkpt lat="46.90544" lon="6.43891">
        <ele>1125.84</ele>
        <time>2015-06-28T07:15:11Z</time>
      </trkpt>
      <trkpt lat="46.90536" lon="6.43885">
        <ele>1124.88</ele>
        <time>2015-06-28T07:15:13Z</time>
      </trkpt>
      <trkpt lat="46.9052" lon="6.43874">
        <ele>1122.48</ele>
        <time>2015-06-28T07:15:17Z</time>
      </trkpt>
      <trkpt lat="46.90504" lon="6.43858">
        <ele>1121.03</ele>
        <time>2015-06-28T07:15:22Z</time>
      </trkpt>
      <trkpt lat="46.90491" lon="6.4384">
        <ele>1119.59</ele>
        <time>2015-06-28T07:15:27Z</time>
      </trkpt>
      <trkpt lat="46.90482" lon="6.43811">
        <ele>1119.11</ele>
        <time>2015-06-28T07:15:33Z</time>
      </trkpt>
      <trkpt lat="46.90484" lon="6.43782">
        <ele>1120.07</ele>
        <time>2015-06-28T07:15:44Z</time>
      </trkpt>
      <trkpt lat="46.90484" lon="6.43777">
        <ele>1121.03</ele>
        <time>2015-06-28T07:15:54Z</time>
      </trkpt>
      <trkpt lat="46.90483" lon="6.43772">
        <ele>1121.03</ele>
        <time>2015-06-28T07:16:07Z</time>
      </trkpt>
      <trkpt lat="46.90484" lon="6.43767">
        <ele>1120.55</ele>
        <time>2015-06-28T07:16:21Z</time>
      </trkpt>
      <trkpt lat="46.90487" lon="6.43759">
        <ele>1111.9</ele>
        <time>2015-06-28T07:16:26Z</time>
      </trkpt>
      <trkpt lat="46.90486" lon="6.43759">
        <ele>1122.96</ele>
        <time>2015-06-28T07:16:27Z</time>
      </trkpt>
      <trkpt lat="46.90489" lon="6.43745">
        <ele>1123.92</ele>
        <time>2015-06-28T07:16:40Z</time>
      </trkpt>
      <trkpt lat="46.90493" lon="6.4373">
        <ele>1125.36</ele>
        <time>2015-06-28T07:16:53Z</time>
      </trkpt>
      <trkpt lat="46.90497" lon="6.43724">
        <ele>1126.8</ele>
        <time>2015-06-28T07:17:04Z</time>
      </trkpt>
      <trkpt lat="46.90504" lon="6.4371">
        <ele>1128.73</ele>
        <time>2015-06-28T07:17:18Z</time>
      </trkpt>
      <trkpt lat="46.90511" lon="6.43693">
        <ele>1130.17</ele>
        <time>2015-06-28T07:17:31Z</time>
      </trkpt>
      <trkpt lat="46.90514" lon="6.43683">
        <ele>1131.13</ele>
        <time>2015-06-28T07:17:42Z</time>
      </trkpt>
      <trkpt lat="46.90517" lon="6.43671">
        <ele>1132.09</ele>
        <time>2015-06-28T07:17:51Z</time>
      </trkpt>
      <trkpt lat="46.90516" lon="6.43664">
        <ele>1133.05</ele>
        <time>2015-06-28T07:18:02Z</time>
      </trkpt>
      <trkpt lat="46.90518" lon="6.43651">
        <ele>1133.53</ele>
        <time>2015-06-28T07:18:13Z</time>
      </trkpt>
      <trkpt lat="46.90516" lon="6.43644">
        <ele>1134.49</ele>
        <time>2015-06-28T07:18:20Z</time>
      </trkpt>
      <trkpt lat="46.9052" lon="6.43629">
        <ele>1135.94</ele>
        <time>2015-06-28T07:18:33Z</time>
      </trkpt>
      <trkpt lat="46.90525" lon="6.43617">
        <ele>1137.38</ele>
        <time>2015-06-28T07:18:46Z</time>
      </trkpt>
      <trkpt lat="46.90529" lon="6.4361">
        <ele>1138.82</ele>
        <time>2015-06-28T07:18:59Z</time>
      </trkpt>
      <trkpt lat="46.90536" lon="6.43606">
        <ele>1140.26</ele>
        <time>2015-06-28T07:19:11Z</time>
      </trkpt>
      <trkpt lat="46.90543" lon="6.43601">
        <ele>1141.7</ele>
        <time>2015-06-28T07:19:25Z</time>
      </trkpt>
      <trkpt lat="46.90549" lon="6.43601">
        <ele>1143.14</ele>
        <time>2015-06-28T07:19:35Z</time>
      </trkpt>
      <trkpt lat="46.90561" lon="6.43596">
        <ele>1144.59</ele>
        <time>2015-06-28T07:19:49Z</time>
      </trkpt>
      <trkpt lat="46.90567" lon="6.43594">
        <ele>1145.55</ele>
        <time>2015-06-28T07:19:57Z</time>
      </trkpt>
      <trkpt lat="46.90581" lon="6.43597">
        <ele>1146.51</ele>
        <time>2015-06-28T07:20:09Z</time>
      </trkpt>
      <trkpt lat="46.90597" lon="6.43599">
        <ele>1147.95</ele>
        <time>2015-06-28T07:20:21Z</time>
      </trkpt>
      <trkpt lat="46.90604" lon="6.43598">
        <ele>1149.39</ele>
        <time>2015-06-28T07:20:33Z</time>
      </trkpt>
      <trkpt lat="46.90609" lon="6.43594">
        <ele>1150.35</ele>
        <time>2015-06-28T07:20:39Z</time>
      </trkpt>
      <trkpt lat="46.90616" lon="6.43583">
        <ele>1152.28</ele>
        <time>2015-06-28T07:20:51Z</time>
      </trkpt>
      <trkpt lat="46.90618" lon="6.43575">
        <ele>1153.72</ele>
        <time>2015-06-28T07:21:04Z</time>
      </trkpt>
      <trkpt lat="46.90621" lon="6.43565">
        <ele>1155.16</ele>
        <time>2015-06-28T07:21:14Z</time>
      </trkpt>
      <trkpt lat="46.90621" lon="6.43564">
        <ele>1155.16</ele>
        <time>2015-06-28T07:21:15Z</time>
      </trkpt>
      <trkpt lat="46.90623" lon="6.43548">
        <ele>1156.12</ele>
        <time>2015-06-28T07:21:28Z</time>
      </trkpt>
      <trkpt lat="46.90627" lon="6.43536">
        <ele>1157.56</ele>
        <time>2015-06-28T07:21:40Z</time>
      </trkpt>
      <trkpt lat="46.90633" lon="6.43521">
        <ele>1159.49</ele>
        <time>2015-06-28T07:21:53Z</time>
      </trkpt>
      <trkpt lat="46.90633" lon="6.4352">
        <ele>1159.49</ele>
        <time>2015-06-28T07:21:59Z</time>
      </trkpt>
      <trkpt lat="46.90637" lon="6.4351">
        <ele>1160.45</ele>
        <time>2015-06-28T07:22:11Z</time>
      </trkpt>
      <trkpt lat="46.90641" lon="6.435">
        <ele>1161.89</ele>
        <time>2015-06-28T07:22:22Z</time>
      </trkpt>
      <trkpt lat="46.90642" lon="6.43488">
        <ele>1163.33</ele>
        <time>2015-06-28T07:22:33Z</time>
      </trkpt>
      <trkpt lat="46.90642" lon="6.43482">
        <ele>1163.81</ele>
        <time>2015-06-28T07:22:38Z</time>
      </trkpt>
      <trkpt lat="46.90642" lon="6.43477">
        <ele>1164.29</ele>
        <time>2015-06-28T07:22:51Z</time>
      </trkpt>
      <trkpt lat="46.90642" lon="6.43477">
        <ele>1164.29</ele>
        <time>2015-06-28T07:23:08Z</time>
      </trkpt>
      <trkpt lat="46.9064" lon="6.43477">
        <ele>1164.29</ele>
        <time>2015-06-28T07:23:35Z</time>
      </trkpt>
      <trkpt lat="46.9064" lon="6.43474">
        <ele>1163.81</ele>
        <time>2015-06-28T07:23:47Z</time>
      </trkpt>
      <trkpt lat="46.9064" lon="6.43473">
        <ele>1164.77</ele>
        <time>2015-06-28T07:24:07Z</time>
      </trkpt>
      <trkpt lat="46.90639" lon="6.43471">
        <ele>1164.77</ele>
        <time>2015-06-28T07:24:29Z</time>
      </trkpt>
      <trkpt lat="46.9064" lon="6.43467">
        <ele>1165.26</ele>
        <time>2015-06-28T07:24:38Z</time>
      </trkpt>
      <trkpt lat="46.90638" lon="6.43463">
        <ele>1164.77</ele>
        <time>2015-06-28T07:24:49Z</time>
      </trkpt>
      <trkpt lat="46.90636" lon="6.43455">
        <ele>1164.29</ele>
        <time>2015-06-28T07:25:01Z</time>
      </trkpt>
      <trkpt lat="46.90639" lon="6.4344">
        <ele>1165.74</ele>
        <time>2015-06-28T07:25:08Z</time>
      </trkpt>
      <trkpt lat="46.9064" lon="6.43435">
        <ele>1164.77</ele>
        <time>2015-06-28T07:25:10Z</time>
      </trkpt>
      <trkpt lat="46.90641" lon="6.43431">
        <ele>1165.26</ele>
        <time>2015-06-28T07:25:12Z</time>
      </trkpt>
      <trkpt lat="46.90643" lon="6.43426">
        <ele>1165.74</ele>
        <time>2015-06-28T07:25:15Z</time>
      </trkpt>
      <trkpt lat="46.90649" lon="6.43417">
        <ele>1166.22</ele>
        <time>2015-06-28T07:25:27Z</time>
      </trkpt>
      <trkpt lat="46.90658" lon="6.43403">
        <ele>1168.14</ele>
        <time>2015-06-28T07:25:40Z</time>
      </trkpt>
      <trkpt lat="46.90659" lon="6.43387">
        <ele>1169.1</ele>
        <time>2015-06-28T07:25:52Z</time>
      </trkpt>
      <trkpt lat="46.90659" lon="6.43385">
        <ele>1169.1</ele>
        <time>2015-06-28T07:25:54Z</time>
      </trkpt>
      <trkpt lat="46.90657" lon="6.43379">
        <ele>1169.1</ele>
        <time>2015-06-28T07:26:00Z</time>
      </trkpt>
      <trkpt lat="46.90654" lon="6.43373">
        <ele>1168.62</ele>
        <time>2015-06-28T07:26:04Z</time>
      </trkpt>
      <trkpt lat="46.90647" lon="6.43361">
        <ele>1168.14</ele>
        <time>2015-06-28T07:26:15Z</time>
      </trkpt>
      <trkpt lat="46.90646" lon="6.43361">
        <ele>1167.66</ele>
        <time>2015-06-28T07:26:44Z</time>
      </trkpt>
      <trkpt lat="46.90645" lon="6.4336">
        <ele>1167.66</ele>
        <time>2015-06-28T07:27:06Z</time>
      </trkpt>
      <trkpt lat="46.90646" lon="6.4336">
        <ele>1167.66</ele>
        <time>2015-06-28T07:27:32Z</time>
      </trkpt>
      <trkpt lat="46.90645" lon="6.4336">
        <ele>1167.66</ele>
        <time>2015-06-28T07:27:51Z</time>
      </trkpt>
      <trkpt lat="46.90644" lon="6.43359">
        <ele>1167.66</ele>
        <time>2015-06-28T07:28:18Z</time>
      </trkpt>
      <trkpt lat="46.90643" lon="6.43359">
        <ele>1168.14</ele>
        <time>2015-06-28T07:28:46Z</time>
      </trkpt>
      <trkpt lat="46.90644" lon="6.43359">
        <ele>1163.81</ele>
        <time>2015-06-28T07:29:00Z</time>
      </trkpt>
      <trkpt lat="46.90644" lon="6.43359">
        <ele>1168.62</ele>
        <time>2015-06-28T07:29:01Z</time>
      </trkpt>
      <trkpt lat="46.90644" lon="6.43359">
        <ele>1168.62</ele>
        <time>2015-06-28T07:29:02Z</time>
      </trkpt>
      <trkpt lat="46.90644" lon="6.43359">
        <ele>1177.75</ele>
        <time>2015-06-28T07:29:04Z</time>
      </trkpt>
      <trkpt lat="46.90644" lon="6.43359">
        <ele>1168.14</ele>
        <time>2015-06-28T07:29:05Z</time>
      </trkpt>
      <trkpt lat="46.90644" lon="6.43359">
        <ele>1174.87</ele>
        <time>2015-06-28T07:29:13Z</time>
      </trkpt>
      <trkpt lat="46.90644" lon="6.43359">
        <ele>1174.87</ele>
        <time>2015-06-28T07:29:14Z</time>
      </trkpt>
      <trkpt lat="46.90644" lon="6.43359">
        <ele>1161.89</ele>
        <time>2015-06-28T07:29:16Z</time>
      </trkpt>
      <trkpt lat="46.90644" lon="6.43359">
        <ele>1173.43</ele>
        <time>2015-06-28T07:29:17Z</time>
      </trkpt>
      <trkpt lat="46.90644" lon="6.43359">
        <ele>1168.14</ele>
        <time>2015-06-28T07:29:18Z</time>
      </trkpt>
      <trkpt lat="46.90644" lon="6.43359">
        <ele>1173.43</ele>
        <time>2015-06-28T07:29:19Z</time>
      </trkpt>
      <trkpt lat="46.90644" lon="6.43359">
        <ele>1168.14</ele>
        <time>2015-06-28T07:29:20Z</time>
      </trkpt>
      <trkpt lat="46.90644" lon="6.43359">
        <ele>1173.43</ele>
        <time>2015-06-28T07:29:24Z</time>
      </trkpt>
      <trkpt lat="46.90644" lon="6.43359">
        <ele>1164.77</ele>
        <time>2015-06-28T07:29:25Z</time>
      </trkpt>
      <trkpt lat="46.90644" lon="6.43359">
        <ele>1174.87</ele>
        <time>2015-06-28T07:29:26Z</time>
      </trkpt>
      <trkpt lat="46.90644" lon="6.43359">
        <ele>1168.14</ele>
        <time>2015-06-28T07:29:27Z</time>
      </trkpt>
      <trkpt lat="46.90644" lon="6.43359">
        <ele>1162.37</ele>
        <time>2015-06-28T07:29:30Z</time>
      </trkpt>
      <trkpt lat="46.90644" lon="6.43359">
        <ele>1168.62</ele>
        <time>2015-06-28T07:29:31Z</time>
      </trkpt>
      <trkpt lat="46.90643" lon="6.43359">
        <ele>1168.14</ele>
        <time>2015-06-28T07:29:58Z</time>
      </trkpt>
      <trkpt lat="46.90643" lon="6.43359">
        <ele>1166.22</ele>
        <time>2015-06-28T07:30:15Z</time>
      </trkpt>
      <trkpt lat="46.90643" lon="6.43358">
        <ele>1167.66</ele>
        <time>2015-06-28T07:30:35Z</time>
      </trkpt>
      <trkpt lat="46.90635" lon="6.43349">
        <ele>1167.66</ele>
        <time>2015-06-28T07:30:52Z</time>
      </trkpt>
      <trkpt lat="46.90606" lon="6.43314">
        <ele>1166.22</ele>
        <time>2015-06-28T07:31:03Z</time>
      </trkpt>
      <trkpt lat="46.90591" lon="6.43296">
        <ele>1164.77</ele>
        <time>2015-06-28T07:31:06Z</time>
      </trkpt>
      <trkpt lat="46.90572" lon="6.43276">
        <ele>1162.85</ele>
        <time>2015-06-28T07:31:09Z</time>
      </trkpt>
      <trkpt lat="46.90543" lon="6.43239">
        <ele>1160.93</ele>
        <time>2015-06-28T07:31:14Z</time>
      </trkpt>
      <trkpt lat="46.90537" lon="6.43232">
        <ele>1159.97</ele>
        <time>2015-06-28T07:31:15Z</time>
      </trkpt>
      <trkpt lat="46.90515" lon="6.43206">
        <ele>1156.6</ele>
        <time>2015-06-28T07:31:18Z</time>
      </trkpt>
      <trkpt lat="46.90481" lon="6.43167">
        <ele>1153.24</ele>
        <time>2015-06-28T07:31:22Z</time>
      </trkpt>
      <trkpt lat="46.90434" lon="6.43113">
        <ele>1149.39</ele>
        <time>2015-06-28T07:31:27Z</time>
      </trkpt>
      <trkpt lat="46.90376" lon="6.43047">
        <ele>1146.03</ele>
        <time>2015-06-28T07:31:33Z</time>
      </trkpt>
      <trkpt lat="46.90349" lon="6.43013">
        <ele>1144.59</ele>
        <time>2015-06-28T07:31:36Z</time>
      </trkpt>
      <trkpt lat="46.90342" lon="6.43002">
        <ele>1145.07</ele>
        <time>2015-06-28T07:31:37Z</time>
      </trkpt>
      <trkpt lat="46.90336" lon="6.4299">
        <ele>1144.11</ele>
        <time>2015-06-28T07:31:38Z</time>
      </trkpt>
      <trkpt lat="46.90284" lon="6.42868">
        <ele>1142.66</ele>
        <time>2015-06-28T07:31:49Z</time>
      </trkpt>
      <trkpt lat="46.90257" lon="6.42802">
        <ele>1141.22</ele>
        <time>2015-06-28T07:31:56Z</time>
      </trkpt>
      <trkpt lat="46.90256" lon="6.42796">
        <ele>1140.74</ele>
        <time>2015-06-28T07:31:57Z</time>
      </trkpt>
      <trkpt lat="46.90256" lon="6.42791">
        <ele>1140.26</ele>
        <time>2015-06-28T07:31:58Z</time>
      </trkpt>
      <trkpt lat="46.90257" lon="6.42786">
        <ele>1141.22</ele>
        <time>2015-06-28T07:31:59Z</time>
      </trkpt>
      <trkpt lat="46.90259" lon="6.42783">
        <ele>1140.26</ele>
        <time>2015-06-28T07:32:00Z</time>
      </trkpt>
      <trkpt lat="46.9028" lon="6.42736">
        <ele>1142.18</ele>
        <time>2015-06-28T07:32:14Z</time>
      </trkpt>
      <trkpt lat="46.90293" lon="6.42709">
        <ele>1143.14</ele>
        <time>2015-06-28T07:32:24Z</time>
      </trkpt>
      <trkpt lat="46.90293" lon="6.42691">
        <ele>1144.11</ele>
        <time>2015-06-28T07:32:35Z</time>
      </trkpt>
      <trkpt lat="46.90297" lon="6.42669">
        <ele>1144.11</ele>
        <time>2015-06-28T07:32:44Z</time>
      </trkpt>
      <trkpt lat="46.90304" lon="6.42648">
        <ele>1144.59</ele>
        <time>2015-06-28T07:32:52Z</time>
      </trkpt>
      <trkpt lat="46.90305" lon="6.42632">
        <ele>1144.59</ele>
        <time>2015-06-28T07:32:57Z</time>
      </trkpt>
      <trkpt lat="46.90301" lon="6.42582">
        <ele>1145.55</ele>
        <time>2015-06-28T07:33:09Z</time>
      </trkpt>
      <trkpt lat="46.90304" lon="6.42537">
        <ele>1146.03</ele>
        <time>2015-06-28T07:33:22Z</time>
      </trkpt>
      <trkpt lat="46.90304" lon="6.42535">
        <ele>1146.03</ele>
        <time>2015-06-28T07:33:23Z</time>
      </trkpt>
      <trkpt lat="46.90308" lon="6.4251">
        <ele>1147.47</ele>
        <time>2015-06-28T07:33:33Z</time>
      </trkpt>
      <trkpt lat="46.9031" lon="6.42502">
        <ele>1148.43</ele>
        <time>2015-06-28T07:33:37Z</time>
      </trkpt>
      <trkpt lat="46.90315" lon="6.42475">
        <ele>1151.32</ele>
        <time>2015-06-28T07:33:51Z</time>
      </trkpt>
      <trkpt lat="46.90316" lon="6.42466">
        <ele>1151.8</ele>
        <time>2015-06-28T07:33:56Z</time>
      </trkpt>
      <trkpt lat="46.90319" lon="6.42438">
        <ele>1153.24</ele>
        <time>2015-06-28T07:34:09Z</time>
      </trkpt>
      <trkpt lat="46.90321" lon="6.42433">
        <ele>1154.2</ele>
        <time>2015-06-28T07:34:11Z</time>
      </trkpt>
      <trkpt lat="46.90325" lon="6.42421">
        <ele>1154.2</ele>
        <time>2015-06-28T07:34:16Z</time>
      </trkpt>
      <trkpt lat="46.90334" lon="6.42393">
        <ele>1155.16</ele>
        <time>2015-06-28T07:34:28Z</time>
      </trkpt>
      <trkpt lat="46.90348" lon="6.42364">
        <ele>1157.56</ele>
        <time>2015-06-28T07:34:41Z</time>
      </trkpt>
      <trkpt lat="46.9035" lon="6.42353">
        <ele>1158.05</ele>
        <time>2015-06-28T07:34:46Z</time>
      </trkpt>
      <trkpt lat="46.90348" lon="6.42342">
        <ele>1159.49</ele>
        <time>2015-06-28T07:34:50Z</time>
      </trkpt>
      <trkpt lat="46.90349" lon="6.42333">
        <ele>1159.49</ele>
        <time>2015-06-28T07:34:54Z</time>
      </trkpt>
      <trkpt lat="46.9035" lon="6.42328">
        <ele>1160.45</ele>
        <time>2015-06-28T07:34:57Z</time>
      </trkpt>
      <trkpt lat="46.90351" lon="6.42325">
        <ele>1160.45</ele>
        <time>2015-06-28T07:34:59Z</time>
      </trkpt>
      <trkpt lat="46.90344" lon="6.42311">
        <ele>1161.41</ele>
        <time>2015-06-28T07:35:06Z</time>
      </trkpt>
      <trkpt lat="46.90343" lon="6.42302">
        <ele>1161.41</ele>
        <time>2015-06-28T07:35:10Z</time>
      </trkpt>
      <trkpt lat="46.9034" lon="6.42295">
        <ele>1161.89</ele>
        <time>2015-06-28T07:35:12Z</time>
      </trkpt>
      <trkpt lat="46.90334" lon="6.4227">
        <ele>1163.33</ele>
        <time>2015-06-28T07:35:22Z</time>
      </trkpt>
      <trkpt lat="46.90333" lon="6.42265">
        <ele>1164.29</ele>
        <time>2015-06-28T07:35:26Z</time>
      </trkpt>
      <trkpt lat="46.90328" lon="6.42242">
        <ele>1165.74</ele>
        <time>2015-06-28T07:35:35Z</time>
      </trkpt>
      <trkpt lat="46.90327" lon="6.42236">
        <ele>1166.22</ele>
        <time>2015-06-28T07:35:38Z</time>
      </trkpt>
      <trkpt lat="46.90327" lon="6.42232">
        <ele>1166.7</ele>
        <time>2015-06-28T07:35:40Z</time>
      </trkpt>
      <trkpt lat="46.90328" lon="6.42221">
        <ele>1168.14</ele>
        <time>2015-06-28T07:35:50Z</time>
      </trkpt>
      <trkpt lat="46.90329" lon="6.42209">
        <ele>1169.1</ele>
        <time>2015-06-28T07:35:56Z</time>
      </trkpt>
      <trkpt lat="46.90333" lon="6.42195">
        <ele>1171.02</ele>
        <time>2015-06-28T07:36:04Z</time>
      </trkpt>
      <trkpt lat="46.90334" lon="6.4217">
        <ele>1171.98</ele>
        <time>2015-06-28T07:36:15Z</time>
      </trkpt>
      <trkpt lat="46.90329" lon="6.42139">
        <ele>1174.39</ele>
        <time>2015-06-28T07:36:27Z</time>
      </trkpt>
      <trkpt lat="46.90328" lon="6.42119">
        <ele>1174.87</ele>
        <time>2015-06-28T07:36:38Z</time>
      </trkpt>
      <trkpt lat="46.90329" lon="6.42117">
        <ele>1175.35</ele>
        <time>2015-06-28T07:36:39Z</time>
      </trkpt>
      <trkpt lat="46.90332" lon="6.42103">
        <ele>1176.31</ele>
        <time>2015-06-28T07:36:45Z</time>
      </trkpt>
      <trkpt lat="46.90334" lon="6.42075">
        <ele>1177.75</ele>
        <time>2015-06-28T07:36:57Z</time>
      </trkpt>
      <trkpt lat="46.90333" lon="6.42056">
        <ele>1179.19</ele>
        <time>2015-06-28T07:37:07Z</time>
      </trkpt>
      <trkpt lat="46.90338" lon="6.42046">
        <ele>1180.64</ele>
        <time>2015-06-28T07:37:14Z</time>
      </trkpt>
      <trkpt lat="46.90341" lon="6.42027">
        <ele>1181.12</ele>
        <time>2015-06-28T07:37:24Z</time>
      </trkpt>
      <trkpt lat="46.90349" lon="6.42015">
        <ele>1184</ele>
        <time>2015-06-28T07:37:34Z</time>
      </trkpt>
      <trkpt lat="46.90356" lon="6.42007">
        <ele>1186.88</ele>
        <time>2015-06-28T07:37:46Z</time>
      </trkpt>
      <trkpt lat="46.90364" lon="6.41996">
        <ele>1188.33</ele>
        <time>2015-06-28T07:37:55Z</time>
      </trkpt>
      <trkpt lat="46.90374" lon="6.4198">
        <ele>1190.73</ele>
        <time>2015-06-28T07:38:05Z</time>
      </trkpt>
      <trkpt lat="46.90382" lon="6.41965">
        <ele>1192.17</ele>
        <time>2015-06-28T07:38:17Z</time>
      </trkpt>
      <trkpt lat="46.90387" lon="6.41957">
        <ele>1193.13</ele>
        <time>2015-06-28T07:38:23Z</time>
      </trkpt>
      <trkpt lat="46.90391" lon="6.41951">
        <ele>1193.13</ele>
        <time>2015-06-28T07:38:25Z</time>
      </trkpt>
      <trkpt lat="46.90398" lon="6.41943">
        <ele>1193.61</ele>
        <time>2015-06-28T07:38:37Z</time>
      </trkpt>
      <trkpt lat="46.90402" lon="6.41942">
        <ele>1193.61</ele>
        <time>2015-06-28T07:39:01Z</time>
      </trkpt>
      <trkpt lat="46.90406" lon="6.41934">
        <ele>1194.58</ele>
        <time>2015-06-28T07:39:12Z</time>
      </trkpt>
      <trkpt lat="46.90408" lon="6.41929">
        <ele>1194.58</ele>
        <time>2015-06-28T07:39:25Z</time>
      </trkpt>
      <trkpt lat="46.90407" lon="6.41928">
        <ele>1195.06</ele>
        <time>2015-06-28T07:39:47Z</time>
      </trkpt>
      <trkpt lat="46.90407" lon="6.41929">
        <ele>1194.58</ele>
        <time>2015-06-28T07:40:15Z</time>
      </trkpt>
      <trkpt lat="46.9041" lon="6.4192">
        <ele>1195.54</ele>
        <time>2015-06-28T07:40:31Z</time>
      </trkpt>
      <trkpt lat="46.9041" lon="6.4192">
        <ele>1196.02</ele>
        <time>2015-06-28T07:40:32Z</time>
      </trkpt>
      <trkpt lat="46.90416" lon="6.41906">
        <ele>1196.5</ele>
        <time>2015-06-28T07:40:42Z</time>
      </trkpt>
      <trkpt lat="46.90425" lon="6.41878">
        <ele>1198.9</ele>
        <time>2015-06-28T07:40:57Z</time>
      </trkpt>
      <trkpt lat="46.90428" lon="6.41842">
        <ele>1200.82</ele>
        <time>2015-06-28T07:41:13Z</time>
      </trkpt>
      <trkpt lat="46.90434" lon="6.4181">
        <ele>1202.75</ele>
        <time>2015-06-28T07:41:29Z</time>
      </trkpt>
      <trkpt lat="46.90437" lon="6.41794">
        <ele>1203.71</ele>
        <time>2015-06-28T07:41:37Z</time>
      </trkpt>
      <trkpt lat="46.9044" lon="6.41787">
        <ele>1204.67</ele>
        <time>2015-06-28T07:41:41Z</time>
      </trkpt>
      <trkpt lat="46.90441" lon="6.4178">
        <ele>1204.67</ele>
        <time>2015-06-28T07:41:45Z</time>
      </trkpt>
      <trkpt lat="46.90442" lon="6.41771">
        <ele>1205.63</ele>
        <time>2015-06-28T07:41:49Z</time>
      </trkpt>
      <trkpt lat="46.90443" lon="6.41757">
        <ele>1206.59</ele>
        <time>2015-06-28T07:41:56Z</time>
      </trkpt>
      <trkpt lat="46.90445" lon="6.41736">
        <ele>1209</ele>
        <time>2015-06-28T07:42:05Z</time>
      </trkpt>
      <trkpt lat="46.90448" lon="6.41719">
        <ele>1209.96</ele>
        <time>2015-06-28T07:42:14Z</time>
      </trkpt>
      <trkpt lat="46.90451" lon="6.41712">
        <ele>1210.44</ele>
        <time>2015-06-28T07:42:18Z</time>
      </trkpt>
      <trkpt lat="46.90463" lon="6.41687">
        <ele>1213.32</ele>
        <time>2015-06-28T07:42:35Z</time>
      </trkpt>
      <trkpt lat="46.90477" lon="6.41657">
        <ele>1214.28</ele>
        <time>2015-06-28T07:42:51Z</time>
      </trkpt>
      <trkpt lat="46.90494" lon="6.41619">
        <ele>1213.8</ele>
        <time>2015-06-28T07:43:05Z</time>
      </trkpt>
      <trkpt lat="46.90517" lon="6.41593">
        <ele>1212.84</ele>
        <time>2015-06-28T07:43:18Z</time>
      </trkpt>
      <trkpt lat="46.90534" lon="6.41578">
        <ele>1214.76</ele>
        <time>2015-06-28T07:43:32Z</time>
      </trkpt>
      <trkpt lat="46.90543" lon="6.41573">
        <ele>1216.21</ele>
        <time>2015-06-28T07:43:39Z</time>
      </trkpt>
      <trkpt lat="46.90549" lon="6.41565">
        <ele>1217.17</ele>
        <time>2015-06-28T07:43:49Z</time>
      </trkpt>
      <trkpt lat="46.90552" lon="6.41563">
        <ele>1217.17</ele>
        <time>2015-06-28T07:43:52Z</time>
      </trkpt>
      <trkpt lat="46.90557" lon="6.41556">
        <ele>1218.13</ele>
        <time>2015-06-28T07:44:02Z</time>
      </trkpt>
      <trkpt lat="46.90557" lon="6.41551">
        <ele>1218.61</ele>
        <time>2015-06-28T07:44:06Z</time>
      </trkpt>
      <trkpt lat="46.90559" lon="6.41546">
        <ele>1218.61</ele>
        <time>2015-06-28T07:44:09Z</time>
      </trkpt>
      <trkpt lat="46.90569" lon="6.41502">
        <ele>1220.05</ele>
        <time>2015-06-28T07:44:27Z</time>
      </trkpt>
      <trkpt lat="46.90579" lon="6.41469">
        <ele>1221.97</ele>
        <time>2015-06-28T07:44:42Z</time>
      </trkpt>
      <trkpt lat="46.90589" lon="6.41433">
        <ele>1222.45</ele>
        <time>2015-06-28T07:44:57Z</time>
      </trkpt>
      <trkpt lat="46.906" lon="6.41396">
        <ele>1223.42</ele>
        <time>2015-06-28T07:45:11Z</time>
      </trkpt>
      <trkpt lat="46.9061" lon="6.41362">
        <ele>1224.38</ele>
        <time>2015-06-28T07:45:26Z</time>
      </trkpt>
      <trkpt lat="46.90622" lon="6.41325">
        <ele>1225.34</ele>
        <time>2015-06-28T07:45:41Z</time>
      </trkpt>
      <trkpt lat="46.90628" lon="6.41311">
        <ele>1225.82</ele>
        <time>2015-06-28T07:45:47Z</time>
      </trkpt>
      <trkpt lat="46.90636" lon="6.41277">
        <ele>1228.22</ele>
        <time>2015-06-28T07:46:02Z</time>
      </trkpt>
      <trkpt lat="46.90647" lon="6.41241">
        <ele>1228.22</ele>
        <time>2015-06-28T07:46:18Z</time>
      </trkpt>
      <trkpt lat="46.90649" lon="6.41211">
        <ele>1228.22</ele>
        <time>2015-06-28T07:46:30Z</time>
      </trkpt>
      <trkpt lat="46.90647" lon="6.41167">
        <ele>1228.7</ele>
        <time>2015-06-28T07:46:45Z</time>
      </trkpt>
      <trkpt lat="46.90651" lon="6.41124">
        <ele>1229.18</ele>
        <time>2015-06-28T07:47:01Z</time>
      </trkpt>
      <trkpt lat="46.90652" lon="6.41119">
        <ele>1229.66</ele>
        <time>2015-06-28T07:47:03Z</time>
      </trkpt>
      <trkpt lat="46.90653" lon="6.4111">
        <ele>1229.66</ele>
        <time>2015-06-28T07:47:07Z</time>
      </trkpt>
      <trkpt lat="46.90647" lon="6.41076">
        <ele>1228.7</ele>
        <time>2015-06-28T07:47:19Z</time>
      </trkpt>
      <trkpt lat="46.90641" lon="6.41061">
        <ele>1228.7</ele>
        <time>2015-06-28T07:47:26Z</time>
      </trkpt>
      <trkpt lat="46.90639" lon="6.41058">
        <ele>1227.74</ele>
        <time>2015-06-28T07:47:38Z</time>
      </trkpt>
      <trkpt lat="46.90639" lon="6.41058">
        <ele>1228.22</ele>
        <time>2015-06-28T07:48:05Z</time>
      </trkpt>
      <trkpt lat="46.90638" lon="6.41058">
        <ele>1228.22</ele>
        <time>2015-06-28T07:48:34Z</time>
      </trkpt>
      <trkpt lat="46.90638" lon="6.41058">
        <ele>1228.22</ele>
        <time>2015-06-28T07:49:00Z</time>
      </trkpt>
      <trkpt lat="46.90638" lon="6.41057">
        <ele>1226.78</ele>
        <time>2015-06-28T07:49:16Z</time>
      </trkpt>
      <trkpt lat="46.90638" lon="6.41058">
        <ele>1228.22</ele>
        <time>2015-06-28T07:49:18Z</time>
      </trkpt>
      <trkpt lat="46.90637" lon="6.41057">
        <ele>1228.22</ele>
        <time>2015-06-28T07:49:39Z</time>
      </trkpt>
      <trkpt lat="46.90637" lon="6.41057">
        <ele>1228.7</ele>
        <time>2015-06-28T07:50:08Z</time>
      </trkpt>
      <trkpt lat="46.90637" lon="6.41057">
        <ele>1228.7</ele>
        <time>2015-06-28T07:50:34Z</time>
      </trkpt>
      <trkpt lat="46.90636" lon="6.41058">
        <ele>1228.7</ele>
        <time>2015-06-28T07:51:03Z</time>
      </trkpt>
      <trkpt lat="46.90637" lon="6.41058">
        <ele>1228.22</ele>
        <time>2015-06-28T07:51:36Z</time>
      </trkpt>
      <trkpt lat="46.90637" lon="6.41058">
        <ele>1228.22</ele>
        <time>2015-06-28T07:52:11Z</time>
      </trkpt>
      <trkpt lat="46.90629" lon="6.41033">
        <ele>1227.74</ele>
        <time>2015-06-28T07:52:24Z</time>
      </trkpt>
      <trkpt lat="46.90598" lon="6.4096">
        <ele>1225.82</ele>
        <time>2015-06-28T07:52:38Z</time>
      </trkpt>
      <trkpt lat="46.90591" lon="6.40947">
        <ele>1225.82</ele>
        <time>2015-06-28T07:52:40Z</time>
      </trkpt>
      <trkpt lat="46.90586" lon="6.40942">
        <ele>1225.34</ele>
        <time>2015-06-28T07:52:41Z</time>
      </trkpt>
      <trkpt lat="46.90582" lon="6.40936">
        <ele>1224.86</ele>
        <time>2015-06-28T07:52:42Z</time>
      </trkpt>
      <trkpt lat="46.90576" lon="6.40931">
        <ele>1224.86</ele>
        <time>2015-06-28T07:52:43Z</time>
      </trkpt>
      <trkpt lat="46.9057" lon="6.40926">
        <ele>1224.38</ele>
        <time>2015-06-28T07:52:44Z</time>
      </trkpt>
      <trkpt lat="46.90564" lon="6.40921">
        <ele>1223.9</ele>
        <time>2015-06-28T07:52:45Z</time>
      </trkpt>
      <trkpt lat="46.90557" lon="6.40918">
        <ele>1223.42</ele>
        <time>2015-06-28T07:52:46Z</time>
      </trkpt>
      <trkpt lat="46.9055" lon="6.40914">
        <ele>1223.42</ele>
        <time>2015-06-28T07:52:47Z</time>
      </trkpt>
      <trkpt lat="46.90543" lon="6.40912">
        <ele>1223.42</ele>
        <time>2015-06-28T07:52:48Z</time>
      </trkpt>
      <trkpt lat="46.90489" lon="6.40895">
        <ele>1220.05</ele>
        <time>2015-06-28T07:52:55Z</time>
      </trkpt>
      <trkpt lat="46.90481" lon="6.40891">
        <ele>1220.05</ele>
        <time>2015-06-28T07:52:56Z</time>
      </trkpt>
      <trkpt lat="46.90474" lon="6.40885">
        <ele>1219.57</ele>
        <time>2015-06-28T07:52:57Z</time>
      </trkpt>
      <trkpt lat="46.90467" lon="6.40879">
        <ele>1219.09</ele>
        <time>2015-06-28T07:52:58Z</time>
      </trkpt>
      <trkpt lat="46.90461" lon="6.40871">
        <ele>1219.09</ele>
        <time>2015-06-28T07:52:59Z</time>
      </trkpt>
      <trkpt lat="46.90454" lon="6.40863">
        <ele>1218.61</ele>
        <time>2015-06-28T07:53:00Z</time>
      </trkpt>
      <trkpt lat="46.90448" lon="6.40854">
        <ele>1218.13</ele>
        <time>2015-06-28T07:53:01Z</time>
      </trkpt>
      <trkpt lat="46.90442" lon="6.40844">
        <ele>1218.13</ele>
        <time>2015-06-28T07:53:02Z</time>
      </trkpt>
      <trkpt lat="46.90421" lon="6.40817">
        <ele>1216.69</ele>
        <time>2015-06-28T07:53:05Z</time>
      </trkpt>
      <trkpt lat="46.90392" lon="6.40781">
        <ele>1214.76</ele>
        <time>2015-06-28T07:53:09Z</time>
      </trkpt>
      <trkpt lat="46.90385" lon="6.40771">
        <ele>1214.28</ele>
        <time>2015-06-28T07:53:10Z</time>
      </trkpt>
      <trkpt lat="46.90378" lon="6.40761">
        <ele>1214.28</ele>
        <time>2015-06-28T07:53:11Z</time>
      </trkpt>
      <trkpt lat="46.90371" lon="6.40751">
        <ele>1213.8</ele>
        <time>2015-06-28T07:53:12Z</time>
      </trkpt>
      <trkpt lat="46.90354" lon="6.40735">
        <ele>1212.36</ele>
        <time>2015-06-28T07:53:14Z</time>
      </trkpt>
      <trkpt lat="46.90345" lon="6.40728">
        <ele>1211.88</ele>
        <time>2015-06-28T07:53:15Z</time>
      </trkpt>
      <trkpt lat="46.90288" lon="6.407">
        <ele>1209.96</ele>
        <time>2015-06-28T07:53:21Z</time>
      </trkpt>
      <trkpt lat="46.90241" lon="6.40675">
        <ele>1207.55</ele>
        <time>2015-06-28T07:53:26Z</time>
      </trkpt>
      <trkpt lat="46.90213" lon="6.40657">
        <ele>1206.11</ele>
        <time>2015-06-28T07:53:29Z</time>
      </trkpt>
      <trkpt lat="46.90161" lon="6.40612">
        <ele>1203.23</ele>
        <time>2015-06-28T07:53:35Z</time>
      </trkpt>
      <trkpt lat="46.90112" lon="6.40559">
        <ele>1200.34</ele>
        <time>2015-06-28T07:53:41Z</time>
      </trkpt>
      <trkpt lat="46.90081" lon="6.40516">
        <ele>1198.42</ele>
        <time>2015-06-28T07:53:45Z</time>
      </trkpt>
      <trkpt lat="46.90067" lon="6.40493">
        <ele>1197.46</ele>
        <time>2015-06-28T07:53:47Z</time>
      </trkpt>
      <trkpt lat="46.90055" lon="6.40467">
        <ele>1196.98</ele>
        <time>2015-06-28T07:53:49Z</time>
      </trkpt>
      <trkpt lat="46.90038" lon="6.40425">
        <ele>1195.06</ele>
        <time>2015-06-28T07:53:52Z</time>
      </trkpt>
      <trkpt lat="46.90034" lon="6.40411">
        <ele>1195.06</ele>
        <time>2015-06-28T07:53:53Z</time>
      </trkpt>
      <trkpt lat="46.90009" lon="6.40346">
        <ele>1192.17</ele>
        <time>2015-06-28T07:53:58Z</time>
      </trkpt>
      <trkpt lat="46.8999" lon="6.40287">
        <ele>1189.29</ele>
        <time>2015-06-28T07:54:04Z</time>
      </trkpt>
      <trkpt lat="46.89992" lon="6.40279">
        <ele>1189.77</ele>
        <time>2015-06-28T07:54:05Z</time>
      </trkpt>
      <trkpt lat="46.9" lon="6.40275">
        <ele>1190.25</ele>
        <time>2015-06-28T07:54:07Z</time>
      </trkpt>
      <trkpt lat="46.9001" lon="6.40258">
        <ele>1191.21</ele>
        <time>2015-06-28T07:54:12Z</time>
      </trkpt>
      <trkpt lat="46.90013" lon="6.40254">
        <ele>1191.21</ele>
        <time>2015-06-28T07:54:13Z</time>
      </trkpt>
      <trkpt lat="46.90017" lon="6.40241">
        <ele>1190.73</ele>
        <time>2015-06-28T07:54:16Z</time>
      </trkpt>
      <trkpt lat="46.90014" lon="6.40237">
        <ele>1190.25</ele>
        <time>2015-06-28T07:54:17Z</time>
      </trkpt>
      <trkpt lat="46.9001" lon="6.40235">
        <ele>1190.73</ele>
        <time>2015-06-28T07:54:18Z</time>
      </trkpt>
      <trkpt lat="46.90006" lon="6.40231">
        <ele>1189.77</ele>
        <time>2015-06-28T07:54:19Z</time>
      </trkpt>
      <trkpt lat="46.90003" lon="6.40226">
        <ele>1189.77</ele>
        <time>2015-06-28T07:54:20Z</time>
      </trkpt>
      <trkpt lat="46.9" lon="6.40221">
        <ele>1189.77</ele>
        <time>2015-06-28T07:54:21Z</time>
      </trkpt>
      <trkpt lat="46.89997" lon="6.40216">
        <ele>1189.29</ele>
        <time>2015-06-28T07:54:22Z</time>
      </trkpt>
      <trkpt lat="46.8999" lon="6.40208">
        <ele>1189.29</ele>
        <time>2015-06-28T07:54:24Z</time>
      </trkpt>
      <trkpt lat="46.89987" lon="6.40206">
        <ele>1189.29</ele>
        <time>2015-06-28T07:54:25Z</time>
      </trkpt>
      <trkpt lat="46.89984" lon="6.40206">
        <ele>1189.29</ele>
        <time>2015-06-28T07:54:26Z</time>
      </trkpt>
      <trkpt lat="46.89981" lon="6.40206">
        <ele>1189.29</ele>
        <time>2015-06-28T07:54:27Z</time>
      </trkpt>
      <trkpt lat="46.89979" lon="6.40205">
        <ele>1188.81</ele>
        <time>2015-06-28T07:54:28Z</time>
      </trkpt>
      <trkpt lat="46.89978" lon="6.40205">
        <ele>1188.81</ele>
        <time>2015-06-28T07:54:29Z</time>
      </trkpt>
      <trkpt lat="46.89976" lon="6.40204">
        <ele>1188.33</ele>
        <time>2015-06-28T07:54:30Z</time>
      </trkpt>
      <trkpt lat="46.89974" lon="6.40204">
        <ele>1188.33</ele>
        <time>2015-06-28T07:54:31Z</time>
      </trkpt>
      <trkpt lat="46.89971" lon="6.40204">
        <ele>1188.81</ele>
        <time>2015-06-28T07:54:32Z</time>
      </trkpt>
      <trkpt lat="46.89952" lon="6.40195">
        <ele>1187.37</ele>
        <time>2015-06-28T07:54:37Z</time>
      </trkpt>
      <trkpt lat="46.89948" lon="6.40191">
        <ele>1186.88</ele>
        <time>2015-06-28T07:54:38Z</time>
      </trkpt>
      <trkpt lat="46.89884" lon="6.40134">
        <ele>1185.44</ele>
        <time>2015-06-28T07:54:51Z</time>
      </trkpt>
      <trkpt lat="46.89863" lon="6.40115">
        <ele>1185.44</ele>
        <time>2015-06-28T07:54:56Z</time>
      </trkpt>
      <trkpt lat="46.89793" lon="6.40055">
        <ele>1185.44</ele>
        <time>2015-06-28T07:55:12Z</time>
      </trkpt>
      <trkpt lat="46.89736" lon="6.39993">
        <ele>1185.44</ele>
        <time>2015-06-28T07:55:26Z</time>
      </trkpt>
      <trkpt lat="46.89678" lon="6.39903">
        <ele>1184</ele>
        <time>2015-06-28T07:55:43Z</time>
      </trkpt>
      <trkpt lat="46.89641" lon="6.39851">
        <ele>1180.16</ele>
        <time>2015-06-28T07:55:52Z</time>
      </trkpt>
      <trkpt lat="46.89585" lon="6.39763">
        <ele>1180.64</ele>
        <time>2015-06-28T07:56:06Z</time>
      </trkpt>
      <trkpt lat="46.89576" lon="6.39752">
        <ele>1179.67</ele>
        <time>2015-06-28T07:56:08Z</time>
      </trkpt>
      <trkpt lat="46.89544" lon="6.39699">
        <ele>1177.27</ele>
        <time>2015-06-28T07:56:15Z</time>
      </trkpt>
      <trkpt lat="46.89514" lon="6.39645">
        <ele>1173.91</ele>
        <time>2015-06-28T07:56:21Z</time>
      </trkpt>
      <trkpt lat="46.89509" lon="6.39635">
        <ele>1173.91</ele>
        <time>2015-06-28T07:56:22Z</time>
      </trkpt>
      <trkpt lat="46.89484" lon="6.3958">
        <ele>1171.02</ele>
        <time>2015-06-28T07:56:27Z</time>
      </trkpt>
      <trkpt lat="46.89468" lon="6.39545">
        <ele>1169.58</ele>
        <time>2015-06-28T07:56:30Z</time>
      </trkpt>
      <trkpt lat="46.89442" lon="6.39481">
        <ele>1167.18</ele>
        <time>2015-06-28T07:56:35Z</time>
      </trkpt>
      <trkpt lat="46.89429" lon="6.39454">
        <ele>1165.74</ele>
        <time>2015-06-28T07:56:37Z</time>
      </trkpt>
      <trkpt lat="46.89398" lon="6.39407">
        <ele>1162.85</ele>
        <time>2015-06-28T07:56:41Z</time>
      </trkpt>
      <trkpt lat="46.89379" lon="6.39387">
        <ele>1162.37</ele>
        <time>2015-06-28T07:56:43Z</time>
      </trkpt>
      <trkpt lat="46.89359" lon="6.39368">
        <ele>1161.41</ele>
        <time>2015-06-28T07:56:45Z</time>
      </trkpt>
      <trkpt lat="46.8935" lon="6.39357">
        <ele>1160.45</ele>
        <time>2015-06-28T07:56:46Z</time>
      </trkpt>
      <trkpt lat="46.89342" lon="6.39345">
        <ele>1159.49</ele>
        <time>2015-06-28T07:56:47Z</time>
      </trkpt>
      <trkpt lat="46.89336" lon="6.39332">
        <ele>1159.97</ele>
        <time>2015-06-28T07:56:48Z</time>
      </trkpt>
      <trkpt lat="46.89331" lon="6.39318">
        <ele>1159.97</ele>
        <time>2015-06-28T07:56:49Z</time>
      </trkpt>
      <trkpt lat="46.89319" lon="6.39284">
        <ele>1162.37</ele>
        <time>2015-06-28T07:56:52Z</time>
      </trkpt>
      <trkpt lat="46.89315" lon="6.39276">
        <ele>1162.37</ele>
        <time>2015-06-28T07:56:53Z</time>
      </trkpt>
      <trkpt lat="46.89305" lon="6.39261">
        <ele>1163.81</ele>
        <time>2015-06-28T07:56:55Z</time>
      </trkpt>
      <trkpt lat="46.89281" lon="6.39229">
        <ele>1166.22</ele>
        <time>2015-06-28T07:57:00Z</time>
      </trkpt>
      <trkpt lat="46.89277" lon="6.39222">
        <ele>1166.7</ele>
        <time>2015-06-28T07:57:01Z</time>
      </trkpt>
      <trkpt lat="46.89266" lon="6.39212">
        <ele>1167.18</ele>
        <time>2015-06-28T07:57:05Z</time>
      </trkpt>
      <trkpt lat="46.89265" lon="6.39213">
        <ele>1167.18</ele>
        <time>2015-06-28T07:57:06Z</time>
      </trkpt>
      <trkpt lat="46.89258" lon="6.39223">
        <ele>1167.66</ele>
        <time>2015-06-28T07:57:16Z</time>
      </trkpt>
      <trkpt lat="46.89256" lon="6.39225">
        <ele>1167.66</ele>
        <time>2015-06-28T07:57:42Z</time>
      </trkpt>
      <trkpt lat="46.89261" lon="6.39221">
        <ele>1167.18</ele>
        <time>2015-06-28T07:57:53Z</time>
      </trkpt>
      <trkpt lat="46.89263" lon="6.39218">
        <ele>1167.66</ele>
        <time>2015-06-28T07:58:04Z</time>
      </trkpt>
      <trkpt lat="46.89263" lon="6.39219">
        <ele>1167.18</ele>
        <time>2015-06-28T07:58:18Z</time>
      </trkpt>
      <trkpt lat="46.89261" lon="6.3921">
        <ele>1167.18</ele>
        <time>2015-06-28T07:58:23Z</time>
      </trkpt>
      <trkpt lat="46.8923" lon="6.39174">
        <ele>1165.74</ele>
        <time>2015-06-28T07:58:35Z</time>
      </trkpt>
      <trkpt lat="46.89212" lon="6.39154">
        <ele>1165.26</ele>
        <time>2015-06-28T07:58:40Z</time>
      </trkpt>
      <trkpt lat="46.89196" lon="6.39135">
        <ele>1163.81</ele>
        <time>2015-06-28T07:58:48Z</time>
      </trkpt>
      <trkpt lat="46.89165" lon="6.39095">
        <ele>1162.37</ele>
        <time>2015-06-28T07:58:58Z</time>
      </trkpt>
      <trkpt lat="46.8916" lon="6.3909">
        <ele>1162.37</ele>
        <time>2015-06-28T07:58:59Z</time>
      </trkpt>
      <trkpt lat="46.89141" lon="6.39068">
        <ele>1161.41</ele>
        <time>2015-06-28T07:59:03Z</time>
      </trkpt>
      <trkpt lat="46.89138" lon="6.39061">
        <ele>1160.93</ele>
        <time>2015-06-28T07:59:04Z</time>
      </trkpt>
      <trkpt lat="46.89131" lon="6.39045">
        <ele>1159.97</ele>
        <time>2015-06-28T07:59:06Z</time>
      </trkpt>
      <trkpt lat="46.89129" lon="6.39037">
        <ele>1159.49</ele>
        <time>2015-06-28T07:59:07Z</time>
      </trkpt>
      <trkpt lat="46.89127" lon="6.39028">
        <ele>1159.01</ele>
        <time>2015-06-28T07:59:08Z</time>
      </trkpt>
      <trkpt lat="46.89126" lon="6.39018">
        <ele>1158.05</ele>
        <time>2015-06-28T07:59:09Z</time>
      </trkpt>
      <trkpt lat="46.89126" lon="6.39009">
        <ele>1157.08</ele>
        <time>2015-06-28T07:59:10Z</time>
      </trkpt>
      <trkpt lat="46.89124" lon="6.39">
        <ele>1157.08</ele>
        <time>2015-06-28T07:59:11Z</time>
      </trkpt>
      <trkpt lat="46.89121" lon="6.38993">
        <ele>1156.6</ele>
        <time>2015-06-28T07:59:12Z</time>
      </trkpt>
      <trkpt lat="46.89118" lon="6.38989">
        <ele>1156.12</ele>
        <time>2015-06-28T07:59:13Z</time>
      </trkpt>
      <trkpt lat="46.89115" lon="6.38986">
        <ele>1156.12</ele>
        <time>2015-06-28T07:59:14Z</time>
      </trkpt>
      <trkpt lat="46.89112" lon="6.38984">
        <ele>1155.64</ele>
        <time>2015-06-28T07:59:15Z</time>
      </trkpt>
      <trkpt lat="46.89109" lon="6.38983">
        <ele>1155.64</ele>
        <time>2015-06-28T07:59:16Z</time>
      </trkpt>
      <trkpt lat="46.89107" lon="6.38982">
        <ele>1155.16</ele>
        <time>2015-06-28T07:59:17Z</time>
      </trkpt>
      <trkpt lat="46.89106" lon="6.3898">
        <ele>1154.68</ele>
        <time>2015-06-28T07:59:18Z</time>
      </trkpt>
      <trkpt lat="46.89107" lon="6.38978">
        <ele>1155.16</ele>
        <time>2015-06-28T07:59:27Z</time>
      </trkpt>
      <trkpt lat="46.89108" lon="6.3898">
        <ele>1155.16</ele>
        <time>2015-06-28T07:59:59Z</time>
      </trkpt>
      <trkpt lat="46.89105" lon="6.38979">
        <ele>1154.68</ele>
        <time>2015-06-28T08:00:25Z</time>
      </trkpt>
      <trkpt lat="46.89104" lon="6.38979">
        <ele>1154.2</ele>
        <time>2015-06-28T08:00:26Z</time>
      </trkpt>
      <trkpt lat="46.89102" lon="6.38977">
        <ele>1154.2</ele>
        <time>2015-06-28T08:00:28Z</time>
      </trkpt>
      <trkpt lat="46.89101" lon="6.38977">
        <ele>1154.2</ele>
        <time>2015-06-28T08:00:29Z</time>
      </trkpt>
      <trkpt lat="46.89115" lon="6.38989">
        <ele>1155.64</ele>
        <time>2015-06-28T08:00:38Z</time>
      </trkpt>
      <trkpt lat="46.89116" lon="6.3899">
        <ele>1155.64</ele>
        <time>2015-06-28T08:00:39Z</time>
      </trkpt>
      <trkpt lat="46.89122" lon="6.39022">
        <ele>1158.05</ele>
        <time>2015-06-28T08:00:52Z</time>
      </trkpt>
      <trkpt lat="46.89137" lon="6.39058">
        <ele>1159.97</ele>
        <time>2015-06-28T08:01:05Z</time>
      </trkpt>
      <trkpt lat="46.8917" lon="6.39098">
        <ele>1162.37</ele>
        <time>2015-06-28T08:01:23Z</time>
      </trkpt>
      <trkpt lat="46.89195" lon="6.39132">
        <ele>1163.81</ele>
        <time>2015-06-28T08:01:37Z</time>
      </trkpt>
      <trkpt lat="46.89196" lon="6.39135">
        <ele>1163.33</ele>
        <time>2015-06-28T08:01:38Z</time>
      </trkpt>
      <trkpt lat="46.89187" lon="6.3913">
        <ele>1164.77</ele>
        <time>2015-06-28T08:01:44Z</time>
      </trkpt>
      <trkpt lat="46.89159" lon="6.39108">
        <ele>1167.18</ele>
        <time>2015-06-28T08:02:00Z</time>
      </trkpt>
      <trkpt lat="46.89142" lon="6.39123">
        <ele>1169.1</ele>
        <time>2015-06-28T08:02:10Z</time>
      </trkpt>
      <trkpt lat="46.8912" lon="6.39093">
        <ele>1169.1</ele>
        <time>2015-06-28T08:02:23Z</time>
      </trkpt>
      <trkpt lat="46.8911" lon="6.39085">
        <ele>1168.62</ele>
        <time>2015-06-28T08:02:34Z</time>
      </trkpt>
      <trkpt lat="46.89109" lon="6.39085">
        <ele>1168.62</ele>
        <time>2015-06-28T08:02:52Z</time>
      </trkpt>
      <trkpt lat="46.89106" lon="6.39088">
        <ele>1169.1</ele>
        <time>2015-06-28T08:03:04Z</time>
      </trkpt>
      <trkpt lat="46.89106" lon="6.39088">
        <ele>1168.62</ele>
        <time>2015-06-28T08:03:05Z</time>
      </trkpt>
      <trkpt lat="46.89104" lon="6.39093">
        <ele>1168.62</ele>
        <time>2015-06-28T08:03:08Z</time>
      </trkpt>
      <trkpt lat="46.89096" lon="6.39105">
        <ele>1168.62</ele>
        <time>2015-06-28T08:03:14Z</time>
      </trkpt>
      <trkpt lat="46.89097" lon="6.39119">
        <ele>1169.58</ele>
        <time>2015-06-28T08:03:26Z</time>
      </trkpt>
      <trkpt lat="46.89097" lon="6.39117">
        <ele>1169.58</ele>
        <time>2015-06-28T08:03:48Z</time>
      </trkpt>
      <trkpt lat="46.89094" lon="6.3911">
        <ele>1168.62</ele>
        <time>2015-06-28T08:04:00Z</time>
      </trkpt>
      <trkpt lat="46.89092" lon="6.39106">
        <ele>1168.62</ele>
        <time>2015-06-28T08:04:19Z</time>
      </trkpt>
      <trkpt lat="46.89092" lon="6.39106">
        <ele>1169.1</ele>
        <time>2015-06-28T08:04:38Z</time>
      </trkpt>
      <trkpt lat="46.89091" lon="6.39107">
        <ele>1169.58</ele>
        <time>2015-06-28T08:05:02Z</time>
      </trkpt>
      <trkpt lat="46.89091" lon="6.39105">
        <ele>1169.58</ele>
        <time>2015-06-28T08:05:37Z</time>
      </trkpt>
      <trkpt lat="46.89103" lon="6.39093">
        <ele>1169.58</ele>
        <time>2015-06-28T08:05:53Z</time>
      </trkpt>
      <trkpt lat="46.89106" lon="6.39091">
        <ele>1169.1</ele>
        <time>2015-06-28T08:06:09Z</time>
      </trkpt>
      <trkpt lat="46.89107" lon="6.3909">
        <ele>1169.58</ele>
        <time>2015-06-28T08:06:26Z</time>
      </trkpt>
      <trkpt lat="46.89108" lon="6.3909">
        <ele>1169.58</ele>
        <time>2015-06-28T08:06:59Z</time>
      </trkpt>
      <trkpt lat="46.8911" lon="6.39092">
        <ele>1169.58</ele>
        <time>2015-06-28T08:07:28Z</time>
      </trkpt>
      <trkpt lat="46.8911" lon="6.39093">
        <ele>1169.58</ele>
        <time>2015-06-28T08:07:56Z</time>
      </trkpt>
      <trkpt lat="46.89113" lon="6.3909">
        <ele>1170.06</ele>
        <time>2015-06-28T08:08:13Z</time>
      </trkpt>
      <trkpt lat="46.89115" lon="6.39091">
        <ele>1169.58</ele>
        <time>2015-06-28T08:08:16Z</time>
      </trkpt>
      <trkpt lat="46.89132" lon="6.39118">
        <ele>1171.02</ele>
        <time>2015-06-28T08:08:29Z</time>
      </trkpt>
      <trkpt lat="46.89148" lon="6.39115">
        <ele>1169.58</ele>
        <time>2015-06-28T08:08:35Z</time>
      </trkpt>
      <trkpt lat="46.89152" lon="6.39111">
        <ele>1169.1</ele>
        <time>2015-06-28T08:08:36Z</time>
      </trkpt>
      <trkpt lat="46.89156" lon="6.39107">
        <ele>1168.62</ele>
        <time>2015-06-28T08:08:37Z</time>
      </trkpt>
      <trkpt lat="46.89161" lon="6.39106">
        <ele>1168.14</ele>
        <time>2015-06-28T08:08:38Z</time>
      </trkpt>
      <trkpt lat="46.89165" lon="6.39108">
        <ele>1168.14</ele>
        <time>2015-06-28T08:08:39Z</time>
      </trkpt>
      <trkpt lat="46.89171" lon="6.39113">
        <ele>1167.18</ele>
        <time>2015-06-28T08:08:40Z</time>
      </trkpt>
      <trkpt lat="46.89176" lon="6.39118">
        <ele>1167.66</ele>
        <time>2015-06-28T08:08:41Z</time>
      </trkpt>
      <trkpt lat="46.89195" lon="6.39138">
        <ele>1164.77</ele>
        <time>2015-06-28T08:08:47Z</time>
      </trkpt>
      <trkpt lat="46.89196" lon="6.39138">
        <ele>1164.77</ele>
        <time>2015-06-28T08:08:48Z</time>
      </trkpt>
      <trkpt lat="46.89198" lon="6.39137">
        <ele>1164.77</ele>
        <time>2015-06-28T08:08:49Z</time>
      </trkpt>
      <trkpt lat="46.892" lon="6.39137">
        <ele>1164.77</ele>
        <time>2015-06-28T08:08:50Z</time>
      </trkpt>
      <trkpt lat="46.89201" lon="6.39136">
        <ele>1164.77</ele>
        <time>2015-06-28T08:08:51Z</time>
      </trkpt>
      <trkpt lat="46.89202" lon="6.39135">
        <ele>1164.29</ele>
        <time>2015-06-28T08:08:52Z</time>
      </trkpt>
      <trkpt lat="46.89201" lon="6.39133">
        <ele>1164.29</ele>
        <time>2015-06-28T08:08:53Z</time>
      </trkpt>
      <trkpt lat="46.892" lon="6.39131">
        <ele>1164.29</ele>
        <time>2015-06-28T08:08:54Z</time>
      </trkpt>
      <trkpt lat="46.89199" lon="6.39129">
        <ele>1163.81</ele>
        <time>2015-06-28T08:08:55Z</time>
      </trkpt>
      <trkpt lat="46.89197" lon="6.39127">
        <ele>1163.81</ele>
        <time>2015-06-28T08:08:56Z</time>
      </trkpt>
      <trkpt lat="46.89183" lon="6.39115">
        <ele>1159.01</ele>
        <time>2015-06-28T08:09:03Z</time>
      </trkpt>
      <trkpt lat="46.89179" lon="6.39112">
        <ele>1164.77</ele>
        <time>2015-06-28T08:09:04Z</time>
      </trkpt>
      <trkpt lat="46.89143" lon="6.39068">
        <ele>1161.41</ele>
        <time>2015-06-28T08:09:13Z</time>
      </trkpt>
      <trkpt lat="46.89139" lon="6.39062">
        <ele>1161.41</ele>
        <time>2015-06-28T08:09:14Z</time>
      </trkpt>
      <trkpt lat="46.89135" lon="6.39055">
        <ele>1160.93</ele>
        <time>2015-06-28T08:09:15Z</time>
      </trkpt>
      <trkpt lat="46.8913" lon="6.3904">
        <ele>1159.49</ele>
        <time>2015-06-28T08:09:17Z</time>
      </trkpt>
      <trkpt lat="46.89128" lon="6.39031">
        <ele>1159.49</ele>
        <time>2015-06-28T08:09:18Z</time>
      </trkpt>
      <trkpt lat="46.89127" lon="6.39023">
        <ele>1158.53</ele>
        <time>2015-06-28T08:09:19Z</time>
      </trkpt>
      <trkpt lat="46.89125" lon="6.39004">
        <ele>1158.05</ele>
        <time>2015-06-28T08:09:21Z</time>
      </trkpt>
      <trkpt lat="46.89122" lon="6.38996">
        <ele>1157.56</ele>
        <time>2015-06-28T08:09:22Z</time>
      </trkpt>
      <trkpt lat="46.89116" lon="6.38989">
        <ele>1156.6</ele>
        <time>2015-06-28T08:09:23Z</time>
      </trkpt>
      <trkpt lat="46.8911" lon="6.38984">
        <ele>1156.6</ele>
        <time>2015-06-28T08:09:24Z</time>
      </trkpt>
      <trkpt lat="46.89103" lon="6.3898">
        <ele>1155.64</ele>
        <time>2015-06-28T08:09:25Z</time>
      </trkpt>
      <trkpt lat="46.89061" lon="6.38958">
        <ele>1152.28</ele>
        <time>2015-06-28T08:09:30Z</time>
      </trkpt>
      <trkpt lat="46.89027" lon="6.38931">
        <ele>1148.91</ele>
        <time>2015-06-28T08:09:34Z</time>
      </trkpt>
      <trkpt lat="46.89009" lon="6.38918">
        <ele>1147.47</ele>
        <time>2015-06-28T08:09:36Z</time>
      </trkpt>
      <trkpt lat="46.88999" lon="6.38914">
        <ele>1146.51</ele>
        <time>2015-06-28T08:09:37Z</time>
      </trkpt>
      <trkpt lat="46.88989" lon="6.38911">
        <ele>1145.07</ele>
        <time>2015-06-28T08:09:38Z</time>
      </trkpt>
      <trkpt lat="46.88967" lon="6.38906">
        <ele>1144.11</ele>
        <time>2015-06-28T08:09:40Z</time>
      </trkpt>
      <trkpt lat="46.88957" lon="6.38902">
        <ele>1141.7</ele>
        <time>2015-06-28T08:09:41Z</time>
      </trkpt>
      <trkpt lat="46.88948" lon="6.38896">
        <ele>1141.7</ele>
        <time>2015-06-28T08:09:42Z</time>
      </trkpt>
      <trkpt lat="46.88941" lon="6.38887">
        <ele>1140.74</ele>
        <time>2015-06-28T08:09:43Z</time>
      </trkpt>
      <trkpt lat="46.88936" lon="6.38878">
        <ele>1139.78</ele>
        <time>2015-06-28T08:09:44Z</time>
      </trkpt>
      <trkpt lat="46.88933" lon="6.38867">
        <ele>1139.3</ele>
        <time>2015-06-28T08:09:45Z</time>
      </trkpt>
      <trkpt lat="46.8893" lon="6.38854">
        <ele>1138.82</ele>
        <time>2015-06-28T08:09:46Z</time>
      </trkpt>
      <trkpt lat="46.88928" lon="6.38839">
        <ele>1137.86</ele>
        <time>2015-06-28T08:09:47Z</time>
      </trkpt>
      <trkpt lat="46.88927" lon="6.38825">
        <ele>1137.38</ele>
        <time>2015-06-28T08:09:48Z</time>
      </trkpt>
      <trkpt lat="46.88916" lon="6.38757">
        <ele>1134.49</ele>
        <time>2015-06-28T08:09:53Z</time>
      </trkpt>
      <trkpt lat="46.88906" lon="6.38729">
        <ele>1133.05</ele>
        <time>2015-06-28T08:09:55Z</time>
      </trkpt>
      <trkpt lat="46.88894" lon="6.38701">
        <ele>1131.61</ele>
        <time>2015-06-28T08:09:57Z</time>
      </trkpt>
      <trkpt lat="46.88862" lon="6.38652">
        <ele>1128.24</ele>
        <time>2015-06-28T08:10:01Z</time>
      </trkpt>
      <trkpt lat="46.88854" lon="6.38644">
        <ele>1127.76</ele>
        <time>2015-06-28T08:10:02Z</time>
      </trkpt>
      <trkpt lat="46.88845" lon="6.38638">
        <ele>1126.8</ele>
        <time>2015-06-28T08:10:03Z</time>
      </trkpt>
      <trkpt lat="46.88835" lon="6.38634">
        <ele>1125.84</ele>
        <time>2015-06-28T08:10:04Z</time>
      </trkpt>
      <trkpt lat="46.88824" lon="6.38629">
        <ele>1125.36</ele>
        <time>2015-06-28T08:10:05Z</time>
      </trkpt>
      <trkpt lat="46.88815" lon="6.38622">
        <ele>1124.4</ele>
        <time>2015-06-28T08:10:06Z</time>
      </trkpt>
      <trkpt lat="46.88808" lon="6.38614">
        <ele>1123.44</ele>
        <time>2015-06-28T08:10:07Z</time>
      </trkpt>
      <trkpt lat="46.88802" lon="6.38603">
        <ele>1122.48</ele>
        <time>2015-06-28T08:10:08Z</time>
      </trkpt>
      <trkpt lat="46.88797" lon="6.3859">
        <ele>1122</ele>
        <time>2015-06-28T08:10:09Z</time>
      </trkpt>
      <trkpt lat="46.88794" lon="6.38577">
        <ele>1122</ele>
        <time>2015-06-28T08:10:10Z</time>
      </trkpt>
      <trkpt lat="46.88789" lon="6.38564">
        <ele>1121.52</ele>
        <time>2015-06-28T08:10:11Z</time>
      </trkpt>
      <trkpt lat="46.88769" lon="6.38515">
        <ele>1118.63</ele>
        <time>2015-06-28T08:10:15Z</time>
      </trkpt>
      <trkpt lat="46.88761" lon="6.38505">
        <ele>1117.19</ele>
        <time>2015-06-28T08:10:16Z</time>
      </trkpt>
      <trkpt lat="46.88753" lon="6.38497">
        <ele>1117.19</ele>
        <time>2015-06-28T08:10:17Z</time>
      </trkpt>
      <trkpt lat="46.88744" lon="6.3849">
        <ele>1115.75</ele>
        <time>2015-06-28T08:10:18Z</time>
      </trkpt>
      <trkpt lat="46.88734" lon="6.38485">
        <ele>1115.27</ele>
        <time>2015-06-28T08:10:19Z</time>
      </trkpt>
      <trkpt lat="46.88725" lon="6.38481">
        <ele>1114.79</ele>
        <time>2015-06-28T08:10:20Z</time>
      </trkpt>
      <trkpt lat="46.88695" lon="6.38469">
        <ele>1112.86</ele>
        <time>2015-06-28T08:10:23Z</time>
      </trkpt>
      <trkpt lat="46.88685" lon="6.38468">
        <ele>1111.9</ele>
        <time>2015-06-28T08:10:24Z</time>
      </trkpt>
      <trkpt lat="46.88674" lon="6.3847">
        <ele>1110.94</ele>
        <time>2015-06-28T08:10:25Z</time>
      </trkpt>
      <trkpt lat="46.88663" lon="6.38477">
        <ele>1110.46</ele>
        <time>2015-06-28T08:10:26Z</time>
      </trkpt>
      <trkpt lat="46.88653" lon="6.38487">
        <ele>1109.5</ele>
        <time>2015-06-28T08:10:27Z</time>
      </trkpt>
      <trkpt lat="46.88642" lon="6.38494">
        <ele>1108.54</ele>
        <time>2015-06-28T08:10:28Z</time>
      </trkpt>
      <trkpt lat="46.88632" lon="6.38496">
        <ele>1107.58</ele>
        <time>2015-06-28T08:10:29Z</time>
      </trkpt>
      <trkpt lat="46.88624" lon="6.38495">
        <ele>1107.1</ele>
        <time>2015-06-28T08:10:30Z</time>
      </trkpt>
      <trkpt lat="46.88618" lon="6.38492">
        <ele>1107.1</ele>
        <time>2015-06-28T08:10:31Z</time>
      </trkpt>
      <trkpt lat="46.88613" lon="6.38485">
        <ele>1106.61</ele>
        <time>2015-06-28T08:10:32Z</time>
      </trkpt>
      <trkpt lat="46.88608" lon="6.38476">
        <ele>1106.61</ele>
        <time>2015-06-28T08:10:33Z</time>
      </trkpt>
      <trkpt lat="46.88605" lon="6.38466">
        <ele>1105.65</ele>
        <time>2015-06-28T08:10:34Z</time>
      </trkpt>
      <trkpt lat="46.88602" lon="6.38456">
        <ele>1105.17</ele>
        <time>2015-06-28T08:10:35Z</time>
      </trkpt>
      <trkpt lat="46.88602" lon="6.38447">
        <ele>1104.69</ele>
        <time>2015-06-28T08:10:36Z</time>
      </trkpt>
      <trkpt lat="46.88603" lon="6.38438">
        <ele>1104.21</ele>
        <time>2015-06-28T08:10:37Z</time>
      </trkpt>
      <trkpt lat="46.88606" lon="6.3843">
        <ele>1103.73</ele>
        <time>2015-06-28T08:10:38Z</time>
      </trkpt>
      <trkpt lat="46.8861" lon="6.38421">
        <ele>1103.25</ele>
        <time>2015-06-28T08:10:39Z</time>
      </trkpt>
      <trkpt lat="46.88636" lon="6.3836">
        <ele>1100.37</ele>
        <time>2015-06-28T08:10:45Z</time>
      </trkpt>
      <trkpt lat="46.88656" lon="6.38311">
        <ele>1097.96</ele>
        <time>2015-06-28T08:10:49Z</time>
      </trkpt>
      <trkpt lat="46.88672" lon="6.38273">
        <ele>1096.04</ele>
        <time>2015-06-28T08:10:52Z</time>
      </trkpt>
      <trkpt lat="46.88682" lon="6.38251">
        <ele>1094.12</ele>
        <time>2015-06-28T08:10:54Z</time>
      </trkpt>
      <trkpt lat="46.8869" lon="6.38226">
        <ele>1093.16</ele>
        <time>2015-06-28T08:10:56Z</time>
      </trkpt>
      <trkpt lat="46.88696" lon="6.38198">
        <ele>1091.71</ele>
        <time>2015-06-28T08:10:58Z</time>
      </trkpt>
      <trkpt lat="46.88708" lon="6.38154">
        <ele>1090.27</ele>
        <time>2015-06-28T08:11:01Z</time>
      </trkpt>
      <trkpt lat="46.88712" lon="6.38139">
        <ele>1089.31</ele>
        <time>2015-06-28T08:11:02Z</time>
      </trkpt>
      <trkpt lat="46.88718" lon="6.38126">
        <ele>1088.35</ele>
        <time>2015-06-28T08:11:03Z</time>
      </trkpt>
      <trkpt lat="46.88726" lon="6.38113">
        <ele>1087.87</ele>
        <time>2015-06-28T08:11:04Z</time>
      </trkpt>
      <trkpt lat="46.88759" lon="6.38066">
        <ele>1084.02</ele>
        <time>2015-06-28T08:11:08Z</time>
      </trkpt>
      <trkpt lat="46.88768" lon="6.38057">
        <ele>1083.54</ele>
        <time>2015-06-28T08:11:09Z</time>
      </trkpt>
      <trkpt lat="46.88778" lon="6.38048">
        <ele>1082.1</ele>
        <time>2015-06-28T08:11:10Z</time>
      </trkpt>
      <trkpt lat="46.88788" lon="6.38042">
        <ele>1081.62</ele>
        <time>2015-06-28T08:11:11Z</time>
      </trkpt>
      <trkpt lat="46.88797" lon="6.38038">
        <ele>1081.14</ele>
        <time>2015-06-28T08:11:12Z</time>
      </trkpt>
      <trkpt lat="46.88805" lon="6.38035">
        <ele>1080.18</ele>
        <time>2015-06-28T08:11:13Z</time>
      </trkpt>
      <trkpt lat="46.88819" lon="6.38032">
        <ele>1079.22</ele>
        <time>2015-06-28T08:11:15Z</time>
      </trkpt>
      <trkpt lat="46.88825" lon="6.3803">
        <ele>1078.74</ele>
        <time>2015-06-28T08:11:16Z</time>
      </trkpt>
      <trkpt lat="46.88828" lon="6.38025">
        <ele>1078.26</ele>
        <time>2015-06-28T08:11:17Z</time>
      </trkpt>
      <trkpt lat="46.8883" lon="6.3802">
        <ele>1077.78</ele>
        <time>2015-06-28T08:11:18Z</time>
      </trkpt>
      <trkpt lat="46.8883" lon="6.38012">
        <ele>1076.81</ele>
        <time>2015-06-28T08:11:20Z</time>
      </trkpt>
      <trkpt lat="46.88829" lon="6.3801">
        <ele>1077.29</ele>
        <time>2015-06-28T08:11:21Z</time>
      </trkpt>
      <trkpt lat="46.88827" lon="6.3801">
        <ele>1076.81</ele>
        <time>2015-06-28T08:11:38Z</time>
      </trkpt>
      <trkpt lat="46.88827" lon="6.3801">
        <ele>1077.29</ele>
        <time>2015-06-28T08:11:48Z</time>
      </trkpt>
      <trkpt lat="46.88825" lon="6.38008">
        <ele>1077.29</ele>
        <time>2015-06-28T08:12:24Z</time>
      </trkpt>
      <trkpt lat="46.88824" lon="6.38007">
        <ele>1076.81</ele>
        <time>2015-06-28T08:12:48Z</time>
      </trkpt>
      <trkpt lat="46.88824" lon="6.38008">
        <ele>1077.29</ele>
        <time>2015-06-28T08:13:24Z</time>
      </trkpt>
      <trkpt lat="46.88825" lon="6.38008">
        <ele>1076.33</ele>
        <time>2015-06-28T08:13:55Z</time>
      </trkpt>
      <trkpt lat="46.88823" lon="6.38006">
        <ele>1076.81</ele>
        <time>2015-06-28T08:14:21Z</time>
      </trkpt>
      <trkpt lat="46.88805" lon="6.3799">
        <ele>1076.81</ele>
        <time>2015-06-28T08:14:30Z</time>
      </trkpt>
      <trkpt lat="46.88797" lon="6.37988">
        <ele>1076.33</ele>
        <time>2015-06-28T08:14:32Z</time>
      </trkpt>
      <trkpt lat="46.88793" lon="6.37988">
        <ele>1075.85</ele>
        <time>2015-06-28T08:14:33Z</time>
      </trkpt>
      <trkpt lat="46.88789" lon="6.37989">
        <ele>1075.85</ele>
        <time>2015-06-28T08:14:34Z</time>
      </trkpt>
      <trkpt lat="46.88785" lon="6.37989">
        <ele>1075.37</ele>
        <time>2015-06-28T08:14:35Z</time>
      </trkpt>
      <trkpt lat="46.88782" lon="6.37989">
        <ele>1075.85</ele>
        <time>2015-06-28T08:14:36Z</time>
      </trkpt>
      <trkpt lat="46.88779" lon="6.3799">
        <ele>1075.37</ele>
        <time>2015-06-28T08:14:37Z</time>
      </trkpt>
      <trkpt lat="46.88747" lon="6.37994">
        <ele>1074.41</ele>
        <time>2015-06-28T08:14:45Z</time>
      </trkpt>
      <trkpt lat="46.88743" lon="6.37996">
        <ele>1074.41</ele>
        <time>2015-06-28T08:14:46Z</time>
      </trkpt>
      <trkpt lat="46.88684" lon="6.38002">
        <ele>1072.97</ele>
        <time>2015-06-28T08:14:58Z</time>
      </trkpt>
      <trkpt lat="46.88679" lon="6.38001">
        <ele>1072.49</ele>
        <time>2015-06-28T08:14:59Z</time>
      </trkpt>
      <trkpt lat="46.88669" lon="6.37997">
        <ele>1072.49</ele>
        <time>2015-06-28T08:15:01Z</time>
      </trkpt>
      <trkpt lat="46.88664" lon="6.37994">
        <ele>1072.97</ele>
        <time>2015-06-28T08:15:02Z</time>
      </trkpt>
      <trkpt lat="46.88648" lon="6.37977">
        <ele>1072.49</ele>
        <time>2015-06-28T08:15:06Z</time>
      </trkpt>
      <trkpt lat="46.88645" lon="6.37971">
        <ele>1072.49</ele>
        <time>2015-06-28T08:15:07Z</time>
      </trkpt>
      <trkpt lat="46.88638" lon="6.37951">
        <ele>1072.49</ele>
        <time>2015-06-28T08:15:10Z</time>
      </trkpt>
      <trkpt lat="46.88636" lon="6.37944">
        <ele>1072.49</ele>
        <time>2015-06-28T08:15:11Z</time>
      </trkpt>
      <trkpt lat="46.88636" lon="6.37937">
        <ele>1072.49</ele>
        <time>2015-06-28T08:15:12Z</time>
      </trkpt>
      <trkpt lat="46.88635" lon="6.3793">
        <ele>1072.49</ele>
        <time>2015-06-28T08:15:13Z</time>
      </trkpt>
      <trkpt lat="46.88635" lon="6.37923">
        <ele>1072.97</ele>
        <time>2015-06-28T08:15:14Z</time>
      </trkpt>
      <trkpt lat="46.88634" lon="6.37916">
        <ele>1072.97</ele>
        <time>2015-06-28T08:15:15Z</time>
      </trkpt>
      <trkpt lat="46.88635" lon="6.37909">
        <ele>1072.97</ele>
        <time>2015-06-28T08:15:16Z</time>
      </trkpt>
      <trkpt lat="46.88637" lon="6.37902">
        <ele>1072.97</ele>
        <time>2015-06-28T08:15:17Z</time>
      </trkpt>
      <trkpt lat="46.88638" lon="6.37896">
        <ele>1072.97</ele>
        <time>2015-06-28T08:15:18Z</time>
      </trkpt>
      <trkpt lat="46.88639" lon="6.3789">
        <ele>1072.97</ele>
        <time>2015-06-28T08:15:19Z</time>
      </trkpt>
      <trkpt lat="46.8864" lon="6.37883">
        <ele>1072.97</ele>
        <time>2015-06-28T08:15:20Z</time>
      </trkpt>
      <trkpt lat="46.88641" lon="6.37877">
        <ele>1072.97</ele>
        <time>2015-06-28T08:15:21Z</time>
      </trkpt>
      <trkpt lat="46.88642" lon="6.37871">
        <ele>1072.97</ele>
        <time>2015-06-28T08:15:22Z</time>
      </trkpt>
      <trkpt lat="46.88643" lon="6.37865">
        <ele>1072.97</ele>
        <time>2015-06-28T08:15:23Z</time>
      </trkpt>
      <trkpt lat="46.88646" lon="6.37852">
        <ele>1072.97</ele>
        <time>2015-06-28T08:15:25Z</time>
      </trkpt>
      <trkpt lat="46.88646" lon="6.37845">
        <ele>1072.97</ele>
        <time>2015-06-28T08:15:26Z</time>
      </trkpt>
      <trkpt lat="46.88645" lon="6.37839">
        <ele>1073.45</ele>
        <time>2015-06-28T08:15:27Z</time>
      </trkpt>
      <trkpt lat="46.88645" lon="6.37832">
        <ele>1072.97</ele>
        <time>2015-06-28T08:15:28Z</time>
      </trkpt>
      <trkpt lat="46.88643" lon="6.37826">
        <ele>1072.49</ele>
        <time>2015-06-28T08:15:29Z</time>
      </trkpt>
      <trkpt lat="46.8864" lon="6.3782">
        <ele>1072.97</ele>
        <time>2015-06-28T08:15:30Z</time>
      </trkpt>
      <trkpt lat="46.88635" lon="6.37812">
        <ele>1072.49</ele>
        <time>2015-06-28T08:15:32Z</time>
      </trkpt>
      <trkpt lat="46.88597" lon="6.37791">
        <ele>1072.97</ele>
        <time>2015-06-28T08:15:41Z</time>
      </trkpt>
      <trkpt lat="46.88583" lon="6.37788">
        <ele>1072.97</ele>
        <time>2015-06-28T08:15:44Z</time>
      </trkpt>
      <trkpt lat="46.88578" lon="6.37786">
        <ele>1072.97</ele>
        <time>2015-06-28T08:15:45Z</time>
      </trkpt>
      <trkpt lat="46.88573" lon="6.37784">
        <ele>1072.97</ele>
        <time>2015-06-28T08:15:46Z</time>
      </trkpt>
      <trkpt lat="46.88567" lon="6.37782">
        <ele>1072.97</ele>
        <time>2015-06-28T08:15:47Z</time>
      </trkpt>
      <trkpt lat="46.88562" lon="6.37781">
        <ele>1072.97</ele>
        <time>2015-06-28T08:15:48Z</time>
      </trkpt>
      <trkpt lat="46.88556" lon="6.3778">
        <ele>1072.97</ele>
        <time>2015-06-28T08:15:49Z</time>
      </trkpt>
      <trkpt lat="46.88552" lon="6.37778">
        <ele>1072.97</ele>
        <time>2015-06-28T08:15:50Z</time>
      </trkpt>
      <trkpt lat="46.88547" lon="6.37776">
        <ele>1072.49</ele>
        <time>2015-06-28T08:15:51Z</time>
      </trkpt>
      <trkpt lat="46.88541" lon="6.37776">
        <ele>1072.97</ele>
        <time>2015-06-28T08:15:52Z</time>
      </trkpt>
      <trkpt lat="46.88536" lon="6.37775">
        <ele>1072.97</ele>
        <time>2015-06-28T08:15:53Z</time>
      </trkpt>
      <trkpt lat="46.88531" lon="6.37774">
        <ele>1072.97</ele>
        <time>2015-06-28T08:15:54Z</time>
      </trkpt>
      <trkpt lat="46.88525" lon="6.37773">
        <ele>1073.45</ele>
        <time>2015-06-28T08:15:55Z</time>
      </trkpt>
      <trkpt lat="46.8852" lon="6.37772">
        <ele>1072.97</ele>
        <time>2015-06-28T08:15:56Z</time>
      </trkpt>
      <trkpt lat="46.88515" lon="6.37771">
        <ele>1072.97</ele>
        <time>2015-06-28T08:15:57Z</time>
      </trkpt>
      <trkpt lat="46.8851" lon="6.37771">
        <ele>1073.45</ele>
        <time>2015-06-28T08:15:58Z</time>
      </trkpt>
      <trkpt lat="46.88473" lon="6.37778">
        <ele>1072.01</ele>
        <time>2015-06-28T08:16:05Z</time>
      </trkpt>
      <trkpt lat="46.88442" lon="6.37792">
        <ele>1070.57</ele>
        <time>2015-06-28T08:16:11Z</time>
      </trkpt>
      <trkpt lat="46.88437" lon="6.37794">
        <ele>1071.05</ele>
        <time>2015-06-28T08:16:12Z</time>
      </trkpt>
      <trkpt lat="46.88416" lon="6.37799">
        <ele>1070.08</ele>
        <time>2015-06-28T08:16:16Z</time>
      </trkpt>
      <trkpt lat="46.88382" lon="6.37798">
        <ele>1069.12</ele>
        <time>2015-06-28T08:16:24Z</time>
      </trkpt>
      <trkpt lat="46.88378" lon="6.37797">
        <ele>1069.6</ele>
        <time>2015-06-28T08:16:25Z</time>
      </trkpt>
      <trkpt lat="46.88373" lon="6.37796">
        <ele>1069.6</ele>
        <time>2015-06-28T08:16:26Z</time>
      </trkpt>
      <trkpt lat="46.88369" lon="6.37795">
        <ele>1069.12</ele>
        <time>2015-06-28T08:16:27Z</time>
      </trkpt>
      <trkpt lat="46.88364" lon="6.37794">
        <ele>1069.12</ele>
        <time>2015-06-28T08:16:28Z</time>
      </trkpt>
      <trkpt lat="46.88347" lon="6.37793">
        <ele>1068.16</ele>
        <time>2015-06-28T08:16:31Z</time>
      </trkpt>
      <trkpt lat="46.88341" lon="6.37793">
        <ele>1068.64</ele>
        <time>2015-06-28T08:16:32Z</time>
      </trkpt>
      <trkpt lat="46.88293" lon="6.37793">
        <ele>1067.68</ele>
        <time>2015-06-28T08:16:41Z</time>
      </trkpt>
      <trkpt lat="46.88288" lon="6.37794">
        <ele>1067.68</ele>
        <time>2015-06-28T08:16:42Z</time>
      </trkpt>
      <trkpt lat="46.88283" lon="6.37794">
        <ele>1067.68</ele>
        <time>2015-06-28T08:16:43Z</time>
      </trkpt>
      <trkpt lat="46.88278" lon="6.37794">
        <ele>1067.2</ele>
        <time>2015-06-28T08:16:44Z</time>
      </trkpt>
      <trkpt lat="46.88273" lon="6.37795">
        <ele>1067.2</ele>
        <time>2015-06-28T08:16:45Z</time>
      </trkpt>
      <trkpt lat="46.88268" lon="6.37799">
        <ele>1067.2</ele>
        <time>2015-06-28T08:16:46Z</time>
      </trkpt>
      <trkpt lat="46.88264" lon="6.37803">
        <ele>1067.2</ele>
        <time>2015-06-28T08:16:47Z</time>
      </trkpt>
      <trkpt lat="46.88259" lon="6.37807">
        <ele>1066.72</ele>
        <time>2015-06-28T08:16:48Z</time>
      </trkpt>
      <trkpt lat="46.88237" lon="6.37831">
        <ele>1066.24</ele>
        <time>2015-06-28T08:16:58Z</time>
      </trkpt>
      <trkpt lat="46.88227" lon="6.37842">
        <ele>1065.76</ele>
        <time>2015-06-28T08:17:10Z</time>
      </trkpt>
      <trkpt lat="46.88225" lon="6.37845">
        <ele>1065.76</ele>
        <time>2015-06-28T08:17:11Z</time>
      </trkpt>
      <trkpt lat="46.88223" lon="6.37848">
        <ele>1065.28</ele>
        <time>2015-06-28T08:17:12Z</time>
      </trkpt>
      <trkpt lat="46.882" lon="6.37879">
        <ele>1065.28</ele>
        <time>2015-06-28T08:17:20Z</time>
      </trkpt>
      <trkpt lat="46.88197" lon="6.37882">
        <ele>1064.8</ele>
        <time>2015-06-28T08:17:21Z</time>
      </trkpt>
      <trkpt lat="46.88193" lon="6.37886">
        <ele>1064.8</ele>
        <time>2015-06-28T08:17:22Z</time>
      </trkpt>
      <trkpt lat="46.88182" lon="6.37901">
        <ele>1064.8</ele>
        <time>2015-06-28T08:17:31Z</time>
      </trkpt>
      <trkpt lat="46.88179" lon="6.37908">
        <ele>1064.32</ele>
        <time>2015-06-28T08:17:40Z</time>
      </trkpt>
      <trkpt lat="46.88179" lon="6.3791">
        <ele>1063.84</ele>
        <time>2015-06-28T08:17:41Z</time>
      </trkpt>
      <trkpt lat="46.88178" lon="6.37912">
        <ele>1064.32</ele>
        <time>2015-06-28T08:17:42Z</time>
      </trkpt>
      <trkpt lat="46.88178" lon="6.37915">
        <ele>1064.32</ele>
        <time>2015-06-28T08:17:43Z</time>
      </trkpt>
      <trkpt lat="46.88177" lon="6.37919">
        <ele>1063.84</ele>
        <time>2015-06-28T08:17:44Z</time>
      </trkpt>
      <trkpt lat="46.88177" lon="6.37925">
        <ele>1063.84</ele>
        <time>2015-06-28T08:17:45Z</time>
      </trkpt>
      <trkpt lat="46.88177" lon="6.3793">
        <ele>1064.32</ele>
        <time>2015-06-28T08:17:46Z</time>
      </trkpt>
      <trkpt lat="46.88177" lon="6.37935">
        <ele>1063.84</ele>
        <time>2015-06-28T08:17:47Z</time>
      </trkpt>
      <trkpt lat="46.88177" lon="6.37941">
        <ele>1063.84</ele>
        <time>2015-06-28T08:17:48Z</time>
      </trkpt>
      <trkpt lat="46.88177" lon="6.37946">
        <ele>1063.36</ele>
        <time>2015-06-28T08:17:49Z</time>
      </trkpt>
      <trkpt lat="46.88176" lon="6.37951">
        <ele>1063.36</ele>
        <time>2015-06-28T08:17:50Z</time>
      </trkpt>
      <trkpt lat="46.88175" lon="6.37957">
        <ele>1062.87</ele>
        <time>2015-06-28T08:17:51Z</time>
      </trkpt>
      <trkpt lat="46.88175" lon="6.37963">
        <ele>1063.36</ele>
        <time>2015-06-28T08:17:52Z</time>
      </trkpt>
      <trkpt lat="46.88174" lon="6.37968">
        <ele>1063.36</ele>
        <time>2015-06-28T08:17:53Z</time>
      </trkpt>
      <trkpt lat="46.88173" lon="6.37975">
        <ele>1062.87</ele>
        <time>2015-06-28T08:17:54Z</time>
      </trkpt>
      <trkpt lat="46.88171" lon="6.37981">
        <ele>1062.87</ele>
        <time>2015-06-28T08:17:55Z</time>
      </trkpt>
      <trkpt lat="46.88169" lon="6.37987">
        <ele>1062.87</ele>
        <time>2015-06-28T08:17:56Z</time>
      </trkpt>
      <trkpt lat="46.8815" lon="6.38011">
        <ele>1062.87</ele>
        <time>2015-06-28T08:18:03Z</time>
      </trkpt>
      <trkpt lat="46.88146" lon="6.38012">
        <ele>1061.91</ele>
        <time>2015-06-28T08:18:04Z</time>
      </trkpt>
      <trkpt lat="46.88117" lon="6.38006">
        <ele>1060.95</ele>
        <time>2015-06-28T08:18:12Z</time>
      </trkpt>
      <trkpt lat="46.88098" lon="6.37957">
        <ele>1060.47</ele>
        <time>2015-06-28T08:18:22Z</time>
      </trkpt>
      <trkpt lat="46.88094" lon="6.37939">
        <ele>1059.99</ele>
        <time>2015-06-28T08:18:25Z</time>
      </trkpt>
      <trkpt lat="46.88082" lon="6.37912">
        <ele>1059.03</ele>
        <time>2015-06-28T08:18:30Z</time>
      </trkpt>
      <trkpt lat="46.88079" lon="6.37905">
        <ele>1059.03</ele>
        <time>2015-06-28T08:18:31Z</time>
      </trkpt>
      <trkpt lat="46.88076" lon="6.37899">
        <ele>1058.07</ele>
        <time>2015-06-28T08:18:32Z</time>
      </trkpt>
      <trkpt lat="46.88074" lon="6.37894">
        <ele>1058.55</ele>
        <time>2015-06-28T08:18:33Z</time>
      </trkpt>
      <trkpt lat="46.88071" lon="6.3789">
        <ele>1058.55</ele>
        <time>2015-06-28T08:18:34Z</time>
      </trkpt>
      <trkpt lat="46.88069" lon="6.37886">
        <ele>1058.55</ele>
        <time>2015-06-28T08:18:35Z</time>
      </trkpt>
      <trkpt lat="46.88038" lon="6.3787">
        <ele>1056.15</ele>
        <time>2015-06-28T08:18:42Z</time>
      </trkpt>
      <trkpt lat="46.88001" lon="6.37861">
        <ele>1054.22</ele>
        <time>2015-06-28T08:18:50Z</time>
      </trkpt>
      <trkpt lat="46.87972" lon="6.37858">
        <ele>1052.3</ele>
        <time>2015-06-28T08:19:00Z</time>
      </trkpt>
      <trkpt lat="46.87947" lon="6.37855">
        <ele>1050.38</ele>
        <time>2015-06-28T08:19:06Z</time>
      </trkpt>
      <trkpt lat="46.87902" lon="6.37856">
        <ele>1047.01</ele>
        <time>2015-06-28T08:19:15Z</time>
      </trkpt>
      <trkpt lat="46.87898" lon="6.37854">
        <ele>1047.01</ele>
        <time>2015-06-28T08:19:16Z</time>
      </trkpt>
      <trkpt lat="46.8789" lon="6.3785">
        <ele>1047.01</ele>
        <time>2015-06-28T08:19:18Z</time>
      </trkpt>
      <trkpt lat="46.87883" lon="6.37849">
        <ele>1047.01</ele>
        <time>2015-06-28T08:19:20Z</time>
      </trkpt>
      <trkpt lat="46.87881" lon="6.37849">
        <ele>1046.53</ele>
        <time>2015-06-28T08:19:21Z</time>
      </trkpt>
      <trkpt lat="46.87863" lon="6.37855">
        <ele>1046.05</ele>
        <time>2015-06-28T08:19:25Z</time>
      </trkpt>
      <trkpt lat="46.8786" lon="6.37854">
        <ele>1046.53</ele>
        <time>2015-06-28T08:19:26Z</time>
      </trkpt>
      <trkpt lat="46.87849" lon="6.37847">
        <ele>1045.57</ele>
        <time>2015-06-28T08:19:35Z</time>
      </trkpt>
      <trkpt lat="46.87847" lon="6.37845">
        <ele>1046.05</ele>
        <time>2015-06-28T08:19:36Z</time>
      </trkpt>
      <trkpt lat="46.8783" lon="6.37838">
        <ele>1044.61</ele>
        <time>2015-06-28T08:19:41Z</time>
      </trkpt>
      <trkpt lat="46.87826" lon="6.37837">
        <ele>1044.61</ele>
        <time>2015-06-28T08:19:42Z</time>
      </trkpt>
      <trkpt lat="46.87822" lon="6.37837">
        <ele>1044.13</ele>
        <time>2015-06-28T08:19:43Z</time>
      </trkpt>
      <trkpt lat="46.87817" lon="6.37838">
        <ele>1043.65</ele>
        <time>2015-06-28T08:19:44Z</time>
      </trkpt>
      <trkpt lat="46.87795" lon="6.37841">
        <ele>1042.69</ele>
        <time>2015-06-28T08:19:48Z</time>
      </trkpt>
      <trkpt lat="46.87782" lon="6.37838">
        <ele>1041.73</ele>
        <time>2015-06-28T08:19:50Z</time>
      </trkpt>
      <trkpt lat="46.87776" lon="6.37835">
        <ele>1041.25</ele>
        <time>2015-06-28T08:19:51Z</time>
      </trkpt>
      <trkpt lat="46.87763" lon="6.37829">
        <ele>1040.28</ele>
        <time>2015-06-28T08:19:53Z</time>
      </trkpt>
      <trkpt lat="46.87731" lon="6.37813">
        <ele>1038.36</ele>
        <time>2015-06-28T08:19:59Z</time>
      </trkpt>
      <trkpt lat="46.87691" lon="6.37802">
        <ele>1035.48</ele>
        <time>2015-06-28T08:20:06Z</time>
      </trkpt>
      <trkpt lat="46.87655" lon="6.37797">
        <ele>1034.04</ele>
        <time>2015-06-28T08:20:15Z</time>
      </trkpt>
      <trkpt lat="46.87645" lon="6.37816">
        <ele>1034.04</ele>
        <time>2015-06-28T08:20:26Z</time>
      </trkpt>
      <trkpt lat="46.8764" lon="6.37824">
        <ele>1033.55</ele>
        <time>2015-06-28T08:20:32Z</time>
      </trkpt>
      <trkpt lat="46.87631" lon="6.37823">
        <ele>1033.07</ele>
        <time>2015-06-28T08:20:37Z</time>
      </trkpt>
      <trkpt lat="46.8763" lon="6.37822">
        <ele>1032.59</ele>
        <time>2015-06-28T08:20:38Z</time>
      </trkpt>
      <trkpt lat="46.87628" lon="6.37822">
        <ele>1032.59</ele>
        <time>2015-06-28T08:20:39Z</time>
      </trkpt>
      <trkpt lat="46.87626" lon="6.37821">
        <ele>1032.59</ele>
        <time>2015-06-28T08:20:40Z</time>
      </trkpt>
      <trkpt lat="46.87625" lon="6.3782">
        <ele>1032.11</ele>
        <time>2015-06-28T08:20:41Z</time>
      </trkpt>
      <trkpt lat="46.87617" lon="6.37818">
        <ele>1032.11</ele>
        <time>2015-06-28T08:20:46Z</time>
      </trkpt>
      <trkpt lat="46.87616" lon="6.37818">
        <ele>1031.63</ele>
        <time>2015-06-28T08:20:47Z</time>
      </trkpt>
      <trkpt lat="46.87615" lon="6.37817">
        <ele>1031.63</ele>
        <time>2015-06-28T08:20:48Z</time>
      </trkpt>
      <trkpt lat="46.87614" lon="6.37817">
        <ele>1031.15</ele>
        <time>2015-06-28T08:20:49Z</time>
      </trkpt>
      <trkpt lat="46.87613" lon="6.37817">
        <ele>1031.15</ele>
        <time>2015-06-28T08:20:50Z</time>
      </trkpt>
      <trkpt lat="46.87612" lon="6.37817">
        <ele>1031.63</ele>
        <time>2015-06-28T08:20:51Z</time>
      </trkpt>
      <trkpt lat="46.8761" lon="6.37816">
        <ele>1031.15</ele>
        <time>2015-06-28T08:20:52Z</time>
      </trkpt>
      <trkpt lat="46.87603" lon="6.37815">
        <ele>1030.19</ele>
        <time>2015-06-28T08:21:02Z</time>
      </trkpt>
      <trkpt lat="46.87599" lon="6.37811">
        <ele>1030.67</ele>
        <time>2015-06-28T08:21:14Z</time>
      </trkpt>
      <trkpt lat="46.87598" lon="6.37809">
        <ele>1030.19</ele>
        <time>2015-06-28T08:21:15Z</time>
      </trkpt>
      <trkpt lat="46.87596" lon="6.37808">
        <ele>1030.19</ele>
        <time>2015-06-28T08:21:16Z</time>
      </trkpt>
      <trkpt lat="46.87594" lon="6.37806">
        <ele>1029.71</ele>
        <time>2015-06-28T08:21:17Z</time>
      </trkpt>
      <trkpt lat="46.87593" lon="6.37804">
        <ele>1029.71</ele>
        <time>2015-06-28T08:21:18Z</time>
      </trkpt>
      <trkpt lat="46.87573" lon="6.3779">
        <ele>1027.79</ele>
        <time>2015-06-28T08:21:28Z</time>
      </trkpt>
      <trkpt lat="46.87572" lon="6.37788">
        <ele>1028.27</ele>
        <time>2015-06-28T08:21:29Z</time>
      </trkpt>
      <trkpt lat="46.87571" lon="6.37787">
        <ele>1028.27</ele>
        <time>2015-06-28T08:21:30Z</time>
      </trkpt>
      <trkpt lat="46.87571" lon="6.37785">
        <ele>1028.27</ele>
        <time>2015-06-28T08:21:31Z</time>
      </trkpt>
      <trkpt lat="46.87572" lon="6.37783">
        <ele>1028.75</ele>
        <time>2015-06-28T08:21:32Z</time>
      </trkpt>
      <trkpt lat="46.87572" lon="6.3778">
        <ele>1028.27</ele>
        <time>2015-06-28T08:21:33Z</time>
      </trkpt>
      <trkpt lat="46.87572" lon="6.37778">
        <ele>1028.27</ele>
        <time>2015-06-28T08:21:34Z</time>
      </trkpt>
      <trkpt lat="46.87572" lon="6.37775">
        <ele>1028.27</ele>
        <time>2015-06-28T08:21:35Z</time>
      </trkpt>
      <trkpt lat="46.87572" lon="6.37773">
        <ele>1027.79</ele>
        <time>2015-06-28T08:21:36Z</time>
      </trkpt>
      <trkpt lat="46.87572" lon="6.37771">
        <ele>1027.31</ele>
        <time>2015-06-28T08:21:37Z</time>
      </trkpt>
      <trkpt lat="46.87574" lon="6.37768">
        <ele>1027.79</ele>
        <time>2015-06-28T08:21:48Z</time>
      </trkpt>
      <trkpt lat="46.87574" lon="6.37766">
        <ele>1027.79</ele>
        <time>2015-06-28T08:22:04Z</time>
      </trkpt>
      <trkpt lat="46.87575" lon="6.37767">
        <ele>1027.79</ele>
        <time>2015-06-28T08:22:39Z</time>
      </trkpt>
      <trkpt lat="46.87576" lon="6.37768">
        <ele>1027.79</ele>
        <time>2015-06-28T08:23:17Z</time>
      </trkpt>
      <trkpt lat="46.87576" lon="6.3777">
        <ele>1028.27</ele>
        <time>2015-06-28T08:24:02Z</time>
      </trkpt>
      <trkpt lat="46.87576" lon="6.3777">
        <ele>1027.79</ele>
        <time>2015-06-28T08:24:48Z</time>
      </trkpt>
      <trkpt lat="46.87577" lon="6.37769">
        <ele>1028.27</ele>
        <time>2015-06-28T08:25:28Z</time>
      </trkpt>
      <trkpt lat="46.87576" lon="6.37769">
        <ele>1028.75</ele>
        <time>2015-06-28T08:26:10Z</time>
      </trkpt>
      <trkpt lat="46.87575" lon="6.37769">
        <ele>1028.27</ele>
        <time>2015-06-28T08:26:56Z</time>
      </trkpt>
      <trkpt lat="46.87575" lon="6.37769">
        <ele>1028.27</ele>
        <time>2015-06-28T08:27:40Z</time>
      </trkpt>
      <trkpt lat="46.87574" lon="6.37768">
        <ele>1027.79</ele>
        <time>2015-06-28T08:28:22Z</time>
      </trkpt>
      <trkpt lat="46.87576" lon="6.37768">
        <ele>1028.27</ele>
        <time>2015-06-28T08:29:03Z</time>
      </trkpt>
      <trkpt lat="46.87576" lon="6.37768">
        <ele>1028.27</ele>
        <time>2015-06-28T08:29:42Z</time>
      </trkpt>
      <trkpt lat="46.87575" lon="6.37767">
        <ele>1028.27</ele>
        <time>2015-06-28T08:30:27Z</time>
      </trkpt>
      <trkpt lat="46.87573" lon="6.37766">
        <ele>1028.75</ele>
        <time>2015-06-28T08:30:43Z</time>
      </trkpt>
      <trkpt lat="46.87572" lon="6.37762">
        <ele>1027.79</ele>
        <time>2015-06-28T08:30:48Z</time>
      </trkpt>
      <trkpt lat="46.87571" lon="6.37761">
        <ele>1027.31</ele>
        <time>2015-06-28T08:30:49Z</time>
      </trkpt>
      <trkpt lat="46.87569" lon="6.37762">
        <ele>1027.31</ele>
        <time>2015-06-28T08:30:50Z</time>
      </trkpt>
      <trkpt lat="46.87568" lon="6.37765">
        <ele>1027.31</ele>
        <time>2015-06-28T08:30:51Z</time>
      </trkpt>
      <trkpt lat="46.87567" lon="6.37767">
        <ele>1027.31</ele>
        <time>2015-06-28T08:30:52Z</time>
      </trkpt>
      <trkpt lat="46.87566" lon="6.37769">
        <ele>1026.83</ele>
        <time>2015-06-28T08:30:53Z</time>
      </trkpt>
      <trkpt lat="46.87565" lon="6.37772">
        <ele>1026.83</ele>
        <time>2015-06-28T08:30:54Z</time>
      </trkpt>
      <trkpt lat="46.87564" lon="6.37776">
        <ele>1026.34</ele>
        <time>2015-06-28T08:30:55Z</time>
      </trkpt>
      <trkpt lat="46.87563" lon="6.37779">
        <ele>1025.86</ele>
        <time>2015-06-28T08:30:56Z</time>
      </trkpt>
      <trkpt lat="46.87566" lon="6.37799">
        <ele>1023.94</ele>
        <time>2015-06-28T08:31:02Z</time>
      </trkpt>
      <trkpt lat="46.87566" lon="6.378">
        <ele>1023.94</ele>
        <time>2015-06-28T08:31:03Z</time>
      </trkpt>
      <trkpt lat="46.87567" lon="6.37805">
        <ele>1023.46</ele>
        <time>2015-06-28T08:31:15Z</time>
      </trkpt>
      <trkpt lat="46.87566" lon="6.37805">
        <ele>1022.98</ele>
        <time>2015-06-28T08:31:48Z</time>
      </trkpt>
      <trkpt lat="46.87567" lon="6.37806">
        <ele>1022.98</ele>
        <time>2015-06-28T08:32:07Z</time>
      </trkpt>
      <trkpt lat="46.87568" lon="6.37808">
        <ele>1022.5</ele>
        <time>2015-06-28T08:32:08Z</time>
      </trkpt>
      <trkpt lat="46.8757" lon="6.37811">
        <ele>1022.5</ele>
        <time>2015-06-28T08:32:09Z</time>
      </trkpt>
      <trkpt lat="46.87572" lon="6.37813">
        <ele>1022.02</ele>
        <time>2015-06-28T08:32:10Z</time>
      </trkpt>
      <trkpt lat="46.87575" lon="6.37815">
        <ele>1022.02</ele>
        <time>2015-06-28T08:32:11Z</time>
      </trkpt>
      <trkpt lat="46.87577" lon="6.37818">
        <ele>1022.02</ele>
        <time>2015-06-28T08:32:12Z</time>
      </trkpt>
      <trkpt lat="46.8758" lon="6.3782">
        <ele>1021.06</ele>
        <time>2015-06-28T08:32:13Z</time>
      </trkpt>
      <trkpt lat="46.87582" lon="6.37823">
        <ele>1021.06</ele>
        <time>2015-06-28T08:32:14Z</time>
      </trkpt>
      <trkpt lat="46.87584" lon="6.37825">
        <ele>1020.58</ele>
        <time>2015-06-28T08:32:15Z</time>
      </trkpt>
      <trkpt lat="46.87586" lon="6.37828">
        <ele>1020.58</ele>
        <time>2015-06-28T08:32:16Z</time>
      </trkpt>
      <trkpt lat="46.8759" lon="6.37835">
        <ele>1020.1</ele>
        <time>2015-06-28T08:32:18Z</time>
      </trkpt>
      <trkpt lat="46.87593" lon="6.37838">
        <ele>1019.62</ele>
        <time>2015-06-28T08:32:19Z</time>
      </trkpt>
      <trkpt lat="46.87618" lon="6.37861">
        <ele>1016.25</ele>
        <time>2015-06-28T08:32:30Z</time>
      </trkpt>
      <trkpt lat="46.87628" lon="6.37866">
        <ele>1015.77</ele>
        <time>2015-06-28T08:32:42Z</time>
      </trkpt>
      <trkpt lat="46.87631" lon="6.3787">
        <ele>1015.29</ele>
        <time>2015-06-28T08:32:58Z</time>
      </trkpt>
      <trkpt lat="46.87632" lon="6.37873">
        <ele>1014.81</ele>
        <time>2015-06-28T08:33:08Z</time>
      </trkpt>
      <trkpt lat="46.87635" lon="6.37877">
        <ele>1014.33</ele>
        <time>2015-06-28T08:33:11Z</time>
      </trkpt>
      <trkpt lat="46.87636" lon="6.37879">
        <ele>1014.33</ele>
        <time>2015-06-28T08:33:12Z</time>
      </trkpt>
      <trkpt lat="46.87645" lon="6.37917">
        <ele>1011.44</ele>
        <time>2015-06-28T08:33:20Z</time>
      </trkpt>
      <trkpt lat="46.87646" lon="6.37936">
        <ele>1010</ele>
        <time>2015-06-28T08:33:23Z</time>
      </trkpt>
      <trkpt lat="46.87636" lon="6.37965">
        <ele>1007.6</ele>
        <time>2015-06-28T08:33:29Z</time>
      </trkpt>
      <trkpt lat="46.87605" lon="6.37979">
        <ele>1003.75</ele>
        <time>2015-06-28T08:33:38Z</time>
      </trkpt>
      <trkpt lat="46.87602" lon="6.37977">
        <ele>1003.27</ele>
        <time>2015-06-28T08:33:39Z</time>
      </trkpt>
      <trkpt lat="46.876" lon="6.37975">
        <ele>1003.27</ele>
        <time>2015-06-28T08:33:40Z</time>
      </trkpt>
      <trkpt lat="46.87599" lon="6.37972">
        <ele>1002.79</ele>
        <time>2015-06-28T08:33:41Z</time>
      </trkpt>
      <trkpt lat="46.87597" lon="6.3797">
        <ele>1002.79</ele>
        <time>2015-06-28T08:33:42Z</time>
      </trkpt>
      <trkpt lat="46.87596" lon="6.37967">
        <ele>1002.31</ele>
        <time>2015-06-28T08:33:43Z</time>
      </trkpt>
      <trkpt lat="46.87595" lon="6.37965">
        <ele>1002.31</ele>
        <time>2015-06-28T08:33:44Z</time>
      </trkpt>
      <trkpt lat="46.87594" lon="6.37963">
        <ele>1002.31</ele>
        <time>2015-06-28T08:33:45Z</time>
      </trkpt>
      <trkpt lat="46.87594" lon="6.37959">
        <ele>1002.31</ele>
        <time>2015-06-28T08:33:46Z</time>
      </trkpt>
      <trkpt lat="46.87588" lon="6.37927">
        <ele>1000.39</ele>
        <time>2015-06-28T08:33:55Z</time>
      </trkpt>
      <trkpt lat="46.87585" lon="6.37924">
        <ele>1000.39</ele>
        <time>2015-06-28T08:33:56Z</time>
      </trkpt>
      <trkpt lat="46.87583" lon="6.37921">
        <ele>999.91</ele>
        <time>2015-06-28T08:33:57Z</time>
      </trkpt>
      <trkpt lat="46.87556" lon="6.37909">
        <ele>997.51</ele>
        <time>2015-06-28T08:34:06Z</time>
      </trkpt>
      <trkpt lat="46.87526" lon="6.37902">
        <ele>994.14</ele>
        <time>2015-06-28T08:34:12Z</time>
      </trkpt>
      <trkpt lat="46.87511" lon="6.37897">
        <ele>992.22</ele>
        <time>2015-06-28T08:34:16Z</time>
      </trkpt>
      <trkpt lat="46.87481" lon="6.37886">
        <ele>988.85</ele>
        <time>2015-06-28T08:34:26Z</time>
      </trkpt>
      <trkpt lat="46.87472" lon="6.37885">
        <ele>988.37</ele>
        <time>2015-06-28T08:34:37Z</time>
      </trkpt>
      <trkpt lat="46.87471" lon="6.37884">
        <ele>987.89</ele>
        <time>2015-06-28T08:35:06Z</time>
      </trkpt>
      <trkpt lat="46.8747" lon="6.37884">
        <ele>987.41</ele>
        <time>2015-06-28T08:35:19Z</time>
      </trkpt>
      <trkpt lat="46.87469" lon="6.37884">
        <ele>987.41</ele>
        <time>2015-06-28T08:35:42Z</time>
      </trkpt>
      <trkpt lat="46.87468" lon="6.37884">
        <ele>987.41</ele>
        <time>2015-06-28T08:35:56Z</time>
      </trkpt>
      <trkpt lat="46.87465" lon="6.37885">
        <ele>987.41</ele>
        <time>2015-06-28T08:35:57Z</time>
      </trkpt>
      <trkpt lat="46.87463" lon="6.37886">
        <ele>987.41</ele>
        <time>2015-06-28T08:35:58Z</time>
      </trkpt>
      <trkpt lat="46.8746" lon="6.37886">
        <ele>986.93</ele>
        <time>2015-06-28T08:35:59Z</time>
      </trkpt>
      <trkpt lat="46.87457" lon="6.37887">
        <ele>986.45</ele>
        <time>2015-06-28T08:36:00Z</time>
      </trkpt>
      <trkpt lat="46.87453" lon="6.37888">
        <ele>986.45</ele>
        <time>2015-06-28T08:36:01Z</time>
      </trkpt>
      <trkpt lat="46.8745" lon="6.3789">
        <ele>985.97</ele>
        <time>2015-06-28T08:36:02Z</time>
      </trkpt>
      <trkpt lat="46.87447" lon="6.37891">
        <ele>985.01</ele>
        <time>2015-06-28T08:36:03Z</time>
      </trkpt>
      <trkpt lat="46.87443" lon="6.37893">
        <ele>985.01</ele>
        <time>2015-06-28T08:36:04Z</time>
      </trkpt>
      <trkpt lat="46.8744" lon="6.37895">
        <ele>985.01</ele>
        <time>2015-06-28T08:36:05Z</time>
      </trkpt>
      <trkpt lat="46.87437" lon="6.37899">
        <ele>984.53</ele>
        <time>2015-06-28T08:36:06Z</time>
      </trkpt>
      <trkpt lat="46.87435" lon="6.37902">
        <ele>984.05</ele>
        <time>2015-06-28T08:36:07Z</time>
      </trkpt>
      <trkpt lat="46.87433" lon="6.37907">
        <ele>984.05</ele>
        <time>2015-06-28T08:36:08Z</time>
      </trkpt>
      <trkpt lat="46.87432" lon="6.37912">
        <ele>984.05</ele>
        <time>2015-06-28T08:36:09Z</time>
      </trkpt>
      <trkpt lat="46.87432" lon="6.37917">
        <ele>983.09</ele>
        <time>2015-06-28T08:36:10Z</time>
      </trkpt>
      <trkpt lat="46.87431" lon="6.37923">
        <ele>983.09</ele>
        <time>2015-06-28T08:36:11Z</time>
      </trkpt>
      <trkpt lat="46.87431" lon="6.37929">
        <ele>981.64</ele>
        <time>2015-06-28T08:36:12Z</time>
      </trkpt>
      <trkpt lat="46.8743" lon="6.37946">
        <ele>981.16</ele>
        <time>2015-06-28T08:36:15Z</time>
      </trkpt>
      <trkpt lat="46.8743" lon="6.37951">
        <ele>980.68</ele>
        <time>2015-06-28T08:36:16Z</time>
      </trkpt>
      <trkpt lat="46.8743" lon="6.37957">
        <ele>980.2</ele>
        <time>2015-06-28T08:36:17Z</time>
      </trkpt>
      <trkpt lat="46.8743" lon="6.37963">
        <ele>979.24</ele>
        <time>2015-06-28T08:36:18Z</time>
      </trkpt>
      <trkpt lat="46.8743" lon="6.37968">
        <ele>979.72</ele>
        <time>2015-06-28T08:36:19Z</time>
      </trkpt>
      <trkpt lat="46.87427" lon="6.38011">
        <ele>976.36</ele>
        <time>2015-06-28T08:36:26Z</time>
      </trkpt>
      <trkpt lat="46.87426" lon="6.38055">
        <ele>972.99</ele>
        <time>2015-06-28T08:36:34Z</time>
      </trkpt>
      <trkpt lat="46.87426" lon="6.38096">
        <ele>970.11</ele>
        <time>2015-06-28T08:36:42Z</time>
      </trkpt>
      <trkpt lat="46.87426" lon="6.38124">
        <ele>967.7</ele>
        <time>2015-06-28T08:36:47Z</time>
      </trkpt>
      <trkpt lat="46.87427" lon="6.38163">
        <ele>965.3</ele>
        <time>2015-06-28T08:36:53Z</time>
      </trkpt>
      <trkpt lat="46.87427" lon="6.38169">
        <ele>964.34</ele>
        <time>2015-06-28T08:36:54Z</time>
      </trkpt>
      <trkpt lat="46.87428" lon="6.38174">
        <ele>963.86</ele>
        <time>2015-06-28T08:36:55Z</time>
      </trkpt>
      <trkpt lat="46.87431" lon="6.38212">
        <ele>960.98</ele>
        <time>2015-06-28T08:37:03Z</time>
      </trkpt>
      <trkpt lat="46.87432" lon="6.38215">
        <ele>960.49</ele>
        <time>2015-06-28T08:37:04Z</time>
      </trkpt>
      <trkpt lat="46.87438" lon="6.38259">
        <ele>957.13</ele>
        <time>2015-06-28T08:37:13Z</time>
      </trkpt>
      <trkpt lat="46.87438" lon="6.38264">
        <ele>957.13</ele>
        <time>2015-06-28T08:37:14Z</time>
      </trkpt>
      <trkpt lat="46.87442" lon="6.38285">
        <ele>955.21</ele>
        <time>2015-06-28T08:37:20Z</time>
      </trkpt>
      <trkpt lat="46.87441" lon="6.38287">
        <ele>954.73</ele>
        <time>2015-06-28T08:37:21Z</time>
      </trkpt>
      <trkpt lat="46.87441" lon="6.38287">
        <ele>954.73</ele>
        <time>2015-06-28T08:37:30Z</time>
      </trkpt>
      <trkpt lat="46.87439" lon="6.38286">
        <ele>954.25</ele>
        <time>2015-06-28T08:37:33Z</time>
      </trkpt>
      <trkpt lat="46.87433" lon="6.38274">
        <ele>952.8</ele>
        <time>2015-06-28T08:37:41Z</time>
      </trkpt>
      <trkpt lat="46.8741" lon="6.38241">
        <ele>949.44</ele>
        <time>2015-06-28T08:37:51Z</time>
      </trkpt>
      <trkpt lat="46.87393" lon="6.38225">
        <ele>947.52</ele>
        <time>2015-06-28T08:37:57Z</time>
      </trkpt>
      <trkpt lat="46.8739" lon="6.38221">
        <ele>947.04</ele>
        <time>2015-06-28T08:37:58Z</time>
      </trkpt>
      <trkpt lat="46.87387" lon="6.38216">
        <ele>946.56</ele>
        <time>2015-06-28T08:37:59Z</time>
      </trkpt>
      <trkpt lat="46.87384" lon="6.38212">
        <ele>946.07</ele>
        <time>2015-06-28T08:38:00Z</time>
      </trkpt>
      <trkpt lat="46.87382" lon="6.38208">
        <ele>946.07</ele>
        <time>2015-06-28T08:38:01Z</time>
      </trkpt>
      <trkpt lat="46.87374" lon="6.38182">
        <ele>943.19</ele>
        <time>2015-06-28T08:38:09Z</time>
      </trkpt>
      <trkpt lat="46.87371" lon="6.38173">
        <ele>942.71</ele>
        <time>2015-06-28T08:38:12Z</time>
      </trkpt>
      <trkpt lat="46.8737" lon="6.38169">
        <ele>941.75</ele>
        <time>2015-06-28T08:38:13Z</time>
      </trkpt>
      <trkpt lat="46.87369" lon="6.38164">
        <ele>942.23</ele>
        <time>2015-06-28T08:38:14Z</time>
      </trkpt>
      <trkpt lat="46.87365" lon="6.38133">
        <ele>939.83</ele>
        <time>2015-06-28T08:38:19Z</time>
      </trkpt>
      <trkpt lat="46.87357" lon="6.38087">
        <ele>935.98</ele>
        <time>2015-06-28T08:38:27Z</time>
      </trkpt>
      <trkpt lat="46.87352" lon="6.38066">
        <ele>934.54</ele>
        <time>2015-06-28T08:38:31Z</time>
      </trkpt>
      <trkpt lat="46.87347" lon="6.38051">
        <ele>934.06</ele>
        <time>2015-06-28T08:38:33Z</time>
      </trkpt>
      <trkpt lat="46.87337" lon="6.38013">
        <ele>930.69</ele>
        <time>2015-06-28T08:38:40Z</time>
      </trkpt>
      <trkpt lat="46.87329" lon="6.37996">
        <ele>929.25</ele>
        <time>2015-06-28T08:38:50Z</time>
      </trkpt>
      <trkpt lat="46.87327" lon="6.37994">
        <ele>928.77</ele>
        <time>2015-06-28T08:38:52Z</time>
      </trkpt>
      <trkpt lat="46.87326" lon="6.37996">
        <ele>928.77</ele>
        <time>2015-06-28T08:38:53Z</time>
      </trkpt>
      <trkpt lat="46.87325" lon="6.37998">
        <ele>928.77</ele>
        <time>2015-06-28T08:38:54Z</time>
      </trkpt>
      <trkpt lat="46.87325" lon="6.38002">
        <ele>928.29</ele>
        <time>2015-06-28T08:38:55Z</time>
      </trkpt>
      <trkpt lat="46.87325" lon="6.38005">
        <ele>927.81</ele>
        <time>2015-06-28T08:38:56Z</time>
      </trkpt>
      <trkpt lat="46.87326" lon="6.38007">
        <ele>927.81</ele>
        <time>2015-06-28T08:38:57Z</time>
      </trkpt>
      <trkpt lat="46.87326" lon="6.3801">
        <ele>927.81</ele>
        <time>2015-06-28T08:38:58Z</time>
      </trkpt>
      <trkpt lat="46.87326" lon="6.38013">
        <ele>927.33</ele>
        <time>2015-06-28T08:38:59Z</time>
      </trkpt>
      <trkpt lat="46.87327" lon="6.38016">
        <ele>927.33</ele>
        <time>2015-06-28T08:39:00Z</time>
      </trkpt>
      <trkpt lat="46.87327" lon="6.38019">
        <ele>926.85</ele>
        <time>2015-06-28T08:39:01Z</time>
      </trkpt>
      <trkpt lat="46.87331" lon="6.38047">
        <ele>924.93</ele>
        <time>2015-06-28T08:39:07Z</time>
      </trkpt>
      <trkpt lat="46.87333" lon="6.38065">
        <ele>923.48</ele>
        <time>2015-06-28T08:39:10Z</time>
      </trkpt>
      <trkpt lat="46.87333" lon="6.38072">
        <ele>923</ele>
        <time>2015-06-28T08:39:11Z</time>
      </trkpt>
      <trkpt lat="46.87335" lon="6.38103">
        <ele>920.12</ele>
        <time>2015-06-28T08:39:17Z</time>
      </trkpt>
      <trkpt lat="46.87335" lon="6.38111">
        <ele>919.64</ele>
        <time>2015-06-28T08:39:18Z</time>
      </trkpt>
      <trkpt lat="46.87333" lon="6.38145">
        <ele>917.24</ele>
        <time>2015-06-28T08:39:22Z</time>
      </trkpt>
      <trkpt lat="46.87332" lon="6.38153">
        <ele>916.75</ele>
        <time>2015-06-28T08:39:23Z</time>
      </trkpt>
      <trkpt lat="46.87331" lon="6.3816">
        <ele>916.27</ele>
        <time>2015-06-28T08:39:24Z</time>
      </trkpt>
      <trkpt lat="46.87331" lon="6.38167">
        <ele>915.31</ele>
        <time>2015-06-28T08:39:25Z</time>
      </trkpt>
      <trkpt lat="46.8733" lon="6.38175">
        <ele>915.31</ele>
        <time>2015-06-28T08:39:26Z</time>
      </trkpt>
      <trkpt lat="46.87328" lon="6.38192">
        <ele>914.35</ele>
        <time>2015-06-28T08:39:28Z</time>
      </trkpt>
      <trkpt lat="46.87326" lon="6.38207">
        <ele>913.39</ele>
        <time>2015-06-28T08:39:30Z</time>
      </trkpt>
      <trkpt lat="46.87325" lon="6.38214">
        <ele>912.43</ele>
        <time>2015-06-28T08:39:31Z</time>
      </trkpt>
      <trkpt lat="46.87326" lon="6.38255">
        <ele>909.54</ele>
        <time>2015-06-28T08:39:36Z</time>
      </trkpt>
      <trkpt lat="46.87327" lon="6.38264">
        <ele>909.06</ele>
        <time>2015-06-28T08:39:37Z</time>
      </trkpt>
      <trkpt lat="46.87329" lon="6.38293">
        <ele>907.14</ele>
        <time>2015-06-28T08:39:40Z</time>
      </trkpt>
      <trkpt lat="46.87329" lon="6.38301">
        <ele>906.66</ele>
        <time>2015-06-28T08:39:41Z</time>
      </trkpt>
      <trkpt lat="46.8733" lon="6.38308">
        <ele>905.7</ele>
        <time>2015-06-28T08:39:42Z</time>
      </trkpt>
      <trkpt lat="46.8733" lon="6.38314">
        <ele>905.22</ele>
        <time>2015-06-28T08:39:43Z</time>
      </trkpt>
      <trkpt lat="46.8733" lon="6.38319">
        <ele>905.7</ele>
        <time>2015-06-28T08:39:44Z</time>
      </trkpt>
      <trkpt lat="46.87329" lon="6.38323">
        <ele>905.22</ele>
        <time>2015-06-28T08:39:45Z</time>
      </trkpt>
      <trkpt lat="46.87328" lon="6.38326">
        <ele>904.26</ele>
        <time>2015-06-28T08:39:46Z</time>
      </trkpt>
      <trkpt lat="46.87324" lon="6.38328">
        <ele>903.78</ele>
        <time>2015-06-28T08:39:48Z</time>
      </trkpt>
      <trkpt lat="46.87318" lon="6.3831">
        <ele>901.85</ele>
        <time>2015-06-28T08:39:52Z</time>
      </trkpt>
      <trkpt lat="46.87313" lon="6.38287">
        <ele>900.41</ele>
        <time>2015-06-28T08:39:55Z</time>
      </trkpt>
      <trkpt lat="46.87308" lon="6.38273">
        <ele>899.45</ele>
        <time>2015-06-28T08:39:57Z</time>
      </trkpt>
      <trkpt lat="46.87302" lon="6.3826">
        <ele>898.49</ele>
        <time>2015-06-28T08:39:59Z</time>
      </trkpt>
      <trkpt lat="46.87293" lon="6.3824">
        <ele>896.57</ele>
        <time>2015-06-28T08:40:02Z</time>
      </trkpt>
      <trkpt lat="46.87291" lon="6.38233">
        <ele>895.61</ele>
        <time>2015-06-28T08:40:03Z</time>
      </trkpt>
      <trkpt lat="46.8729" lon="6.38226">
        <ele>895.61</ele>
        <time>2015-06-28T08:40:04Z</time>
      </trkpt>
      <trkpt lat="46.8729" lon="6.3822">
        <ele>894.64</ele>
        <time>2015-06-28T08:40:05Z</time>
      </trkpt>
      <trkpt lat="46.8729" lon="6.38214">
        <ele>894.64</ele>
        <time>2015-06-28T08:40:06Z</time>
      </trkpt>
      <trkpt lat="46.87286" lon="6.38189">
        <ele>892.24</ele>
        <time>2015-06-28T08:40:10Z</time>
      </trkpt>
      <trkpt lat="46.87286" lon="6.38183">
        <ele>891.76</ele>
        <time>2015-06-28T08:40:11Z</time>
      </trkpt>
      <trkpt lat="46.87278" lon="6.38146">
        <ele>888.88</ele>
        <time>2015-06-28T08:40:18Z</time>
      </trkpt>
      <trkpt lat="46.87272" lon="6.38123">
        <ele>886.95</ele>
        <time>2015-06-28T08:40:23Z</time>
      </trkpt>
      <trkpt lat="46.87261" lon="6.38083">
        <ele>883.11</ele>
        <time>2015-06-28T08:40:33Z</time>
      </trkpt>
      <trkpt lat="46.87249" lon="6.38043">
        <ele>880.22</ele>
        <time>2015-06-28T08:40:42Z</time>
      </trkpt>
      <trkpt lat="46.87247" lon="6.38039">
        <ele>879.26</ele>
        <time>2015-06-28T08:40:44Z</time>
      </trkpt>
      <trkpt lat="46.87246" lon="6.38036">
        <ele>879.26</ele>
        <time>2015-06-28T08:40:45Z</time>
      </trkpt>
      <trkpt lat="46.87245" lon="6.38034">
        <ele>879.26</ele>
        <time>2015-06-28T08:40:46Z</time>
      </trkpt>
      <trkpt lat="46.87244" lon="6.38032">
        <ele>879.26</ele>
        <time>2015-06-28T08:40:47Z</time>
      </trkpt>
      <trkpt lat="46.87244" lon="6.3803">
        <ele>878.78</ele>
        <time>2015-06-28T08:40:48Z</time>
      </trkpt>
      <trkpt lat="46.87243" lon="6.38028">
        <ele>878.78</ele>
        <time>2015-06-28T08:40:49Z</time>
      </trkpt>
      <trkpt lat="46.87242" lon="6.38026">
        <ele>878.3</ele>
        <time>2015-06-28T08:41:00Z</time>
      </trkpt>
      <trkpt lat="46.87242" lon="6.38025">
        <ele>878.3</ele>
        <time>2015-06-28T08:41:05Z</time>
      </trkpt>
      <trkpt lat="46.87241" lon="6.38022">
        <ele>877.82</ele>
        <time>2015-06-28T08:41:15Z</time>
      </trkpt>
      <trkpt lat="46.8724" lon="6.38021">
        <ele>877.82</ele>
        <time>2015-06-28T08:41:28Z</time>
      </trkpt>
      <trkpt lat="46.87237" lon="6.38019">
        <ele>877.34</ele>
        <time>2015-06-28T08:41:40Z</time>
      </trkpt>
      <trkpt lat="46.87235" lon="6.38014">
        <ele>876.86</ele>
        <time>2015-06-28T08:41:55Z</time>
      </trkpt>
      <trkpt lat="46.87235" lon="6.38015">
        <ele>877.34</ele>
        <time>2015-06-28T08:42:20Z</time>
      </trkpt>
      <trkpt lat="46.87235" lon="6.38014">
        <ele>876.86</ele>
        <time>2015-06-28T08:42:38Z</time>
      </trkpt>
      <trkpt lat="46.87234" lon="6.3801">
        <ele>876.86</ele>
        <time>2015-06-28T08:42:50Z</time>
      </trkpt>
      <trkpt lat="46.87235" lon="6.38009">
        <ele>877.34</ele>
        <time>2015-06-28T08:43:19Z</time>
      </trkpt>
      <trkpt lat="46.87235" lon="6.38007">
        <ele>876.86</ele>
        <time>2015-06-28T08:43:53Z</time>
      </trkpt>
      <trkpt lat="46.87235" lon="6.38006">
        <ele>877.34</ele>
        <time>2015-06-28T08:43:59Z</time>
      </trkpt>
      <trkpt lat="46.87234" lon="6.38002">
        <ele>876.86</ele>
        <time>2015-06-28T08:44:01Z</time>
      </trkpt>
      <trkpt lat="46.87233" lon="6.38001">
        <ele>876.86</ele>
        <time>2015-06-28T08:44:02Z</time>
      </trkpt>
      <trkpt lat="46.87229" lon="6.37998">
        <ele>875.9</ele>
        <time>2015-06-28T08:44:10Z</time>
      </trkpt>
      <trkpt lat="46.87228" lon="6.37998">
        <ele>876.38</ele>
        <time>2015-06-28T08:44:11Z</time>
      </trkpt>
      <trkpt lat="46.87217" lon="6.38002">
        <ele>875.42</ele>
        <time>2015-06-28T08:44:25Z</time>
      </trkpt>
      <trkpt lat="46.87214" lon="6.38006">
        <ele>875.42</ele>
        <time>2015-06-28T08:44:30Z</time>
      </trkpt>
      <trkpt lat="46.87213" lon="6.38009">
        <ele>875.9</ele>
        <time>2015-06-28T08:44:31Z</time>
      </trkpt>
      <trkpt lat="46.87212" lon="6.38013">
        <ele>875.42</ele>
        <time>2015-06-28T08:44:32Z</time>
      </trkpt>
      <trkpt lat="46.87212" lon="6.38018">
        <ele>875.42</ele>
        <time>2015-06-28T08:44:33Z</time>
      </trkpt>
      <trkpt lat="46.87212" lon="6.38022">
        <ele>875.9</ele>
        <time>2015-06-28T08:44:34Z</time>
      </trkpt>
      <trkpt lat="46.87213" lon="6.38113">
        <ele>876.38</ele>
        <time>2015-06-28T08:44:52Z</time>
      </trkpt>
      <trkpt lat="46.87213" lon="6.3813">
        <ele>876.38</ele>
        <time>2015-06-28T08:44:55Z</time>
      </trkpt>
      <trkpt lat="46.87215" lon="6.38231">
        <ele>875.42</ele>
        <time>2015-06-28T08:45:11Z</time>
      </trkpt>
      <trkpt lat="46.87221" lon="6.38333">
        <ele>873.98</ele>
        <time>2015-06-28T08:45:25Z</time>
      </trkpt>
      <trkpt lat="46.87227" lon="6.38428">
        <ele>874.94</ele>
        <time>2015-06-28T08:45:40Z</time>
      </trkpt>
      <trkpt lat="46.87236" lon="6.3849">
        <ele>875.9</ele>
        <time>2015-06-28T08:45:50Z</time>
      </trkpt>
      <trkpt lat="46.87239" lon="6.38501">
        <ele>875.9</ele>
        <time>2015-06-28T08:45:52Z</time>
      </trkpt>
      <trkpt lat="46.8724" lon="6.38508">
        <ele>875.9</ele>
        <time>2015-06-28T08:45:53Z</time>
      </trkpt>
      <trkpt lat="46.87248" lon="6.38605">
        <ele>877.82</ele>
        <time>2015-06-28T08:46:10Z</time>
      </trkpt>
      <trkpt lat="46.87264" lon="6.38681">
        <ele>879.74</ele>
        <time>2015-06-28T08:46:26Z</time>
      </trkpt>
      <trkpt lat="46.87273" lon="6.38744">
        <ele>880.22</ele>
        <time>2015-06-28T08:46:38Z</time>
      </trkpt>
      <trkpt lat="46.87273" lon="6.38837">
        <ele>880.22</ele>
        <time>2015-06-28T08:46:53Z</time>
      </trkpt>
      <trkpt lat="46.87266" lon="6.38932">
        <ele>880.22</ele>
        <time>2015-06-28T08:47:09Z</time>
      </trkpt>
      <trkpt lat="46.87262" lon="6.38954">
        <ele>880.22</ele>
        <time>2015-06-28T08:47:15Z</time>
      </trkpt>
      <trkpt lat="46.87261" lon="6.38955">
        <ele>880.22</ele>
        <time>2015-06-28T08:47:16Z</time>
      </trkpt>
      <trkpt lat="46.8726" lon="6.38956">
        <ele>879.74</ele>
        <time>2015-06-28T08:47:17Z</time>
      </trkpt>
      <trkpt lat="46.87259" lon="6.38957">
        <ele>880.22</ele>
        <time>2015-06-28T08:47:18Z</time>
      </trkpt>
      <trkpt lat="46.87257" lon="6.38959">
        <ele>880.22</ele>
        <time>2015-06-28T08:47:19Z</time>
      </trkpt>
      <trkpt lat="46.87256" lon="6.38961">
        <ele>880.22</ele>
        <time>2015-06-28T08:47:20Z</time>
      </trkpt>
      <trkpt lat="46.87248" lon="6.39015">
        <ele>880.22</ele>
        <time>2015-06-28T08:47:32Z</time>
      </trkpt>
      <trkpt lat="46.87243" lon="6.39073">
        <ele>881.19</ele>
        <time>2015-06-28T08:47:42Z</time>
      </trkpt>
      <trkpt lat="46.87243" lon="6.39095">
        <ele>881.67</ele>
        <time>2015-06-28T08:47:46Z</time>
      </trkpt>
      <trkpt lat="46.87245" lon="6.39119">
        <ele>882.15</ele>
        <time>2015-06-28T08:47:50Z</time>
      </trkpt>
      <trkpt lat="46.87246" lon="6.39125">
        <ele>882.15</ele>
        <time>2015-06-28T08:47:51Z</time>
      </trkpt>
      <trkpt lat="46.87247" lon="6.3913">
        <ele>882.63</ele>
        <time>2015-06-28T08:47:52Z</time>
      </trkpt>
      <trkpt lat="46.8725" lon="6.39148">
        <ele>882.15</ele>
        <time>2015-06-28T08:47:55Z</time>
      </trkpt>
      <trkpt lat="46.87282" lon="6.39271">
        <ele>882.15</ele>
        <time>2015-06-28T08:48:13Z</time>
      </trkpt>
      <trkpt lat="46.87284" lon="6.39286">
        <ele>881.67</ele>
        <time>2015-06-28T08:48:15Z</time>
      </trkpt>
      <trkpt lat="46.87283" lon="6.39294">
        <ele>882.15</ele>
        <time>2015-06-28T08:48:16Z</time>
      </trkpt>
      <trkpt lat="46.87282" lon="6.39301">
        <ele>882.15</ele>
        <time>2015-06-28T08:48:17Z</time>
      </trkpt>
      <trkpt lat="46.8728" lon="6.39309">
        <ele>882.15</ele>
        <time>2015-06-28T08:48:18Z</time>
      </trkpt>
      <trkpt lat="46.87279" lon="6.39316">
        <ele>881.67</ele>
        <time>2015-06-28T08:48:19Z</time>
      </trkpt>
      <trkpt lat="46.87279" lon="6.39324">
        <ele>882.15</ele>
        <time>2015-06-28T08:48:20Z</time>
      </trkpt>
      <trkpt lat="46.8728" lon="6.39332">
        <ele>881.67</ele>
        <time>2015-06-28T08:48:21Z</time>
      </trkpt>
      <trkpt lat="46.8728" lon="6.3934">
        <ele>881.67</ele>
        <time>2015-06-28T08:48:22Z</time>
      </trkpt>
      <trkpt lat="46.87292" lon="6.3942">
        <ele>879.74</ele>
        <time>2015-06-28T08:48:31Z</time>
      </trkpt>
      <trkpt lat="46.87292" lon="6.3943">
        <ele>879.26</ele>
        <time>2015-06-28T08:48:32Z</time>
      </trkpt>
      <trkpt lat="46.87292" lon="6.39439">
        <ele>879.26</ele>
        <time>2015-06-28T08:48:33Z</time>
      </trkpt>
      <trkpt lat="46.8729" lon="6.39447">
        <ele>878.78</ele>
        <time>2015-06-28T08:48:34Z</time>
      </trkpt>
      <trkpt lat="46.87287" lon="6.39455">
        <ele>878.78</ele>
        <time>2015-06-28T08:48:35Z</time>
      </trkpt>
      <trkpt lat="46.87285" lon="6.39463">
        <ele>878.3</ele>
        <time>2015-06-28T08:48:36Z</time>
      </trkpt>
      <trkpt lat="46.87282" lon="6.39472">
        <ele>878.3</ele>
        <time>2015-06-28T08:48:37Z</time>
      </trkpt>
      <trkpt lat="46.87261" lon="6.39546">
        <ele>877.82</ele>
        <time>2015-06-28T08:48:46Z</time>
      </trkpt>
      <trkpt lat="46.87247" lon="6.39618">
        <ele>878.78</ele>
        <time>2015-06-28T08:48:56Z</time>
      </trkpt>
      <trkpt lat="46.87246" lon="6.39624">
        <ele>878.78</ele>
        <time>2015-06-28T08:48:57Z</time>
      </trkpt>
      <trkpt lat="46.87226" lon="6.39696">
        <ele>881.19</ele>
        <time>2015-06-28T08:49:12Z</time>
      </trkpt>
      <trkpt lat="46.87191" lon="6.39738">
        <ele>884.55</ele>
        <time>2015-06-28T08:49:28Z</time>
      </trkpt>
      <trkpt lat="46.87173" lon="6.39771">
        <ele>886.47</ele>
        <time>2015-06-28T08:49:41Z</time>
      </trkpt>
      <trkpt lat="46.87165" lon="6.39819">
        <ele>889.36</ele>
        <time>2015-06-28T08:49:56Z</time>
      </trkpt>
      <trkpt lat="46.87178" lon="6.39854">
        <ele>891.76</ele>
        <time>2015-06-28T08:50:10Z</time>
      </trkpt>
      <trkpt lat="46.87204" lon="6.39884">
        <ele>894.16</ele>
        <time>2015-06-28T08:50:25Z</time>
      </trkpt>
      <trkpt lat="46.87224" lon="6.39914">
        <ele>896.09</ele>
        <time>2015-06-28T08:50:40Z</time>
      </trkpt>
      <trkpt lat="46.87241" lon="6.3995">
        <ele>898.49</ele>
        <time>2015-06-28T08:50:56Z</time>
      </trkpt>
      <trkpt lat="46.8725" lon="6.39983">
        <ele>900.89</ele>
        <time>2015-06-28T08:51:10Z</time>
      </trkpt>
      <trkpt lat="46.87255" lon="6.39999">
        <ele>901.85</ele>
        <time>2015-06-28T08:51:17Z</time>
      </trkpt>
      <trkpt lat="46.87256" lon="6.40001">
        <ele>902.33</ele>
        <time>2015-06-28T08:51:18Z</time>
      </trkpt>
      <trkpt lat="46.87257" lon="6.40003">
        <ele>902.82</ele>
        <time>2015-06-28T08:51:19Z</time>
      </trkpt>
      <trkpt lat="46.87257" lon="6.40006">
        <ele>902.33</ele>
        <time>2015-06-28T08:51:20Z</time>
      </trkpt>
      <trkpt lat="46.87258" lon="6.40009">
        <ele>902.33</ele>
        <time>2015-06-28T08:51:21Z</time>
      </trkpt>
      <trkpt lat="46.87259" lon="6.40012">
        <ele>902.82</ele>
        <time>2015-06-28T08:51:22Z</time>
      </trkpt>
      <trkpt lat="46.87259" lon="6.40015">
        <ele>902.82</ele>
        <time>2015-06-28T08:51:23Z</time>
      </trkpt>
      <trkpt lat="46.8726" lon="6.40017">
        <ele>902.82</ele>
        <time>2015-06-28T08:51:24Z</time>
      </trkpt>
      <trkpt lat="46.8726" lon="6.4002">
        <ele>903.3</ele>
        <time>2015-06-28T08:51:25Z</time>
      </trkpt>
      <trkpt lat="46.87261" lon="6.40023">
        <ele>903.3</ele>
        <time>2015-06-28T08:51:26Z</time>
      </trkpt>
      <trkpt lat="46.87261" lon="6.40026">
        <ele>903.3</ele>
        <time>2015-06-28T08:51:27Z</time>
      </trkpt>
      <trkpt lat="46.87262" lon="6.40028">
        <ele>903.78</ele>
        <time>2015-06-28T08:51:28Z</time>
      </trkpt>
      <trkpt lat="46.87262" lon="6.40031">
        <ele>903.3</ele>
        <time>2015-06-28T08:51:29Z</time>
      </trkpt>
      <trkpt lat="46.87272" lon="6.40073">
        <ele>906.18</ele>
        <time>2015-06-28T08:51:45Z</time>
      </trkpt>
      <trkpt lat="46.87278" lon="6.40116">
        <ele>909.06</ele>
        <time>2015-06-28T08:52:01Z</time>
      </trkpt>
      <trkpt lat="46.87277" lon="6.40161">
        <ele>911.47</ele>
        <time>2015-06-28T08:52:18Z</time>
      </trkpt>
      <trkpt lat="46.87274" lon="6.40206">
        <ele>914.35</ele>
        <time>2015-06-28T08:52:34Z</time>
      </trkpt>
      <trkpt lat="46.8727" lon="6.40221">
        <ele>915.31</ele>
        <time>2015-06-28T08:52:40Z</time>
      </trkpt>
      <trkpt lat="46.8727" lon="6.40224">
        <ele>914.83</ele>
        <time>2015-06-28T08:52:41Z</time>
      </trkpt>
      <trkpt lat="46.8727" lon="6.40226">
        <ele>915.79</ele>
        <time>2015-06-28T08:52:42Z</time>
      </trkpt>
      <trkpt lat="46.8727" lon="6.40262">
        <ele>918.2</ele>
        <time>2015-06-28T08:52:56Z</time>
      </trkpt>
      <trkpt lat="46.87261" lon="6.40306">
        <ele>919.64</ele>
        <time>2015-06-28T08:53:14Z</time>
      </trkpt>
      <trkpt lat="46.8725" lon="6.40354">
        <ele>923</ele>
        <time>2015-06-28T08:53:33Z</time>
      </trkpt>
      <trkpt lat="46.87237" lon="6.40403">
        <ele>925.41</ele>
        <time>2015-06-28T08:53:52Z</time>
      </trkpt>
      <trkpt lat="46.87215" lon="6.40448">
        <ele>926.85</ele>
        <time>2015-06-28T08:54:09Z</time>
      </trkpt>
      <trkpt lat="46.8717" lon="6.405">
        <ele>926.85</ele>
        <time>2015-06-28T08:54:24Z</time>
      </trkpt>
      <trkpt lat="46.87121" lon="6.40536">
        <ele>928.29</ele>
        <time>2015-06-28T08:54:38Z</time>
      </trkpt>
      <trkpt lat="46.87119" lon="6.40541">
        <ele>927.81</ele>
        <time>2015-06-28T08:54:39Z</time>
      </trkpt>
      <trkpt lat="46.87118" lon="6.40546">
        <ele>928.29</ele>
        <time>2015-06-28T08:54:40Z</time>
      </trkpt>
      <trkpt lat="46.87117" lon="6.40552">
        <ele>928.77</ele>
        <time>2015-06-28T08:54:41Z</time>
      </trkpt>
      <trkpt lat="46.87117" lon="6.40557">
        <ele>928.29</ele>
        <time>2015-06-28T08:54:42Z</time>
      </trkpt>
      <trkpt lat="46.87117" lon="6.40563">
        <ele>928.77</ele>
        <time>2015-06-28T08:54:43Z</time>
      </trkpt>
      <trkpt lat="46.87118" lon="6.40568">
        <ele>929.25</ele>
        <time>2015-06-28T08:54:44Z</time>
      </trkpt>
      <trkpt lat="46.8712" lon="6.40572">
        <ele>928.77</ele>
        <time>2015-06-28T08:54:45Z</time>
      </trkpt>
      <trkpt lat="46.87122" lon="6.40576">
        <ele>929.25</ele>
        <time>2015-06-28T08:54:46Z</time>
      </trkpt>
      <trkpt lat="46.87124" lon="6.40581">
        <ele>929.25</ele>
        <time>2015-06-28T08:54:47Z</time>
      </trkpt>
      <trkpt lat="46.87126" lon="6.40585">
        <ele>928.77</ele>
        <time>2015-06-28T08:54:48Z</time>
      </trkpt>
      <trkpt lat="46.87128" lon="6.40589">
        <ele>929.25</ele>
        <time>2015-06-28T08:54:49Z</time>
      </trkpt>
      <trkpt lat="46.87154" lon="6.40638">
        <ele>931.17</ele>
        <time>2015-06-28T08:55:03Z</time>
      </trkpt>
      <trkpt lat="46.87177" lon="6.40689">
        <ele>933.58</ele>
        <time>2015-06-28T08:55:19Z</time>
      </trkpt>
      <trkpt lat="46.87193" lon="6.40723">
        <ele>934.54</ele>
        <time>2015-06-28T08:55:31Z</time>
      </trkpt>
      <trkpt lat="46.87209" lon="6.40762">
        <ele>936.46</ele>
        <time>2015-06-28T08:55:45Z</time>
      </trkpt>
      <trkpt lat="46.87234" lon="6.40801">
        <ele>938.38</ele>
        <time>2015-06-28T08:56:00Z</time>
      </trkpt>
      <trkpt lat="46.87254" lon="6.40839">
        <ele>939.83</ele>
        <time>2015-06-28T08:56:15Z</time>
      </trkpt>
      <trkpt lat="46.87273" lon="6.40877">
        <ele>941.75</ele>
        <time>2015-06-28T08:56:29Z</time>
      </trkpt>
      <trkpt lat="46.87292" lon="6.40914">
        <ele>943.67</ele>
        <time>2015-06-28T08:56:43Z</time>
      </trkpt>
      <trkpt lat="46.87293" lon="6.40917">
        <ele>943.67</ele>
        <time>2015-06-28T08:56:44Z</time>
      </trkpt>
      <trkpt lat="46.87294" lon="6.4092">
        <ele>943.67</ele>
        <time>2015-06-28T08:56:45Z</time>
      </trkpt>
      <trkpt lat="46.87295" lon="6.40923">
        <ele>943.67</ele>
        <time>2015-06-28T08:56:46Z</time>
      </trkpt>
      <trkpt lat="46.87296" lon="6.40927">
        <ele>943.67</ele>
        <time>2015-06-28T08:56:47Z</time>
      </trkpt>
      <trkpt lat="46.87297" lon="6.4093">
        <ele>943.67</ele>
        <time>2015-06-28T08:56:48Z</time>
      </trkpt>
      <trkpt lat="46.87318" lon="6.4098">
        <ele>944.63</ele>
        <time>2015-06-28T08:57:03Z</time>
      </trkpt>
      <trkpt lat="46.8734" lon="6.4103">
        <ele>945.59</ele>
        <time>2015-06-28T08:57:17Z</time>
      </trkpt>
      <trkpt lat="46.87358" lon="6.41078">
        <ele>947.04</ele>
        <time>2015-06-28T08:57:30Z</time>
      </trkpt>
      <trkpt lat="46.87385" lon="6.41138">
        <ele>948.96</ele>
        <time>2015-06-28T08:57:47Z</time>
      </trkpt>
      <trkpt lat="46.87408" lon="6.41204">
        <ele>950.4</ele>
        <time>2015-06-28T08:58:04Z</time>
      </trkpt>
      <trkpt lat="46.87428" lon="6.41272">
        <ele>950.88</ele>
        <time>2015-06-28T08:58:19Z</time>
      </trkpt>
      <trkpt lat="46.87437" lon="6.41305">
        <ele>950.88</ele>
        <time>2015-06-28T08:58:25Z</time>
      </trkpt>
      <trkpt lat="46.87442" lon="6.41322">
        <ele>951.36</ele>
        <time>2015-06-28T08:58:28Z</time>
      </trkpt>
      <trkpt lat="46.87461" lon="6.41388">
        <ele>951.84</ele>
        <time>2015-06-28T08:58:39Z</time>
      </trkpt>
      <trkpt lat="46.87463" lon="6.41394">
        <ele>951.36</ele>
        <time>2015-06-28T08:58:40Z</time>
      </trkpt>
      <trkpt lat="46.87501" lon="6.415">
        <ele>951.36</ele>
        <time>2015-06-28T08:58:57Z</time>
      </trkpt>
      <trkpt lat="46.87523" lon="6.41572">
        <ele>951.36</ele>
        <time>2015-06-28T08:59:11Z</time>
      </trkpt>
      <trkpt lat="46.87536" lon="6.41624">
        <ele>950.88</ele>
        <time>2015-06-28T08:59:23Z</time>
      </trkpt>
      <trkpt lat="46.87537" lon="6.41628">
        <ele>951.36</ele>
        <time>2015-06-28T08:59:25Z</time>
      </trkpt>
      <trkpt lat="46.87537" lon="6.41637">
        <ele>951.36</ele>
        <time>2015-06-28T08:59:36Z</time>
      </trkpt>
      <trkpt lat="46.87537" lon="6.41635">
        <ele>951.84</ele>
        <time>2015-06-28T09:00:14Z</time>
      </trkpt>
      <trkpt lat="46.87536" lon="6.41635">
        <ele>951.36</ele>
        <time>2015-06-28T09:00:51Z</time>
      </trkpt>
      <trkpt lat="46.87536" lon="6.41635">
        <ele>951.36</ele>
        <time>2015-06-28T09:01:27Z</time>
      </trkpt>
      <trkpt lat="46.87535" lon="6.41635">
        <ele>951.36</ele>
        <time>2015-06-28T09:02:03Z</time>
      </trkpt>
      <trkpt lat="46.87535" lon="6.41635">
        <ele>951.84</ele>
        <time>2015-06-28T09:02:38Z</time>
      </trkpt>
      <trkpt lat="46.87534" lon="6.41635">
        <ele>950.88</ele>
        <time>2015-06-28T09:03:17Z</time>
      </trkpt>
      <trkpt lat="46.87533" lon="6.41635">
        <ele>950.88</ele>
        <time>2015-06-28T09:03:58Z</time>
      </trkpt>
      <trkpt lat="46.87533" lon="6.41635">
        <ele>950.88</ele>
        <time>2015-06-28T09:04:39Z</time>
      </trkpt>
      <trkpt lat="46.87534" lon="6.41637">
        <ele>951.84</ele>
        <time>2015-06-28T09:05:08Z</time>
      </trkpt>
      <trkpt lat="46.87535" lon="6.41638">
        <ele>951.84</ele>
        <time>2015-06-28T09:05:12Z</time>
      </trkpt>
      <trkpt lat="46.87538" lon="6.41642">
        <ele>951.84</ele>
        <time>2015-06-28T09:05:15Z</time>
      </trkpt>
      <trkpt lat="46.87551" lon="6.41691">
        <ele>952.32</ele>
        <time>2015-06-28T09:05:27Z</time>
      </trkpt>
      <trkpt lat="46.87557" lon="6.41763">
        <ele>954.25</ele>
        <time>2015-06-28T09:05:42Z</time>
      </trkpt>
      <trkpt lat="46.87555" lon="6.41769">
        <ele>954.73</ele>
        <time>2015-06-28T09:05:44Z</time>
      </trkpt>
      <trkpt lat="46.87524" lon="6.41792">
        <ele>957.13</ele>
        <time>2015-06-28T09:05:58Z</time>
      </trkpt>
      <trkpt lat="46.87499" lon="6.41769">
        <ele>959.53</ele>
        <time>2015-06-28T09:06:11Z</time>
      </trkpt>
      <trkpt lat="46.87485" lon="6.41726">
        <ele>960.98</ele>
        <time>2015-06-28T09:06:25Z</time>
      </trkpt>
      <trkpt lat="46.87484" lon="6.41724">
        <ele>960.98</ele>
        <time>2015-06-28T09:06:26Z</time>
      </trkpt>
      <trkpt lat="46.87484" lon="6.41721">
        <ele>961.46</ele>
        <time>2015-06-28T09:06:31Z</time>
      </trkpt>
      <trkpt lat="46.87485" lon="6.4172">
        <ele>960.98</ele>
        <time>2015-06-28T09:06:41Z</time>
      </trkpt>
      <trkpt lat="46.87485" lon="6.4172">
        <ele>961.46</ele>
        <time>2015-06-28T09:06:48Z</time>
      </trkpt>
      <trkpt lat="46.87483" lon="6.41718">
        <ele>961.46</ele>
        <time>2015-06-28T09:06:56Z</time>
      </trkpt>
      <trkpt lat="46.87482" lon="6.41717">
        <ele>961.46</ele>
        <time>2015-06-28T09:06:57Z</time>
      </trkpt>
      <trkpt lat="46.87481" lon="6.41714">
        <ele>960.98</ele>
        <time>2015-06-28T09:06:58Z</time>
      </trkpt>
      <trkpt lat="46.8748" lon="6.41712">
        <ele>961.46</ele>
        <time>2015-06-28T09:06:59Z</time>
      </trkpt>
      <trkpt lat="46.87479" lon="6.4171">
        <ele>961.46</ele>
        <time>2015-06-28T09:07:00Z</time>
      </trkpt>
      <trkpt lat="46.87479" lon="6.41707">
        <ele>961.94</ele>
        <time>2015-06-28T09:07:01Z</time>
      </trkpt>
      <trkpt lat="46.87478" lon="6.41704">
        <ele>961.94</ele>
        <time>2015-06-28T09:07:02Z</time>
      </trkpt>
      <trkpt lat="46.87461" lon="6.41668">
        <ele>964.34</ele>
        <time>2015-06-28T09:07:18Z</time>
      </trkpt>
      <trkpt lat="46.87444" lon="6.4163">
        <ele>966.26</ele>
        <time>2015-06-28T09:07:34Z</time>
      </trkpt>
      <trkpt lat="46.87428" lon="6.41601">
        <ele>968.67</ele>
        <time>2015-06-28T09:07:49Z</time>
      </trkpt>
      <trkpt lat="46.87418" lon="6.41581">
        <ele>969.63</ele>
        <time>2015-06-28T09:08:01Z</time>
      </trkpt>
      <trkpt lat="46.87417" lon="6.41581">
        <ele>970.11</ele>
        <time>2015-06-28T09:08:02Z</time>
      </trkpt>
      <trkpt lat="46.87416" lon="6.4158">
        <ele>970.11</ele>
        <time>2015-06-28T09:08:03Z</time>
      </trkpt>
      <trkpt lat="46.87415" lon="6.41578">
        <ele>970.11</ele>
        <time>2015-06-28T09:08:04Z</time>
      </trkpt>
      <trkpt lat="46.87415" lon="6.41577">
        <ele>970.11</ele>
        <time>2015-06-28T09:08:05Z</time>
      </trkpt>
      <trkpt lat="46.87414" lon="6.41575">
        <ele>970.11</ele>
        <time>2015-06-28T09:08:06Z</time>
      </trkpt>
      <trkpt lat="46.87401" lon="6.41546">
        <ele>971.55</ele>
        <time>2015-06-28T09:08:23Z</time>
      </trkpt>
      <trkpt lat="46.87387" lon="6.41519">
        <ele>973.95</ele>
        <time>2015-06-28T09:08:37Z</time>
      </trkpt>
      <trkpt lat="46.87371" lon="6.41495">
        <ele>975.88</ele>
        <time>2015-06-28T09:08:52Z</time>
      </trkpt>
      <trkpt lat="46.87356" lon="6.41472">
        <ele>976.84</ele>
        <time>2015-06-28T09:09:05Z</time>
      </trkpt>
      <trkpt lat="46.87355" lon="6.41471">
        <ele>976.84</ele>
        <time>2015-06-28T09:09:06Z</time>
      </trkpt>
      <trkpt lat="46.87354" lon="6.41469">
        <ele>977.32</ele>
        <time>2015-06-28T09:09:07Z</time>
      </trkpt>
      <trkpt lat="46.87352" lon="6.41467">
        <ele>977.32</ele>
        <time>2015-06-28T09:09:08Z</time>
      </trkpt>
      <trkpt lat="46.87351" lon="6.41465">
        <ele>977.8</ele>
        <time>2015-06-28T09:09:09Z</time>
      </trkpt>
      <trkpt lat="46.8735" lon="6.41464">
        <ele>977.8</ele>
        <time>2015-06-28T09:09:10Z</time>
      </trkpt>
      <trkpt lat="46.87348" lon="6.41463">
        <ele>978.28</ele>
        <time>2015-06-28T09:09:11Z</time>
      </trkpt>
      <trkpt lat="46.87346" lon="6.41462">
        <ele>978.28</ele>
        <time>2015-06-28T09:09:12Z</time>
      </trkpt>
      <trkpt lat="46.87345" lon="6.4146">
        <ele>978.28</ele>
        <time>2015-06-28T09:09:13Z</time>
      </trkpt>
      <trkpt lat="46.87344" lon="6.41458">
        <ele>978.28</ele>
        <time>2015-06-28T09:09:14Z</time>
      </trkpt>
      <trkpt lat="46.87323" lon="6.41429">
        <ele>980.2</ele>
        <time>2015-06-28T09:09:31Z</time>
      </trkpt>
      <trkpt lat="46.87304" lon="6.41406">
        <ele>982.6</ele>
        <time>2015-06-28T09:09:46Z</time>
      </trkpt>
      <trkpt lat="46.87303" lon="6.41405">
        <ele>982.6</ele>
        <time>2015-06-28T09:09:47Z</time>
      </trkpt>
      <trkpt lat="46.87302" lon="6.41403">
        <ele>982.6</ele>
        <time>2015-06-28T09:09:48Z</time>
      </trkpt>
      <trkpt lat="46.87281" lon="6.41372">
        <ele>985.01</ele>
        <time>2015-06-28T09:10:05Z</time>
      </trkpt>
      <trkpt lat="46.87253" lon="6.41346">
        <ele>986.93</ele>
        <time>2015-06-28T09:10:24Z</time>
      </trkpt>
      <trkpt lat="46.87223" lon="6.41325">
        <ele>989.33</ele>
        <time>2015-06-28T09:10:42Z</time>
      </trkpt>
      <trkpt lat="46.87202" lon="6.41311">
        <ele>990.3</ele>
        <time>2015-06-28T09:10:55Z</time>
      </trkpt>
      <trkpt lat="46.87178" lon="6.41298">
        <ele>992.22</ele>
        <time>2015-06-28T09:11:09Z</time>
      </trkpt>
      <trkpt lat="46.87176" lon="6.41298">
        <ele>992.22</ele>
        <time>2015-06-28T09:11:10Z</time>
      </trkpt>
      <trkpt lat="46.87174" lon="6.41298">
        <ele>992.22</ele>
        <time>2015-06-28T09:11:11Z</time>
      </trkpt>
      <trkpt lat="46.87161" lon="6.41303">
        <ele>993.18</ele>
        <time>2015-06-28T09:11:20Z</time>
      </trkpt>
      <trkpt lat="46.87159" lon="6.41304">
        <ele>993.66</ele>
        <time>2015-06-28T09:11:21Z</time>
      </trkpt>
      <trkpt lat="46.87158" lon="6.41305">
        <ele>993.18</ele>
        <time>2015-06-28T09:11:22Z</time>
      </trkpt>
      <trkpt lat="46.87144" lon="6.41326">
        <ele>994.62</ele>
        <time>2015-06-28T09:11:34Z</time>
      </trkpt>
      <trkpt lat="46.87139" lon="6.41365">
        <ele>996.06</ele>
        <time>2015-06-28T09:11:48Z</time>
      </trkpt>
      <trkpt lat="46.8714" lon="6.41367">
        <ele>996.54</ele>
        <time>2015-06-28T09:11:49Z</time>
      </trkpt>
      <trkpt lat="46.8714" lon="6.4137">
        <ele>996.54</ele>
        <time>2015-06-28T09:11:50Z</time>
      </trkpt>
      <trkpt lat="46.87141" lon="6.41373">
        <ele>996.54</ele>
        <time>2015-06-28T09:11:51Z</time>
      </trkpt>
      <trkpt lat="46.87142" lon="6.41375">
        <ele>996.54</ele>
        <time>2015-06-28T09:11:52Z</time>
      </trkpt>
      <trkpt lat="46.87143" lon="6.41378">
        <ele>996.54</ele>
        <time>2015-06-28T09:11:53Z</time>
      </trkpt>
      <trkpt lat="46.87144" lon="6.4138">
        <ele>997.02</ele>
        <time>2015-06-28T09:11:54Z</time>
      </trkpt>
      <trkpt lat="46.8716" lon="6.41414">
        <ele>998.95</ele>
        <time>2015-06-28T09:12:10Z</time>
      </trkpt>
      <trkpt lat="46.87177" lon="6.41452">
        <ele>1001.35</ele>
        <time>2015-06-28T09:12:27Z</time>
      </trkpt>
      <trkpt lat="46.87185" lon="6.41489">
        <ele>1003.27</ele>
        <time>2015-06-28T09:12:43Z</time>
      </trkpt>
      <trkpt lat="46.87191" lon="6.41529">
        <ele>1005.2</ele>
        <time>2015-06-28T09:12:58Z</time>
      </trkpt>
      <trkpt lat="46.87197" lon="6.4157">
        <ele>1007.6</ele>
        <time>2015-06-28T09:13:15Z</time>
      </trkpt>
      <trkpt lat="46.872" lon="6.41595">
        <ele>1009.04</ele>
        <time>2015-06-28T09:13:25Z</time>
      </trkpt>
      <trkpt lat="46.87202" lon="6.41597">
        <ele>1009.52</ele>
        <time>2015-06-28T09:13:26Z</time>
      </trkpt>
      <trkpt lat="46.87212" lon="6.41632">
        <ele>1010.96</ele>
        <time>2015-06-28T09:13:42Z</time>
      </trkpt>
      <trkpt lat="46.87221" lon="6.41648">
        <ele>1011.93</ele>
        <time>2015-06-28T09:13:50Z</time>
      </trkpt>
      <trkpt lat="46.87221" lon="6.4165">
        <ele>1012.41</ele>
        <time>2015-06-28T09:13:51Z</time>
      </trkpt>
      <trkpt lat="46.87222" lon="6.41652">
        <ele>1012.89</ele>
        <time>2015-06-28T09:13:52Z</time>
      </trkpt>
      <trkpt lat="46.87223" lon="6.41654">
        <ele>1012.41</ele>
        <time>2015-06-28T09:13:53Z</time>
      </trkpt>
      <trkpt lat="46.87226" lon="6.41659">
        <ele>1013.37</ele>
        <time>2015-06-28T09:13:56Z</time>
      </trkpt>
      <trkpt lat="46.87226" lon="6.41662">
        <ele>1013.37</ele>
        <time>2015-06-28T09:13:57Z</time>
      </trkpt>
      <trkpt lat="46.87226" lon="6.41665">
        <ele>1012.89</ele>
        <time>2015-06-28T09:13:58Z</time>
      </trkpt>
      <trkpt lat="46.87227" lon="6.41666">
        <ele>1013.37</ele>
        <time>2015-06-28T09:13:59Z</time>
      </trkpt>
      <trkpt lat="46.87227" lon="6.41668">
        <ele>1013.85</ele>
        <time>2015-06-28T09:14:00Z</time>
      </trkpt>
      <trkpt lat="46.8723" lon="6.41678">
        <ele>1013.85</ele>
        <time>2015-06-28T09:14:05Z</time>
      </trkpt>
      <trkpt lat="46.87231" lon="6.4168">
        <ele>1013.85</ele>
        <time>2015-06-28T09:14:06Z</time>
      </trkpt>
      <trkpt lat="46.87232" lon="6.41684">
        <ele>1014.81</ele>
        <time>2015-06-28T09:14:08Z</time>
      </trkpt>
      <trkpt lat="46.87232" lon="6.41687">
        <ele>1014.81</ele>
        <time>2015-06-28T09:14:09Z</time>
      </trkpt>
      <trkpt lat="46.87233" lon="6.41689">
        <ele>1014.81</ele>
        <time>2015-06-28T09:14:10Z</time>
      </trkpt>
      <trkpt lat="46.87233" lon="6.41691">
        <ele>1014.81</ele>
        <time>2015-06-28T09:14:11Z</time>
      </trkpt>
      <trkpt lat="46.87237" lon="6.4171">
        <ele>1015.77</ele>
        <time>2015-06-28T09:14:19Z</time>
      </trkpt>
      <trkpt lat="46.87238" lon="6.41712">
        <ele>1016.25</ele>
        <time>2015-06-28T09:14:20Z</time>
      </trkpt>
      <trkpt lat="46.87239" lon="6.41714">
        <ele>1016.25</ele>
        <time>2015-06-28T09:14:21Z</time>
      </trkpt>
      <trkpt lat="46.8724" lon="6.41716">
        <ele>1016.73</ele>
        <time>2015-06-28T09:14:22Z</time>
      </trkpt>
      <trkpt lat="46.87248" lon="6.41738">
        <ele>1017.21</ele>
        <time>2015-06-28T09:14:31Z</time>
      </trkpt>
      <trkpt lat="46.87247" lon="6.41741">
        <ele>1017.69</ele>
        <time>2015-06-28T09:14:32Z</time>
      </trkpt>
      <trkpt lat="46.87249" lon="6.41745">
        <ele>1018.17</ele>
        <time>2015-06-28T09:14:34Z</time>
      </trkpt>
      <trkpt lat="46.8725" lon="6.41747">
        <ele>1017.69</ele>
        <time>2015-06-28T09:14:35Z</time>
      </trkpt>
      <trkpt lat="46.87259" lon="6.41773">
        <ele>1019.13</ele>
        <time>2015-06-28T09:14:46Z</time>
      </trkpt>
      <trkpt lat="46.8726" lon="6.41775">
        <ele>1019.13</ele>
        <time>2015-06-28T09:14:47Z</time>
      </trkpt>
      <trkpt lat="46.87261" lon="6.41777">
        <ele>1019.13</ele>
        <time>2015-06-28T09:14:48Z</time>
      </trkpt>
      <trkpt lat="46.87262" lon="6.41779">
        <ele>1019.62</ele>
        <time>2015-06-28T09:14:49Z</time>
      </trkpt>
      <trkpt lat="46.87263" lon="6.41781">
        <ele>1019.62</ele>
        <time>2015-06-28T09:14:50Z</time>
      </trkpt>
      <trkpt lat="46.87268" lon="6.41808">
        <ele>1020.1</ele>
        <time>2015-06-28T09:14:58Z</time>
      </trkpt>
      <trkpt lat="46.87269" lon="6.41813">
        <ele>1021.06</ele>
        <time>2015-06-28T09:15:00Z</time>
      </trkpt>
      <trkpt lat="46.87269" lon="6.41816">
        <ele>1020.58</ele>
        <time>2015-06-28T09:15:01Z</time>
      </trkpt>
      <trkpt lat="46.87278" lon="6.41833">
        <ele>1022.5</ele>
        <time>2015-06-28T09:15:09Z</time>
      </trkpt>
      <trkpt lat="46.8728" lon="6.41837">
        <ele>1022.5</ele>
        <time>2015-06-28T09:15:12Z</time>
      </trkpt>
      <trkpt lat="46.87281" lon="6.41839">
        <ele>1022.5</ele>
        <time>2015-06-28T09:15:13Z</time>
      </trkpt>
      <trkpt lat="46.87284" lon="6.4185">
        <ele>1023.46</ele>
        <time>2015-06-28T09:15:18Z</time>
      </trkpt>
      <trkpt lat="46.87285" lon="6.41852">
        <ele>1023.46</ele>
        <time>2015-06-28T09:15:19Z</time>
      </trkpt>
      <trkpt lat="46.87284" lon="6.41854">
        <ele>1023.46</ele>
        <time>2015-06-28T09:15:20Z</time>
      </trkpt>
      <trkpt lat="46.87284" lon="6.41857">
        <ele>1023.46</ele>
        <time>2015-06-28T09:15:21Z</time>
      </trkpt>
      <trkpt lat="46.87283" lon="6.4186">
        <ele>1023.94</ele>
        <time>2015-06-28T09:15:22Z</time>
      </trkpt>
      <trkpt lat="46.87282" lon="6.41863">
        <ele>1023.94</ele>
        <time>2015-06-28T09:15:23Z</time>
      </trkpt>
      <trkpt lat="46.87281" lon="6.41865">
        <ele>1023.94</ele>
        <time>2015-06-28T09:15:24Z</time>
      </trkpt>
      <trkpt lat="46.87282" lon="6.41868">
        <ele>1024.42</ele>
        <time>2015-06-28T09:15:25Z</time>
      </trkpt>
      <trkpt lat="46.87281" lon="6.41871">
        <ele>1024.42</ele>
        <time>2015-06-28T09:15:26Z</time>
      </trkpt>
      <trkpt lat="46.87281" lon="6.41874">
        <ele>1024.42</ele>
        <time>2015-06-28T09:15:27Z</time>
      </trkpt>
      <trkpt lat="46.87282" lon="6.41886">
        <ele>1024.42</ele>
        <time>2015-06-28T09:15:31Z</time>
      </trkpt>
      <trkpt lat="46.87283" lon="6.41888">
        <ele>1025.38</ele>
        <time>2015-06-28T09:15:32Z</time>
      </trkpt>
      <trkpt lat="46.87283" lon="6.41891">
        <ele>1025.38</ele>
        <time>2015-06-28T09:15:33Z</time>
      </trkpt>
      <trkpt lat="46.87284" lon="6.41894">
        <ele>1025.38</ele>
        <time>2015-06-28T09:15:34Z</time>
      </trkpt>
      <trkpt lat="46.87285" lon="6.41897">
        <ele>1024.9</ele>
        <time>2015-06-28T09:15:35Z</time>
      </trkpt>
      <trkpt lat="46.87286" lon="6.41899">
        <ele>1024.9</ele>
        <time>2015-06-28T09:15:36Z</time>
      </trkpt>
      <trkpt lat="46.87287" lon="6.41901">
        <ele>1025.86</ele>
        <time>2015-06-28T09:15:37Z</time>
      </trkpt>
      <trkpt lat="46.87288" lon="6.41903">
        <ele>1026.34</ele>
        <time>2015-06-28T09:15:38Z</time>
      </trkpt>
      <trkpt lat="46.8729" lon="6.41905">
        <ele>1025.86</ele>
        <time>2015-06-28T09:15:39Z</time>
      </trkpt>
      <trkpt lat="46.8729" lon="6.41907">
        <ele>1025.86</ele>
        <time>2015-06-28T09:15:40Z</time>
      </trkpt>
      <trkpt lat="46.87299" lon="6.41932">
        <ele>1026.83</ele>
        <time>2015-06-28T09:15:50Z</time>
      </trkpt>
      <trkpt lat="46.87299" lon="6.41934">
        <ele>1027.31</ele>
        <time>2015-06-28T09:15:51Z</time>
      </trkpt>
      <trkpt lat="46.87299" lon="6.41937">
        <ele>1027.31</ele>
        <time>2015-06-28T09:15:52Z</time>
      </trkpt>
      <trkpt lat="46.87299" lon="6.4194">
        <ele>1027.79</ele>
        <time>2015-06-28T09:15:53Z</time>
      </trkpt>
      <trkpt lat="46.87299" lon="6.41943">
        <ele>1027.31</ele>
        <time>2015-06-28T09:15:54Z</time>
      </trkpt>
      <trkpt lat="46.873" lon="6.41954">
        <ele>1027.79</ele>
        <time>2015-06-28T09:15:58Z</time>
      </trkpt>
      <trkpt lat="46.87301" lon="6.41956">
        <ele>1028.27</ele>
        <time>2015-06-28T09:15:59Z</time>
      </trkpt>
      <trkpt lat="46.87301" lon="6.41958">
        <ele>1028.27</ele>
        <time>2015-06-28T09:16:00Z</time>
      </trkpt>
      <trkpt lat="46.87301" lon="6.4196">
        <ele>1028.27</ele>
        <time>2015-06-28T09:16:01Z</time>
      </trkpt>
      <trkpt lat="46.87302" lon="6.41962">
        <ele>1028.27</ele>
        <time>2015-06-28T09:16:02Z</time>
      </trkpt>
      <trkpt lat="46.87317" lon="6.42002">
        <ele>1030.67</ele>
        <time>2015-06-28T09:16:18Z</time>
      </trkpt>
      <trkpt lat="46.8732" lon="6.42015">
        <ele>1030.67</ele>
        <time>2015-06-28T09:16:23Z</time>
      </trkpt>
      <trkpt lat="46.87321" lon="6.42017">
        <ele>1031.15</ele>
        <time>2015-06-28T09:16:24Z</time>
      </trkpt>
      <trkpt lat="46.87322" lon="6.42019">
        <ele>1031.15</ele>
        <time>2015-06-28T09:16:25Z</time>
      </trkpt>
      <trkpt lat="46.87333" lon="6.42054">
        <ele>1033.07</ele>
        <time>2015-06-28T09:16:39Z</time>
      </trkpt>
      <trkpt lat="46.87339" lon="6.42091">
        <ele>1035.48</ele>
        <time>2015-06-28T09:16:54Z</time>
      </trkpt>
      <trkpt lat="46.87342" lon="6.42095">
        <ele>1035.48</ele>
        <time>2015-06-28T09:16:56Z</time>
      </trkpt>
      <trkpt lat="46.87346" lon="6.42104">
        <ele>1035.96</ele>
        <time>2015-06-28T09:17:01Z</time>
      </trkpt>
      <trkpt lat="46.87347" lon="6.42106">
        <ele>1036.44</ele>
        <time>2015-06-28T09:17:02Z</time>
      </trkpt>
      <trkpt lat="46.87347" lon="6.42108">
        <ele>1036.44</ele>
        <time>2015-06-28T09:17:03Z</time>
      </trkpt>
      <trkpt lat="46.87357" lon="6.4213">
        <ele>1037.88</ele>
        <time>2015-06-28T09:17:14Z</time>
      </trkpt>
      <trkpt lat="46.87357" lon="6.42132">
        <ele>1037.88</ele>
        <time>2015-06-28T09:17:15Z</time>
      </trkpt>
      <trkpt lat="46.87358" lon="6.42135">
        <ele>1037.88</ele>
        <time>2015-06-28T09:17:16Z</time>
      </trkpt>
      <trkpt lat="46.87361" lon="6.42146">
        <ele>1038.84</ele>
        <time>2015-06-28T09:17:22Z</time>
      </trkpt>
      <trkpt lat="46.87362" lon="6.42147">
        <ele>1039.32</ele>
        <time>2015-06-28T09:17:23Z</time>
      </trkpt>
      <trkpt lat="46.87363" lon="6.42149">
        <ele>1038.84</ele>
        <time>2015-06-28T09:17:24Z</time>
      </trkpt>
      <trkpt lat="46.87364" lon="6.42151">
        <ele>1038.84</ele>
        <time>2015-06-28T09:17:25Z</time>
      </trkpt>
      <trkpt lat="46.87364" lon="6.42153">
        <ele>1039.32</ele>
        <time>2015-06-28T09:17:26Z</time>
      </trkpt>
      <trkpt lat="46.87365" lon="6.42155">
        <ele>1039.8</ele>
        <time>2015-06-28T09:17:27Z</time>
      </trkpt>
      <trkpt lat="46.87365" lon="6.42158">
        <ele>1039.8</ele>
        <time>2015-06-28T09:17:28Z</time>
      </trkpt>
      <trkpt lat="46.87366" lon="6.4216">
        <ele>1039.8</ele>
        <time>2015-06-28T09:17:29Z</time>
      </trkpt>
      <trkpt lat="46.8738" lon="6.42184">
        <ele>1042.21</ele>
        <time>2015-06-28T09:17:43Z</time>
      </trkpt>
      <trkpt lat="46.8738" lon="6.42186">
        <ele>1042.69</ele>
        <time>2015-06-28T09:17:44Z</time>
      </trkpt>
      <trkpt lat="46.87381" lon="6.42189">
        <ele>1042.69</ele>
        <time>2015-06-28T09:17:45Z</time>
      </trkpt>
      <trkpt lat="46.87381" lon="6.42191">
        <ele>1042.69</ele>
        <time>2015-06-28T09:17:46Z</time>
      </trkpt>
      <trkpt lat="46.87382" lon="6.42193">
        <ele>1043.17</ele>
        <time>2015-06-28T09:17:47Z</time>
      </trkpt>
      <trkpt lat="46.87383" lon="6.42194">
        <ele>1043.17</ele>
        <time>2015-06-28T09:17:48Z</time>
      </trkpt>
      <trkpt lat="46.87393" lon="6.42223">
        <ele>1044.61</ele>
        <time>2015-06-28T09:18:02Z</time>
      </trkpt>
      <trkpt lat="46.87394" lon="6.42225">
        <ele>1045.57</ele>
        <time>2015-06-28T09:18:03Z</time>
      </trkpt>
      <trkpt lat="46.87394" lon="6.42228">
        <ele>1045.57</ele>
        <time>2015-06-28T09:18:04Z</time>
      </trkpt>
      <trkpt lat="46.87394" lon="6.4223">
        <ele>1045.57</ele>
        <time>2015-06-28T09:18:05Z</time>
      </trkpt>
      <trkpt lat="46.87395" lon="6.42232">
        <ele>1045.57</ele>
        <time>2015-06-28T09:18:06Z</time>
      </trkpt>
      <trkpt lat="46.87396" lon="6.42234">
        <ele>1046.05</ele>
        <time>2015-06-28T09:18:07Z</time>
      </trkpt>
      <trkpt lat="46.87406" lon="6.42265">
        <ele>1047.97</ele>
        <time>2015-06-28T09:18:22Z</time>
      </trkpt>
      <trkpt lat="46.87414" lon="6.42287">
        <ele>1048.94</ele>
        <time>2015-06-28T09:18:33Z</time>
      </trkpt>
      <trkpt lat="46.87414" lon="6.42289">
        <ele>1049.9</ele>
        <time>2015-06-28T09:18:34Z</time>
      </trkpt>
      <trkpt lat="46.87414" lon="6.42292">
        <ele>1049.9</ele>
        <time>2015-06-28T09:18:35Z</time>
      </trkpt>
      <trkpt lat="46.87424" lon="6.42312">
        <ele>1051.34</ele>
        <time>2015-06-28T09:18:45Z</time>
      </trkpt>
      <trkpt lat="46.87425" lon="6.42314">
        <ele>1051.34</ele>
        <time>2015-06-28T09:18:46Z</time>
      </trkpt>
      <trkpt lat="46.87426" lon="6.42316">
        <ele>1050.86</ele>
        <time>2015-06-28T09:18:47Z</time>
      </trkpt>
      <trkpt lat="46.8744" lon="6.42346">
        <ele>1053.74</ele>
        <time>2015-06-28T09:19:02Z</time>
      </trkpt>
      <trkpt lat="46.87444" lon="6.42358">
        <ele>1054.7</ele>
        <time>2015-06-28T09:19:08Z</time>
      </trkpt>
      <trkpt lat="46.87444" lon="6.4236">
        <ele>1054.7</ele>
        <time>2015-06-28T09:19:09Z</time>
      </trkpt>
      <trkpt lat="46.87453" lon="6.42396">
        <ele>1057.11</ele>
        <time>2015-06-28T09:19:24Z</time>
      </trkpt>
      <trkpt lat="46.87455" lon="6.42397">
        <ele>1056.63</ele>
        <time>2015-06-28T09:19:25Z</time>
      </trkpt>
      <trkpt lat="46.87468" lon="6.42432">
        <ele>1058.55</ele>
        <time>2015-06-28T09:19:40Z</time>
      </trkpt>
      <trkpt lat="46.87485" lon="6.42475">
        <ele>1059.99</ele>
        <time>2015-06-28T09:19:54Z</time>
      </trkpt>
      <trkpt lat="46.87503" lon="6.42526">
        <ele>1059.51</ele>
        <time>2015-06-28T09:20:06Z</time>
      </trkpt>
      <trkpt lat="46.8752" lon="6.42584">
        <ele>1058.55</ele>
        <time>2015-06-28T09:20:17Z</time>
      </trkpt>
      <trkpt lat="46.87522" lon="6.42625">
        <ele>1058.55</ele>
        <time>2015-06-28T09:20:23Z</time>
      </trkpt>
      <trkpt lat="46.87529" lon="6.42664">
        <ele>1058.07</ele>
        <time>2015-06-28T09:20:28Z</time>
      </trkpt>
      <trkpt lat="46.87531" lon="6.42673">
        <ele>1057.59</ele>
        <time>2015-06-28T09:20:29Z</time>
      </trkpt>
      <trkpt lat="46.87533" lon="6.42682">
        <ele>1057.59</ele>
        <time>2015-06-28T09:20:30Z</time>
      </trkpt>
      <trkpt lat="46.87545" lon="6.42716">
        <ele>1057.59</ele>
        <time>2015-06-28T09:20:34Z</time>
      </trkpt>
      <trkpt lat="46.87547" lon="6.42724">
        <ele>1057.59</ele>
        <time>2015-06-28T09:20:35Z</time>
      </trkpt>
      <trkpt lat="46.87555" lon="6.42748">
        <ele>1057.59</ele>
        <time>2015-06-28T09:20:38Z</time>
      </trkpt>
      <trkpt lat="46.87562" lon="6.42768">
        <ele>1058.07</ele>
        <time>2015-06-28T09:20:41Z</time>
      </trkpt>
      <trkpt lat="46.87566" lon="6.42781">
        <ele>1058.07</ele>
        <time>2015-06-28T09:20:43Z</time>
      </trkpt>
      <trkpt lat="46.87576" lon="6.42817">
        <ele>1059.03</ele>
        <time>2015-06-28T09:20:52Z</time>
      </trkpt>
      <trkpt lat="46.87576" lon="6.42819">
        <ele>1059.03</ele>
        <time>2015-06-28T09:20:53Z</time>
      </trkpt>
      <trkpt lat="46.87579" lon="6.42824">
        <ele>1059.51</ele>
        <time>2015-06-28T09:21:06Z</time>
      </trkpt>
      <trkpt lat="46.87585" lon="6.42834">
        <ele>1059.03</ele>
        <time>2015-06-28T09:21:34Z</time>
      </trkpt>
      <trkpt lat="46.87586" lon="6.42828">
        <ele>1059.51</ele>
        <time>2015-06-28T09:21:57Z</time>
      </trkpt>
      <trkpt lat="46.87589" lon="6.42824">
        <ele>1059.03</ele>
        <time>2015-06-28T09:22:16Z</time>
      </trkpt>
      <trkpt lat="46.87589" lon="6.42826">
        <ele>1059.51</ele>
        <time>2015-06-28T09:22:17Z</time>
      </trkpt>
      <trkpt lat="46.87589" lon="6.42829">
        <ele>1059.03</ele>
        <time>2015-06-28T09:22:19Z</time>
      </trkpt>
      <trkpt lat="46.87587" lon="6.42832">
        <ele>1059.51</ele>
        <time>2015-06-28T09:22:23Z</time>
      </trkpt>
      <trkpt lat="46.87587" lon="6.42835">
        <ele>1059.99</ele>
        <time>2015-06-28T09:22:24Z</time>
      </trkpt>
      <trkpt lat="46.87588" lon="6.42839">
        <ele>1059.99</ele>
        <time>2015-06-28T09:22:26Z</time>
      </trkpt>
      <trkpt lat="46.87587" lon="6.42841">
        <ele>1060.47</ele>
        <time>2015-06-28T09:22:27Z</time>
      </trkpt>
      <trkpt lat="46.87587" lon="6.42844">
        <ele>1059.99</ele>
        <time>2015-06-28T09:22:28Z</time>
      </trkpt>
      <trkpt lat="46.87587" lon="6.42846">
        <ele>1060.47</ele>
        <time>2015-06-28T09:22:29Z</time>
      </trkpt>
      <trkpt lat="46.87588" lon="6.4285">
        <ele>1059.99</ele>
        <time>2015-06-28T09:22:30Z</time>
      </trkpt>
      <trkpt lat="46.87598" lon="6.42892">
        <ele>1061.43</ele>
        <time>2015-06-28T09:22:41Z</time>
      </trkpt>
      <trkpt lat="46.87613" lon="6.42938">
        <ele>1062.87</ele>
        <time>2015-06-28T09:22:54Z</time>
      </trkpt>
      <trkpt lat="46.87635" lon="6.42995">
        <ele>1063.36</ele>
        <time>2015-06-28T09:23:09Z</time>
      </trkpt>
      <trkpt lat="46.87654" lon="6.43042">
        <ele>1064.32</ele>
        <time>2015-06-28T09:23:21Z</time>
      </trkpt>
      <trkpt lat="46.87678" lon="6.43104">
        <ele>1065.28</ele>
        <time>2015-06-28T09:23:36Z</time>
      </trkpt>
      <trkpt lat="46.87695" lon="6.43154">
        <ele>1065.28</ele>
        <time>2015-06-28T09:23:48Z</time>
      </trkpt>
      <trkpt lat="46.8772" lon="6.43213">
        <ele>1066.72</ele>
        <time>2015-06-28T09:24:04Z</time>
      </trkpt>
      <trkpt lat="46.87719" lon="6.4328">
        <ele>1067.68</ele>
        <time>2015-06-28T09:24:19Z</time>
      </trkpt>
      <trkpt lat="46.87688" lon="6.43354">
        <ele>1066.72</ele>
        <time>2015-06-28T09:24:36Z</time>
      </trkpt>
      <trkpt lat="46.87668" lon="6.43405">
        <ele>1067.68</ele>
        <time>2015-06-28T09:24:50Z</time>
      </trkpt>
      <trkpt lat="46.87659" lon="6.43409">
        <ele>1068.64</ele>
        <time>2015-06-28T09:24:55Z</time>
      </trkpt>
      <trkpt lat="46.87657" lon="6.43408">
        <ele>1068.64</ele>
        <time>2015-06-28T09:24:56Z</time>
      </trkpt>
      <trkpt lat="46.87655" lon="6.43408">
        <ele>1068.64</ele>
        <time>2015-06-28T09:24:58Z</time>
      </trkpt>
      <trkpt lat="46.87653" lon="6.43408">
        <ele>1069.12</ele>
        <time>2015-06-28T09:25:00Z</time>
      </trkpt>
      <trkpt lat="46.87652" lon="6.43407">
        <ele>1069.12</ele>
        <time>2015-06-28T09:25:01Z</time>
      </trkpt>
      <trkpt lat="46.87651" lon="6.43407">
        <ele>1069.12</ele>
        <time>2015-06-28T09:25:02Z</time>
      </trkpt>
      <trkpt lat="46.87648" lon="6.43406">
        <ele>1069.6</ele>
        <time>2015-06-28T09:25:05Z</time>
      </trkpt>
      <trkpt lat="46.87647" lon="6.43406">
        <ele>1069.6</ele>
        <time>2015-06-28T09:25:19Z</time>
      </trkpt>
      <trkpt lat="46.87646" lon="6.43407">
        <ele>1070.08</ele>
        <time>2015-06-28T09:25:47Z</time>
      </trkpt>
      <trkpt lat="46.87646" lon="6.43407">
        <ele>1070.57</ele>
        <time>2015-06-28T09:26:13Z</time>
      </trkpt>
      <trkpt lat="46.87645" lon="6.43406">
        <ele>1069.12</ele>
        <time>2015-06-28T09:26:37Z</time>
      </trkpt>
      <trkpt lat="46.87645" lon="6.43404">
        <ele>1069.6</ele>
        <time>2015-06-28T09:27:08Z</time>
      </trkpt>
      <trkpt lat="46.87644" lon="6.43405">
        <ele>1069.6</ele>
        <time>2015-06-28T09:27:40Z</time>
      </trkpt>
      <trkpt lat="46.87643" lon="6.43403">
        <ele>1069.6</ele>
        <time>2015-06-28T09:28:16Z</time>
      </trkpt>
      <trkpt lat="46.87643" lon="6.434">
        <ele>1069.6</ele>
        <time>2015-06-28T09:28:48Z</time>
      </trkpt>
      <trkpt lat="46.87643" lon="6.43401">
        <ele>1069.6</ele>
        <time>2015-06-28T09:29:24Z</time>
      </trkpt>
      <trkpt lat="46.87643" lon="6.43403">
        <ele>1069.6</ele>
        <time>2015-06-28T09:29:57Z</time>
      </trkpt>
      <trkpt lat="46.87644" lon="6.43404">
        <ele>1068.64</ele>
        <time>2015-06-28T09:30:31Z</time>
      </trkpt>
      <trkpt lat="46.87643" lon="6.43403">
        <ele>1070.08</ele>
        <time>2015-06-28T09:31:06Z</time>
      </trkpt>
      <trkpt lat="46.87643" lon="6.43404">
        <ele>1070.08</ele>
        <time>2015-06-28T09:31:30Z</time>
      </trkpt>
      <trkpt lat="46.87643" lon="6.43404">
        <ele>1070.08</ele>
        <time>2015-06-28T09:31:49Z</time>
      </trkpt>
      <trkpt lat="46.87634" lon="6.434">
        <ele>1071.53</ele>
        <time>2015-06-28T09:32:02Z</time>
      </trkpt>
      <trkpt lat="46.87632" lon="6.43398">
        <ele>1072.49</ele>
        <time>2015-06-28T09:32:05Z</time>
      </trkpt>
      <trkpt lat="46.87628" lon="6.43396">
        <ele>1072.97</ele>
        <time>2015-06-28T09:32:08Z</time>
      </trkpt>
      <trkpt lat="46.87627" lon="6.43395">
        <ele>1072.97</ele>
        <time>2015-06-28T09:32:09Z</time>
      </trkpt>
      <trkpt lat="46.87626" lon="6.43394">
        <ele>1073.45</ele>
        <time>2015-06-28T09:32:10Z</time>
      </trkpt>
      <trkpt lat="46.87625" lon="6.43392">
        <ele>1072.97</ele>
        <time>2015-06-28T09:32:11Z</time>
      </trkpt>
      <trkpt lat="46.87624" lon="6.4339">
        <ele>1073.45</ele>
        <time>2015-06-28T09:32:12Z</time>
      </trkpt>
      <trkpt lat="46.87623" lon="6.43388">
        <ele>1073.45</ele>
        <time>2015-06-28T09:32:13Z</time>
      </trkpt>
      <trkpt lat="46.87622" lon="6.43386">
        <ele>1073.93</ele>
        <time>2015-06-28T09:32:14Z</time>
      </trkpt>
      <trkpt lat="46.87621" lon="6.43385">
        <ele>1074.41</ele>
        <time>2015-06-28T09:32:15Z</time>
      </trkpt>
      <trkpt lat="46.8762" lon="6.43382">
        <ele>1074.41</ele>
        <time>2015-06-28T09:32:16Z</time>
      </trkpt>
      <trkpt lat="46.87605" lon="6.43359">
        <ele>1077.78</ele>
        <time>2015-06-28T09:32:30Z</time>
      </trkpt>
      <trkpt lat="46.87592" lon="6.43338">
        <ele>1079.22</ele>
        <time>2015-06-28T09:32:42Z</time>
      </trkpt>
      <trkpt lat="46.87588" lon="6.43333">
        <ele>1080.18</ele>
        <time>2015-06-28T09:32:47Z</time>
      </trkpt>
      <trkpt lat="46.87587" lon="6.43332">
        <ele>1080.18</ele>
        <time>2015-06-28T09:32:48Z</time>
      </trkpt>
      <trkpt lat="46.87571" lon="6.43316">
        <ele>1083.06</ele>
        <time>2015-06-28T09:33:01Z</time>
      </trkpt>
      <trkpt lat="46.87559" lon="6.43305">
        <ele>1084.99</ele>
        <time>2015-06-28T09:33:12Z</time>
      </trkpt>
      <trkpt lat="46.87559" lon="6.43303">
        <ele>1084.99</ele>
        <time>2015-06-28T09:33:13Z</time>
      </trkpt>
      <trkpt lat="46.87558" lon="6.43301">
        <ele>1085.47</ele>
        <time>2015-06-28T09:33:14Z</time>
      </trkpt>
      <trkpt lat="46.87548" lon="6.43288">
        <ele>1086.91</ele>
        <time>2015-06-28T09:33:25Z</time>
      </trkpt>
      <trkpt lat="46.87546" lon="6.43287">
        <ele>1087.39</ele>
        <time>2015-06-28T09:33:26Z</time>
      </trkpt>
      <trkpt lat="46.87537" lon="6.43264">
        <ele>1088.83</ele>
        <time>2015-06-28T09:33:38Z</time>
      </trkpt>
      <trkpt lat="46.87535" lon="6.43263">
        <ele>1089.31</ele>
        <time>2015-06-28T09:33:39Z</time>
      </trkpt>
      <trkpt lat="46.87534" lon="6.43261">
        <ele>1089.31</ele>
        <time>2015-06-28T09:33:40Z</time>
      </trkpt>
      <trkpt lat="46.87533" lon="6.4326">
        <ele>1089.31</ele>
        <time>2015-06-28T09:33:41Z</time>
      </trkpt>
      <trkpt lat="46.87519" lon="6.43244">
        <ele>1091.71</ele>
        <time>2015-06-28T09:33:54Z</time>
      </trkpt>
      <trkpt lat="46.87515" lon="6.4324">
        <ele>1092.68</ele>
        <time>2015-06-28T09:33:58Z</time>
      </trkpt>
      <trkpt lat="46.87514" lon="6.43239">
        <ele>1092.2</ele>
        <time>2015-06-28T09:33:59Z</time>
      </trkpt>
      <trkpt lat="46.87501" lon="6.43232">
        <ele>1095.08</ele>
        <time>2015-06-28T09:34:12Z</time>
      </trkpt>
      <trkpt lat="46.87498" lon="6.43231">
        <ele>1095.08</ele>
        <time>2015-06-28T09:34:14Z</time>
      </trkpt>
      <trkpt lat="46.87489" lon="6.4323">
        <ele>1096.52</ele>
        <time>2015-06-28T09:34:21Z</time>
      </trkpt>
      <trkpt lat="46.87487" lon="6.4323">
        <ele>1096.52</ele>
        <time>2015-06-28T09:34:22Z</time>
      </trkpt>
      <trkpt lat="46.87481" lon="6.4323">
        <ele>1097.96</ele>
        <time>2015-06-28T09:34:27Z</time>
      </trkpt>
      <trkpt lat="46.87472" lon="6.43225">
        <ele>1098.92</ele>
        <time>2015-06-28T09:34:37Z</time>
      </trkpt>
      <trkpt lat="46.8746" lon="6.43217">
        <ele>1100.37</ele>
        <time>2015-06-28T09:34:48Z</time>
      </trkpt>
      <trkpt lat="46.87451" lon="6.43206">
        <ele>1101.33</ele>
        <time>2015-06-28T09:34:56Z</time>
      </trkpt>
      <trkpt lat="46.87435" lon="6.432">
        <ele>1103.73</ele>
        <time>2015-06-28T09:35:10Z</time>
      </trkpt>
      <trkpt lat="46.87428" lon="6.43195">
        <ele>1104.69</ele>
        <time>2015-06-28T09:35:18Z</time>
      </trkpt>
      <trkpt lat="46.87414" lon="6.43187">
        <ele>1106.61</ele>
        <time>2015-06-28T09:35:30Z</time>
      </trkpt>
      <trkpt lat="46.87405" lon="6.43186">
        <ele>1109.02</ele>
        <time>2015-06-28T09:35:43Z</time>
      </trkpt>
      <trkpt lat="46.87401" lon="6.43183">
        <ele>1109.02</ele>
        <time>2015-06-28T09:35:46Z</time>
      </trkpt>
      <trkpt lat="46.87399" lon="6.43183">
        <ele>1109.5</ele>
        <time>2015-06-28T09:35:47Z</time>
      </trkpt>
      <trkpt lat="46.87397" lon="6.43182">
        <ele>1109.5</ele>
        <time>2015-06-28T09:35:48Z</time>
      </trkpt>
      <trkpt lat="46.87395" lon="6.43179">
        <ele>1109.98</ele>
        <time>2015-06-28T09:35:51Z</time>
      </trkpt>
      <trkpt lat="46.87381" lon="6.43173">
        <ele>1111.9</ele>
        <time>2015-06-28T09:36:02Z</time>
      </trkpt>
      <trkpt lat="46.8738" lon="6.43173">
        <ele>1112.38</ele>
        <time>2015-06-28T09:36:03Z</time>
      </trkpt>
      <trkpt lat="46.87364" lon="6.43171">
        <ele>1113.82</ele>
        <time>2015-06-28T09:36:15Z</time>
      </trkpt>
      <trkpt lat="46.87358" lon="6.43169">
        <ele>1114.79</ele>
        <time>2015-06-28T09:36:20Z</time>
      </trkpt>
      <trkpt lat="46.87357" lon="6.43169">
        <ele>1114.79</ele>
        <time>2015-06-28T09:36:21Z</time>
      </trkpt>
      <trkpt lat="46.87355" lon="6.43169">
        <ele>1114.79</ele>
        <time>2015-06-28T09:36:22Z</time>
      </trkpt>
      <trkpt lat="46.87341" lon="6.43158">
        <ele>1117.19</ele>
        <time>2015-06-28T09:36:36Z</time>
      </trkpt>
      <trkpt lat="46.87338" lon="6.43155">
        <ele>1117.67</ele>
        <time>2015-06-28T09:36:39Z</time>
      </trkpt>
      <trkpt lat="46.87333" lon="6.43154">
        <ele>1117.67</ele>
        <time>2015-06-28T09:36:42Z</time>
      </trkpt>
      <trkpt lat="46.8733" lon="6.43154">
        <ele>1118.15</ele>
        <time>2015-06-28T09:36:44Z</time>
      </trkpt>
      <trkpt lat="46.87328" lon="6.43154">
        <ele>1118.15</ele>
        <time>2015-06-28T09:36:45Z</time>
      </trkpt>
      <trkpt lat="46.87326" lon="6.43154">
        <ele>1118.15</ele>
        <time>2015-06-28T09:36:46Z</time>
      </trkpt>
      <trkpt lat="46.87315" lon="6.43155">
        <ele>1119.59</ele>
        <time>2015-06-28T09:36:57Z</time>
      </trkpt>
      <trkpt lat="46.87309" lon="6.43158">
        <ele>1120.07</ele>
        <time>2015-06-28T09:37:00Z</time>
      </trkpt>
      <trkpt lat="46.87307" lon="6.43159">
        <ele>1120.55</ele>
        <time>2015-06-28T09:37:01Z</time>
      </trkpt>
      <trkpt lat="46.87304" lon="6.43161">
        <ele>1120.07</ele>
        <time>2015-06-28T09:37:02Z</time>
      </trkpt>
      <trkpt lat="46.87302" lon="6.43161">
        <ele>1120.55</ele>
        <time>2015-06-28T09:37:03Z</time>
      </trkpt>
      <trkpt lat="46.87297" lon="6.43161">
        <ele>1120.55</ele>
        <time>2015-06-28T09:37:06Z</time>
      </trkpt>
      <trkpt lat="46.87294" lon="6.43162">
        <ele>1121.03</ele>
        <time>2015-06-28T09:37:08Z</time>
      </trkpt>
      <trkpt lat="46.87293" lon="6.43162">
        <ele>1121.03</ele>
        <time>2015-06-28T09:37:09Z</time>
      </trkpt>
      <trkpt lat="46.87292" lon="6.43162">
        <ele>1121.52</ele>
        <time>2015-06-28T09:37:10Z</time>
      </trkpt>
      <trkpt lat="46.87291" lon="6.43163">
        <ele>1121.52</ele>
        <time>2015-06-28T09:37:11Z</time>
      </trkpt>
      <trkpt lat="46.8729" lon="6.43164">
        <ele>1121.52</ele>
        <time>2015-06-28T09:37:12Z</time>
      </trkpt>
      <trkpt lat="46.87287" lon="6.43166">
        <ele>1121.52</ele>
        <time>2015-06-28T09:37:14Z</time>
      </trkpt>
      <trkpt lat="46.87277" lon="6.43169">
        <ele>1122.96</ele>
        <time>2015-06-28T09:37:24Z</time>
      </trkpt>
      <trkpt lat="46.87266" lon="6.43156">
        <ele>1122.96</ele>
        <time>2015-06-28T09:37:35Z</time>
      </trkpt>
      <trkpt lat="46.87264" lon="6.43156">
        <ele>1122.96</ele>
        <time>2015-06-28T09:37:36Z</time>
      </trkpt>
      <trkpt lat="46.87262" lon="6.43155">
        <ele>1122.96</ele>
        <time>2015-06-28T09:37:37Z</time>
      </trkpt>
      <trkpt lat="46.87261" lon="6.43154">
        <ele>1122.96</ele>
        <time>2015-06-28T09:37:38Z</time>
      </trkpt>
      <trkpt lat="46.87259" lon="6.43153">
        <ele>1122.96</ele>
        <time>2015-06-28T09:37:39Z</time>
      </trkpt>
      <trkpt lat="46.87258" lon="6.43152">
        <ele>1122.96</ele>
        <time>2015-06-28T09:37:40Z</time>
      </trkpt>
      <trkpt lat="46.87253" lon="6.43148">
        <ele>1123.92</ele>
        <time>2015-06-28T09:37:44Z</time>
      </trkpt>
      <trkpt lat="46.87252" lon="6.43148">
        <ele>1122.96</ele>
        <time>2015-06-28T09:37:45Z</time>
      </trkpt>
      <trkpt lat="46.8725" lon="6.43148">
        <ele>1123.44</ele>
        <time>2015-06-28T09:37:46Z</time>
      </trkpt>
      <trkpt lat="46.87218" lon="6.43135">
        <ele>1123.92</ele>
        <time>2015-06-28T09:37:59Z</time>
      </trkpt>
      <trkpt lat="46.87196" lon="6.43103">
        <ele>1124.4</ele>
        <time>2015-06-28T09:38:08Z</time>
      </trkpt>
      <trkpt lat="46.87182" lon="6.43047">
        <ele>1123.92</ele>
        <time>2015-06-28T09:38:20Z</time>
      </trkpt>
      <trkpt lat="46.87176" lon="6.43002">
        <ele>1125.36</ele>
        <time>2015-06-28T09:38:30Z</time>
      </trkpt>
      <trkpt lat="46.87181" lon="6.4298">
        <ele>1126.32</ele>
        <time>2015-06-28T09:38:39Z</time>
      </trkpt>
      <trkpt lat="46.87169" lon="6.42934">
        <ele>1126.8</ele>
        <time>2015-06-28T09:38:51Z</time>
      </trkpt>
      <trkpt lat="46.87166" lon="6.42931">
        <ele>1126.8</ele>
        <time>2015-06-28T09:38:52Z</time>
      </trkpt>
      <trkpt lat="46.87163" lon="6.42928">
        <ele>1126.8</ele>
        <time>2015-06-28T09:38:53Z</time>
      </trkpt>
      <trkpt lat="46.87162" lon="6.42923">
        <ele>1126.8</ele>
        <time>2015-06-28T09:38:54Z</time>
      </trkpt>
      <trkpt lat="46.87143" lon="6.42883">
        <ele>1127.28</ele>
        <time>2015-06-28T09:39:07Z</time>
      </trkpt>
      <trkpt lat="46.87132" lon="6.42847">
        <ele>1127.28</ele>
        <time>2015-06-28T09:39:18Z</time>
      </trkpt>
      <trkpt lat="46.87117" lon="6.42798">
        <ele>1126.32</ele>
        <time>2015-06-28T09:39:30Z</time>
      </trkpt>
      <trkpt lat="46.87114" lon="6.4279">
        <ele>1126.32</ele>
        <time>2015-06-28T09:39:32Z</time>
      </trkpt>
      <trkpt lat="46.87113" lon="6.42786">
        <ele>1125.84</ele>
        <time>2015-06-28T09:39:33Z</time>
      </trkpt>
      <trkpt lat="46.87111" lon="6.42782">
        <ele>1126.32</ele>
        <time>2015-06-28T09:39:34Z</time>
      </trkpt>
      <trkpt lat="46.8711" lon="6.42778">
        <ele>1126.32</ele>
        <time>2015-06-28T09:39:35Z</time>
      </trkpt>
      <trkpt lat="46.87108" lon="6.42774">
        <ele>1126.32</ele>
        <time>2015-06-28T09:39:36Z</time>
      </trkpt>
      <trkpt lat="46.87081" lon="6.42711">
        <ele>1124.4</ele>
        <time>2015-06-28T09:39:48Z</time>
      </trkpt>
      <trkpt lat="46.87064" lon="6.42677">
        <ele>1123.44</ele>
        <time>2015-06-28T09:39:59Z</time>
      </trkpt>
      <trkpt lat="46.87049" lon="6.42644">
        <ele>1122</ele>
        <time>2015-06-28T09:40:06Z</time>
      </trkpt>
      <trkpt lat="46.87047" lon="6.42639">
        <ele>1122</ele>
        <time>2015-06-28T09:40:07Z</time>
      </trkpt>
      <trkpt lat="46.87038" lon="6.42596">
        <ele>1121.03</ele>
        <time>2015-06-28T09:40:16Z</time>
      </trkpt>
      <trkpt lat="46.87024" lon="6.4257">
        <ele>1122.48</ele>
        <time>2015-06-28T09:40:25Z</time>
      </trkpt>
      <trkpt lat="46.87021" lon="6.42564">
        <ele>1122.96</ele>
        <time>2015-06-28T09:40:28Z</time>
      </trkpt>
      <trkpt lat="46.87019" lon="6.42562">
        <ele>1123.44</ele>
        <time>2015-06-28T09:40:29Z</time>
      </trkpt>
      <trkpt lat="46.87018" lon="6.4256">
        <ele>1122.96</ele>
        <time>2015-06-28T09:40:30Z</time>
      </trkpt>
      <trkpt lat="46.86993" lon="6.42542">
        <ele>1124.4</ele>
        <time>2015-06-28T09:40:40Z</time>
      </trkpt>
      <trkpt lat="46.86987" lon="6.4254">
        <ele>1124.88</ele>
        <time>2015-06-28T09:40:44Z</time>
      </trkpt>
      <trkpt lat="46.86985" lon="6.42539">
        <ele>1125.36</ele>
        <time>2015-06-28T09:40:45Z</time>
      </trkpt>
      <trkpt lat="46.86983" lon="6.42538">
        <ele>1125.36</ele>
        <time>2015-06-28T09:40:46Z</time>
      </trkpt>
      <trkpt lat="46.86981" lon="6.42536">
        <ele>1125.36</ele>
        <time>2015-06-28T09:40:47Z</time>
      </trkpt>
      <trkpt lat="46.86979" lon="6.42534">
        <ele>1125.36</ele>
        <time>2015-06-28T09:40:48Z</time>
      </trkpt>
      <trkpt lat="46.86978" lon="6.42533">
        <ele>1125.36</ele>
        <time>2015-06-28T09:40:49Z</time>
      </trkpt>
      <trkpt lat="46.86977" lon="6.42532">
        <ele>1125.84</ele>
        <time>2015-06-28T09:40:50Z</time>
      </trkpt>
      <trkpt lat="46.86975" lon="6.4253">
        <ele>1125.36</ele>
        <time>2015-06-28T09:40:51Z</time>
      </trkpt>
      <trkpt lat="46.86972" lon="6.42528">
        <ele>1125.84</ele>
        <time>2015-06-28T09:40:52Z</time>
      </trkpt>
      <trkpt lat="46.86969" lon="6.42527">
        <ele>1125.36</ele>
        <time>2015-06-28T09:40:53Z</time>
      </trkpt>
      <trkpt lat="46.86966" lon="6.42526">
        <ele>1126.32</ele>
        <time>2015-06-28T09:40:54Z</time>
      </trkpt>
      <trkpt lat="46.86963" lon="6.42524">
        <ele>1125.84</ele>
        <time>2015-06-28T09:40:55Z</time>
      </trkpt>
      <trkpt lat="46.8696" lon="6.42521">
        <ele>1125.84</ele>
        <time>2015-06-28T09:40:56Z</time>
      </trkpt>
      <trkpt lat="46.86958" lon="6.42518">
        <ele>1125.84</ele>
        <time>2015-06-28T09:40:57Z</time>
      </trkpt>
      <trkpt lat="46.86957" lon="6.42514">
        <ele>1125.36</ele>
        <time>2015-06-28T09:40:58Z</time>
      </trkpt>
      <trkpt lat="46.86939" lon="6.42485">
        <ele>1124.88</ele>
        <time>2015-06-28T09:41:10Z</time>
      </trkpt>
      <trkpt lat="46.86927" lon="6.42467">
        <ele>1124.88</ele>
        <time>2015-06-28T09:41:20Z</time>
      </trkpt>
      <trkpt lat="46.86917" lon="6.42427">
        <ele>1125.84</ele>
        <time>2015-06-28T09:41:32Z</time>
      </trkpt>
      <trkpt lat="46.86894" lon="6.424">
        <ele>1125.84</ele>
        <time>2015-06-28T09:41:44Z</time>
      </trkpt>
      <trkpt lat="46.86892" lon="6.424">
        <ele>1126.32</ele>
        <time>2015-06-28T09:41:45Z</time>
      </trkpt>
      <trkpt lat="46.8689" lon="6.424">
        <ele>1126.32</ele>
        <time>2015-06-28T09:41:46Z</time>
      </trkpt>
      <trkpt lat="46.86889" lon="6.42399">
        <ele>1126.32</ele>
        <time>2015-06-28T09:41:47Z</time>
      </trkpt>
      <trkpt lat="46.86888" lon="6.42399">
        <ele>1126.32</ele>
        <time>2015-06-28T09:41:48Z</time>
      </trkpt>
      <trkpt lat="46.86886" lon="6.42399">
        <ele>1126.8</ele>
        <time>2015-06-28T09:41:49Z</time>
      </trkpt>
      <trkpt lat="46.86885" lon="6.424">
        <ele>1126.32</ele>
        <time>2015-06-28T09:41:50Z</time>
      </trkpt>
      <trkpt lat="46.86868" lon="6.42407">
        <ele>1128.24</ele>
        <time>2015-06-28T09:42:02Z</time>
      </trkpt>
      <trkpt lat="46.86846" lon="6.42411">
        <ele>1130.65</ele>
        <time>2015-06-28T09:42:15Z</time>
      </trkpt>
      <trkpt lat="46.86824" lon="6.42422">
        <ele>1133.05</ele>
        <time>2015-06-28T09:42:32Z</time>
      </trkpt>
      <trkpt lat="46.86821" lon="6.42424">
        <ele>1133.05</ele>
        <time>2015-06-28T09:42:34Z</time>
      </trkpt>
      <trkpt lat="46.86819" lon="6.42425">
        <ele>1133.05</ele>
        <time>2015-06-28T09:42:35Z</time>
      </trkpt>
      <trkpt lat="46.86818" lon="6.42426">
        <ele>1133.53</ele>
        <time>2015-06-28T09:42:36Z</time>
      </trkpt>
      <trkpt lat="46.86817" lon="6.42428">
        <ele>1133.53</ele>
        <time>2015-06-28T09:42:37Z</time>
      </trkpt>
      <trkpt lat="46.86816" lon="6.42429">
        <ele>1133.53</ele>
        <time>2015-06-28T09:42:38Z</time>
      </trkpt>
      <trkpt lat="46.86801" lon="6.42444">
        <ele>1134.97</ele>
        <time>2015-06-28T09:42:51Z</time>
      </trkpt>
      <trkpt lat="46.86789" lon="6.42463">
        <ele>1136.9</ele>
        <time>2015-06-28T09:43:03Z</time>
      </trkpt>
      <trkpt lat="46.86778" lon="6.42477">
        <ele>1138.82</ele>
        <time>2015-06-28T09:43:14Z</time>
      </trkpt>
      <trkpt lat="46.86772" lon="6.42484">
        <ele>1139.78</ele>
        <time>2015-06-28T09:43:19Z</time>
      </trkpt>
      <trkpt lat="46.8677" lon="6.42485">
        <ele>1139.3</ele>
        <time>2015-06-28T09:43:20Z</time>
      </trkpt>
      <trkpt lat="46.86763" lon="6.42496">
        <ele>1141.7</ele>
        <time>2015-06-28T09:43:30Z</time>
      </trkpt>
      <trkpt lat="46.86762" lon="6.42498">
        <ele>1141.22</ele>
        <time>2015-06-28T09:43:31Z</time>
      </trkpt>
      <trkpt lat="46.86753" lon="6.42513">
        <ele>1142.66</ele>
        <time>2015-06-28T09:43:43Z</time>
      </trkpt>
      <trkpt lat="46.86747" lon="6.42516">
        <ele>1143.14</ele>
        <time>2015-06-28T09:43:47Z</time>
      </trkpt>
      <trkpt lat="46.86741" lon="6.42519">
        <ele>1143.63</ele>
        <time>2015-06-28T09:43:53Z</time>
      </trkpt>
      <trkpt lat="46.86733" lon="6.42521">
        <ele>1144.11</ele>
        <time>2015-06-28T09:44:00Z</time>
      </trkpt>
      <trkpt lat="46.86732" lon="6.4252">
        <ele>1144.59</ele>
        <time>2015-06-28T09:44:01Z</time>
      </trkpt>
      <trkpt lat="46.8673" lon="6.42521">
        <ele>1144.59</ele>
        <time>2015-06-28T09:44:02Z</time>
      </trkpt>
      <trkpt lat="46.86728" lon="6.42521">
        <ele>1144.59</ele>
        <time>2015-06-28T09:44:03Z</time>
      </trkpt>
      <trkpt lat="46.86722" lon="6.42524">
        <ele>1144.59</ele>
        <time>2015-06-28T09:44:14Z</time>
      </trkpt>
      <trkpt lat="46.86721" lon="6.42525">
        <ele>1144.59</ele>
        <time>2015-06-28T09:44:16Z</time>
      </trkpt>
      <trkpt lat="46.86715" lon="6.42532">
        <ele>1145.55</ele>
        <time>2015-06-28T09:44:27Z</time>
      </trkpt>
      <trkpt lat="46.86706" lon="6.42557">
        <ele>1146.99</ele>
        <time>2015-06-28T09:44:42Z</time>
      </trkpt>
      <trkpt lat="46.86699" lon="6.42581">
        <ele>1148.43</ele>
        <time>2015-06-28T09:44:57Z</time>
      </trkpt>
      <trkpt lat="46.86697" lon="6.42588">
        <ele>1149.39</ele>
        <time>2015-06-28T09:45:01Z</time>
      </trkpt>
      <trkpt lat="46.86697" lon="6.42589">
        <ele>1149.87</ele>
        <time>2015-06-28T09:45:02Z</time>
      </trkpt>
      <trkpt lat="46.86697" lon="6.42591">
        <ele>1148.91</ele>
        <time>2015-06-28T09:45:03Z</time>
      </trkpt>
      <trkpt lat="46.86694" lon="6.4262">
        <ele>1151.32</ele>
        <time>2015-06-28T09:45:18Z</time>
      </trkpt>
      <trkpt lat="46.86693" lon="6.42642">
        <ele>1152.76</ele>
        <time>2015-06-28T09:45:29Z</time>
      </trkpt>
      <trkpt lat="46.86684" lon="6.42666">
        <ele>1154.2</ele>
        <time>2015-06-28T09:45:43Z</time>
      </trkpt>
      <trkpt lat="46.86676" lon="6.42688">
        <ele>1155.64</ele>
        <time>2015-06-28T09:45:57Z</time>
      </trkpt>
      <trkpt lat="46.86672" lon="6.427">
        <ele>1157.08</ele>
        <time>2015-06-28T09:46:04Z</time>
      </trkpt>
      <trkpt lat="46.86671" lon="6.42702">
        <ele>1157.08</ele>
        <time>2015-06-28T09:46:05Z</time>
      </trkpt>
      <trkpt lat="46.8667" lon="6.42704">
        <ele>1157.08</ele>
        <time>2015-06-28T09:46:06Z</time>
      </trkpt>
      <trkpt lat="46.8667" lon="6.42706">
        <ele>1157.08</ele>
        <time>2015-06-28T09:46:07Z</time>
      </trkpt>
      <trkpt lat="46.86669" lon="6.42708">
        <ele>1156.6</ele>
        <time>2015-06-28T09:46:08Z</time>
      </trkpt>
      <trkpt lat="46.86668" lon="6.42711">
        <ele>1157.56</ele>
        <time>2015-06-28T09:46:09Z</time>
      </trkpt>
      <trkpt lat="46.86659" lon="6.42738">
        <ele>1159.49</ele>
        <time>2015-06-28T09:46:24Z</time>
      </trkpt>
      <trkpt lat="46.86652" lon="6.42767">
        <ele>1160.93</ele>
        <time>2015-06-28T09:46:39Z</time>
      </trkpt>
      <trkpt lat="46.86644" lon="6.42799">
        <ele>1162.37</ele>
        <time>2015-06-28T09:46:55Z</time>
      </trkpt>
      <trkpt lat="46.86634" lon="6.42825">
        <ele>1164.29</ele>
        <time>2015-06-28T09:47:10Z</time>
      </trkpt>
      <trkpt lat="46.86626" lon="6.42858">
        <ele>1166.7</ele>
        <time>2015-06-28T09:47:27Z</time>
      </trkpt>
      <trkpt lat="46.86618" lon="6.42889">
        <ele>1168.14</ele>
        <time>2015-06-28T09:47:42Z</time>
      </trkpt>
      <trkpt lat="46.86601" lon="6.42915">
        <ele>1170.06</ele>
        <time>2015-06-28T09:47:58Z</time>
      </trkpt>
      <trkpt lat="46.86598" lon="6.42917">
        <ele>1170.06</ele>
        <time>2015-06-28T09:48:00Z</time>
      </trkpt>
      <trkpt lat="46.86596" lon="6.42919">
        <ele>1170.06</ele>
        <time>2015-06-28T09:48:02Z</time>
      </trkpt>
      <trkpt lat="46.86594" lon="6.42921">
        <ele>1170.54</ele>
        <time>2015-06-28T09:48:03Z</time>
      </trkpt>
      <trkpt lat="46.86593" lon="6.42923">
        <ele>1170.54</ele>
        <time>2015-06-28T09:48:04Z</time>
      </trkpt>
      <trkpt lat="46.86577" lon="6.42936">
        <ele>1171.5</ele>
        <time>2015-06-28T09:48:15Z</time>
      </trkpt>
      <trkpt lat="46.86569" lon="6.42941">
        <ele>1172.47</ele>
        <time>2015-06-28T09:48:22Z</time>
      </trkpt>
      <trkpt lat="46.86567" lon="6.42941">
        <ele>1172.95</ele>
        <time>2015-06-28T09:48:23Z</time>
      </trkpt>
      <trkpt lat="46.86566" lon="6.42941">
        <ele>1172.47</ele>
        <time>2015-06-28T09:48:24Z</time>
      </trkpt>
      <trkpt lat="46.86565" lon="6.42942">
        <ele>1172.47</ele>
        <time>2015-06-28T09:48:25Z</time>
      </trkpt>
      <trkpt lat="46.86563" lon="6.42942">
        <ele>1173.43</ele>
        <time>2015-06-28T09:48:26Z</time>
      </trkpt>
      <trkpt lat="46.86562" lon="6.42942">
        <ele>1172.95</ele>
        <time>2015-06-28T09:48:27Z</time>
      </trkpt>
      <trkpt lat="46.8656" lon="6.42942">
        <ele>1172.95</ele>
        <time>2015-06-28T09:48:28Z</time>
      </trkpt>
      <trkpt lat="46.86546" lon="6.42943">
        <ele>1174.39</ele>
        <time>2015-06-28T09:48:39Z</time>
      </trkpt>
      <trkpt lat="46.86544" lon="6.42943">
        <ele>1174.87</ele>
        <time>2015-06-28T09:48:42Z</time>
      </trkpt>
      <trkpt lat="46.86542" lon="6.42945">
        <ele>1175.35</ele>
        <time>2015-06-28T09:48:44Z</time>
      </trkpt>
      <trkpt lat="46.86534" lon="6.42951">
        <ele>1176.31</ele>
        <time>2015-06-28T09:48:54Z</time>
      </trkpt>
      <trkpt lat="46.86523" lon="6.42963">
        <ele>1177.75</ele>
        <time>2015-06-28T09:49:04Z</time>
      </trkpt>
      <trkpt lat="46.8651" lon="6.42976">
        <ele>1179.67</ele>
        <time>2015-06-28T09:49:15Z</time>
      </trkpt>
      <trkpt lat="46.86508" lon="6.42978">
        <ele>1179.67</ele>
        <time>2015-06-28T09:49:16Z</time>
      </trkpt>
      <trkpt lat="46.86505" lon="6.42978">
        <ele>1179.67</ele>
        <time>2015-06-28T09:49:17Z</time>
      </trkpt>
      <trkpt lat="46.86503" lon="6.42979">
        <ele>1179.67</ele>
        <time>2015-06-28T09:49:18Z</time>
      </trkpt>
      <trkpt lat="46.865" lon="6.42981">
        <ele>1179.67</ele>
        <time>2015-06-28T09:49:19Z</time>
      </trkpt>
      <trkpt lat="46.86498" lon="6.42982">
        <ele>1180.16</ele>
        <time>2015-06-28T09:49:20Z</time>
      </trkpt>
      <trkpt lat="46.86496" lon="6.42982">
        <ele>1179.67</ele>
        <time>2015-06-28T09:49:21Z</time>
      </trkpt>
      <trkpt lat="46.86495" lon="6.42982">
        <ele>1180.16</ele>
        <time>2015-06-28T09:49:22Z</time>
      </trkpt>
      <trkpt lat="46.86491" lon="6.42985">
        <ele>1180.64</ele>
        <time>2015-06-28T09:49:25Z</time>
      </trkpt>
      <trkpt lat="46.8649" lon="6.42986">
        <ele>1180.64</ele>
        <time>2015-06-28T09:49:26Z</time>
      </trkpt>
      <trkpt lat="46.86489" lon="6.42986">
        <ele>1180.64</ele>
        <time>2015-06-28T09:49:27Z</time>
      </trkpt>
      <trkpt lat="46.86488" lon="6.42987">
        <ele>1180.64</ele>
        <time>2015-06-28T09:49:28Z</time>
      </trkpt>
      <trkpt lat="46.86486" lon="6.42988">
        <ele>1181.12</ele>
        <time>2015-06-28T09:49:29Z</time>
      </trkpt>
      <trkpt lat="46.86481" lon="6.42986">
        <ele>1181.6</ele>
        <time>2015-06-28T09:49:37Z</time>
      </trkpt>
      <trkpt lat="46.86464" lon="6.42991">
        <ele>1182.08</ele>
        <time>2015-06-28T09:49:47Z</time>
      </trkpt>
      <trkpt lat="46.8646" lon="6.4299">
        <ele>1182.08</ele>
        <time>2015-06-28T09:49:57Z</time>
      </trkpt>
      <trkpt lat="46.86455" lon="6.42993">
        <ele>1181.6</ele>
        <time>2015-06-28T09:50:09Z</time>
      </trkpt>
      <trkpt lat="46.86449" lon="6.42992">
        <ele>1181.6</ele>
        <time>2015-06-28T09:50:16Z</time>
      </trkpt>
      <trkpt lat="46.86447" lon="6.42991">
        <ele>1181.6</ele>
        <time>2015-06-28T09:50:17Z</time>
      </trkpt>
      <trkpt lat="46.86444" lon="6.42991">
        <ele>1181.6</ele>
        <time>2015-06-28T09:50:18Z</time>
      </trkpt>
      <trkpt lat="46.86442" lon="6.42991">
        <ele>1181.6</ele>
        <time>2015-06-28T09:50:19Z</time>
      </trkpt>
      <trkpt lat="46.8644" lon="6.4299">
        <ele>1181.6</ele>
        <time>2015-06-28T09:50:20Z</time>
      </trkpt>
      <trkpt lat="46.86437" lon="6.42989">
        <ele>1181.6</ele>
        <time>2015-06-28T09:50:21Z</time>
      </trkpt>
      <trkpt lat="46.86435" lon="6.42987">
        <ele>1181.6</ele>
        <time>2015-06-28T09:50:22Z</time>
      </trkpt>
      <trkpt lat="46.86407" lon="6.42973">
        <ele>1181.12</ele>
        <time>2015-06-28T09:50:35Z</time>
      </trkpt>
      <trkpt lat="46.8638" lon="6.42962">
        <ele>1180.64</ele>
        <time>2015-06-28T09:50:46Z</time>
      </trkpt>
      <trkpt lat="46.86353" lon="6.42955">
        <ele>1181.12</ele>
        <time>2015-06-28T09:50:59Z</time>
      </trkpt>
      <trkpt lat="46.86352" lon="6.42954">
        <ele>1181.12</ele>
        <time>2015-06-28T09:51:00Z</time>
      </trkpt>
      <trkpt lat="46.86344" lon="6.42945">
        <ele>1182.56</ele>
        <time>2015-06-28T09:51:07Z</time>
      </trkpt>
      <trkpt lat="46.86343" lon="6.42943">
        <ele>1182.08</ele>
        <time>2015-06-28T09:51:08Z</time>
      </trkpt>
      <trkpt lat="46.86336" lon="6.42929">
        <ele>1183.52</ele>
        <time>2015-06-28T09:51:15Z</time>
      </trkpt>
      <trkpt lat="46.86335" lon="6.42927">
        <ele>1183.04</ele>
        <time>2015-06-28T09:51:16Z</time>
      </trkpt>
      <trkpt lat="46.86334" lon="6.42924">
        <ele>1183.52</ele>
        <time>2015-06-28T09:51:17Z</time>
      </trkpt>
      <trkpt lat="46.86333" lon="6.42922">
        <ele>1183.52</ele>
        <time>2015-06-28T09:51:18Z</time>
      </trkpt>
      <trkpt lat="46.86332" lon="6.4292">
        <ele>1183.52</ele>
        <time>2015-06-28T09:51:19Z</time>
      </trkpt>
      <trkpt lat="46.86326" lon="6.42911">
        <ele>1184</ele>
        <time>2015-06-28T09:51:24Z</time>
      </trkpt>
      <trkpt lat="46.86325" lon="6.4291">
        <ele>1184</ele>
        <time>2015-06-28T09:51:25Z</time>
      </trkpt>
      <trkpt lat="46.863" lon="6.42894">
        <ele>1184.96</ele>
        <time>2015-06-28T09:51:39Z</time>
      </trkpt>
      <trkpt lat="46.86273" lon="6.42881">
        <ele>1184.96</ele>
        <time>2015-06-28T09:51:52Z</time>
      </trkpt>
      <trkpt lat="46.86243" lon="6.42873">
        <ele>1183.52</ele>
        <time>2015-06-28T09:52:04Z</time>
      </trkpt>
      <trkpt lat="46.86241" lon="6.42873">
        <ele>1183.52</ele>
        <time>2015-06-28T09:52:05Z</time>
      </trkpt>
      <trkpt lat="46.8624" lon="6.42873">
        <ele>1183.04</ele>
        <time>2015-06-28T09:52:06Z</time>
      </trkpt>
      <trkpt lat="46.86234" lon="6.42871">
        <ele>1183.52</ele>
        <time>2015-06-28T09:52:12Z</time>
      </trkpt>
      <trkpt lat="46.8623" lon="6.42871">
        <ele>1183.52</ele>
        <time>2015-06-28T09:52:15Z</time>
      </trkpt>
      <trkpt lat="46.86228" lon="6.42873">
        <ele>1183.52</ele>
        <time>2015-06-28T09:52:16Z</time>
      </trkpt>
      <trkpt lat="46.86221" lon="6.42878">
        <ele>1183.04</ele>
        <time>2015-06-28T09:52:21Z</time>
      </trkpt>
      <trkpt lat="46.86214" lon="6.42883">
        <ele>1183.52</ele>
        <time>2015-06-28T09:52:34Z</time>
      </trkpt>
      <trkpt lat="46.86216" lon="6.42881">
        <ele>1183.04</ele>
        <time>2015-06-28T09:53:03Z</time>
      </trkpt>
      <trkpt lat="46.86214" lon="6.42884">
        <ele>1183.52</ele>
        <time>2015-06-28T09:53:29Z</time>
      </trkpt>
      <trkpt lat="46.86213" lon="6.42883">
        <ele>1183.52</ele>
        <time>2015-06-28T09:53:49Z</time>
      </trkpt>
      <trkpt lat="46.86213" lon="6.42883">
        <ele>1183.52</ele>
        <time>2015-06-28T09:53:50Z</time>
      </trkpt>
      <trkpt lat="46.86212" lon="6.42883">
        <ele>1183.52</ele>
        <time>2015-06-28T09:53:51Z</time>
      </trkpt>
      <trkpt lat="46.86211" lon="6.42883">
        <ele>1184</ele>
        <time>2015-06-28T09:53:52Z</time>
      </trkpt>
      <trkpt lat="46.86209" lon="6.42883">
        <ele>1183.52</ele>
        <time>2015-06-28T09:53:53Z</time>
      </trkpt>
      <trkpt lat="46.86207" lon="6.42884">
        <ele>1183.52</ele>
        <time>2015-06-28T09:53:54Z</time>
      </trkpt>
      <trkpt lat="46.86189" lon="6.42888">
        <ele>1183.52</ele>
        <time>2015-06-28T09:54:04Z</time>
      </trkpt>
      <trkpt lat="46.86187" lon="6.42888">
        <ele>1183.04</ele>
        <time>2015-06-28T09:54:05Z</time>
      </trkpt>
      <trkpt lat="46.86185" lon="6.42888">
        <ele>1183.04</ele>
        <time>2015-06-28T09:54:06Z</time>
      </trkpt>
      <trkpt lat="46.86181" lon="6.42889">
        <ele>1183.52</ele>
        <time>2015-06-28T09:54:09Z</time>
      </trkpt>
      <trkpt lat="46.8618" lon="6.42889">
        <ele>1183.52</ele>
        <time>2015-06-28T09:54:10Z</time>
      </trkpt>
      <trkpt lat="46.86179" lon="6.4289">
        <ele>1183.52</ele>
        <time>2015-06-28T09:54:11Z</time>
      </trkpt>
      <trkpt lat="46.86178" lon="6.4289">
        <ele>1183.52</ele>
        <time>2015-06-28T09:54:12Z</time>
      </trkpt>
      <trkpt lat="46.86177" lon="6.42891">
        <ele>1183.52</ele>
        <time>2015-06-28T09:54:13Z</time>
      </trkpt>
      <trkpt lat="46.8617" lon="6.42894">
        <ele>1184</ele>
        <time>2015-06-28T09:54:18Z</time>
      </trkpt>
      <trkpt lat="46.86169" lon="6.42895">
        <ele>1184</ele>
        <time>2015-06-28T09:54:19Z</time>
      </trkpt>
      <trkpt lat="46.86163" lon="6.42899">
        <ele>1184.48</ele>
        <time>2015-06-28T09:54:22Z</time>
      </trkpt>
      <trkpt lat="46.86149" lon="6.42917">
        <ele>1185.92</ele>
        <time>2015-06-28T09:54:34Z</time>
      </trkpt>
      <trkpt lat="46.86145" lon="6.42923">
        <ele>1185.44</ele>
        <time>2015-06-28T09:54:37Z</time>
      </trkpt>
      <trkpt lat="46.86128" lon="6.42943">
        <ele>1185.92</ele>
        <time>2015-06-28T09:54:47Z</time>
      </trkpt>
      <trkpt lat="46.86126" lon="6.42945">
        <ele>1184.96</ele>
        <time>2015-06-28T09:54:48Z</time>
      </trkpt>
      <trkpt lat="46.86123" lon="6.42948">
        <ele>1184.48</ele>
        <time>2015-06-28T09:54:49Z</time>
      </trkpt>
      <trkpt lat="46.86119" lon="6.4295">
        <ele>1184.48</ele>
        <time>2015-06-28T09:54:50Z</time>
      </trkpt>
      <trkpt lat="46.86116" lon="6.4295">
        <ele>1184.96</ele>
        <time>2015-06-28T09:54:51Z</time>
      </trkpt>
      <trkpt lat="46.86114" lon="6.42949">
        <ele>1184.48</ele>
        <time>2015-06-28T09:54:52Z</time>
      </trkpt>
      <trkpt lat="46.86109" lon="6.42943">
        <ele>1184.96</ele>
        <time>2015-06-28T09:54:54Z</time>
      </trkpt>
      <trkpt lat="46.86103" lon="6.42934">
        <ele>1185.92</ele>
        <time>2015-06-28T09:54:57Z</time>
      </trkpt>
      <trkpt lat="46.86095" lon="6.42924">
        <ele>1185.92</ele>
        <time>2015-06-28T09:55:02Z</time>
      </trkpt>
      <trkpt lat="46.86085" lon="6.42893">
        <ele>1188.33</ele>
        <time>2015-06-28T09:55:15Z</time>
      </trkpt>
      <trkpt lat="46.86088" lon="6.4288">
        <ele>1190.25</ele>
        <time>2015-06-28T09:55:21Z</time>
      </trkpt>
      <trkpt lat="46.86095" lon="6.42865">
        <ele>1191.69</ele>
        <time>2015-06-28T09:55:29Z</time>
      </trkpt>
      <trkpt lat="46.86099" lon="6.42852">
        <ele>1193.13</ele>
        <time>2015-06-28T09:55:36Z</time>
      </trkpt>
      <trkpt lat="46.8611" lon="6.42825">
        <ele>1194.09</ele>
        <time>2015-06-28T09:55:50Z</time>
      </trkpt>
      <trkpt lat="46.86107" lon="6.42807">
        <ele>1195.06</ele>
        <time>2015-06-28T09:55:59Z</time>
      </trkpt>
      <trkpt lat="46.86089" lon="6.4281">
        <ele>1196.5</ele>
        <time>2015-06-28T09:56:14Z</time>
      </trkpt>
      <trkpt lat="46.86074" lon="6.42824">
        <ele>1198.42</ele>
        <time>2015-06-28T09:56:28Z</time>
      </trkpt>
      <trkpt lat="46.8606" lon="6.42842">
        <ele>1199.86</ele>
        <time>2015-06-28T09:56:42Z</time>
      </trkpt>
      <trkpt lat="46.8605" lon="6.42852">
        <ele>1201.3</ele>
        <time>2015-06-28T09:56:51Z</time>
      </trkpt>
      <trkpt lat="46.86048" lon="6.42855">
        <ele>1201.79</ele>
        <time>2015-06-28T09:56:54Z</time>
      </trkpt>
      <trkpt lat="46.86042" lon="6.4286">
        <ele>1203.23</ele>
        <time>2015-06-28T09:57:00Z</time>
      </trkpt>
      <trkpt lat="46.86031" lon="6.4286">
        <ele>1203.71</ele>
        <time>2015-06-28T09:57:07Z</time>
      </trkpt>
      <trkpt lat="46.86021" lon="6.4285">
        <ele>1203.71</ele>
        <time>2015-06-28T09:57:14Z</time>
      </trkpt>
      <trkpt lat="46.86018" lon="6.42843">
        <ele>1204.67</ele>
        <time>2015-06-28T09:57:18Z</time>
      </trkpt>
      <trkpt lat="46.85996" lon="6.42803">
        <ele>1203.23</ele>
        <time>2015-06-28T09:57:31Z</time>
      </trkpt>
      <trkpt lat="46.85979" lon="6.42792">
        <ele>1203.23</ele>
        <time>2015-06-28T09:57:37Z</time>
      </trkpt>
      <trkpt lat="46.85977" lon="6.4279">
        <ele>1203.71</ele>
        <time>2015-06-28T09:57:38Z</time>
      </trkpt>
      <trkpt lat="46.85976" lon="6.42789">
        <ele>1203.71</ele>
        <time>2015-06-28T09:57:39Z</time>
      </trkpt>
      <trkpt lat="46.85975" lon="6.42787">
        <ele>1204.19</ele>
        <time>2015-06-28T09:57:40Z</time>
      </trkpt>
      <trkpt lat="46.85974" lon="6.42785">
        <ele>1204.67</ele>
        <time>2015-06-28T09:57:51Z</time>
      </trkpt>
      <trkpt lat="46.85972" lon="6.42785">
        <ele>1204.19</ele>
        <time>2015-06-28T09:57:54Z</time>
      </trkpt>
      <trkpt lat="46.85968" lon="6.42787">
        <ele>1203.23</ele>
        <time>2015-06-28T09:58:05Z</time>
      </trkpt>
      <trkpt lat="46.85961" lon="6.42785">
        <ele>1203.71</ele>
        <time>2015-06-28T09:58:15Z</time>
      </trkpt>
      <trkpt lat="46.85956" lon="6.42783">
        <ele>1203.23</ele>
        <time>2015-06-28T09:58:18Z</time>
      </trkpt>
      <trkpt lat="46.85955" lon="6.42781">
        <ele>1203.71</ele>
        <time>2015-06-28T09:58:19Z</time>
      </trkpt>
      <trkpt lat="46.85952" lon="6.4278">
        <ele>1203.23</ele>
        <time>2015-06-28T09:58:20Z</time>
      </trkpt>
      <trkpt lat="46.8595" lon="6.42779">
        <ele>1202.75</ele>
        <time>2015-06-28T09:58:21Z</time>
      </trkpt>
      <trkpt lat="46.85947" lon="6.42777">
        <ele>1202.27</ele>
        <time>2015-06-28T09:58:22Z</time>
      </trkpt>
      <trkpt lat="46.85944" lon="6.42776">
        <ele>1202.75</ele>
        <time>2015-06-28T09:58:23Z</time>
      </trkpt>
      <trkpt lat="46.85905" lon="6.42765">
        <ele>1200.34</ele>
        <time>2015-06-28T09:58:34Z</time>
      </trkpt>
      <trkpt lat="46.85899" lon="6.42766">
        <ele>1199.86</ele>
        <time>2015-06-28T09:58:35Z</time>
      </trkpt>
      <trkpt lat="46.85895" lon="6.42768">
        <ele>1199.38</ele>
        <time>2015-06-28T09:58:36Z</time>
      </trkpt>
      <trkpt lat="46.85871" lon="6.42782">
        <ele>1196.98</ele>
        <time>2015-06-28T09:58:41Z</time>
      </trkpt>
      <trkpt lat="46.85866" lon="6.42783">
        <ele>1196.5</ele>
        <time>2015-06-28T09:58:42Z</time>
      </trkpt>
      <trkpt lat="46.85861" lon="6.42784">
        <ele>1196.5</ele>
        <time>2015-06-28T09:58:43Z</time>
      </trkpt>
      <trkpt lat="46.85857" lon="6.42785">
        <ele>1196.5</ele>
        <time>2015-06-28T09:58:44Z</time>
      </trkpt>
      <trkpt lat="46.85853" lon="6.42786">
        <ele>1196.02</ele>
        <time>2015-06-28T09:58:45Z</time>
      </trkpt>
      <trkpt lat="46.85849" lon="6.42788">
        <ele>1196.5</ele>
        <time>2015-06-28T09:58:46Z</time>
      </trkpt>
      <trkpt lat="46.85845" lon="6.4279">
        <ele>1196.5</ele>
        <time>2015-06-28T09:58:48Z</time>
      </trkpt>
      <trkpt lat="46.85832" lon="6.42803">
        <ele>1197.46</ele>
        <time>2015-06-28T09:58:55Z</time>
      </trkpt>
      <trkpt lat="46.85829" lon="6.42804">
        <ele>1196.5</ele>
        <time>2015-06-28T09:58:56Z</time>
      </trkpt>
      <trkpt lat="46.85826" lon="6.42806">
        <ele>1196.5</ele>
        <time>2015-06-28T09:58:57Z</time>
      </trkpt>
      <trkpt lat="46.85823" lon="6.42807">
        <ele>1196.98</ele>
        <time>2015-06-28T09:58:58Z</time>
      </trkpt>
      <trkpt lat="46.8582" lon="6.42808">
        <ele>1196.98</ele>
        <time>2015-06-28T09:58:59Z</time>
      </trkpt>
      <trkpt lat="46.85818" lon="6.42807">
        <ele>1196.98</ele>
        <time>2015-06-28T09:59:00Z</time>
      </trkpt>
      <trkpt lat="46.85815" lon="6.42806">
        <ele>1196.5</ele>
        <time>2015-06-28T09:59:01Z</time>
      </trkpt>
      <trkpt lat="46.85812" lon="6.42804">
        <ele>1196.5</ele>
        <time>2015-06-28T09:59:02Z</time>
      </trkpt>
      <trkpt lat="46.85809" lon="6.42802">
        <ele>1196.5</ele>
        <time>2015-06-28T09:59:03Z</time>
      </trkpt>
      <trkpt lat="46.85806" lon="6.42799">
        <ele>1196.02</ele>
        <time>2015-06-28T09:59:04Z</time>
      </trkpt>
      <trkpt lat="46.85802" lon="6.42797">
        <ele>1195.54</ele>
        <time>2015-06-28T09:59:05Z</time>
      </trkpt>
      <trkpt lat="46.85798" lon="6.42795">
        <ele>1195.06</ele>
        <time>2015-06-28T09:59:06Z</time>
      </trkpt>
      <trkpt lat="46.85793" lon="6.42794">
        <ele>1194.58</ele>
        <time>2015-06-28T09:59:07Z</time>
      </trkpt>
      <trkpt lat="46.85788" lon="6.42795">
        <ele>1194.09</ele>
        <time>2015-06-28T09:59:08Z</time>
      </trkpt>
      <trkpt lat="46.85781" lon="6.42798">
        <ele>1193.61</ele>
        <time>2015-06-28T09:59:09Z</time>
      </trkpt>
      <trkpt lat="46.85775" lon="6.42802">
        <ele>1193.61</ele>
        <time>2015-06-28T09:59:10Z</time>
      </trkpt>
      <trkpt lat="46.85768" lon="6.42807">
        <ele>1193.13</ele>
        <time>2015-06-28T09:59:11Z</time>
      </trkpt>
      <trkpt lat="46.85763" lon="6.42812">
        <ele>1193.13</ele>
        <time>2015-06-28T09:59:12Z</time>
      </trkpt>
      <trkpt lat="46.85752" lon="6.42823">
        <ele>1193.13</ele>
        <time>2015-06-28T09:59:14Z</time>
      </trkpt>
      <trkpt lat="46.85746" lon="6.42827">
        <ele>1193.13</ele>
        <time>2015-06-28T09:59:15Z</time>
      </trkpt>
      <trkpt lat="46.85707" lon="6.42839">
        <ele>1192.17</ele>
        <time>2015-06-28T09:59:25Z</time>
      </trkpt>
      <trkpt lat="46.85704" lon="6.4284">
        <ele>1192.17</ele>
        <time>2015-06-28T09:59:26Z</time>
      </trkpt>
      <trkpt lat="46.85666" lon="6.42888">
        <ele>1189.29</ele>
        <time>2015-06-28T09:59:35Z</time>
      </trkpt>
      <trkpt lat="46.85661" lon="6.42895">
        <ele>1188.81</ele>
        <time>2015-06-28T09:59:36Z</time>
      </trkpt>
      <trkpt lat="46.85657" lon="6.429">
        <ele>1189.29</ele>
        <time>2015-06-28T09:59:37Z</time>
      </trkpt>
      <trkpt lat="46.85651" lon="6.42903">
        <ele>1189.29</ele>
        <time>2015-06-28T09:59:38Z</time>
      </trkpt>
      <trkpt lat="46.85647" lon="6.42904">
        <ele>1189.29</ele>
        <time>2015-06-28T09:59:39Z</time>
      </trkpt>
      <trkpt lat="46.85643" lon="6.42903">
        <ele>1188.81</ele>
        <time>2015-06-28T09:59:40Z</time>
      </trkpt>
      <trkpt lat="46.85639" lon="6.42902">
        <ele>1189.29</ele>
        <time>2015-06-28T09:59:41Z</time>
      </trkpt>
      <trkpt lat="46.85635" lon="6.42899">
        <ele>1189.29</ele>
        <time>2015-06-28T09:59:42Z</time>
      </trkpt>
      <trkpt lat="46.85631" lon="6.42896">
        <ele>1188.81</ele>
        <time>2015-06-28T09:59:43Z</time>
      </trkpt>
      <trkpt lat="46.85627" lon="6.42893">
        <ele>1188.81</ele>
        <time>2015-06-28T09:59:44Z</time>
      </trkpt>
      <trkpt lat="46.85623" lon="6.4289">
        <ele>1188.81</ele>
        <time>2015-06-28T09:59:45Z</time>
      </trkpt>
      <trkpt lat="46.85618" lon="6.42887">
        <ele>1187.85</ele>
        <time>2015-06-28T09:59:46Z</time>
      </trkpt>
      <trkpt lat="46.85613" lon="6.42884">
        <ele>1187.85</ele>
        <time>2015-06-28T09:59:47Z</time>
      </trkpt>
      <trkpt lat="46.85609" lon="6.4288">
        <ele>1187.85</ele>
        <time>2015-06-28T09:59:48Z</time>
      </trkpt>
      <trkpt lat="46.85604" lon="6.42878">
        <ele>1187.37</ele>
        <time>2015-06-28T09:59:49Z</time>
      </trkpt>
      <trkpt lat="46.85595" lon="6.42874">
        <ele>1187.85</ele>
        <time>2015-06-28T09:59:51Z</time>
      </trkpt>
      <trkpt lat="46.85579" lon="6.42863">
        <ele>1187.37</ele>
        <time>2015-06-28T09:59:55Z</time>
      </trkpt>
      <trkpt lat="46.85575" lon="6.4286">
        <ele>1187.37</ele>
        <time>2015-06-28T09:59:56Z</time>
      </trkpt>
      <trkpt lat="46.85571" lon="6.42857">
        <ele>1187.37</ele>
        <time>2015-06-28T09:59:57Z</time>
      </trkpt>
      <trkpt lat="46.85566" lon="6.42854">
        <ele>1187.37</ele>
        <time>2015-06-28T09:59:58Z</time>
      </trkpt>
      <trkpt lat="46.85562" lon="6.42851">
        <ele>1187.37</ele>
        <time>2015-06-28T09:59:59Z</time>
      </trkpt>
      <trkpt lat="46.85558" lon="6.42848">
        <ele>1186.88</ele>
        <time>2015-06-28T10:00:00Z</time>
      </trkpt>
      <trkpt lat="46.85488" lon="6.42796">
        <ele>1184</ele>
        <time>2015-06-28T10:00:15Z</time>
      </trkpt>
      <trkpt lat="46.85426" lon="6.42748">
        <ele>1183.52</ele>
        <time>2015-06-28T10:00:27Z</time>
      </trkpt>
      <trkpt lat="46.8542" lon="6.42743">
        <ele>1183.04</ele>
        <time>2015-06-28T10:00:28Z</time>
      </trkpt>
      <trkpt lat="46.85414" lon="6.42738">
        <ele>1182.56</ele>
        <time>2015-06-28T10:00:29Z</time>
      </trkpt>
      <trkpt lat="46.854" lon="6.42726">
        <ele>1180.64</ele>
        <time>2015-06-28T10:00:31Z</time>
      </trkpt>
      <trkpt lat="46.85392" lon="6.42721">
        <ele>1179.19</ele>
        <time>2015-06-28T10:00:32Z</time>
      </trkpt>
      <trkpt lat="46.85383" lon="6.42717">
        <ele>1179.19</ele>
        <time>2015-06-28T10:00:33Z</time>
      </trkpt>
      <trkpt lat="46.85374" lon="6.42714">
        <ele>1178.23</ele>
        <time>2015-06-28T10:00:34Z</time>
      </trkpt>
      <trkpt lat="46.85364" lon="6.42713">
        <ele>1177.75</ele>
        <time>2015-06-28T10:00:35Z</time>
      </trkpt>
      <trkpt lat="46.85354" lon="6.42712">
        <ele>1177.27</ele>
        <time>2015-06-28T10:00:36Z</time>
      </trkpt>
      <trkpt lat="46.85344" lon="6.42712">
        <ele>1176.79</ele>
        <time>2015-06-28T10:00:37Z</time>
      </trkpt>
      <trkpt lat="46.85325" lon="6.42711">
        <ele>1175.83</ele>
        <time>2015-06-28T10:00:39Z</time>
      </trkpt>
      <trkpt lat="46.85261" lon="6.42702">
        <ele>1174.39</ele>
        <time>2015-06-28T10:00:46Z</time>
      </trkpt>
      <trkpt lat="46.85252" lon="6.42702">
        <ele>1173.43</ele>
        <time>2015-06-28T10:00:47Z</time>
      </trkpt>
      <trkpt lat="46.85228" lon="6.42707">
        <ele>1172.47</ele>
        <time>2015-06-28T10:00:50Z</time>
      </trkpt>
      <trkpt lat="46.8522" lon="6.42711">
        <ele>1171.98</ele>
        <time>2015-06-28T10:00:51Z</time>
      </trkpt>
      <trkpt lat="46.85213" lon="6.42715">
        <ele>1171.98</ele>
        <time>2015-06-28T10:00:52Z</time>
      </trkpt>
      <trkpt lat="46.85206" lon="6.42717">
        <ele>1171.98</ele>
        <time>2015-06-28T10:00:53Z</time>
      </trkpt>
      <trkpt lat="46.852" lon="6.42717">
        <ele>1171.5</ele>
        <time>2015-06-28T10:00:54Z</time>
      </trkpt>
      <trkpt lat="46.85194" lon="6.42715">
        <ele>1171.5</ele>
        <time>2015-06-28T10:00:55Z</time>
      </trkpt>
      <trkpt lat="46.85188" lon="6.42711">
        <ele>1171.98</ele>
        <time>2015-06-28T10:00:56Z</time>
      </trkpt>
      <trkpt lat="46.85184" lon="6.42705">
        <ele>1171.98</ele>
        <time>2015-06-28T10:00:57Z</time>
      </trkpt>
      <trkpt lat="46.8518" lon="6.42699">
        <ele>1171.98</ele>
        <time>2015-06-28T10:00:58Z</time>
      </trkpt>
      <trkpt lat="46.85178" lon="6.42693">
        <ele>1172.47</ele>
        <time>2015-06-28T10:00:59Z</time>
      </trkpt>
      <trkpt lat="46.85177" lon="6.42688">
        <ele>1172.95</ele>
        <time>2015-06-28T10:01:00Z</time>
      </trkpt>
      <trkpt lat="46.85176" lon="6.42683">
        <ele>1172.47</ele>
        <time>2015-06-28T10:01:01Z</time>
      </trkpt>
      <trkpt lat="46.85175" lon="6.42679">
        <ele>1173.43</ele>
        <time>2015-06-28T10:01:02Z</time>
      </trkpt>
      <trkpt lat="46.85175" lon="6.42674">
        <ele>1172.95</ele>
        <time>2015-06-28T10:01:03Z</time>
      </trkpt>
      <trkpt lat="46.8517" lon="6.42629">
        <ele>1175.83</ele>
        <time>2015-06-28T10:01:16Z</time>
      </trkpt>
      <trkpt lat="46.85168" lon="6.42626">
        <ele>1175.83</ele>
        <time>2015-06-28T10:01:17Z</time>
      </trkpt>
      <trkpt lat="46.85167" lon="6.42624">
        <ele>1175.83</ele>
        <time>2015-06-28T10:01:18Z</time>
      </trkpt>
      <trkpt lat="46.85166" lon="6.42621">
        <ele>1176.31</ele>
        <time>2015-06-28T10:01:19Z</time>
      </trkpt>
      <trkpt lat="46.85152" lon="6.42581">
        <ele>1177.75</ele>
        <time>2015-06-28T10:01:31Z</time>
      </trkpt>
      <trkpt lat="46.8515" lon="6.42574">
        <ele>1177.75</ele>
        <time>2015-06-28T10:01:33Z</time>
      </trkpt>
      <trkpt lat="46.8515" lon="6.42571">
        <ele>1177.27</ele>
        <time>2015-06-28T10:01:34Z</time>
      </trkpt>
      <trkpt lat="46.85149" lon="6.42567">
        <ele>1177.75</ele>
        <time>2015-06-28T10:01:35Z</time>
      </trkpt>
      <trkpt lat="46.85148" lon="6.42564">
        <ele>1178.23</ele>
        <time>2015-06-28T10:01:36Z</time>
      </trkpt>
      <trkpt lat="46.85147" lon="6.4256">
        <ele>1178.23</ele>
        <time>2015-06-28T10:01:37Z</time>
      </trkpt>
      <trkpt lat="46.85138" lon="6.42518">
        <ele>1178.71</ele>
        <time>2015-06-28T10:01:49Z</time>
      </trkpt>
      <trkpt lat="46.85127" lon="6.42474">
        <ele>1179.19</ele>
        <time>2015-06-28T10:01:58Z</time>
      </trkpt>
      <trkpt lat="46.85119" lon="6.42441">
        <ele>1178.23</ele>
        <time>2015-06-28T10:02:03Z</time>
      </trkpt>
      <trkpt lat="46.85116" lon="6.42435">
        <ele>1178.23</ele>
        <time>2015-06-28T10:02:04Z</time>
      </trkpt>
      <trkpt lat="46.85112" lon="6.42428">
        <ele>1177.27</ele>
        <time>2015-06-28T10:02:05Z</time>
      </trkpt>
      <trkpt lat="46.85108" lon="6.42422">
        <ele>1177.27</ele>
        <time>2015-06-28T10:02:06Z</time>
      </trkpt>
      <trkpt lat="46.85103" lon="6.42415">
        <ele>1177.27</ele>
        <time>2015-06-28T10:02:07Z</time>
      </trkpt>
      <trkpt lat="46.85098" lon="6.42409">
        <ele>1176.79</ele>
        <time>2015-06-28T10:02:08Z</time>
      </trkpt>
      <trkpt lat="46.85093" lon="6.42402">
        <ele>1176.79</ele>
        <time>2015-06-28T10:02:09Z</time>
      </trkpt>
      <trkpt lat="46.85083" lon="6.42388">
        <ele>1175.83</ele>
        <time>2015-06-28T10:02:11Z</time>
      </trkpt>
      <trkpt lat="46.85067" lon="6.42371">
        <ele>1174.39</ele>
        <time>2015-06-28T10:02:14Z</time>
      </trkpt>
      <trkpt lat="46.85061" lon="6.42367">
        <ele>1174.39</ele>
        <time>2015-06-28T10:02:15Z</time>
      </trkpt>
      <trkpt lat="46.85055" lon="6.42365">
        <ele>1173.91</ele>
        <time>2015-06-28T10:02:16Z</time>
      </trkpt>
      <trkpt lat="46.85032" lon="6.42358">
        <ele>1171.98</ele>
        <time>2015-06-28T10:02:19Z</time>
      </trkpt>
      <trkpt lat="46.85024" lon="6.42354">
        <ele>1171.98</ele>
        <time>2015-06-28T10:02:20Z</time>
      </trkpt>
      <trkpt lat="46.85016" lon="6.42348">
        <ele>1171.02</ele>
        <time>2015-06-28T10:02:21Z</time>
      </trkpt>
      <trkpt lat="46.84976" lon="6.4231">
        <ele>1167.66</ele>
        <time>2015-06-28T10:02:26Z</time>
      </trkpt>
      <trkpt lat="46.84969" lon="6.42299">
        <ele>1166.7</ele>
        <time>2015-06-28T10:02:27Z</time>
      </trkpt>
      <trkpt lat="46.84963" lon="6.42286">
        <ele>1166.22</ele>
        <time>2015-06-28T10:02:28Z</time>
      </trkpt>
      <trkpt lat="46.8494" lon="6.4223">
        <ele>1162.85</ele>
        <time>2015-06-28T10:02:32Z</time>
      </trkpt>
      <trkpt lat="46.84926" lon="6.42197">
        <ele>1159.97</ele>
        <time>2015-06-28T10:02:35Z</time>
      </trkpt>
      <trkpt lat="46.84919" lon="6.42189">
        <ele>1159.97</ele>
        <time>2015-06-28T10:02:36Z</time>
      </trkpt>
      <trkpt lat="46.84911" lon="6.42181">
        <ele>1159.49</ele>
        <time>2015-06-28T10:02:37Z</time>
      </trkpt>
      <trkpt lat="46.84903" lon="6.42173">
        <ele>1159.01</ele>
        <time>2015-06-28T10:02:38Z</time>
      </trkpt>
      <trkpt lat="46.84894" lon="6.42166">
        <ele>1158.53</ele>
        <time>2015-06-28T10:02:39Z</time>
      </trkpt>
      <trkpt lat="46.84857" lon="6.42133">
        <ele>1155.16</ele>
        <time>2015-06-28T10:02:43Z</time>
      </trkpt>
      <trkpt lat="46.8482" lon="6.42093">
        <ele>1151.8</ele>
        <time>2015-06-28T10:02:47Z</time>
      </trkpt>
      <trkpt lat="46.84813" lon="6.42084">
        <ele>1150.84</ele>
        <time>2015-06-28T10:02:48Z</time>
      </trkpt>
      <trkpt lat="46.84801" lon="6.42065">
        <ele>1149.39</ele>
        <time>2015-06-28T10:02:50Z</time>
      </trkpt>
      <trkpt lat="46.84751" lon="6.41983">
        <ele>1145.55</ele>
        <time>2015-06-28T10:02:58Z</time>
      </trkpt>
      <trkpt lat="46.84745" lon="6.41972">
        <ele>1145.55</ele>
        <time>2015-06-28T10:02:59Z</time>
      </trkpt>
      <trkpt lat="46.84722" lon="6.41939">
        <ele>1143.63</ele>
        <time>2015-06-28T10:03:02Z</time>
      </trkpt>
      <trkpt lat="46.84684" lon="6.41883">
        <ele>1140.26</ele>
        <time>2015-06-28T10:03:07Z</time>
      </trkpt>
      <trkpt lat="46.84661" lon="6.41853">
        <ele>1137.86</ele>
        <time>2015-06-28T10:03:10Z</time>
      </trkpt>
      <trkpt lat="46.84653" lon="6.41846">
        <ele>1137.38</ele>
        <time>2015-06-28T10:03:11Z</time>
      </trkpt>
      <trkpt lat="46.84644" lon="6.4184">
        <ele>1136.9</ele>
        <time>2015-06-28T10:03:12Z</time>
      </trkpt>
      <trkpt lat="46.84608" lon="6.4182">
        <ele>1133.53</ele>
        <time>2015-06-28T10:03:16Z</time>
      </trkpt>
      <trkpt lat="46.84599" lon="6.41813">
        <ele>1133.05</ele>
        <time>2015-06-28T10:03:17Z</time>
      </trkpt>
      <trkpt lat="46.84591" lon="6.41805">
        <ele>1132.57</ele>
        <time>2015-06-28T10:03:18Z</time>
      </trkpt>
      <trkpt lat="46.84584" lon="6.41795">
        <ele>1131.61</ele>
        <time>2015-06-28T10:03:19Z</time>
      </trkpt>
      <trkpt lat="46.84578" lon="6.41785">
        <ele>1131.13</ele>
        <time>2015-06-28T10:03:20Z</time>
      </trkpt>
      <trkpt lat="46.84573" lon="6.41774">
        <ele>1130.17</ele>
        <time>2015-06-28T10:03:21Z</time>
      </trkpt>
      <trkpt lat="46.84569" lon="6.41763">
        <ele>1129.69</ele>
        <time>2015-06-28T10:03:22Z</time>
      </trkpt>
      <trkpt lat="46.84555" lon="6.41715">
        <ele>1126.32</ele>
        <time>2015-06-28T10:03:28Z</time>
      </trkpt>
      <trkpt lat="46.84551" lon="6.41704">
        <ele>1126.8</ele>
        <time>2015-06-28T10:03:30Z</time>
      </trkpt>
      <trkpt lat="46.8453" lon="6.41654">
        <ele>1124.88</ele>
        <time>2015-06-28T10:03:37Z</time>
      </trkpt>
      <trkpt lat="46.84482" lon="6.41564">
        <ele>1122.48</ele>
        <time>2015-06-28T10:03:49Z</time>
      </trkpt>
      <trkpt lat="46.84479" lon="6.41555">
        <ele>1122</ele>
        <time>2015-06-28T10:03:50Z</time>
      </trkpt>
      <trkpt lat="46.84476" lon="6.41545">
        <ele>1122</ele>
        <time>2015-06-28T10:03:51Z</time>
      </trkpt>
      <trkpt lat="46.84474" lon="6.41534">
        <ele>1121.03</ele>
        <time>2015-06-28T10:03:52Z</time>
      </trkpt>
      <trkpt lat="46.84473" lon="6.41523">
        <ele>1121.52</ele>
        <time>2015-06-28T10:03:53Z</time>
      </trkpt>
      <trkpt lat="46.84473" lon="6.41513">
        <ele>1121.03</ele>
        <time>2015-06-28T10:03:54Z</time>
      </trkpt>
      <trkpt lat="46.84473" lon="6.41502">
        <ele>1121.03</ele>
        <time>2015-06-28T10:03:55Z</time>
      </trkpt>
      <trkpt lat="46.84473" lon="6.41491">
        <ele>1121.03</ele>
        <time>2015-06-28T10:03:56Z</time>
      </trkpt>
      <trkpt lat="46.84473" lon="6.41481">
        <ele>1120.55</ele>
        <time>2015-06-28T10:03:57Z</time>
      </trkpt>
      <trkpt lat="46.84471" lon="6.41414">
        <ele>1118.63</ele>
        <time>2015-06-28T10:04:04Z</time>
      </trkpt>
      <trkpt lat="46.84468" lon="6.41405">
        <ele>1118.15</ele>
        <time>2015-06-28T10:04:05Z</time>
      </trkpt>
      <trkpt lat="46.84465" lon="6.41397">
        <ele>1118.15</ele>
        <time>2015-06-28T10:04:06Z</time>
      </trkpt>
      <trkpt lat="46.84415" lon="6.41327">
        <ele>1115.27</ele>
        <time>2015-06-28T10:04:16Z</time>
      </trkpt>
      <trkpt lat="46.84336" lon="6.41225">
        <ele>1111.9</ele>
        <time>2015-06-28T10:04:29Z</time>
      </trkpt>
      <trkpt lat="46.84254" lon="6.41134">
        <ele>1111.42</ele>
        <time>2015-06-28T10:04:44Z</time>
      </trkpt>
      <trkpt lat="46.84228" lon="6.41115">
        <ele>1109.98</ele>
        <time>2015-06-28T10:04:53Z</time>
      </trkpt>
      <trkpt lat="46.84224" lon="6.41111">
        <ele>1109.98</ele>
        <time>2015-06-28T10:04:55Z</time>
      </trkpt>
      <trkpt lat="46.84214" lon="6.41092">
        <ele>1109.5</ele>
        <time>2015-06-28T10:05:00Z</time>
      </trkpt>
      <trkpt lat="46.84149" lon="6.41021">
        <ele>1108.54</ele>
        <time>2015-06-28T10:05:15Z</time>
      </trkpt>
      <trkpt lat="46.84059" lon="6.40931">
        <ele>1105.65</ele>
        <time>2015-06-28T10:05:32Z</time>
      </trkpt>
      <trkpt lat="46.84015" lon="6.40889">
        <ele>1104.69</ele>
        <time>2015-06-28T10:05:40Z</time>
      </trkpt>
      <trkpt lat="46.83943" lon="6.40815">
        <ele>1104.69</ele>
        <time>2015-06-28T10:05:54Z</time>
      </trkpt>
      <trkpt lat="46.83917" lon="6.40789">
        <ele>1104.21</ele>
        <time>2015-06-28T10:06:00Z</time>
      </trkpt>
      <trkpt lat="46.83851" lon="6.40724">
        <ele>1102.29</ele>
        <time>2015-06-28T10:06:15Z</time>
      </trkpt>
      <trkpt lat="46.83827" lon="6.40698">
        <ele>1100.85</ele>
        <time>2015-06-28T10:06:25Z</time>
      </trkpt>
      <trkpt lat="46.83826" lon="6.40696">
        <ele>1101.33</ele>
        <time>2015-06-28T10:06:38Z</time>
      </trkpt>
      <trkpt lat="46.83832" lon="6.40671">
        <ele>1099.89</ele>
        <time>2015-06-28T10:06:46Z</time>
      </trkpt>
      <trkpt lat="46.83861" lon="6.40594">
        <ele>1097.96</ele>
        <time>2015-06-28T10:06:57Z</time>
      </trkpt>
      <trkpt lat="46.83888" lon="6.4051">
        <ele>1097</ele>
        <time>2015-06-28T10:07:08Z</time>
      </trkpt>
      <trkpt lat="46.83914" lon="6.40435">
        <ele>1095.08</ele>
        <time>2015-06-28T10:07:17Z</time>
      </trkpt>
      <trkpt lat="46.83916" lon="6.40425">
        <ele>1094.6</ele>
        <time>2015-06-28T10:07:18Z</time>
      </trkpt>
      <trkpt lat="46.8393" lon="6.40275">
        <ele>1093.16</ele>
        <time>2015-06-28T10:07:33Z</time>
      </trkpt>
      <trkpt lat="46.83937" lon="6.40245">
        <ele>1092.68</ele>
        <time>2015-06-28T10:07:36Z</time>
      </trkpt>
      <trkpt lat="46.83969" lon="6.40126">
        <ele>1090.75</ele>
        <time>2015-06-28T10:07:48Z</time>
      </trkpt>
      <trkpt lat="46.8397" lon="6.40116">
        <ele>1090.27</ele>
        <time>2015-06-28T10:07:49Z</time>
      </trkpt>
      <trkpt lat="46.83968" lon="6.40107">
        <ele>1089.79</ele>
        <time>2015-06-28T10:07:50Z</time>
      </trkpt>
      <trkpt lat="46.83964" lon="6.40102">
        <ele>1089.79</ele>
        <time>2015-06-28T10:07:51Z</time>
      </trkpt>
      <trkpt lat="46.83958" lon="6.40098">
        <ele>1089.31</ele>
        <time>2015-06-28T10:07:52Z</time>
      </trkpt>
      <trkpt lat="46.83951" lon="6.40098">
        <ele>1089.31</ele>
        <time>2015-06-28T10:07:53Z</time>
      </trkpt>
      <trkpt lat="46.83944" lon="6.40099">
        <ele>1088.83</ele>
        <time>2015-06-28T10:07:54Z</time>
      </trkpt>
      <trkpt lat="46.83938" lon="6.401">
        <ele>1089.31</ele>
        <time>2015-06-28T10:07:55Z</time>
      </trkpt>
      <trkpt lat="46.83842" lon="6.40117">
        <ele>1088.35</ele>
        <time>2015-06-28T10:08:11Z</time>
      </trkpt>
      <trkpt lat="46.83739" lon="6.40132">
        <ele>1087.39</ele>
        <time>2015-06-28T10:08:29Z</time>
      </trkpt>
      <trkpt lat="46.8365" lon="6.40146">
        <ele>1087.87</ele>
        <time>2015-06-28T10:08:47Z</time>
      </trkpt>
      <trkpt lat="46.83641" lon="6.40144">
        <ele>1087.87</ele>
        <time>2015-06-28T10:08:49Z</time>
      </trkpt>
      <trkpt lat="46.83637" lon="6.4014">
        <ele>1088.35</ele>
        <time>2015-06-28T10:08:50Z</time>
      </trkpt>
      <trkpt lat="46.83636" lon="6.40133">
        <ele>1087.87</ele>
        <time>2015-06-28T10:08:51Z</time>
      </trkpt>
      <trkpt lat="46.83636" lon="6.40126">
        <ele>1087.87</ele>
        <time>2015-06-28T10:08:52Z</time>
      </trkpt>
      <trkpt lat="46.83637" lon="6.40119">
        <ele>1087.39</ele>
        <time>2015-06-28T10:08:53Z</time>
      </trkpt>
      <trkpt lat="46.83642" lon="6.40092">
        <ele>1086.91</ele>
        <time>2015-06-28T10:08:57Z</time>
      </trkpt>
      <trkpt lat="46.83644" lon="6.40086">
        <ele>1087.39</ele>
        <time>2015-06-28T10:08:58Z</time>
      </trkpt>
      <trkpt lat="46.83646" lon="6.40079">
        <ele>1086.91</ele>
        <time>2015-06-28T10:08:59Z</time>
      </trkpt>
      <trkpt lat="46.83648" lon="6.40072">
        <ele>1087.39</ele>
        <time>2015-06-28T10:09:00Z</time>
      </trkpt>
      <trkpt lat="46.8365" lon="6.40066">
        <ele>1086.91</ele>
        <time>2015-06-28T10:09:01Z</time>
      </trkpt>
      <trkpt lat="46.8365" lon="6.40059">
        <ele>1086.91</ele>
        <time>2015-06-28T10:09:02Z</time>
      </trkpt>
      <trkpt lat="46.83649" lon="6.40053">
        <ele>1086.91</ele>
        <time>2015-06-28T10:09:03Z</time>
      </trkpt>
      <trkpt lat="46.83646" lon="6.40049">
        <ele>1087.39</ele>
        <time>2015-06-28T10:09:04Z</time>
      </trkpt>
      <trkpt lat="46.83642" lon="6.40048">
        <ele>1087.39</ele>
        <time>2015-06-28T10:09:05Z</time>
      </trkpt>
      <trkpt lat="46.83638" lon="6.40047">
        <ele>1087.39</ele>
        <time>2015-06-28T10:09:06Z</time>
      </trkpt>
      <trkpt lat="46.83634" lon="6.40047">
        <ele>1087.39</ele>
        <time>2015-06-28T10:09:07Z</time>
      </trkpt>
      <trkpt lat="46.8363" lon="6.40048">
        <ele>1087.39</ele>
        <time>2015-06-28T10:09:08Z</time>
      </trkpt>
      <trkpt lat="46.83577" lon="6.40063">
        <ele>1087.87</ele>
        <time>2015-06-28T10:09:23Z</time>
      </trkpt>
      <trkpt lat="46.83549" lon="6.40049">
        <ele>1087.87</ele>
        <time>2015-06-28T10:09:32Z</time>
      </trkpt>
      <trkpt lat="46.83537" lon="6.40041">
        <ele>1087.87</ele>
        <time>2015-06-28T10:09:42Z</time>
      </trkpt>
      <trkpt lat="46.83536" lon="6.40039">
        <ele>1087.87</ele>
        <time>2015-06-28T10:10:03Z</time>
      </trkpt>
      <trkpt lat="46.83534" lon="6.40039">
        <ele>1088.35</ele>
        <time>2015-06-28T10:10:24Z</time>
      </trkpt>
      <trkpt lat="46.83533" lon="6.40038">
        <ele>1087.87</ele>
        <time>2015-06-28T10:10:25Z</time>
      </trkpt>
      <trkpt lat="46.83531" lon="6.40037">
        <ele>1087.87</ele>
        <time>2015-06-28T10:10:26Z</time>
      </trkpt>
      <trkpt lat="46.83529" lon="6.40036">
        <ele>1087.87</ele>
        <time>2015-06-28T10:10:27Z</time>
      </trkpt>
      <trkpt lat="46.83527" lon="6.40035">
        <ele>1087.87</ele>
        <time>2015-06-28T10:10:28Z</time>
      </trkpt>
      <trkpt lat="46.83525" lon="6.40033">
        <ele>1087.87</ele>
        <time>2015-06-28T10:10:29Z</time>
      </trkpt>
      <trkpt lat="46.83523" lon="6.40032">
        <ele>1088.83</ele>
        <time>2015-06-28T10:10:30Z</time>
      </trkpt>
      <trkpt lat="46.83516" lon="6.4003">
        <ele>1088.83</ele>
        <time>2015-06-28T10:10:37Z</time>
      </trkpt>
      <trkpt lat="46.83516" lon="6.40027">
        <ele>1088.35</ele>
        <time>2015-06-28T10:10:40Z</time>
      </trkpt>
      <trkpt lat="46.83517" lon="6.40027">
        <ele>1088.35</ele>
        <time>2015-06-28T10:10:41Z</time>
      </trkpt>
      <trkpt lat="46.83518" lon="6.40027">
        <ele>1088.35</ele>
        <time>2015-06-28T10:10:42Z</time>
      </trkpt>
      <trkpt lat="46.83523" lon="6.40035">
        <ele>1088.35</ele>
        <time>2015-06-28T10:10:48Z</time>
      </trkpt>
      <trkpt lat="46.83515" lon="6.40065">
        <ele>1087.87</ele>
        <time>2015-06-28T10:10:58Z</time>
      </trkpt>
      <trkpt lat="46.83495" lon="6.40109">
        <ele>1089.31</ele>
        <time>2015-06-28T10:11:13Z</time>
      </trkpt>
      <trkpt lat="46.83472" lon="6.4011">
        <ele>1089.31</ele>
        <time>2015-06-28T10:11:22Z</time>
      </trkpt>
      <trkpt lat="46.83446" lon="6.40088">
        <ele>1089.79</ele>
        <time>2015-06-28T10:11:34Z</time>
      </trkpt>
      <trkpt lat="46.83441" lon="6.40081">
        <ele>1090.27</ele>
        <time>2015-06-28T10:11:38Z</time>
      </trkpt>
      <trkpt lat="46.83437" lon="6.40046">
        <ele>1091.71</ele>
        <time>2015-06-28T10:11:50Z</time>
      </trkpt>
      <trkpt lat="46.83436" lon="6.40044">
        <ele>1091.71</ele>
        <time>2015-06-28T10:11:51Z</time>
      </trkpt>
      <trkpt lat="46.83435" lon="6.40043">
        <ele>1092.2</ele>
        <time>2015-06-28T10:11:52Z</time>
      </trkpt>
      <trkpt lat="46.83434" lon="6.40042">
        <ele>1092.68</ele>
        <time>2015-06-28T10:12:01Z</time>
      </trkpt>
      <trkpt lat="46.83432" lon="6.40039">
        <ele>1092.68</ele>
        <time>2015-06-28T10:12:11Z</time>
      </trkpt>
      <trkpt lat="46.83432" lon="6.40038">
        <ele>1092.68</ele>
        <time>2015-06-28T10:12:12Z</time>
      </trkpt>
      <trkpt lat="46.83434" lon="6.40014">
        <ele>1092.68</ele>
        <time>2015-06-28T10:12:27Z</time>
      </trkpt>
      <trkpt lat="46.83434" lon="6.39997">
        <ele>1093.64</ele>
        <time>2015-06-28T10:12:37Z</time>
      </trkpt>
      <trkpt lat="46.83434" lon="6.39996">
        <ele>1093.64</ele>
        <time>2015-06-28T10:12:38Z</time>
      </trkpt>
      <trkpt lat="46.83432" lon="6.39975">
        <ele>1094.6</ele>
        <time>2015-06-28T10:12:51Z</time>
      </trkpt>
      <trkpt lat="46.83429" lon="6.39969">
        <ele>1094.6</ele>
        <time>2015-06-28T10:12:56Z</time>
      </trkpt>
      <trkpt lat="46.83433" lon="6.39958">
        <ele>1094.12</ele>
        <time>2015-06-28T10:13:07Z</time>
      </trkpt>
      <trkpt lat="46.83441" lon="6.39963">
        <ele>1093.16</ele>
        <time>2015-06-28T10:13:22Z</time>
      </trkpt>
      <trkpt lat="46.83442" lon="6.39962">
        <ele>1093.64</ele>
        <time>2015-06-28T10:13:49Z</time>
      </trkpt>
      <trkpt lat="46.83441" lon="6.39961">
        <ele>1093.16</ele>
        <time>2015-06-28T10:14:13Z</time>
      </trkpt>
      <trkpt lat="46.83441" lon="6.39961">
        <ele>1093.16</ele>
        <time>2015-06-28T10:14:31Z</time>
      </trkpt>
      <trkpt lat="46.83441" lon="6.39961">
        <ele>1094.12</ele>
        <time>2015-06-28T10:14:32Z</time>
      </trkpt>
      <trkpt lat="46.8344" lon="6.39955">
        <ele>1093.64</ele>
        <time>2015-06-28T10:14:34Z</time>
      </trkpt>
      <trkpt lat="46.83439" lon="6.39951">
        <ele>1093.64</ele>
        <time>2015-06-28T10:14:35Z</time>
      </trkpt>
      <trkpt lat="46.83421" lon="6.39882">
        <ele>1095.56</ele>
        <time>2015-06-28T10:14:51Z</time>
      </trkpt>
      <trkpt lat="46.83398" lon="6.39831">
        <ele>1097</ele>
        <time>2015-06-28T10:15:05Z</time>
      </trkpt>
      <trkpt lat="46.83366" lon="6.39807">
        <ele>1096.52</ele>
        <time>2015-06-28T10:15:15Z</time>
      </trkpt>
      <trkpt lat="46.83299" lon="6.39758">
        <ele>1093.16</ele>
        <time>2015-06-28T10:15:30Z</time>
      </trkpt>
      <trkpt lat="46.8324" lon="6.3966">
        <ele>1090.75</ele>
        <time>2015-06-28T10:15:44Z</time>
      </trkpt>
      <trkpt lat="46.83192" lon="6.39568">
        <ele>1092.68</ele>
        <time>2015-06-28T10:15:59Z</time>
      </trkpt>
      <trkpt lat="46.83151" lon="6.39493">
        <ele>1093.16</ele>
        <time>2015-06-28T10:16:12Z</time>
      </trkpt>
      <trkpt lat="46.83148" lon="6.39487">
        <ele>1093.64</ele>
        <time>2015-06-28T10:16:13Z</time>
      </trkpt>
      <trkpt lat="46.8309" lon="6.39378">
        <ele>1092.68</ele>
        <time>2015-06-28T10:16:31Z</time>
      </trkpt>
      <trkpt lat="46.83077" lon="6.39355">
        <ele>1092.2</ele>
        <time>2015-06-28T10:16:35Z</time>
      </trkpt>
      <trkpt lat="46.83016" lon="6.39299">
        <ele>1093.16</ele>
        <time>2015-06-28T10:16:50Z</time>
      </trkpt>
      <trkpt lat="46.82981" lon="6.39268">
        <ele>1092.68</ele>
        <time>2015-06-28T10:16:59Z</time>
      </trkpt>
      <trkpt lat="46.82978" lon="6.39264">
        <ele>1093.16</ele>
        <time>2015-06-28T10:17:00Z</time>
      </trkpt>
      <trkpt lat="46.82976" lon="6.39258">
        <ele>1092.68</ele>
        <time>2015-06-28T10:17:01Z</time>
      </trkpt>
      <trkpt lat="46.82974" lon="6.39252">
        <ele>1093.16</ele>
        <time>2015-06-28T10:17:02Z</time>
      </trkpt>
      <trkpt lat="46.82972" lon="6.39246">
        <ele>1093.16</ele>
        <time>2015-06-28T10:17:03Z</time>
      </trkpt>
      <trkpt lat="46.82971" lon="6.3924">
        <ele>1093.64</ele>
        <time>2015-06-28T10:17:04Z</time>
      </trkpt>
      <trkpt lat="46.82967" lon="6.39146">
        <ele>1095.56</ele>
        <time>2015-06-28T10:17:20Z</time>
      </trkpt>
      <trkpt lat="46.82981" lon="6.39077">
        <ele>1096.52</ele>
        <time>2015-06-28T10:17:33Z</time>
      </trkpt>
      <trkpt lat="46.82996" lon="6.3902">
        <ele>1097</ele>
        <time>2015-06-28T10:17:44Z</time>
      </trkpt>
      <trkpt lat="46.82997" lon="6.39014">
        <ele>1096.52</ele>
        <time>2015-06-28T10:17:45Z</time>
      </trkpt>
      <trkpt lat="46.83003" lon="6.38976">
        <ele>1096.04</ele>
        <time>2015-06-28T10:17:51Z</time>
      </trkpt>
      <trkpt lat="46.83019" lon="6.38913">
        <ele>1097</ele>
        <time>2015-06-28T10:18:03Z</time>
      </trkpt>
      <trkpt lat="46.83044" lon="6.38825">
        <ele>1095.08</ele>
        <time>2015-06-28T10:18:15Z</time>
      </trkpt>
      <trkpt lat="46.83082" lon="6.38731">
        <ele>1092.68</ele>
        <time>2015-06-28T10:18:29Z</time>
      </trkpt>
      <trkpt lat="46.83086" lon="6.38722">
        <ele>1092.68</ele>
        <time>2015-06-28T10:18:30Z</time>
      </trkpt>
      <trkpt lat="46.83103" lon="6.38665">
        <ele>1091.23</ele>
        <time>2015-06-28T10:18:36Z</time>
      </trkpt>
      <trkpt lat="46.83103" lon="6.38655">
        <ele>1091.23</ele>
        <time>2015-06-28T10:18:37Z</time>
      </trkpt>
      <trkpt lat="46.83103" lon="6.38645">
        <ele>1091.23</ele>
        <time>2015-06-28T10:18:38Z</time>
      </trkpt>
      <trkpt lat="46.83099" lon="6.38612">
        <ele>1091.71</ele>
        <time>2015-06-28T10:18:42Z</time>
      </trkpt>
      <trkpt lat="46.83087" lon="6.38554">
        <ele>1091.71</ele>
        <time>2015-06-28T10:18:52Z</time>
      </trkpt>
      <trkpt lat="46.83084" lon="6.38553">
        <ele>1091.71</ele>
        <time>2015-06-28T10:18:53Z</time>
      </trkpt>
      <trkpt lat="46.83081" lon="6.38552">
        <ele>1091.71</ele>
        <time>2015-06-28T10:18:54Z</time>
      </trkpt>
      <trkpt lat="46.83079" lon="6.38552">
        <ele>1091.23</ele>
        <time>2015-06-28T10:18:55Z</time>
      </trkpt>
      <trkpt lat="46.83078" lon="6.38552">
        <ele>1091.23</ele>
        <time>2015-06-28T10:18:56Z</time>
      </trkpt>
      <trkpt lat="46.83059" lon="6.38544">
        <ele>1093.16</ele>
        <time>2015-06-28T10:19:05Z</time>
      </trkpt>
      <trkpt lat="46.83049" lon="6.38536">
        <ele>1093.16</ele>
        <time>2015-06-28T10:19:14Z</time>
      </trkpt>
      <trkpt lat="46.83046" lon="6.38534">
        <ele>1093.16</ele>
        <time>2015-06-28T10:19:16Z</time>
      </trkpt>
      <trkpt lat="46.83031" lon="6.38513">
        <ele>1094.12</ele>
        <time>2015-06-28T10:19:28Z</time>
      </trkpt>
      <trkpt lat="46.83023" lon="6.38503">
        <ele>1095.56</ele>
        <time>2015-06-28T10:19:36Z</time>
      </trkpt>
      <trkpt lat="46.83022" lon="6.38501">
        <ele>1095.56</ele>
        <time>2015-06-28T10:19:37Z</time>
      </trkpt>
      <trkpt lat="46.83022" lon="6.38499">
        <ele>1095.08</ele>
        <time>2015-06-28T10:19:38Z</time>
      </trkpt>
      <trkpt lat="46.83022" lon="6.38498">
        <ele>1095.56</ele>
        <time>2015-06-28T10:19:39Z</time>
      </trkpt>
      <trkpt lat="46.83021" lon="6.38496">
        <ele>1096.04</ele>
        <time>2015-06-28T10:19:40Z</time>
      </trkpt>
      <trkpt lat="46.83021" lon="6.38487">
        <ele>1096.04</ele>
        <time>2015-06-28T10:19:45Z</time>
      </trkpt>
      <trkpt lat="46.8301" lon="6.3847">
        <ele>1097</ele>
        <time>2015-06-28T10:19:54Z</time>
      </trkpt>
      <trkpt lat="46.83009" lon="6.3847">
        <ele>1097.48</ele>
        <time>2015-06-28T10:19:55Z</time>
      </trkpt>
      <trkpt lat="46.83007" lon="6.38467">
        <ele>1097</ele>
        <time>2015-06-28T10:19:56Z</time>
      </trkpt>
      <trkpt lat="46.83002" lon="6.38458">
        <ele>1097</ele>
        <time>2015-06-28T10:20:00Z</time>
      </trkpt>
      <trkpt lat="46.82992" lon="6.38443">
        <ele>1098.44</ele>
        <time>2015-06-28T10:20:09Z</time>
      </trkpt>
      <trkpt lat="46.82973" lon="6.38421">
        <ele>1098.44</ele>
        <time>2015-06-28T10:20:13Z</time>
      </trkpt>
      <trkpt lat="46.82965" lon="6.38413">
        <ele>1098.92</ele>
        <time>2015-06-28T10:20:15Z</time>
      </trkpt>
      <trkpt lat="46.82956" lon="6.38408">
        <ele>1099.4</ele>
        <time>2015-06-28T10:20:19Z</time>
      </trkpt>
      <trkpt lat="46.82936" lon="6.38388">
        <ele>1099.89</ele>
        <time>2015-06-28T10:20:28Z</time>
      </trkpt>
      <trkpt lat="46.82917" lon="6.38376">
        <ele>1100.85</ele>
        <time>2015-06-28T10:20:38Z</time>
      </trkpt>
      <trkpt lat="46.82916" lon="6.38375">
        <ele>1100.85</ele>
        <time>2015-06-28T10:20:39Z</time>
      </trkpt>
      <trkpt lat="46.82912" lon="6.38372">
        <ele>1100.85</ele>
        <time>2015-06-28T10:20:42Z</time>
      </trkpt>
      <trkpt lat="46.82898" lon="6.38358">
        <ele>1101.33</ele>
        <time>2015-06-28T10:20:49Z</time>
      </trkpt>
      <trkpt lat="46.82895" lon="6.38354">
        <ele>1101.81</ele>
        <time>2015-06-28T10:20:51Z</time>
      </trkpt>
      <trkpt lat="46.8289" lon="6.38349">
        <ele>1102.29</ele>
        <time>2015-06-28T10:20:55Z</time>
      </trkpt>
      <trkpt lat="46.82867" lon="6.38329">
        <ele>1103.25</ele>
        <time>2015-06-28T10:21:05Z</time>
      </trkpt>
      <trkpt lat="46.82856" lon="6.38313">
        <ele>1103.73</ele>
        <time>2015-06-28T10:21:12Z</time>
      </trkpt>
      <trkpt lat="46.82846" lon="6.38306">
        <ele>1103.25</ele>
        <time>2015-06-28T10:21:17Z</time>
      </trkpt>
      <trkpt lat="46.82818" lon="6.38284">
        <ele>1102.77</ele>
        <time>2015-06-28T10:21:28Z</time>
      </trkpt>
      <trkpt lat="46.82785" lon="6.38257">
        <ele>1100.85</ele>
        <time>2015-06-28T10:21:37Z</time>
      </trkpt>
      <trkpt lat="46.82776" lon="6.3825">
        <ele>1100.85</ele>
        <time>2015-06-28T10:21:39Z</time>
      </trkpt>
      <trkpt lat="46.82772" lon="6.38246">
        <ele>1100.85</ele>
        <time>2015-06-28T10:21:40Z</time>
      </trkpt>
      <trkpt lat="46.82768" lon="6.38243">
        <ele>1100.37</ele>
        <time>2015-06-28T10:21:41Z</time>
      </trkpt>
      <trkpt lat="46.82764" lon="6.38239">
        <ele>1100.37</ele>
        <time>2015-06-28T10:21:42Z</time>
      </trkpt>
      <trkpt lat="46.82761" lon="6.38236">
        <ele>1099.89</ele>
        <time>2015-06-28T10:21:43Z</time>
      </trkpt>
      <trkpt lat="46.82747" lon="6.38214">
        <ele>1099.89</ele>
        <time>2015-06-28T10:21:50Z</time>
      </trkpt>
      <trkpt lat="46.82749" lon="6.38211">
        <ele>1099.4</ele>
        <time>2015-06-28T10:21:51Z</time>
      </trkpt>
      <trkpt lat="46.8275" lon="6.38208">
        <ele>1099.4</ele>
        <time>2015-06-28T10:21:52Z</time>
      </trkpt>
      <trkpt lat="46.8275" lon="6.38205">
        <ele>1099.4</ele>
        <time>2015-06-28T10:21:53Z</time>
      </trkpt>
      <trkpt lat="46.82752" lon="6.38201">
        <ele>1099.4</ele>
        <time>2015-06-28T10:21:54Z</time>
      </trkpt>
      <trkpt lat="46.82754" lon="6.38189">
        <ele>1099.89</ele>
        <time>2015-06-28T10:21:59Z</time>
      </trkpt>
      <trkpt lat="46.82755" lon="6.38187">
        <ele>1099.4</ele>
        <time>2015-06-28T10:22:00Z</time>
      </trkpt>
      <trkpt lat="46.82755" lon="6.38183">
        <ele>1098.92</ele>
        <time>2015-06-28T10:22:01Z</time>
      </trkpt>
      <trkpt lat="46.82749" lon="6.38123">
        <ele>1097.48</ele>
        <time>2015-06-28T10:22:12Z</time>
      </trkpt>
      <trkpt lat="46.82748" lon="6.38091">
        <ele>1095.56</ele>
        <time>2015-06-28T10:22:17Z</time>
      </trkpt>
      <trkpt lat="46.82749" lon="6.38082">
        <ele>1095.56</ele>
        <time>2015-06-28T10:22:18Z</time>
      </trkpt>
      <trkpt lat="46.8275" lon="6.38074">
        <ele>1095.56</ele>
        <time>2015-06-28T10:22:19Z</time>
      </trkpt>
      <trkpt lat="46.82751" lon="6.38067">
        <ele>1094.6</ele>
        <time>2015-06-28T10:22:20Z</time>
      </trkpt>
      <trkpt lat="46.82752" lon="6.38061">
        <ele>1094.6</ele>
        <time>2015-06-28T10:22:21Z</time>
      </trkpt>
      <trkpt lat="46.82753" lon="6.38055">
        <ele>1094.6</ele>
        <time>2015-06-28T10:22:22Z</time>
      </trkpt>
      <trkpt lat="46.82756" lon="6.38049">
        <ele>1094.12</ele>
        <time>2015-06-28T10:22:23Z</time>
      </trkpt>
      <trkpt lat="46.82759" lon="6.38043">
        <ele>1094.12</ele>
        <time>2015-06-28T10:22:24Z</time>
      </trkpt>
      <trkpt lat="46.82765" lon="6.38033">
        <ele>1092.68</ele>
        <time>2015-06-28T10:22:27Z</time>
      </trkpt>
      <trkpt lat="46.82773" lon="6.38022">
        <ele>1091.71</ele>
        <time>2015-06-28T10:22:32Z</time>
      </trkpt>
      <trkpt lat="46.82774" lon="6.38018">
        <ele>1091.23</ele>
        <time>2015-06-28T10:22:33Z</time>
      </trkpt>
      <trkpt lat="46.82772" lon="6.38012">
        <ele>1090.75</ele>
        <time>2015-06-28T10:22:34Z</time>
      </trkpt>
      <trkpt lat="46.82772" lon="6.38006">
        <ele>1090.27</ele>
        <time>2015-06-28T10:22:35Z</time>
      </trkpt>
      <trkpt lat="46.82771" lon="6.38002">
        <ele>1090.27</ele>
        <time>2015-06-28T10:22:36Z</time>
      </trkpt>
      <trkpt lat="46.82772" lon="6.37998">
        <ele>1089.79</ele>
        <time>2015-06-28T10:22:37Z</time>
      </trkpt>
      <trkpt lat="46.82772" lon="6.3799">
        <ele>1089.31</ele>
        <time>2015-06-28T10:22:42Z</time>
      </trkpt>
      <trkpt lat="46.82773" lon="6.37986">
        <ele>1088.83</ele>
        <time>2015-06-28T10:22:43Z</time>
      </trkpt>
      <trkpt lat="46.82773" lon="6.37982">
        <ele>1088.35</ele>
        <time>2015-06-28T10:22:44Z</time>
      </trkpt>
      <trkpt lat="46.82775" lon="6.37979">
        <ele>1088.35</ele>
        <time>2015-06-28T10:22:45Z</time>
      </trkpt>
      <trkpt lat="46.82777" lon="6.37976">
        <ele>1088.35</ele>
        <time>2015-06-28T10:22:46Z</time>
      </trkpt>
      <trkpt lat="46.82779" lon="6.37973">
        <ele>1087.39</ele>
        <time>2015-06-28T10:22:47Z</time>
      </trkpt>
      <trkpt lat="46.82781" lon="6.37967">
        <ele>1086.91</ele>
        <time>2015-06-28T10:22:50Z</time>
      </trkpt>
      <trkpt lat="46.82781" lon="6.37962">
        <ele>1086.43</ele>
        <time>2015-06-28T10:22:51Z</time>
      </trkpt>
      <trkpt lat="46.82781" lon="6.37958">
        <ele>1086.43</ele>
        <time>2015-06-28T10:22:52Z</time>
      </trkpt>
      <trkpt lat="46.82782" lon="6.37945">
        <ele>1085.95</ele>
        <time>2015-06-28T10:22:55Z</time>
      </trkpt>
      <trkpt lat="46.82784" lon="6.37942">
        <ele>1085.95</ele>
        <time>2015-06-28T10:22:56Z</time>
      </trkpt>
      <trkpt lat="46.82787" lon="6.37939">
        <ele>1085.47</ele>
        <time>2015-06-28T10:22:57Z</time>
      </trkpt>
      <trkpt lat="46.82788" lon="6.37935">
        <ele>1085.47</ele>
        <time>2015-06-28T10:22:58Z</time>
      </trkpt>
      <trkpt lat="46.8279" lon="6.37932">
        <ele>1084.99</ele>
        <time>2015-06-28T10:22:59Z</time>
      </trkpt>
      <trkpt lat="46.82802" lon="6.37901">
        <ele>1082.58</ele>
        <time>2015-06-28T10:23:08Z</time>
      </trkpt>
      <trkpt lat="46.82801" lon="6.37898">
        <ele>1083.06</ele>
        <time>2015-06-28T10:23:09Z</time>
      </trkpt>
      <trkpt lat="46.82798" lon="6.37893">
        <ele>1082.58</ele>
        <time>2015-06-28T10:23:11Z</time>
      </trkpt>
      <trkpt lat="46.82795" lon="6.37886">
        <ele>1083.06</ele>
        <time>2015-06-28T10:23:21Z</time>
      </trkpt>
      <trkpt lat="46.82792" lon="6.37884">
        <ele>1082.58</ele>
        <time>2015-06-28T10:23:32Z</time>
      </trkpt>
      <trkpt lat="46.8279" lon="6.3788">
        <ele>1082.58</ele>
        <time>2015-06-28T10:23:36Z</time>
      </trkpt>
      <trkpt lat="46.82778" lon="6.37858">
        <ele>1083.54</ele>
        <time>2015-06-28T10:23:44Z</time>
      </trkpt>
      <trkpt lat="46.82769" lon="6.37848">
        <ele>1083.06</ele>
        <time>2015-06-28T10:23:50Z</time>
      </trkpt>
      <trkpt lat="46.82769" lon="6.37842">
        <ele>1082.1</ele>
        <time>2015-06-28T10:23:53Z</time>
      </trkpt>
      <trkpt lat="46.82768" lon="6.37837">
        <ele>1081.14</ele>
        <time>2015-06-28T10:23:55Z</time>
      </trkpt>
      <trkpt lat="46.82769" lon="6.37833">
        <ele>1081.14</ele>
        <time>2015-06-28T10:23:56Z</time>
      </trkpt>
      <trkpt lat="46.82768" lon="6.37829">
        <ele>1081.14</ele>
        <time>2015-06-28T10:23:57Z</time>
      </trkpt>
      <trkpt lat="46.82768" lon="6.37826">
        <ele>1080.66</ele>
        <time>2015-06-28T10:23:58Z</time>
      </trkpt>
      <trkpt lat="46.82767" lon="6.37823">
        <ele>1081.14</ele>
        <time>2015-06-28T10:23:59Z</time>
      </trkpt>
      <trkpt lat="46.82767" lon="6.37821">
        <ele>1081.62</ele>
        <time>2015-06-28T10:24:00Z</time>
      </trkpt>
      <trkpt lat="46.82765" lon="6.37818">
        <ele>1080.66</ele>
        <time>2015-06-28T10:24:01Z</time>
      </trkpt>
      <trkpt lat="46.82764" lon="6.37817">
        <ele>1081.14</ele>
        <time>2015-06-28T10:24:02Z</time>
      </trkpt>
      <trkpt lat="46.82765" lon="6.37807">
        <ele>1081.62</ele>
        <time>2015-06-28T10:24:09Z</time>
      </trkpt>
      <trkpt lat="46.82764" lon="6.37805">
        <ele>1080.66</ele>
        <time>2015-06-28T10:24:10Z</time>
      </trkpt>
      <trkpt lat="46.82764" lon="6.37803">
        <ele>1081.14</ele>
        <time>2015-06-28T10:24:11Z</time>
      </trkpt>
      <trkpt lat="46.82762" lon="6.37801">
        <ele>1081.14</ele>
        <time>2015-06-28T10:24:12Z</time>
      </trkpt>
      <trkpt lat="46.82761" lon="6.378">
        <ele>1080.66</ele>
        <time>2015-06-28T10:24:13Z</time>
      </trkpt>
      <trkpt lat="46.82749" lon="6.37792">
        <ele>1081.14</ele>
        <time>2015-06-28T10:24:22Z</time>
      </trkpt>
      <trkpt lat="46.82739" lon="6.37781">
        <ele>1081.14</ele>
        <time>2015-06-28T10:24:32Z</time>
      </trkpt>
      <trkpt lat="46.82737" lon="6.37779">
        <ele>1081.14</ele>
        <time>2015-06-28T10:24:33Z</time>
      </trkpt>
      <trkpt lat="46.82736" lon="6.37777">
        <ele>1081.14</ele>
        <time>2015-06-28T10:24:34Z</time>
      </trkpt>
      <trkpt lat="46.82735" lon="6.37775">
        <ele>1081.14</ele>
        <time>2015-06-28T10:24:35Z</time>
      </trkpt>
      <trkpt lat="46.82734" lon="6.37774">
        <ele>1081.14</ele>
        <time>2015-06-28T10:24:36Z</time>
      </trkpt>
      <trkpt lat="46.82732" lon="6.37774">
        <ele>1080.66</ele>
        <time>2015-06-28T10:24:37Z</time>
      </trkpt>
      <trkpt lat="46.8273" lon="6.37772">
        <ele>1081.14</ele>
        <time>2015-06-28T10:24:38Z</time>
      </trkpt>
      <trkpt lat="46.82728" lon="6.3777">
        <ele>1081.14</ele>
        <time>2015-06-28T10:24:39Z</time>
      </trkpt>
      <trkpt lat="46.82727" lon="6.37768">
        <ele>1081.14</ele>
        <time>2015-06-28T10:24:40Z</time>
      </trkpt>
      <trkpt lat="46.82725" lon="6.37765">
        <ele>1080.66</ele>
        <time>2015-06-28T10:24:41Z</time>
      </trkpt>
      <trkpt lat="46.82723" lon="6.37763">
        <ele>1081.14</ele>
        <time>2015-06-28T10:24:42Z</time>
      </trkpt>
      <trkpt lat="46.82721" lon="6.37761">
        <ele>1080.66</ele>
        <time>2015-06-28T10:24:43Z</time>
      </trkpt>
      <trkpt lat="46.82719" lon="6.37759">
        <ele>1081.14</ele>
        <time>2015-06-28T10:24:44Z</time>
      </trkpt>
      <trkpt lat="46.8271" lon="6.37751">
        <ele>1080.66</ele>
        <time>2015-06-28T10:24:51Z</time>
      </trkpt>
      <trkpt lat="46.82708" lon="6.37748">
        <ele>1081.14</ele>
        <time>2015-06-28T10:24:52Z</time>
      </trkpt>
      <trkpt lat="46.82708" lon="6.37746">
        <ele>1080.66</ele>
        <time>2015-06-28T10:24:53Z</time>
      </trkpt>
      <trkpt lat="46.82706" lon="6.37744">
        <ele>1081.14</ele>
        <time>2015-06-28T10:24:54Z</time>
      </trkpt>
      <trkpt lat="46.82705" lon="6.37743">
        <ele>1081.14</ele>
        <time>2015-06-28T10:24:55Z</time>
      </trkpt>
      <trkpt lat="46.82697" lon="6.37733">
        <ele>1081.14</ele>
        <time>2015-06-28T10:25:03Z</time>
      </trkpt>
      <trkpt lat="46.82698" lon="6.37734">
        <ele>1080.66</ele>
        <time>2015-06-28T10:25:17Z</time>
      </trkpt>
      <trkpt lat="46.82697" lon="6.37735">
        <ele>1080.66</ele>
        <time>2015-06-28T10:25:45Z</time>
      </trkpt>
      <trkpt lat="46.82696" lon="6.37734">
        <ele>1080.66</ele>
        <time>2015-06-28T10:26:03Z</time>
      </trkpt>
      <trkpt lat="46.82695" lon="6.37731">
        <ele>1081.14</ele>
        <time>2015-06-28T10:26:23Z</time>
      </trkpt>
      <trkpt lat="46.82689" lon="6.37724">
        <ele>1081.14</ele>
        <time>2015-06-28T10:26:27Z</time>
      </trkpt>
      <trkpt lat="46.82688" lon="6.37721">
        <ele>1081.14</ele>
        <time>2015-06-28T10:26:28Z</time>
      </trkpt>
      <trkpt lat="46.82686" lon="6.37717">
        <ele>1080.66</ele>
        <time>2015-06-28T10:26:29Z</time>
      </trkpt>
      <trkpt lat="46.82686" lon="6.37714">
        <ele>1081.62</ele>
        <time>2015-06-28T10:26:30Z</time>
      </trkpt>
      <trkpt lat="46.82685" lon="6.37711">
        <ele>1081.62</ele>
        <time>2015-06-28T10:26:31Z</time>
      </trkpt>
      <trkpt lat="46.82683" lon="6.37707">
        <ele>1081.62</ele>
        <time>2015-06-28T10:26:32Z</time>
      </trkpt>
      <trkpt lat="46.82669" lon="6.3768">
        <ele>1080.66</ele>
        <time>2015-06-28T10:26:41Z</time>
      </trkpt>
      <trkpt lat="46.82664" lon="6.37678">
        <ele>1080.66</ele>
        <time>2015-06-28T10:26:46Z</time>
      </trkpt>
      <trkpt lat="46.8265" lon="6.3768">
        <ele>1081.62</ele>
        <time>2015-06-28T10:26:58Z</time>
      </trkpt>
      <trkpt lat="46.82646" lon="6.37681">
        <ele>1081.62</ele>
        <time>2015-06-28T10:27:03Z</time>
      </trkpt>
      <trkpt lat="46.82635" lon="6.37675">
        <ele>1083.06</ele>
        <time>2015-06-28T10:27:14Z</time>
      </trkpt>
      <trkpt lat="46.82623" lon="6.37662">
        <ele>1081.62</ele>
        <time>2015-06-28T10:27:22Z</time>
      </trkpt>
      <trkpt lat="46.82606" lon="6.37654">
        <ele>1082.1</ele>
        <time>2015-06-28T10:27:32Z</time>
      </trkpt>
      <trkpt lat="46.82603" lon="6.37652">
        <ele>1082.1</ele>
        <time>2015-06-28T10:27:33Z</time>
      </trkpt>
      <trkpt lat="46.82593" lon="6.37648">
        <ele>1082.58</ele>
        <time>2015-06-28T10:27:37Z</time>
      </trkpt>
      <trkpt lat="46.82582" lon="6.3764">
        <ele>1083.06</ele>
        <time>2015-06-28T10:27:48Z</time>
      </trkpt>
      <trkpt lat="46.82577" lon="6.37635">
        <ele>1082.1</ele>
        <time>2015-06-28T10:27:57Z</time>
      </trkpt>
      <trkpt lat="46.82563" lon="6.37622">
        <ele>1082.1</ele>
        <time>2015-06-28T10:28:06Z</time>
      </trkpt>
      <trkpt lat="46.82556" lon="6.37605">
        <ele>1080.66</ele>
        <time>2015-06-28T10:28:16Z</time>
      </trkpt>
      <trkpt lat="46.82543" lon="6.37581">
        <ele>1078.74</ele>
        <time>2015-06-28T10:28:23Z</time>
      </trkpt>
      <trkpt lat="46.82534" lon="6.37568">
        <ele>1078.26</ele>
        <time>2015-06-28T10:28:29Z</time>
      </trkpt>
      <trkpt lat="46.82528" lon="6.37539">
        <ele>1074.41</ele>
        <time>2015-06-28T10:28:40Z</time>
      </trkpt>
      <trkpt lat="46.82526" lon="6.37535">
        <ele>1073.45</ele>
        <time>2015-06-28T10:28:43Z</time>
      </trkpt>
      <trkpt lat="46.82524" lon="6.37532">
        <ele>1072.01</ele>
        <time>2015-06-28T10:28:45Z</time>
      </trkpt>
      <trkpt lat="46.82509" lon="6.37493">
        <ele>1071.05</ele>
        <time>2015-06-28T10:28:52Z</time>
      </trkpt>
      <trkpt lat="46.82506" lon="6.37474">
        <ele>1069.6</ele>
        <time>2015-06-28T10:28:56Z</time>
      </trkpt>
      <trkpt lat="46.82501" lon="6.37456">
        <ele>1068.16</ele>
        <time>2015-06-28T10:29:00Z</time>
      </trkpt>
      <trkpt lat="46.8249" lon="6.37433">
        <ele>1064.8</ele>
        <time>2015-06-28T10:29:11Z</time>
      </trkpt>
      <trkpt lat="46.82485" lon="6.37424">
        <ele>1063.36</ele>
        <time>2015-06-28T10:29:16Z</time>
      </trkpt>
      <trkpt lat="46.82466" lon="6.37399">
        <ele>1060.47</ele>
        <time>2015-06-28T10:29:25Z</time>
      </trkpt>
      <trkpt lat="46.82447" lon="6.37368">
        <ele>1059.03</ele>
        <time>2015-06-28T10:29:34Z</time>
      </trkpt>
      <trkpt lat="46.82445" lon="6.37369">
        <ele>1058.55</ele>
        <time>2015-06-28T10:29:45Z</time>
      </trkpt>
      <trkpt lat="46.82447" lon="6.3737">
        <ele>1058.55</ele>
        <time>2015-06-28T10:30:01Z</time>
      </trkpt>
      <trkpt lat="46.82447" lon="6.37373">
        <ele>1057.59</ele>
        <time>2015-06-28T10:30:22Z</time>
      </trkpt>
      <trkpt lat="46.82445" lon="6.37369">
        <ele>1057.59</ele>
        <time>2015-06-28T10:30:47Z</time>
      </trkpt>
      <trkpt lat="46.82444" lon="6.3737">
        <ele>1058.07</ele>
        <time>2015-06-28T10:31:11Z</time>
      </trkpt>
      <trkpt lat="46.82446" lon="6.37372">
        <ele>1058.55</ele>
        <time>2015-06-28T10:31:37Z</time>
      </trkpt>
      <trkpt lat="46.82446" lon="6.3737">
        <ele>1058.55</ele>
        <time>2015-06-28T10:32:03Z</time>
      </trkpt>
      <trkpt lat="46.82447" lon="6.37369">
        <ele>1058.07</ele>
        <time>2015-06-28T10:32:33Z</time>
      </trkpt>
      <trkpt lat="46.82446" lon="6.37367">
        <ele>1059.03</ele>
        <time>2015-06-28T10:33:00Z</time>
      </trkpt>
      <trkpt lat="46.82447" lon="6.37365">
        <ele>1059.51</ele>
        <time>2015-06-28T10:33:17Z</time>
      </trkpt>
      <trkpt lat="46.82445" lon="6.37365">
        <ele>1056.15</ele>
        <time>2015-06-28T10:33:30Z</time>
      </trkpt>
      <trkpt lat="46.82445" lon="6.37365">
        <ele>1067.2</ele>
        <time>2015-06-28T10:33:31Z</time>
      </trkpt>
      <trkpt lat="46.82445" lon="6.37365">
        <ele>1059.51</ele>
        <time>2015-06-28T10:33:32Z</time>
      </trkpt>
      <trkpt lat="46.82445" lon="6.37365">
        <ele>1053.26</ele>
        <time>2015-06-28T10:33:33Z</time>
      </trkpt>
      <trkpt lat="46.82445" lon="6.37365">
        <ele>1063.84</ele>
        <time>2015-06-28T10:33:34Z</time>
      </trkpt>
      <trkpt lat="46.82445" lon="6.37365">
        <ele>1059.51</ele>
        <time>2015-06-28T10:33:35Z</time>
      </trkpt>
      <trkpt lat="46.82445" lon="6.37362">
        <ele>1059.03</ele>
        <time>2015-06-28T10:33:59Z</time>
      </trkpt>
      <trkpt lat="46.82444" lon="6.37362">
        <ele>1059.51</ele>
        <time>2015-06-28T10:34:27Z</time>
      </trkpt>
      <trkpt lat="46.82443" lon="6.37364">
        <ele>1059.51</ele>
        <time>2015-06-28T10:34:45Z</time>
      </trkpt>
      <trkpt lat="46.82443" lon="6.37364">
        <ele>1059.03</ele>
        <time>2015-06-28T10:34:57Z</time>
      </trkpt>
      <trkpt lat="46.82446" lon="6.37363">
        <ele>1058.55</ele>
        <time>2015-06-28T10:35:21Z</time>
      </trkpt>
      <trkpt lat="46.82446" lon="6.37363">
        <ele>1059.99</ele>
        <time>2015-06-28T10:35:44Z</time>
      </trkpt>
      <trkpt lat="46.82442" lon="6.37365">
        <ele>1059.99</ele>
        <time>2015-06-28T10:36:02Z</time>
      </trkpt>
      <trkpt lat="46.82442" lon="6.37365">
        <ele>1059.99</ele>
        <time>2015-06-28T10:36:03Z</time>
      </trkpt>
      <trkpt lat="46.82426" lon="6.37372">
        <ele>1059.51</ele>
        <time>2015-06-28T10:36:15Z</time>
      </trkpt>
      <trkpt lat="46.82418" lon="6.37376">
        <ele>1059.51</ele>
        <time>2015-06-28T10:36:22Z</time>
      </trkpt>
      <trkpt lat="46.82395" lon="6.37385">
        <ele>1059.99</ele>
        <time>2015-06-28T10:36:34Z</time>
      </trkpt>
      <trkpt lat="46.82389" lon="6.37388">
        <ele>1059.99</ele>
        <time>2015-06-28T10:36:37Z</time>
      </trkpt>
      <trkpt lat="46.82386" lon="6.37388">
        <ele>1060.47</ele>
        <time>2015-06-28T10:36:40Z</time>
      </trkpt>
      <trkpt lat="46.82382" lon="6.37392">
        <ele>1060.95</ele>
        <time>2015-06-28T10:36:45Z</time>
      </trkpt>
      <trkpt lat="46.82378" lon="6.37396">
        <ele>1060.95</ele>
        <time>2015-06-28T10:36:48Z</time>
      </trkpt>
      <trkpt lat="46.82364" lon="6.37405">
        <ele>1062.39</ele>
        <time>2015-06-28T10:36:57Z</time>
      </trkpt>
      <trkpt lat="46.82345" lon="6.37415">
        <ele>1063.36</ele>
        <time>2015-06-28T10:37:08Z</time>
      </trkpt>
      <trkpt lat="46.82342" lon="6.37416">
        <ele>1063.84</ele>
        <time>2015-06-28T10:37:11Z</time>
      </trkpt>
      <trkpt lat="46.82336" lon="6.37416">
        <ele>1064.8</ele>
        <time>2015-06-28T10:37:15Z</time>
      </trkpt>
      <trkpt lat="46.82329" lon="6.37416">
        <ele>1064.8</ele>
        <time>2015-06-28T10:37:19Z</time>
      </trkpt>
      <trkpt lat="46.82308" lon="6.37419">
        <ele>1065.28</ele>
        <time>2015-06-28T10:37:28Z</time>
      </trkpt>
      <trkpt lat="46.82299" lon="6.37416">
        <ele>1064.32</ele>
        <time>2015-06-28T10:37:32Z</time>
      </trkpt>
      <trkpt lat="46.82267" lon="6.37423">
        <ele>1064.32</ele>
        <time>2015-06-28T10:37:43Z</time>
      </trkpt>
      <trkpt lat="46.82243" lon="6.37429">
        <ele>1065.76</ele>
        <time>2015-06-28T10:37:52Z</time>
      </trkpt>
      <trkpt lat="46.82239" lon="6.3743">
        <ele>1065.76</ele>
        <time>2015-06-28T10:37:54Z</time>
      </trkpt>
      <trkpt lat="46.82226" lon="6.37435">
        <ele>1065.76</ele>
        <time>2015-06-28T10:38:01Z</time>
      </trkpt>
      <trkpt lat="46.822" lon="6.37432">
        <ele>1064.8</ele>
        <time>2015-06-28T10:38:10Z</time>
      </trkpt>
      <trkpt lat="46.82167" lon="6.37439">
        <ele>1065.28</ele>
        <time>2015-06-28T10:38:22Z</time>
      </trkpt>
      <trkpt lat="46.82166" lon="6.37441">
        <ele>1065.28</ele>
        <time>2015-06-28T10:38:23Z</time>
      </trkpt>
      <trkpt lat="46.82152" lon="6.37449">
        <ele>1067.68</ele>
        <time>2015-06-28T10:38:32Z</time>
      </trkpt>
      <trkpt lat="46.82138" lon="6.37456">
        <ele>1069.12</ele>
        <time>2015-06-28T10:38:42Z</time>
      </trkpt>
      <trkpt lat="46.82117" lon="6.37461">
        <ele>1070.57</ele>
        <time>2015-06-28T10:38:54Z</time>
      </trkpt>
      <trkpt lat="46.8211" lon="6.37469">
        <ele>1071.53</ele>
        <time>2015-06-28T10:39:00Z</time>
      </trkpt>
      <trkpt lat="46.82108" lon="6.37475">
        <ele>1071.53</ele>
        <time>2015-06-28T10:39:03Z</time>
      </trkpt>
      <trkpt lat="46.82096" lon="6.37486">
        <ele>1072.49</ele>
        <time>2015-06-28T10:39:12Z</time>
      </trkpt>
      <trkpt lat="46.8209" lon="6.37503">
        <ele>1073.45</ele>
        <time>2015-06-28T10:39:20Z</time>
      </trkpt>
      <trkpt lat="46.8208" lon="6.37507">
        <ele>1074.89</ele>
        <time>2015-06-28T10:39:26Z</time>
      </trkpt>
      <trkpt lat="46.82068" lon="6.37513">
        <ele>1075.37</ele>
        <time>2015-06-28T10:39:34Z</time>
      </trkpt>
      <trkpt lat="46.8206" lon="6.37528">
        <ele>1075.85</ele>
        <time>2015-06-28T10:39:42Z</time>
      </trkpt>
      <trkpt lat="46.82043" lon="6.37542">
        <ele>1076.81</ele>
        <time>2015-06-28T10:39:54Z</time>
      </trkpt>
      <trkpt lat="46.82041" lon="6.37551">
        <ele>1077.78</ele>
        <time>2015-06-28T10:39:58Z</time>
      </trkpt>
      <trkpt lat="46.82039" lon="6.37568">
        <ele>1078.74</ele>
        <time>2015-06-28T10:40:05Z</time>
      </trkpt>
      <trkpt lat="46.82035" lon="6.37573">
        <ele>1079.7</ele>
        <time>2015-06-28T10:40:09Z</time>
      </trkpt>
      <trkpt lat="46.82029" lon="6.37581">
        <ele>1080.18</ele>
        <time>2015-06-28T10:40:14Z</time>
      </trkpt>
      <trkpt lat="46.82027" lon="6.37597">
        <ele>1081.14</ele>
        <time>2015-06-28T10:40:20Z</time>
      </trkpt>
      <trkpt lat="46.82021" lon="6.37606">
        <ele>1081.62</ele>
        <time>2015-06-28T10:40:26Z</time>
      </trkpt>
      <trkpt lat="46.82017" lon="6.37605">
        <ele>1081.62</ele>
        <time>2015-06-28T10:40:29Z</time>
      </trkpt>
      <trkpt lat="46.82014" lon="6.37616">
        <ele>1081.62</ele>
        <time>2015-06-28T10:40:40Z</time>
      </trkpt>
      <trkpt lat="46.82013" lon="6.3762">
        <ele>1081.62</ele>
        <time>2015-06-28T10:40:45Z</time>
      </trkpt>
      <trkpt lat="46.82013" lon="6.3763">
        <ele>1081.62</ele>
        <time>2015-06-28T10:40:59Z</time>
      </trkpt>
      <trkpt lat="46.82008" lon="6.37659">
        <ele>1083.06</ele>
        <time>2015-06-28T10:41:12Z</time>
      </trkpt>
      <trkpt lat="46.82002" lon="6.37663">
        <ele>1084.02</ele>
        <time>2015-06-28T10:41:16Z</time>
      </trkpt>
      <trkpt lat="46.81996" lon="6.37662">
        <ele>1084.99</ele>
        <time>2015-06-28T10:41:21Z</time>
      </trkpt>
      <trkpt lat="46.81984" lon="6.3765">
        <ele>1086.43</ele>
        <time>2015-06-28T10:41:31Z</time>
      </trkpt>
      <trkpt lat="46.81979" lon="6.37642">
        <ele>1087.39</ele>
        <time>2015-06-28T10:41:36Z</time>
      </trkpt>
      <trkpt lat="46.8198" lon="6.37638">
        <ele>1086.91</ele>
        <time>2015-06-28T10:41:38Z</time>
      </trkpt>
      <trkpt lat="46.81978" lon="6.37603">
        <ele>1087.87</ele>
        <time>2015-06-28T10:41:51Z</time>
      </trkpt>
      <trkpt lat="46.81976" lon="6.37587">
        <ele>1087.87</ele>
        <time>2015-06-28T10:41:56Z</time>
      </trkpt>
      <trkpt lat="46.81977" lon="6.3758">
        <ele>1087.87</ele>
        <time>2015-06-28T10:41:58Z</time>
      </trkpt>
      <trkpt lat="46.81974" lon="6.37558">
        <ele>1087.87</ele>
        <time>2015-06-28T10:42:04Z</time>
      </trkpt>
      <trkpt lat="46.81971" lon="6.37526">
        <ele>1088.83</ele>
        <time>2015-06-28T10:42:14Z</time>
      </trkpt>
      <trkpt lat="46.81967" lon="6.3751">
        <ele>1089.79</ele>
        <time>2015-06-28T10:42:18Z</time>
      </trkpt>
      <trkpt lat="46.81963" lon="6.37495">
        <ele>1089.79</ele>
        <time>2015-06-28T10:42:22Z</time>
      </trkpt>
      <trkpt lat="46.81956" lon="6.3746">
        <ele>1089.31</ele>
        <time>2015-06-28T10:42:30Z</time>
      </trkpt>
      <trkpt lat="46.81953" lon="6.3745">
        <ele>1088.83</ele>
        <time>2015-06-28T10:42:32Z</time>
      </trkpt>
      <trkpt lat="46.81947" lon="6.37426">
        <ele>1088.35</ele>
        <time>2015-06-28T10:42:36Z</time>
      </trkpt>
      <trkpt lat="46.81942" lon="6.37409">
        <ele>1088.35</ele>
        <time>2015-06-28T10:42:39Z</time>
      </trkpt>
      <trkpt lat="46.8194" lon="6.37403">
        <ele>1088.35</ele>
        <time>2015-06-28T10:42:40Z</time>
      </trkpt>
      <trkpt lat="46.81938" lon="6.37398">
        <ele>1087.87</ele>
        <time>2015-06-28T10:42:41Z</time>
      </trkpt>
      <trkpt lat="46.81936" lon="6.37395">
        <ele>1087.87</ele>
        <time>2015-06-28T10:42:42Z</time>
      </trkpt>
      <trkpt lat="46.81933" lon="6.37392">
        <ele>1087.87</ele>
        <time>2015-06-28T10:42:43Z</time>
      </trkpt>
      <trkpt lat="46.8193" lon="6.37389">
        <ele>1087.87</ele>
        <time>2015-06-28T10:42:44Z</time>
      </trkpt>
      <trkpt lat="46.81897" lon="6.37363">
        <ele>1086.91</ele>
        <time>2015-06-28T10:42:51Z</time>
      </trkpt>
      <trkpt lat="46.81882" lon="6.37355">
        <ele>1086.43</ele>
        <time>2015-06-28T10:42:54Z</time>
      </trkpt>
      <trkpt lat="46.81843" lon="6.37335">
        <ele>1086.43</ele>
        <time>2015-06-28T10:43:02Z</time>
      </trkpt>
      <trkpt lat="46.81838" lon="6.37334">
        <ele>1085.95</ele>
        <time>2015-06-28T10:43:03Z</time>
      </trkpt>
      <trkpt lat="46.81824" lon="6.3733">
        <ele>1086.43</ele>
        <time>2015-06-28T10:43:06Z</time>
      </trkpt>
      <trkpt lat="46.8182" lon="6.37328">
        <ele>1086.43</ele>
        <time>2015-06-28T10:43:07Z</time>
      </trkpt>
      <trkpt lat="46.81815" lon="6.37326">
        <ele>1086.43</ele>
        <time>2015-06-28T10:43:08Z</time>
      </trkpt>
      <trkpt lat="46.81811" lon="6.37325">
        <ele>1085.95</ele>
        <time>2015-06-28T10:43:09Z</time>
      </trkpt>
      <trkpt lat="46.81801" lon="6.37322">
        <ele>1086.91</ele>
        <time>2015-06-28T10:43:11Z</time>
      </trkpt>
      <trkpt lat="46.81796" lon="6.37321">
        <ele>1086.91</ele>
        <time>2015-06-28T10:43:12Z</time>
      </trkpt>
      <trkpt lat="46.81788" lon="6.3732">
        <ele>1087.87</ele>
        <time>2015-06-28T10:43:15Z</time>
      </trkpt>
      <trkpt lat="46.81786" lon="6.3732">
        <ele>1087.87</ele>
        <time>2015-06-28T10:43:16Z</time>
      </trkpt>
      <trkpt lat="46.81785" lon="6.3732">
        <ele>1088.35</ele>
        <time>2015-06-28T10:43:17Z</time>
      </trkpt>
      <trkpt lat="46.81782" lon="6.37319">
        <ele>1088.35</ele>
        <time>2015-06-28T10:43:18Z</time>
      </trkpt>
      <trkpt lat="46.8178" lon="6.37319">
        <ele>1088.35</ele>
        <time>2015-06-28T10:43:19Z</time>
      </trkpt>
      <trkpt lat="46.81759" lon="6.37317">
        <ele>1090.27</ele>
        <time>2015-06-28T10:43:29Z</time>
      </trkpt>
      <trkpt lat="46.81732" lon="6.37318">
        <ele>1091.23</ele>
        <time>2015-06-28T10:43:41Z</time>
      </trkpt>
      <trkpt lat="46.817" lon="6.37306">
        <ele>1090.27</ele>
        <time>2015-06-28T10:43:49Z</time>
      </trkpt>
      <trkpt lat="46.81695" lon="6.37305">
        <ele>1090.27</ele>
        <time>2015-06-28T10:43:50Z</time>
      </trkpt>
      <trkpt lat="46.8169" lon="6.37303">
        <ele>1090.27</ele>
        <time>2015-06-28T10:43:51Z</time>
      </trkpt>
      <trkpt lat="46.81685" lon="6.37302">
        <ele>1089.79</ele>
        <time>2015-06-28T10:43:52Z</time>
      </trkpt>
      <trkpt lat="46.81679" lon="6.37302">
        <ele>1089.79</ele>
        <time>2015-06-28T10:43:53Z</time>
      </trkpt>
      <trkpt lat="46.81651" lon="6.37303">
        <ele>1088.35</ele>
        <time>2015-06-28T10:43:58Z</time>
      </trkpt>
      <trkpt lat="46.81646" lon="6.37302">
        <ele>1088.83</ele>
        <time>2015-06-28T10:43:59Z</time>
      </trkpt>
      <trkpt lat="46.81619" lon="6.37304">
        <ele>1087.87</ele>
        <time>2015-06-28T10:44:03Z</time>
      </trkpt>
      <trkpt lat="46.81558" lon="6.37324">
        <ele>1087.87</ele>
        <time>2015-06-28T10:44:12Z</time>
      </trkpt>
      <trkpt lat="46.8149" lon="6.37341">
        <ele>1087.39</ele>
        <time>2015-06-28T10:44:24Z</time>
      </trkpt>
      <trkpt lat="46.81403" lon="6.37339">
        <ele>1084.02</ele>
        <time>2015-06-28T10:44:38Z</time>
      </trkpt>
      <trkpt lat="46.81367" lon="6.37325">
        <ele>1083.54</ele>
        <time>2015-06-28T10:44:44Z</time>
      </trkpt>
      <trkpt lat="46.81349" lon="6.37311">
        <ele>1083.06</ele>
        <time>2015-06-28T10:44:47Z</time>
      </trkpt>
      <trkpt lat="46.81285" lon="6.3724">
        <ele>1082.1</ele>
        <time>2015-06-28T10:45:00Z</time>
      </trkpt>
      <trkpt lat="46.81237" lon="6.37188">
        <ele>1083.54</ele>
        <time>2015-06-28T10:45:12Z</time>
      </trkpt>
      <trkpt lat="46.81233" lon="6.37184">
        <ele>1084.02</ele>
        <time>2015-06-28T10:45:13Z</time>
      </trkpt>
      <trkpt lat="46.8123" lon="6.3718">
        <ele>1083.54</ele>
        <time>2015-06-28T10:45:14Z</time>
      </trkpt>
      <trkpt lat="46.81226" lon="6.37175">
        <ele>1083.54</ele>
        <time>2015-06-28T10:45:15Z</time>
      </trkpt>
      <trkpt lat="46.81223" lon="6.37171">
        <ele>1083.06</ele>
        <time>2015-06-28T10:45:16Z</time>
      </trkpt>
      <trkpt lat="46.81155" lon="6.37126">
        <ele>1082.58</ele>
        <time>2015-06-28T10:45:30Z</time>
      </trkpt>
      <trkpt lat="46.81054" lon="6.37093">
        <ele>1079.22</ele>
        <time>2015-06-28T10:45:46Z</time>
      </trkpt>
      <trkpt lat="46.81005" lon="6.37078">
        <ele>1075.37</ele>
        <time>2015-06-28T10:45:51Z</time>
      </trkpt>
      <trkpt lat="46.8092" lon="6.37035">
        <ele>1075.37</ele>
        <time>2015-06-28T10:46:01Z</time>
      </trkpt>
      <trkpt lat="46.80871" lon="6.37021">
        <ele>1074.89</ele>
        <time>2015-06-28T10:46:07Z</time>
      </trkpt>
      <trkpt lat="46.80857" lon="6.37013">
        <ele>1074.89</ele>
        <time>2015-06-28T10:46:09Z</time>
      </trkpt>
      <trkpt lat="46.8085" lon="6.3701">
        <ele>1075.37</ele>
        <time>2015-06-28T10:46:10Z</time>
      </trkpt>
      <trkpt lat="46.80816" lon="6.36999">
        <ele>1075.85</ele>
        <time>2015-06-28T10:46:15Z</time>
      </trkpt>
      <trkpt lat="46.80764" lon="6.36963">
        <ele>1075.85</ele>
        <time>2015-06-28T10:46:24Z</time>
      </trkpt>
      <trkpt lat="46.80759" lon="6.36961">
        <ele>1076.33</ele>
        <time>2015-06-28T10:46:25Z</time>
      </trkpt>
      <trkpt lat="46.80754" lon="6.3696">
        <ele>1076.33</ele>
        <time>2015-06-28T10:46:26Z</time>
      </trkpt>
      <trkpt lat="46.80729" lon="6.36955">
        <ele>1076.81</ele>
        <time>2015-06-28T10:46:31Z</time>
      </trkpt>
      <trkpt lat="46.80665" lon="6.36969">
        <ele>1077.29</ele>
        <time>2015-06-28T10:46:44Z</time>
      </trkpt>
      <trkpt lat="46.80634" lon="6.36969">
        <ele>1076.81</ele>
        <time>2015-06-28T10:46:51Z</time>
      </trkpt>
      <trkpt lat="46.80609" lon="6.36977">
        <ele>1077.78</ele>
        <time>2015-06-28T10:46:57Z</time>
      </trkpt>
      <trkpt lat="46.80599" lon="6.36985">
        <ele>1078.26</ele>
        <time>2015-06-28T10:46:59Z</time>
      </trkpt>
      <trkpt lat="46.80558" lon="6.37025">
        <ele>1077.78</ele>
        <time>2015-06-28T10:47:08Z</time>
      </trkpt>
      <trkpt lat="46.80553" lon="6.37028">
        <ele>1077.29</ele>
        <time>2015-06-28T10:47:09Z</time>
      </trkpt>
      <trkpt lat="46.80495" lon="6.37048">
        <ele>1072.97</ele>
        <time>2015-06-28T10:47:17Z</time>
      </trkpt>
      <trkpt lat="46.80453" lon="6.37065">
        <ele>1069.12</ele>
        <time>2015-06-28T10:47:21Z</time>
      </trkpt>
      <trkpt lat="46.80429" lon="6.37076">
        <ele>1068.16</ele>
        <time>2015-06-28T10:47:23Z</time>
      </trkpt>
      <trkpt lat="46.80417" lon="6.37076">
        <ele>1067.2</ele>
        <time>2015-06-28T10:47:24Z</time>
      </trkpt>
      <trkpt lat="46.80404" lon="6.37076">
        <ele>1067.2</ele>
        <time>2015-06-28T10:47:25Z</time>
      </trkpt>
      <trkpt lat="46.80368" lon="6.37073">
        <ele>1063.36</ele>
        <time>2015-06-28T10:47:28Z</time>
      </trkpt>
      <trkpt lat="46.80356" lon="6.37069">
        <ele>1063.36</ele>
        <time>2015-06-28T10:47:29Z</time>
      </trkpt>
      <trkpt lat="46.80345" lon="6.37062">
        <ele>1061.91</ele>
        <time>2015-06-28T10:47:30Z</time>
      </trkpt>
      <trkpt lat="46.80334" lon="6.37053">
        <ele>1060.95</ele>
        <time>2015-06-28T10:47:31Z</time>
      </trkpt>
      <trkpt lat="46.80324" lon="6.37043">
        <ele>1060.47</ele>
        <time>2015-06-28T10:47:32Z</time>
      </trkpt>
      <trkpt lat="46.80313" lon="6.37036">
        <ele>1059.99</ele>
        <time>2015-06-28T10:47:33Z</time>
      </trkpt>
      <trkpt lat="46.80301" lon="6.37032">
        <ele>1059.03</ele>
        <time>2015-06-28T10:47:34Z</time>
      </trkpt>
      <trkpt lat="46.8029" lon="6.37031">
        <ele>1058.55</ele>
        <time>2015-06-28T10:47:35Z</time>
      </trkpt>
      <trkpt lat="46.80279" lon="6.37032">
        <ele>1058.07</ele>
        <time>2015-06-28T10:47:36Z</time>
      </trkpt>
      <trkpt lat="46.80268" lon="6.37033">
        <ele>1057.59</ele>
        <time>2015-06-28T10:47:37Z</time>
      </trkpt>
      <trkpt lat="46.80257" lon="6.37033">
        <ele>1056.63</ele>
        <time>2015-06-28T10:47:38Z</time>
      </trkpt>
      <trkpt lat="46.80247" lon="6.37033">
        <ele>1056.63</ele>
        <time>2015-06-28T10:47:39Z</time>
      </trkpt>
      <trkpt lat="46.80151" lon="6.37018">
        <ele>1053.74</ele>
        <time>2015-06-28T10:47:50Z</time>
      </trkpt>
      <trkpt lat="46.80046" lon="6.36978">
        <ele>1051.82</ele>
        <time>2015-06-28T10:48:04Z</time>
      </trkpt>
      <trkpt lat="46.79964" lon="6.36952">
        <ele>1051.34</ele>
        <time>2015-06-28T10:48:18Z</time>
      </trkpt>
      <trkpt lat="46.79958" lon="6.36953">
        <ele>1051.34</ele>
        <time>2015-06-28T10:48:19Z</time>
      </trkpt>
      <trkpt lat="46.79952" lon="6.36955">
        <ele>1050.86</ele>
        <time>2015-06-28T10:48:20Z</time>
      </trkpt>
      <trkpt lat="46.79946" lon="6.36958">
        <ele>1050.38</ele>
        <time>2015-06-28T10:48:21Z</time>
      </trkpt>
      <trkpt lat="46.7994" lon="6.36963">
        <ele>1050.38</ele>
        <time>2015-06-28T10:48:22Z</time>
      </trkpt>
      <trkpt lat="46.79935" lon="6.3697">
        <ele>1049.42</ele>
        <time>2015-06-28T10:48:23Z</time>
      </trkpt>
      <trkpt lat="46.7993" lon="6.36978">
        <ele>1049.42</ele>
        <time>2015-06-28T10:48:24Z</time>
      </trkpt>
      <trkpt lat="46.79925" lon="6.36986">
        <ele>1049.9</ele>
        <time>2015-06-28T10:48:25Z</time>
      </trkpt>
      <trkpt lat="46.79875" lon="6.37065">
        <ele>1047.49</ele>
        <time>2015-06-28T10:48:35Z</time>
      </trkpt>
      <trkpt lat="46.79868" lon="6.37071">
        <ele>1047.49</ele>
        <time>2015-06-28T10:48:36Z</time>
      </trkpt>
      <trkpt lat="46.79862" lon="6.37078">
        <ele>1047.49</ele>
        <time>2015-06-28T10:48:37Z</time>
      </trkpt>
      <trkpt lat="46.79786" lon="6.37143">
        <ele>1046.05</ele>
        <time>2015-06-28T10:48:48Z</time>
      </trkpt>
      <trkpt lat="46.79779" lon="6.37148">
        <ele>1046.05</ele>
        <time>2015-06-28T10:48:49Z</time>
      </trkpt>
      <trkpt lat="46.79684" lon="6.37191">
        <ele>1044.61</ele>
        <time>2015-06-28T10:49:04Z</time>
      </trkpt>
      <trkpt lat="46.79677" lon="6.372">
        <ele>1044.61</ele>
        <time>2015-06-28T10:49:07Z</time>
      </trkpt>
      <trkpt lat="46.79677" lon="6.37204">
        <ele>1044.61</ele>
        <time>2015-06-28T10:49:08Z</time>
      </trkpt>
      <trkpt lat="46.79678" lon="6.37208">
        <ele>1045.09</ele>
        <time>2015-06-28T10:49:09Z</time>
      </trkpt>
      <trkpt lat="46.79679" lon="6.37214">
        <ele>1045.09</ele>
        <time>2015-06-28T10:49:10Z</time>
      </trkpt>
      <trkpt lat="46.79679" lon="6.37219">
        <ele>1044.61</ele>
        <time>2015-06-28T10:49:11Z</time>
      </trkpt>
      <trkpt lat="46.7968" lon="6.37225">
        <ele>1045.09</ele>
        <time>2015-06-28T10:49:12Z</time>
      </trkpt>
      <trkpt lat="46.79685" lon="6.37277">
        <ele>1045.57</ele>
        <time>2015-06-28T10:49:20Z</time>
      </trkpt>
      <trkpt lat="46.79685" lon="6.37282">
        <ele>1045.57</ele>
        <time>2015-06-28T10:49:21Z</time>
      </trkpt>
      <trkpt lat="46.79684" lon="6.37288">
        <ele>1046.05</ele>
        <time>2015-06-28T10:49:22Z</time>
      </trkpt>
      <trkpt lat="46.79682" lon="6.37293">
        <ele>1046.53</ele>
        <time>2015-06-28T10:49:23Z</time>
      </trkpt>
      <trkpt lat="46.79681" lon="6.37297">
        <ele>1047.01</ele>
        <time>2015-06-28T10:49:24Z</time>
      </trkpt>
      <trkpt lat="46.79678" lon="6.373">
        <ele>1047.01</ele>
        <time>2015-06-28T10:49:25Z</time>
      </trkpt>
      <trkpt lat="46.79675" lon="6.37302">
        <ele>1047.01</ele>
        <time>2015-06-28T10:49:26Z</time>
      </trkpt>
      <trkpt lat="46.79671" lon="6.37304">
        <ele>1047.49</ele>
        <time>2015-06-28T10:49:27Z</time>
      </trkpt>
      <trkpt lat="46.79668" lon="6.37306">
        <ele>1047.49</ele>
        <time>2015-06-28T10:49:28Z</time>
      </trkpt>
      <trkpt lat="46.79665" lon="6.37308">
        <ele>1047.49</ele>
        <time>2015-06-28T10:49:29Z</time>
      </trkpt>
      <trkpt lat="46.79624" lon="6.37333">
        <ele>1048.45</ele>
        <time>2015-06-28T10:49:42Z</time>
      </trkpt>
      <trkpt lat="46.79611" lon="6.37348">
        <ele>1049.42</ele>
        <time>2015-06-28T10:49:48Z</time>
      </trkpt>
      <trkpt lat="46.7961" lon="6.37349">
        <ele>1049.42</ele>
        <time>2015-06-28T10:49:49Z</time>
      </trkpt>
      <trkpt lat="46.79609" lon="6.37351">
        <ele>1049.42</ele>
        <time>2015-06-28T10:49:50Z</time>
      </trkpt>
      <trkpt lat="46.79608" lon="6.37353">
        <ele>1049.9</ele>
        <time>2015-06-28T10:49:51Z</time>
      </trkpt>
      <trkpt lat="46.79607" lon="6.37355">
        <ele>1049.42</ele>
        <time>2015-06-28T10:49:52Z</time>
      </trkpt>
      <trkpt lat="46.79606" lon="6.37356">
        <ele>1049.9</ele>
        <time>2015-06-28T10:49:53Z</time>
      </trkpt>
      <trkpt lat="46.79605" lon="6.37358">
        <ele>1049.9</ele>
        <time>2015-06-28T10:49:54Z</time>
      </trkpt>
      <trkpt lat="46.79604" lon="6.37361">
        <ele>1050.86</ele>
        <time>2015-06-28T10:50:06Z</time>
      </trkpt>
      <trkpt lat="46.79604" lon="6.37361">
        <ele>1049.9</ele>
        <time>2015-06-28T10:50:28Z</time>
      </trkpt>
      <trkpt lat="46.79604" lon="6.37361">
        <ele>1050.86</ele>
        <time>2015-06-28T10:50:57Z</time>
      </trkpt>
      <trkpt lat="46.79595" lon="6.37373">
        <ele>1050.86</ele>
        <time>2015-06-28T10:51:18Z</time>
      </trkpt>
      <trkpt lat="46.79591" lon="6.37386">
        <ele>1050.86</ele>
        <time>2015-06-28T10:51:23Z</time>
      </trkpt>
      <trkpt lat="46.79589" lon="6.37407">
        <ele>1051.82</ele>
        <time>2015-06-28T10:51:33Z</time>
      </trkpt>
      <trkpt lat="46.79589" lon="6.37409">
        <ele>1051.82</ele>
        <time>2015-06-28T10:51:34Z</time>
      </trkpt>
      <trkpt lat="46.7959" lon="6.37428">
        <ele>1053.74</ele>
        <time>2015-06-28T10:51:42Z</time>
      </trkpt>
      <trkpt lat="46.7959" lon="6.3743">
        <ele>1054.22</ele>
        <time>2015-06-28T10:51:43Z</time>
      </trkpt>
      <trkpt lat="46.7959" lon="6.37433">
        <ele>1053.26</ele>
        <time>2015-06-28T10:51:44Z</time>
      </trkpt>
      <trkpt lat="46.7959" lon="6.37435">
        <ele>1053.74</ele>
        <time>2015-06-28T10:51:45Z</time>
      </trkpt>
      <trkpt lat="46.7959" lon="6.37438">
        <ele>1054.22</ele>
        <time>2015-06-28T10:51:46Z</time>
      </trkpt>
      <trkpt lat="46.7959" lon="6.37441">
        <ele>1054.7</ele>
        <time>2015-06-28T10:51:47Z</time>
      </trkpt>
      <trkpt lat="46.79591" lon="6.37443">
        <ele>1054.7</ele>
        <time>2015-06-28T10:51:48Z</time>
      </trkpt>
      <trkpt lat="46.79591" lon="6.37445">
        <ele>1054.7</ele>
        <time>2015-06-28T10:51:49Z</time>
      </trkpt>
      <trkpt lat="46.79591" lon="6.37447">
        <ele>1055.18</ele>
        <time>2015-06-28T10:51:50Z</time>
      </trkpt>
      <trkpt lat="46.79591" lon="6.37449">
        <ele>1054.7</ele>
        <time>2015-06-28T10:51:51Z</time>
      </trkpt>
      <trkpt lat="46.79591" lon="6.37451">
        <ele>1055.18</ele>
        <time>2015-06-28T10:51:52Z</time>
      </trkpt>
      <trkpt lat="46.79591" lon="6.37453">
        <ele>1055.18</ele>
        <time>2015-06-28T10:51:53Z</time>
      </trkpt>
      <trkpt lat="46.79592" lon="6.37467">
        <ele>1057.11</ele>
        <time>2015-06-28T10:52:01Z</time>
      </trkpt>
      <trkpt lat="46.79592" lon="6.37469">
        <ele>1057.11</ele>
        <time>2015-06-28T10:52:02Z</time>
      </trkpt>
      <trkpt lat="46.79592" lon="6.37471">
        <ele>1057.59</ele>
        <time>2015-06-28T10:52:03Z</time>
      </trkpt>
      <trkpt lat="46.79592" lon="6.37472">
        <ele>1058.07</ele>
        <time>2015-06-28T10:52:04Z</time>
      </trkpt>
      <trkpt lat="46.79593" lon="6.37474">
        <ele>1058.07</ele>
        <time>2015-06-28T10:52:05Z</time>
      </trkpt>
      <trkpt lat="46.79593" lon="6.37476">
        <ele>1058.55</ele>
        <time>2015-06-28T10:52:06Z</time>
      </trkpt>
      <trkpt lat="46.79593" lon="6.37478">
        <ele>1058.55</ele>
        <time>2015-06-28T10:52:07Z</time>
      </trkpt>
      <trkpt lat="46.79593" lon="6.3748">
        <ele>1058.55</ele>
        <time>2015-06-28T10:52:08Z</time>
      </trkpt>
      <trkpt lat="46.79593" lon="6.37482">
        <ele>1059.03</ele>
        <time>2015-06-28T10:52:09Z</time>
      </trkpt>
      <trkpt lat="46.79594" lon="6.37483">
        <ele>1059.03</ele>
        <time>2015-06-28T10:52:10Z</time>
      </trkpt>
      <trkpt lat="46.79595" lon="6.37488">
        <ele>1059.99</ele>
        <time>2015-06-28T10:52:13Z</time>
      </trkpt>
      <trkpt lat="46.79594" lon="6.37489">
        <ele>1059.99</ele>
        <time>2015-06-28T10:52:14Z</time>
      </trkpt>
      <trkpt lat="46.79594" lon="6.37491">
        <ele>1059.99</ele>
        <time>2015-06-28T10:52:15Z</time>
      </trkpt>
      <trkpt lat="46.79594" lon="6.37493">
        <ele>1060.47</ele>
        <time>2015-06-28T10:52:16Z</time>
      </trkpt>
      <trkpt lat="46.79594" lon="6.37494">
        <ele>1060.47</ele>
        <time>2015-06-28T10:52:17Z</time>
      </trkpt>
      <trkpt lat="46.79594" lon="6.37496">
        <ele>1060.47</ele>
        <time>2015-06-28T10:52:18Z</time>
      </trkpt>
      <trkpt lat="46.79595" lon="6.37497">
        <ele>1060.95</ele>
        <time>2015-06-28T10:52:19Z</time>
      </trkpt>
      <trkpt lat="46.79596" lon="6.37499">
        <ele>1061.43</ele>
        <time>2015-06-28T10:52:20Z</time>
      </trkpt>
      <trkpt lat="46.79596" lon="6.37501">
        <ele>1061.91</ele>
        <time>2015-06-28T10:52:21Z</time>
      </trkpt>
      <trkpt lat="46.79597" lon="6.37503">
        <ele>1061.91</ele>
        <time>2015-06-28T10:52:22Z</time>
      </trkpt>
      <trkpt lat="46.79597" lon="6.37504">
        <ele>1061.91</ele>
        <time>2015-06-28T10:52:23Z</time>
      </trkpt>
      <trkpt lat="46.79598" lon="6.37506">
        <ele>1061.91</ele>
        <time>2015-06-28T10:52:24Z</time>
      </trkpt>
      <trkpt lat="46.79598" lon="6.37508">
        <ele>1062.39</ele>
        <time>2015-06-28T10:52:25Z</time>
      </trkpt>
      <trkpt lat="46.79598" lon="6.3751">
        <ele>1062.87</ele>
        <time>2015-06-28T10:52:26Z</time>
      </trkpt>
      <trkpt lat="46.79599" lon="6.37512">
        <ele>1063.36</ele>
        <time>2015-06-28T10:52:27Z</time>
      </trkpt>
      <trkpt lat="46.79599" lon="6.37516">
        <ele>1063.84</ele>
        <time>2015-06-28T10:52:29Z</time>
      </trkpt>
      <trkpt lat="46.79594" lon="6.37531">
        <ele>1065.28</ele>
        <time>2015-06-28T10:52:41Z</time>
      </trkpt>
      <trkpt lat="46.7959" lon="6.37538">
        <ele>1066.24</ele>
        <time>2015-06-28T10:53:00Z</time>
      </trkpt>
      <trkpt lat="46.79579" lon="6.37552">
        <ele>1067.68</ele>
        <time>2015-06-28T10:53:14Z</time>
      </trkpt>
      <trkpt lat="46.7957" lon="6.37562">
        <ele>1069.12</ele>
        <time>2015-06-28T10:53:25Z</time>
      </trkpt>
      <trkpt lat="46.79565" lon="6.37567">
        <ele>1068.64</ele>
        <time>2015-06-28T10:53:31Z</time>
      </trkpt>
      <trkpt lat="46.79564" lon="6.37567">
        <ele>1069.6</ele>
        <time>2015-06-28T10:53:32Z</time>
      </trkpt>
      <trkpt lat="46.79563" lon="6.37569">
        <ele>1069.12</ele>
        <time>2015-06-28T10:53:33Z</time>
      </trkpt>
      <trkpt lat="46.79556" lon="6.37578">
        <ele>1071.53</ele>
        <time>2015-06-28T10:53:45Z</time>
      </trkpt>
      <trkpt lat="46.79553" lon="6.37582">
        <ele>1071.53</ele>
        <time>2015-06-28T10:53:56Z</time>
      </trkpt>
      <trkpt lat="46.79538" lon="6.37587">
        <ele>1072.01</ele>
        <time>2015-06-28T10:54:06Z</time>
      </trkpt>
      <trkpt lat="46.79536" lon="6.37587">
        <ele>1072.49</ele>
        <time>2015-06-28T10:54:07Z</time>
      </trkpt>
      <trkpt lat="46.79534" lon="6.37586">
        <ele>1072.01</ele>
        <time>2015-06-28T10:54:08Z</time>
      </trkpt>
      <trkpt lat="46.79532" lon="6.37586">
        <ele>1072.49</ele>
        <time>2015-06-28T10:54:09Z</time>
      </trkpt>
      <trkpt lat="46.79531" lon="6.37586">
        <ele>1072.01</ele>
        <time>2015-06-28T10:54:10Z</time>
      </trkpt>
      <trkpt lat="46.79529" lon="6.37586">
        <ele>1072.49</ele>
        <time>2015-06-28T10:54:11Z</time>
      </trkpt>
      <trkpt lat="46.79527" lon="6.37586">
        <ele>1072.49</ele>
        <time>2015-06-28T10:54:12Z</time>
      </trkpt>
      <trkpt lat="46.79525" lon="6.37586">
        <ele>1072.49</ele>
        <time>2015-06-28T10:54:13Z</time>
      </trkpt>
      <trkpt lat="46.79524" lon="6.37586">
        <ele>1072.01</ele>
        <time>2015-06-28T10:54:14Z</time>
      </trkpt>
      <trkpt lat="46.79522" lon="6.37587">
        <ele>1072.49</ele>
        <time>2015-06-28T10:54:15Z</time>
      </trkpt>
      <trkpt lat="46.7952" lon="6.37587">
        <ele>1072.49</ele>
        <time>2015-06-28T10:54:16Z</time>
      </trkpt>
      <trkpt lat="46.79518" lon="6.37587">
        <ele>1072.49</ele>
        <time>2015-06-28T10:54:17Z</time>
      </trkpt>
      <trkpt lat="46.79515" lon="6.37586">
        <ele>1072.01</ele>
        <time>2015-06-28T10:54:18Z</time>
      </trkpt>
      <trkpt lat="46.79478" lon="6.37578">
        <ele>1070.57</ele>
        <time>2015-06-28T10:54:28Z</time>
      </trkpt>
      <trkpt lat="46.79474" lon="6.37576">
        <ele>1070.57</ele>
        <time>2015-06-28T10:54:29Z</time>
      </trkpt>
      <trkpt lat="46.79454" lon="6.37569">
        <ele>1069.12</ele>
        <time>2015-06-28T10:54:33Z</time>
      </trkpt>
      <trkpt lat="46.79449" lon="6.37567">
        <ele>1069.12</ele>
        <time>2015-06-28T10:54:34Z</time>
      </trkpt>
      <trkpt lat="46.79441" lon="6.37563">
        <ele>1068.64</ele>
        <time>2015-06-28T10:54:36Z</time>
      </trkpt>
      <trkpt lat="46.79437" lon="6.37562">
        <ele>1069.6</ele>
        <time>2015-06-28T10:54:37Z</time>
      </trkpt>
      <trkpt lat="46.79433" lon="6.37561">
        <ele>1069.12</ele>
        <time>2015-06-28T10:54:38Z</time>
      </trkpt>
      <trkpt lat="46.7943" lon="6.37561">
        <ele>1069.12</ele>
        <time>2015-06-28T10:54:39Z</time>
      </trkpt>
      <trkpt lat="46.79426" lon="6.37561">
        <ele>1069.12</ele>
        <time>2015-06-28T10:54:40Z</time>
      </trkpt>
      <trkpt lat="46.79423" lon="6.37561">
        <ele>1069.12</ele>
        <time>2015-06-28T10:54:41Z</time>
      </trkpt>
      <trkpt lat="46.7942" lon="6.37561">
        <ele>1068.16</ele>
        <time>2015-06-28T10:54:42Z</time>
      </trkpt>
      <trkpt lat="46.79394" lon="6.37568">
        <ele>1071.05</ele>
        <time>2015-06-28T10:54:53Z</time>
      </trkpt>
      <trkpt lat="46.79388" lon="6.37571">
        <ele>1070.57</ele>
        <time>2015-06-28T10:54:57Z</time>
      </trkpt>
      <trkpt lat="46.79386" lon="6.37571">
        <ele>1071.05</ele>
        <time>2015-06-28T10:54:58Z</time>
      </trkpt>
      <trkpt lat="46.79383" lon="6.37572">
        <ele>1070.08</ele>
        <time>2015-06-28T10:54:59Z</time>
      </trkpt>
      <trkpt lat="46.79381" lon="6.37572">
        <ele>1071.05</ele>
        <time>2015-06-28T10:55:00Z</time>
      </trkpt>
      <trkpt lat="46.79378" lon="6.37573">
        <ele>1071.05</ele>
        <time>2015-06-28T10:55:01Z</time>
      </trkpt>
      <trkpt lat="46.79376" lon="6.37572">
        <ele>1071.05</ele>
        <time>2015-06-28T10:55:02Z</time>
      </trkpt>
      <trkpt lat="46.79374" lon="6.37573">
        <ele>1071.53</ele>
        <time>2015-06-28T10:55:03Z</time>
      </trkpt>
      <trkpt lat="46.79373" lon="6.37574">
        <ele>1072.01</ele>
        <time>2015-06-28T10:55:04Z</time>
      </trkpt>
      <trkpt lat="46.79371" lon="6.37575">
        <ele>1071.53</ele>
        <time>2015-06-28T10:55:05Z</time>
      </trkpt>
      <trkpt lat="46.79369" lon="6.37576">
        <ele>1072.49</ele>
        <time>2015-06-28T10:55:06Z</time>
      </trkpt>
      <trkpt lat="46.79362" lon="6.37578">
        <ele>1073.45</ele>
        <time>2015-06-28T10:55:10Z</time>
      </trkpt>
      <trkpt lat="46.7936" lon="6.37579">
        <ele>1073.45</ele>
        <time>2015-06-28T10:55:11Z</time>
      </trkpt>
      <trkpt lat="46.79357" lon="6.3758">
        <ele>1073.45</ele>
        <time>2015-06-28T10:55:12Z</time>
      </trkpt>
      <trkpt lat="46.79355" lon="6.37582">
        <ele>1073.93</ele>
        <time>2015-06-28T10:55:13Z</time>
      </trkpt>
      <trkpt lat="46.79353" lon="6.37582">
        <ele>1074.41</ele>
        <time>2015-06-28T10:55:14Z</time>
      </trkpt>
      <trkpt lat="46.79348" lon="6.37584">
        <ele>1074.89</ele>
        <time>2015-06-28T10:55:16Z</time>
      </trkpt>
      <trkpt lat="46.79343" lon="6.37584">
        <ele>1074.89</ele>
        <time>2015-06-28T10:55:18Z</time>
      </trkpt>
      <trkpt lat="46.79341" lon="6.37584">
        <ele>1075.37</ele>
        <time>2015-06-28T10:55:19Z</time>
      </trkpt>
      <trkpt lat="46.79339" lon="6.37583">
        <ele>1074.89</ele>
        <time>2015-06-28T10:55:20Z</time>
      </trkpt>
      <trkpt lat="46.79337" lon="6.37582">
        <ele>1074.89</ele>
        <time>2015-06-28T10:55:21Z</time>
      </trkpt>
      <trkpt lat="46.79335" lon="6.37582">
        <ele>1074.89</ele>
        <time>2015-06-28T10:55:22Z</time>
      </trkpt>
      <trkpt lat="46.79331" lon="6.3758">
        <ele>1074.41</ele>
        <time>2015-06-28T10:55:23Z</time>
      </trkpt>
      <trkpt lat="46.79327" lon="6.37579">
        <ele>1074.41</ele>
        <time>2015-06-28T10:55:24Z</time>
      </trkpt>
      <trkpt lat="46.79323" lon="6.37577">
        <ele>1074.41</ele>
        <time>2015-06-28T10:55:25Z</time>
      </trkpt>
      <trkpt lat="46.79319" lon="6.37576">
        <ele>1073.93</ele>
        <time>2015-06-28T10:55:26Z</time>
      </trkpt>
      <trkpt lat="46.79296" lon="6.3757">
        <ele>1072.49</ele>
        <time>2015-06-28T10:55:30Z</time>
      </trkpt>
      <trkpt lat="46.7929" lon="6.37567">
        <ele>1072.49</ele>
        <time>2015-06-28T10:55:31Z</time>
      </trkpt>
      <trkpt lat="46.79243" lon="6.3755">
        <ele>1069.12</ele>
        <time>2015-06-28T10:55:37Z</time>
      </trkpt>
      <trkpt lat="46.79235" lon="6.37547">
        <ele>1069.12</ele>
        <time>2015-06-28T10:55:38Z</time>
      </trkpt>
      <trkpt lat="46.79189" lon="6.37529">
        <ele>1065.76</ele>
        <time>2015-06-28T10:55:43Z</time>
      </trkpt>
      <trkpt lat="46.79139" lon="6.37516">
        <ele>1062.39</ele>
        <time>2015-06-28T10:55:48Z</time>
      </trkpt>
      <trkpt lat="46.79122" lon="6.3751">
        <ele>1060.47</ele>
        <time>2015-06-28T10:55:51Z</time>
      </trkpt>
      <trkpt lat="46.79115" lon="6.37506">
        <ele>1059.51</ele>
        <time>2015-06-28T10:55:54Z</time>
      </trkpt>
      <trkpt lat="46.79113" lon="6.37506">
        <ele>1059.51</ele>
        <time>2015-06-28T10:55:55Z</time>
      </trkpt>
      <trkpt lat="46.7911" lon="6.37506">
        <ele>1059.51</ele>
        <time>2015-06-28T10:55:56Z</time>
      </trkpt>
      <trkpt lat="46.79108" lon="6.37508">
        <ele>1059.51</ele>
        <time>2015-06-28T10:55:57Z</time>
      </trkpt>
      <trkpt lat="46.79105" lon="6.3751">
        <ele>1059.99</ele>
        <time>2015-06-28T10:55:58Z</time>
      </trkpt>
      <trkpt lat="46.79084" lon="6.37519">
        <ele>1061.43</ele>
        <time>2015-06-28T10:56:10Z</time>
      </trkpt>
      <trkpt lat="46.79067" lon="6.37522">
        <ele>1063.36</ele>
        <time>2015-06-28T10:56:21Z</time>
      </trkpt>
      <trkpt lat="46.79065" lon="6.37522">
        <ele>1064.32</ele>
        <time>2015-06-28T10:56:22Z</time>
      </trkpt>
      <trkpt lat="46.79064" lon="6.37522">
        <ele>1064.32</ele>
        <time>2015-06-28T10:56:23Z</time>
      </trkpt>
      <trkpt lat="46.79062" lon="6.37521">
        <ele>1064.32</ele>
        <time>2015-06-28T10:56:24Z</time>
      </trkpt>
      <trkpt lat="46.79061" lon="6.37521">
        <ele>1064.8</ele>
        <time>2015-06-28T10:56:25Z</time>
      </trkpt>
      <trkpt lat="46.79059" lon="6.37521">
        <ele>1064.8</ele>
        <time>2015-06-28T10:56:26Z</time>
      </trkpt>
      <trkpt lat="46.79058" lon="6.37522">
        <ele>1065.28</ele>
        <time>2015-06-28T10:56:27Z</time>
      </trkpt>
      <trkpt lat="46.79057" lon="6.37523">
        <ele>1065.28</ele>
        <time>2015-06-28T10:56:28Z</time>
      </trkpt>
      <trkpt lat="46.79039" lon="6.37527">
        <ele>1068.16</ele>
        <time>2015-06-28T10:56:42Z</time>
      </trkpt>
      <trkpt lat="46.79023" lon="6.37536">
        <ele>1070.08</ele>
        <time>2015-06-28T10:56:56Z</time>
      </trkpt>
      <trkpt lat="46.79012" lon="6.37535">
        <ele>1070.57</ele>
        <time>2015-06-28T10:57:04Z</time>
      </trkpt>
      <trkpt lat="46.7901" lon="6.37535">
        <ele>1071.05</ele>
        <time>2015-06-28T10:57:05Z</time>
      </trkpt>
      <trkpt lat="46.79008" lon="6.37536">
        <ele>1070.57</ele>
        <time>2015-06-28T10:57:06Z</time>
      </trkpt>
      <trkpt lat="46.79007" lon="6.37536">
        <ele>1071.05</ele>
        <time>2015-06-28T10:57:07Z</time>
      </trkpt>
      <trkpt lat="46.79006" lon="6.37537">
        <ele>1070.57</ele>
        <time>2015-06-28T10:57:08Z</time>
      </trkpt>
      <trkpt lat="46.79005" lon="6.37537">
        <ele>1071.05</ele>
        <time>2015-06-28T10:57:09Z</time>
      </trkpt>
      <trkpt lat="46.79003" lon="6.37538">
        <ele>1071.05</ele>
        <time>2015-06-28T10:57:10Z</time>
      </trkpt>
      <trkpt lat="46.79002" lon="6.37538">
        <ele>1071.53</ele>
        <time>2015-06-28T10:57:11Z</time>
      </trkpt>
      <trkpt lat="46.79001" lon="6.37538">
        <ele>1071.05</ele>
        <time>2015-06-28T10:57:12Z</time>
      </trkpt>
      <trkpt lat="46.78999" lon="6.37538">
        <ele>1071.05</ele>
        <time>2015-06-28T10:57:13Z</time>
      </trkpt>
      <trkpt lat="46.78998" lon="6.37539">
        <ele>1072.01</ele>
        <time>2015-06-28T10:57:14Z</time>
      </trkpt>
      <trkpt lat="46.78993" lon="6.37543">
        <ele>1072.01</ele>
        <time>2015-06-28T10:57:18Z</time>
      </trkpt>
      <trkpt lat="46.78991" lon="6.37544">
        <ele>1072.01</ele>
        <time>2015-06-28T10:57:19Z</time>
      </trkpt>
      <trkpt lat="46.7899" lon="6.37545">
        <ele>1072.01</ele>
        <time>2015-06-28T10:57:20Z</time>
      </trkpt>
      <trkpt lat="46.78988" lon="6.37546">
        <ele>1072.01</ele>
        <time>2015-06-28T10:57:21Z</time>
      </trkpt>
      <trkpt lat="46.78977" lon="6.37554">
        <ele>1073.45</ele>
        <time>2015-06-28T10:57:31Z</time>
      </trkpt>
      <trkpt lat="46.78973" lon="6.37558">
        <ele>1073.93</ele>
        <time>2015-06-28T10:57:35Z</time>
      </trkpt>
      <trkpt lat="46.7895" lon="6.37566">
        <ele>1074.89</ele>
        <time>2015-06-28T10:57:53Z</time>
      </trkpt>
      <trkpt lat="46.78948" lon="6.37564">
        <ele>1075.37</ele>
        <time>2015-06-28T10:58:12Z</time>
      </trkpt>
      <trkpt lat="46.78944" lon="6.37563">
        <ele>1074.89</ele>
        <time>2015-06-28T10:58:17Z</time>
      </trkpt>
      <trkpt lat="46.78936" lon="6.37562">
        <ele>1074.41</ele>
        <time>2015-06-28T10:58:29Z</time>
      </trkpt>
      <trkpt lat="46.78933" lon="6.37563">
        <ele>1074.41</ele>
        <time>2015-06-28T10:58:32Z</time>
      </trkpt>
      <trkpt lat="46.78931" lon="6.37564">
        <ele>1073.93</ele>
        <time>2015-06-28T10:58:33Z</time>
      </trkpt>
      <trkpt lat="46.78928" lon="6.37564">
        <ele>1073.93</ele>
        <time>2015-06-28T10:58:34Z</time>
      </trkpt>
      <trkpt lat="46.78926" lon="6.37563">
        <ele>1073.93</ele>
        <time>2015-06-28T10:58:35Z</time>
      </trkpt>
      <trkpt lat="46.78923" lon="6.37563">
        <ele>1073.45</ele>
        <time>2015-06-28T10:58:36Z</time>
      </trkpt>
      <trkpt lat="46.78887" lon="6.37563">
        <ele>1070.57</ele>
        <time>2015-06-28T10:58:47Z</time>
      </trkpt>
      <trkpt lat="46.78883" lon="6.37562">
        <ele>1070.08</ele>
        <time>2015-06-28T10:58:48Z</time>
      </trkpt>
      <trkpt lat="46.78878" lon="6.37561">
        <ele>1070.08</ele>
        <time>2015-06-28T10:58:49Z</time>
      </trkpt>
      <trkpt lat="46.78873" lon="6.37559">
        <ele>1070.08</ele>
        <time>2015-06-28T10:58:50Z</time>
      </trkpt>
      <trkpt lat="46.78837" lon="6.37567">
        <ele>1069.12</ele>
        <time>2015-06-28T10:59:02Z</time>
      </trkpt>
      <trkpt lat="46.78827" lon="6.37572">
        <ele>1069.6</ele>
        <time>2015-06-28T10:59:09Z</time>
      </trkpt>
      <trkpt lat="46.78819" lon="6.37575">
        <ele>1069.6</ele>
        <time>2015-06-28T10:59:15Z</time>
      </trkpt>
      <trkpt lat="46.78793" lon="6.37575">
        <ele>1068.64</ele>
        <time>2015-06-28T10:59:30Z</time>
      </trkpt>
      <trkpt lat="46.78788" lon="6.37572">
        <ele>1067.68</ele>
        <time>2015-06-28T10:59:33Z</time>
      </trkpt>
      <trkpt lat="46.78786" lon="6.3757">
        <ele>1067.2</ele>
        <time>2015-06-28T10:59:35Z</time>
      </trkpt>
      <trkpt lat="46.78784" lon="6.37569">
        <ele>1066.72</ele>
        <time>2015-06-28T10:59:36Z</time>
      </trkpt>
      <trkpt lat="46.78782" lon="6.37568">
        <ele>1066.72</ele>
        <time>2015-06-28T10:59:37Z</time>
      </trkpt>
      <trkpt lat="46.78779" lon="6.37566">
        <ele>1066.24</ele>
        <time>2015-06-28T10:59:38Z</time>
      </trkpt>
      <trkpt lat="46.78775" lon="6.37564">
        <ele>1065.76</ele>
        <time>2015-06-28T10:59:39Z</time>
      </trkpt>
      <trkpt lat="46.78769" lon="6.37562">
        <ele>1064.8</ele>
        <time>2015-06-28T10:59:41Z</time>
      </trkpt>
      <trkpt lat="46.78739" lon="6.37573">
        <ele>1064.8</ele>
        <time>2015-06-28T10:59:52Z</time>
      </trkpt>
      <trkpt lat="46.78713" lon="6.37581">
        <ele>1065.76</ele>
        <time>2015-06-28T11:00:05Z</time>
      </trkpt>
      <trkpt lat="46.78695" lon="6.37588">
        <ele>1067.68</ele>
        <time>2015-06-28T11:00:18Z</time>
      </trkpt>
      <trkpt lat="46.78693" lon="6.37588">
        <ele>1067.2</ele>
        <time>2015-06-28T11:00:19Z</time>
      </trkpt>
      <trkpt lat="46.78692" lon="6.37589">
        <ele>1067.68</ele>
        <time>2015-06-28T11:00:20Z</time>
      </trkpt>
      <trkpt lat="46.7869" lon="6.37592">
        <ele>1067.68</ele>
        <time>2015-06-28T11:00:22Z</time>
      </trkpt>
      <trkpt lat="46.78688" lon="6.37592">
        <ele>1067.68</ele>
        <time>2015-06-28T11:00:23Z</time>
      </trkpt>
      <trkpt lat="46.78686" lon="6.37592">
        <ele>1067.68</ele>
        <time>2015-06-28T11:00:24Z</time>
      </trkpt>
      <trkpt lat="46.78679" lon="6.37595">
        <ele>1069.12</ele>
        <time>2015-06-28T11:00:30Z</time>
      </trkpt>
      <trkpt lat="46.78677" lon="6.37595">
        <ele>1068.64</ele>
        <time>2015-06-28T11:00:31Z</time>
      </trkpt>
      <trkpt lat="46.78675" lon="6.37595">
        <ele>1069.12</ele>
        <time>2015-06-28T11:00:32Z</time>
      </trkpt>
      <trkpt lat="46.78673" lon="6.37594">
        <ele>1069.12</ele>
        <time>2015-06-28T11:00:33Z</time>
      </trkpt>
      <trkpt lat="46.78671" lon="6.37594">
        <ele>1068.64</ele>
        <time>2015-06-28T11:00:34Z</time>
      </trkpt>
      <trkpt lat="46.78669" lon="6.37593">
        <ele>1068.64</ele>
        <time>2015-06-28T11:00:35Z</time>
      </trkpt>
      <trkpt lat="46.78654" lon="6.37588">
        <ele>1068.64</ele>
        <time>2015-06-28T11:00:45Z</time>
      </trkpt>
      <trkpt lat="46.78648" lon="6.37591">
        <ele>1069.12</ele>
        <time>2015-06-28T11:00:50Z</time>
      </trkpt>
      <trkpt lat="46.78646" lon="6.37591">
        <ele>1069.12</ele>
        <time>2015-06-28T11:00:51Z</time>
      </trkpt>
      <trkpt lat="46.78644" lon="6.37591">
        <ele>1069.12</ele>
        <time>2015-06-28T11:00:52Z</time>
      </trkpt>
      <trkpt lat="46.78642" lon="6.37591">
        <ele>1069.12</ele>
        <time>2015-06-28T11:00:53Z</time>
      </trkpt>
      <trkpt lat="46.7864" lon="6.37591">
        <ele>1069.12</ele>
        <time>2015-06-28T11:00:54Z</time>
      </trkpt>
      <trkpt lat="46.78639" lon="6.37591">
        <ele>1068.16</ele>
        <time>2015-06-28T11:00:55Z</time>
      </trkpt>
      <trkpt lat="46.78638" lon="6.37591">
        <ele>1068.64</ele>
        <time>2015-06-28T11:00:56Z</time>
      </trkpt>
      <trkpt lat="46.78636" lon="6.37591">
        <ele>1068.64</ele>
        <time>2015-06-28T11:00:57Z</time>
      </trkpt>
      <trkpt lat="46.78634" lon="6.37591">
        <ele>1068.64</ele>
        <time>2015-06-28T11:00:58Z</time>
      </trkpt>
      <trkpt lat="46.78631" lon="6.3759">
        <ele>1068.64</ele>
        <time>2015-06-28T11:01:00Z</time>
      </trkpt>
      <trkpt lat="46.78629" lon="6.37589">
        <ele>1068.16</ele>
        <time>2015-06-28T11:01:01Z</time>
      </trkpt>
      <trkpt lat="46.78626" lon="6.37588">
        <ele>1068.16</ele>
        <time>2015-06-28T11:01:02Z</time>
      </trkpt>
      <trkpt lat="46.78624" lon="6.37588">
        <ele>1068.64</ele>
        <time>2015-06-28T11:01:03Z</time>
      </trkpt>
      <trkpt lat="46.78622" lon="6.37588">
        <ele>1068.16</ele>
        <time>2015-06-28T11:01:04Z</time>
      </trkpt>
      <trkpt lat="46.7862" lon="6.37589">
        <ele>1068.16</ele>
        <time>2015-06-28T11:01:05Z</time>
      </trkpt>
      <trkpt lat="46.78618" lon="6.37588">
        <ele>1068.64</ele>
        <time>2015-06-28T11:01:06Z</time>
      </trkpt>
      <trkpt lat="46.78617" lon="6.37588">
        <ele>1068.16</ele>
        <time>2015-06-28T11:01:07Z</time>
      </trkpt>
      <trkpt lat="46.78597" lon="6.37587">
        <ele>1068.16</ele>
        <time>2015-06-28T11:01:18Z</time>
      </trkpt>
      <trkpt lat="46.78585" lon="6.37582">
        <ele>1067.68</ele>
        <time>2015-06-28T11:01:24Z</time>
      </trkpt>
      <trkpt lat="46.78584" lon="6.37582">
        <ele>1067.2</ele>
        <time>2015-06-28T11:01:25Z</time>
      </trkpt>
      <trkpt lat="46.78582" lon="6.37583">
        <ele>1067.2</ele>
        <time>2015-06-28T11:01:26Z</time>
      </trkpt>
      <trkpt lat="46.78581" lon="6.37582">
        <ele>1067.2</ele>
        <time>2015-06-28T11:01:27Z</time>
      </trkpt>
      <trkpt lat="46.78579" lon="6.37582">
        <ele>1066.24</ele>
        <time>2015-06-28T11:01:28Z</time>
      </trkpt>
      <trkpt lat="46.78577" lon="6.37582">
        <ele>1067.2</ele>
        <time>2015-06-28T11:01:29Z</time>
      </trkpt>
      <trkpt lat="46.78565" lon="6.37579">
        <ele>1066.72</ele>
        <time>2015-06-28T11:01:37Z</time>
      </trkpt>
      <trkpt lat="46.78559" lon="6.37577">
        <ele>1065.28</ele>
        <time>2015-06-28T11:01:40Z</time>
      </trkpt>
      <trkpt lat="46.78557" lon="6.37577">
        <ele>1065.28</ele>
        <time>2015-06-28T11:01:41Z</time>
      </trkpt>
      <trkpt lat="46.78555" lon="6.37577">
        <ele>1065.76</ele>
        <time>2015-06-28T11:01:42Z</time>
      </trkpt>
      <trkpt lat="46.78551" lon="6.37582">
        <ele>1064.32</ele>
        <time>2015-06-28T11:01:49Z</time>
      </trkpt>
      <trkpt lat="46.78544" lon="6.37583">
        <ele>1063.84</ele>
        <time>2015-06-28T11:01:53Z</time>
      </trkpt>
      <trkpt lat="46.78522" lon="6.37586">
        <ele>1062.39</ele>
        <time>2015-06-28T11:02:03Z</time>
      </trkpt>
      <trkpt lat="46.7849" lon="6.37583">
        <ele>1059.99</ele>
        <time>2015-06-28T11:02:12Z</time>
      </trkpt>
      <trkpt lat="46.78452" lon="6.37577">
        <ele>1058.07</ele>
        <time>2015-06-28T11:02:24Z</time>
      </trkpt>
      <trkpt lat="46.78435" lon="6.37583">
        <ele>1060.95</ele>
        <time>2015-06-28T11:02:32Z</time>
      </trkpt>
      <trkpt lat="46.78427" lon="6.37588">
        <ele>1062.87</ele>
        <time>2015-06-28T11:02:39Z</time>
      </trkpt>
      <trkpt lat="46.78422" lon="6.3759">
        <ele>1063.84</ele>
        <time>2015-06-28T11:02:42Z</time>
      </trkpt>
      <trkpt lat="46.78416" lon="6.37592">
        <ele>1065.28</ele>
        <time>2015-06-28T11:02:45Z</time>
      </trkpt>
      <trkpt lat="46.78406" lon="6.37598">
        <ele>1065.76</ele>
        <time>2015-06-28T11:02:59Z</time>
      </trkpt>
      <trkpt lat="46.78395" lon="6.37604">
        <ele>1067.2</ele>
        <time>2015-06-28T11:03:11Z</time>
      </trkpt>
      <trkpt lat="46.78385" lon="6.37612">
        <ele>1068.16</ele>
        <time>2015-06-28T11:03:25Z</time>
      </trkpt>
      <trkpt lat="46.78374" lon="6.37614">
        <ele>1069.12</ele>
        <time>2015-06-28T11:03:38Z</time>
      </trkpt>
      <trkpt lat="46.78364" lon="6.37611">
        <ele>1069.12</ele>
        <time>2015-06-28T11:03:51Z</time>
      </trkpt>
      <trkpt lat="46.78359" lon="6.3761">
        <ele>1069.6</ele>
        <time>2015-06-28T11:03:54Z</time>
      </trkpt>
      <trkpt lat="46.78344" lon="6.3761">
        <ele>1070.08</ele>
        <time>2015-06-28T11:04:04Z</time>
      </trkpt>
      <trkpt lat="46.7831" lon="6.37603">
        <ele>1068.16</ele>
        <time>2015-06-28T11:04:14Z</time>
      </trkpt>
      <trkpt lat="46.78283" lon="6.37604">
        <ele>1067.68</ele>
        <time>2015-06-28T11:04:23Z</time>
      </trkpt>
      <trkpt lat="46.78269" lon="6.37599">
        <ele>1067.2</ele>
        <time>2015-06-28T11:04:28Z</time>
      </trkpt>
      <trkpt lat="46.78261" lon="6.37598">
        <ele>1067.2</ele>
        <time>2015-06-28T11:04:31Z</time>
      </trkpt>
      <trkpt lat="46.78231" lon="6.37588">
        <ele>1065.76</ele>
        <time>2015-06-28T11:04:39Z</time>
      </trkpt>
      <trkpt lat="46.78208" lon="6.3758">
        <ele>1064.8</ele>
        <time>2015-06-28T11:04:43Z</time>
      </trkpt>
      <trkpt lat="46.78191" lon="6.37577">
        <ele>1063.84</ele>
        <time>2015-06-28T11:04:46Z</time>
      </trkpt>
      <trkpt lat="46.78186" lon="6.37575">
        <ele>1063.36</ele>
        <time>2015-06-28T11:04:47Z</time>
      </trkpt>
      <trkpt lat="46.7818" lon="6.37573">
        <ele>1062.87</ele>
        <time>2015-06-28T11:04:48Z</time>
      </trkpt>
      <trkpt lat="46.78174" lon="6.37571">
        <ele>1062.87</ele>
        <time>2015-06-28T11:04:49Z</time>
      </trkpt>
      <trkpt lat="46.78169" lon="6.3757">
        <ele>1062.39</ele>
        <time>2015-06-28T11:04:50Z</time>
      </trkpt>
      <trkpt lat="46.78164" lon="6.37568">
        <ele>1061.91</ele>
        <time>2015-06-28T11:04:51Z</time>
      </trkpt>
      <trkpt lat="46.7816" lon="6.37568">
        <ele>1061.43</ele>
        <time>2015-06-28T11:04:52Z</time>
      </trkpt>
      <trkpt lat="46.78156" lon="6.37567">
        <ele>1061.43</ele>
        <time>2015-06-28T11:04:53Z</time>
      </trkpt>
      <trkpt lat="46.78151" lon="6.37567">
        <ele>1060.95</ele>
        <time>2015-06-28T11:04:54Z</time>
      </trkpt>
      <trkpt lat="46.78147" lon="6.37566">
        <ele>1060.95</ele>
        <time>2015-06-28T11:04:55Z</time>
      </trkpt>
      <trkpt lat="46.78123" lon="6.37562">
        <ele>1058.07</ele>
        <time>2015-06-28T11:05:01Z</time>
      </trkpt>
      <trkpt lat="46.7812" lon="6.37564">
        <ele>1058.55</ele>
        <time>2015-06-28T11:05:02Z</time>
      </trkpt>
      <trkpt lat="46.78117" lon="6.37566">
        <ele>1058.07</ele>
        <time>2015-06-28T11:05:03Z</time>
      </trkpt>
      <trkpt lat="46.78114" lon="6.37567">
        <ele>1057.59</ele>
        <time>2015-06-28T11:05:04Z</time>
      </trkpt>
      <trkpt lat="46.78111" lon="6.37568">
        <ele>1057.59</ele>
        <time>2015-06-28T11:05:05Z</time>
      </trkpt>
      <trkpt lat="46.78108" lon="6.37569">
        <ele>1057.59</ele>
        <time>2015-06-28T11:05:06Z</time>
      </trkpt>
      <trkpt lat="46.78105" lon="6.37569">
        <ele>1057.11</ele>
        <time>2015-06-28T11:05:07Z</time>
      </trkpt>
      <trkpt lat="46.78102" lon="6.3757">
        <ele>1056.63</ele>
        <time>2015-06-28T11:05:08Z</time>
      </trkpt>
      <trkpt lat="46.78099" lon="6.37572">
        <ele>1056.63</ele>
        <time>2015-06-28T11:05:09Z</time>
      </trkpt>
      <trkpt lat="46.78096" lon="6.37573">
        <ele>1056.63</ele>
        <time>2015-06-28T11:05:10Z</time>
      </trkpt>
      <trkpt lat="46.78092" lon="6.37571">
        <ele>1056.15</ele>
        <time>2015-06-28T11:05:11Z</time>
      </trkpt>
      <trkpt lat="46.78089" lon="6.3757">
        <ele>1056.15</ele>
        <time>2015-06-28T11:05:12Z</time>
      </trkpt>
      <trkpt lat="46.78086" lon="6.3757">
        <ele>1056.15</ele>
        <time>2015-06-28T11:05:13Z</time>
      </trkpt>
      <trkpt lat="46.78084" lon="6.3757">
        <ele>1056.15</ele>
        <time>2015-06-28T11:05:14Z</time>
      </trkpt>
      <trkpt lat="46.78081" lon="6.37569">
        <ele>1056.15</ele>
        <time>2015-06-28T11:05:15Z</time>
      </trkpt>
      <trkpt lat="46.78076" lon="6.3757">
        <ele>1056.15</ele>
        <time>2015-06-28T11:05:17Z</time>
      </trkpt>
      <trkpt lat="46.78073" lon="6.3757">
        <ele>1056.15</ele>
        <time>2015-06-28T11:05:18Z</time>
      </trkpt>
      <trkpt lat="46.78056" lon="6.37573">
        <ele>1054.22</ele>
        <time>2015-06-28T11:05:24Z</time>
      </trkpt>
      <trkpt lat="46.78054" lon="6.37575">
        <ele>1054.7</ele>
        <time>2015-06-28T11:05:25Z</time>
      </trkpt>
      <trkpt lat="46.78051" lon="6.37576">
        <ele>1054.7</ele>
        <time>2015-06-28T11:05:26Z</time>
      </trkpt>
      <trkpt lat="46.78046" lon="6.37582">
        <ele>1054.22</ele>
        <time>2015-06-28T11:05:28Z</time>
      </trkpt>
      <trkpt lat="46.78043" lon="6.37584">
        <ele>1054.7</ele>
        <time>2015-06-28T11:05:29Z</time>
      </trkpt>
      <trkpt lat="46.78014" lon="6.37608">
        <ele>1055.67</ele>
        <time>2015-06-28T11:05:43Z</time>
      </trkpt>
      <trkpt lat="46.78009" lon="6.37611">
        <ele>1055.18</ele>
        <time>2015-06-28T11:05:58Z</time>
      </trkpt>
      <trkpt lat="46.78009" lon="6.37611">
        <ele>1054.7</ele>
        <time>2015-06-28T11:06:29Z</time>
      </trkpt>
      <trkpt lat="46.78009" lon="6.37611">
        <ele>1055.18</ele>
        <time>2015-06-28T11:06:59Z</time>
      </trkpt>
      <trkpt lat="46.78009" lon="6.37613">
        <ele>1055.67</ele>
        <time>2015-06-28T11:07:31Z</time>
      </trkpt>
      <trkpt lat="46.78008" lon="6.37614">
        <ele>1055.67</ele>
        <time>2015-06-28T11:08:08Z</time>
      </trkpt>
      <trkpt lat="46.78008" lon="6.37613">
        <ele>1055.67</ele>
        <time>2015-06-28T11:08:22Z</time>
      </trkpt>
      <trkpt lat="46.78007" lon="6.37613">
        <ele>1055.67</ele>
        <time>2015-06-28T11:08:23Z</time>
      </trkpt>
      <trkpt lat="46.78006" lon="6.37612">
        <ele>1055.67</ele>
        <time>2015-06-28T11:08:24Z</time>
      </trkpt>
      <trkpt lat="46.78004" lon="6.37611">
        <ele>1055.67</ele>
        <time>2015-06-28T11:08:25Z</time>
      </trkpt>
      <trkpt lat="46.78002" lon="6.37609">
        <ele>1055.18</ele>
        <time>2015-06-28T11:08:26Z</time>
      </trkpt>
      <trkpt lat="46.77994" lon="6.37606">
        <ele>1054.7</ele>
        <time>2015-06-28T11:08:28Z</time>
      </trkpt>
      <trkpt lat="46.77989" lon="6.37605">
        <ele>1053.74</ele>
        <time>2015-06-28T11:08:29Z</time>
      </trkpt>
      <trkpt lat="46.77982" lon="6.37605">
        <ele>1053.74</ele>
        <time>2015-06-28T11:08:30Z</time>
      </trkpt>
      <trkpt lat="46.77962" lon="6.37606">
        <ele>1051.82</ele>
        <time>2015-06-28T11:08:33Z</time>
      </trkpt>
      <trkpt lat="46.77955" lon="6.37604">
        <ele>1052.3</ele>
        <time>2015-06-28T11:08:34Z</time>
      </trkpt>
      <trkpt lat="46.77912" lon="6.37592">
        <ele>1051.34</ele>
        <time>2015-06-28T11:08:41Z</time>
      </trkpt>
      <trkpt lat="46.77907" lon="6.37593">
        <ele>1051.82</ele>
        <time>2015-06-28T11:08:42Z</time>
      </trkpt>
      <trkpt lat="46.77901" lon="6.37595">
        <ele>1050.86</ele>
        <time>2015-06-28T11:08:43Z</time>
      </trkpt>
      <trkpt lat="46.77895" lon="6.37598">
        <ele>1050.86</ele>
        <time>2015-06-28T11:08:44Z</time>
      </trkpt>
      <trkpt lat="46.77889" lon="6.37602">
        <ele>1050.38</ele>
        <time>2015-06-28T11:08:45Z</time>
      </trkpt>
      <trkpt lat="46.77854" lon="6.37627">
        <ele>1047.97</ele>
        <time>2015-06-28T11:08:50Z</time>
      </trkpt>
      <trkpt lat="46.77824" lon="6.37649">
        <ele>1044.61</ele>
        <time>2015-06-28T11:08:55Z</time>
      </trkpt>
      <trkpt lat="46.77821" lon="6.37651">
        <ele>1044.13</ele>
        <time>2015-06-28T11:08:56Z</time>
      </trkpt>
      <trkpt lat="46.77802" lon="6.3767">
        <ele>1042.69</ele>
        <time>2015-06-28T11:09:00Z</time>
      </trkpt>
      <trkpt lat="46.77784" lon="6.37689">
        <ele>1040.76</ele>
        <time>2015-06-28T11:09:03Z</time>
      </trkpt>
      <trkpt lat="46.77776" lon="6.37694">
        <ele>1040.76</ele>
        <time>2015-06-28T11:09:04Z</time>
      </trkpt>
      <trkpt lat="46.77768" lon="6.37698">
        <ele>1039.8</ele>
        <time>2015-06-28T11:09:05Z</time>
      </trkpt>
      <trkpt lat="46.77723" lon="6.37724">
        <ele>1036.44</ele>
        <time>2015-06-28T11:09:10Z</time>
      </trkpt>
      <trkpt lat="46.77693" lon="6.37743">
        <ele>1033.07</ele>
        <time>2015-06-28T11:09:13Z</time>
      </trkpt>
      <trkpt lat="46.77659" lon="6.3776">
        <ele>1029.71</ele>
        <time>2015-06-28T11:09:16Z</time>
      </trkpt>
      <trkpt lat="46.77622" lon="6.37783">
        <ele>1026.34</ele>
        <time>2015-06-28T11:09:19Z</time>
      </trkpt>
      <trkpt lat="46.77611" lon="6.3779">
        <ele>1025.38</ele>
        <time>2015-06-28T11:09:20Z</time>
      </trkpt>
      <trkpt lat="46.77599" lon="6.37796">
        <ele>1024.42</ele>
        <time>2015-06-28T11:09:21Z</time>
      </trkpt>
      <trkpt lat="46.77576" lon="6.37805">
        <ele>1021.06</ele>
        <time>2015-06-28T11:09:23Z</time>
      </trkpt>
      <trkpt lat="46.77547" lon="6.37816">
        <ele>1017.69</ele>
        <time>2015-06-28T11:09:26Z</time>
      </trkpt>
      <trkpt lat="46.77521" lon="6.37827">
        <ele>1014.33</ele>
        <time>2015-06-28T11:09:29Z</time>
      </trkpt>
      <trkpt lat="46.77513" lon="6.3783">
        <ele>1012.89</ele>
        <time>2015-06-28T11:09:30Z</time>
      </trkpt>
      <trkpt lat="46.77507" lon="6.3783">
        <ele>1012.89</ele>
        <time>2015-06-28T11:09:31Z</time>
      </trkpt>
      <trkpt lat="46.77502" lon="6.37828">
        <ele>1011.93</ele>
        <time>2015-06-28T11:09:32Z</time>
      </trkpt>
      <trkpt lat="46.77497" lon="6.37823">
        <ele>1010.96</ele>
        <time>2015-06-28T11:09:33Z</time>
      </trkpt>
      <trkpt lat="46.77493" lon="6.37816">
        <ele>1010.48</ele>
        <time>2015-06-28T11:09:34Z</time>
      </trkpt>
      <trkpt lat="46.7749" lon="6.37808">
        <ele>1010</ele>
        <time>2015-06-28T11:09:35Z</time>
      </trkpt>
      <trkpt lat="46.77486" lon="6.378">
        <ele>1009.52</ele>
        <time>2015-06-28T11:09:36Z</time>
      </trkpt>
      <trkpt lat="46.77476" lon="6.37772">
        <ele>1007.12</ele>
        <time>2015-06-28T11:09:39Z</time>
      </trkpt>
      <trkpt lat="46.77467" lon="6.37737">
        <ele>1003.75</ele>
        <time>2015-06-28T11:09:44Z</time>
      </trkpt>
      <trkpt lat="46.77464" lon="6.37721">
        <ele>1001.83</ele>
        <time>2015-06-28T11:09:54Z</time>
      </trkpt>
      <trkpt lat="46.77464" lon="6.37719">
        <ele>994.14</ele>
        <time>2015-06-28T11:10:09Z</time>
      </trkpt>
      <trkpt lat="46.77464" lon="6.37719">
        <ele>1004.23</ele>
        <time>2015-06-28T11:10:10Z</time>
      </trkpt>
      <trkpt lat="46.77464" lon="6.37718">
        <ele>994.14</ele>
        <time>2015-06-28T11:10:11Z</time>
      </trkpt>
      <trkpt lat="46.77464" lon="6.37718">
        <ele>1003.75</ele>
        <time>2015-06-28T11:10:12Z</time>
      </trkpt>
      <trkpt lat="46.77464" lon="6.37718">
        <ele>993.18</ele>
        <time>2015-06-28T11:10:13Z</time>
      </trkpt>
      <trkpt lat="46.77464" lon="6.37718">
        <ele>1001.35</ele>
        <time>2015-06-28T11:10:15Z</time>
      </trkpt>
      <trkpt lat="46.77464" lon="6.37718">
        <ele>1006.64</ele>
        <time>2015-06-28T11:10:16Z</time>
      </trkpt>
      <trkpt lat="46.77464" lon="6.37718">
        <ele>997.02</ele>
        <time>2015-06-28T11:10:17Z</time>
      </trkpt>
      <trkpt lat="46.77464" lon="6.37718">
        <ele>1002.31</ele>
        <time>2015-06-28T11:10:18Z</time>
      </trkpt>
      <trkpt lat="46.77464" lon="6.37718">
        <ele>1008.08</ele>
        <time>2015-06-28T11:10:23Z</time>
      </trkpt>
      <trkpt lat="46.77464" lon="6.37718">
        <ele>1002.31</ele>
        <time>2015-06-28T11:10:24Z</time>
      </trkpt>
      <trkpt lat="46.77464" lon="6.37718">
        <ele>1007.12</ele>
        <time>2015-06-28T11:10:25Z</time>
      </trkpt>
      <trkpt lat="46.77464" lon="6.37718">
        <ele>992.7</ele>
        <time>2015-06-28T11:10:26Z</time>
      </trkpt>
      <trkpt lat="46.77464" lon="6.37718">
        <ele>1003.75</ele>
        <time>2015-06-28T11:10:27Z</time>
      </trkpt>
      <trkpt lat="46.77464" lon="6.37718">
        <ele>1008.56</ele>
        <time>2015-06-28T11:10:28Z</time>
      </trkpt>
      <trkpt lat="46.77464" lon="6.37718">
        <ele>998.95</ele>
        <time>2015-06-28T11:10:29Z</time>
      </trkpt>
      <trkpt lat="46.77464" lon="6.37718">
        <ele>1002.79</ele>
        <time>2015-06-28T11:10:30Z</time>
      </trkpt>
      <trkpt lat="46.77464" lon="6.37718">
        <ele>1002.31</ele>
        <time>2015-06-28T11:10:33Z</time>
      </trkpt>
      <trkpt lat="46.77462" lon="6.37693">
        <ele>1002.79</ele>
        <time>2015-06-28T11:10:42Z</time>
      </trkpt>
      <trkpt lat="46.7746" lon="6.37692">
        <ele>1003.27</ele>
        <time>2015-06-28T11:10:43Z</time>
      </trkpt>
      <trkpt lat="46.77458" lon="6.37691">
        <ele>1002.79</ele>
        <time>2015-06-28T11:10:44Z</time>
      </trkpt>
      <trkpt lat="46.77455" lon="6.37691">
        <ele>1002.79</ele>
        <time>2015-06-28T11:10:45Z</time>
      </trkpt>
      <trkpt lat="46.77453" lon="6.37692">
        <ele>1003.27</ele>
        <time>2015-06-28T11:10:46Z</time>
      </trkpt>
      <trkpt lat="46.77451" lon="6.37693">
        <ele>1002.79</ele>
        <time>2015-06-28T11:10:47Z</time>
      </trkpt>
      <trkpt lat="46.77448" lon="6.37694">
        <ele>1002.79</ele>
        <time>2015-06-28T11:10:49Z</time>
      </trkpt>
      <trkpt lat="46.77437" lon="6.37695">
        <ele>1003.27</ele>
        <time>2015-06-28T11:10:56Z</time>
      </trkpt>
      <trkpt lat="46.77436" lon="6.37696">
        <ele>1003.27</ele>
        <time>2015-06-28T11:10:57Z</time>
      </trkpt>
      <trkpt lat="46.77434" lon="6.37697">
        <ele>1003.27</ele>
        <time>2015-06-28T11:10:59Z</time>
      </trkpt>
      <trkpt lat="46.77433" lon="6.37698">
        <ele>1003.27</ele>
        <time>2015-06-28T11:11:00Z</time>
      </trkpt>
      <trkpt lat="46.77432" lon="6.37697">
        <ele>1003.27</ele>
        <time>2015-06-28T11:11:01Z</time>
      </trkpt>
      <trkpt lat="46.7743" lon="6.37696">
        <ele>1003.27</ele>
        <time>2015-06-28T11:11:02Z</time>
      </trkpt>
      <trkpt lat="46.77429" lon="6.37695">
        <ele>1003.27</ele>
        <time>2015-06-28T11:11:03Z</time>
      </trkpt>
      <trkpt lat="46.77428" lon="6.37694">
        <ele>1003.27</ele>
        <time>2015-06-28T11:11:04Z</time>
      </trkpt>
      <trkpt lat="46.77427" lon="6.37693">
        <ele>1003.75</ele>
        <time>2015-06-28T11:11:05Z</time>
      </trkpt>
      <trkpt lat="46.77425" lon="6.37692">
        <ele>1003.27</ele>
        <time>2015-06-28T11:11:06Z</time>
      </trkpt>
      <trkpt lat="46.77415" lon="6.3768">
        <ele>1004.23</ele>
        <time>2015-06-28T11:11:13Z</time>
      </trkpt>
      <trkpt lat="46.77415" lon="6.37677">
        <ele>1004.72</ele>
        <time>2015-06-28T11:11:14Z</time>
      </trkpt>
      <trkpt lat="46.77415" lon="6.37674">
        <ele>1005.2</ele>
        <time>2015-06-28T11:11:15Z</time>
      </trkpt>
      <trkpt lat="46.77416" lon="6.37673">
        <ele>1005.2</ele>
        <time>2015-06-28T11:11:16Z</time>
      </trkpt>
      <trkpt lat="46.77417" lon="6.37671">
        <ele>1005.68</ele>
        <time>2015-06-28T11:11:17Z</time>
      </trkpt>
      <trkpt lat="46.77418" lon="6.3767">
        <ele>1005.68</ele>
        <time>2015-06-28T11:11:18Z</time>
      </trkpt>
      <trkpt lat="46.77419" lon="6.37668">
        <ele>1005.2</ele>
        <time>2015-06-28T11:11:19Z</time>
      </trkpt>
      <trkpt lat="46.77427" lon="6.37658">
        <ele>1006.16</ele>
        <time>2015-06-28T11:11:27Z</time>
      </trkpt>
      <trkpt lat="46.77428" lon="6.37658">
        <ele>1006.16</ele>
        <time>2015-06-28T11:11:28Z</time>
      </trkpt>
      <trkpt lat="46.77429" lon="6.37657">
        <ele>1006.16</ele>
        <time>2015-06-28T11:11:29Z</time>
      </trkpt>
      <trkpt lat="46.77431" lon="6.37656">
        <ele>1006.16</ele>
        <time>2015-06-28T11:11:30Z</time>
      </trkpt>
      <trkpt lat="46.77432" lon="6.37655">
        <ele>1006.16</ele>
        <time>2015-06-28T11:11:31Z</time>
      </trkpt>
      <trkpt lat="46.77432" lon="6.37653">
        <ele>1006.16</ele>
        <time>2015-06-28T11:11:32Z</time>
      </trkpt>
      <trkpt lat="46.77435" lon="6.37647">
        <ele>1006.16</ele>
        <time>2015-06-28T11:11:36Z</time>
      </trkpt>
      <trkpt lat="46.77437" lon="6.37646">
        <ele>1006.64</ele>
        <time>2015-06-28T11:11:37Z</time>
      </trkpt>
      <trkpt lat="46.77438" lon="6.37646">
        <ele>1006.64</ele>
        <time>2015-06-28T11:11:38Z</time>
      </trkpt>
      <trkpt lat="46.77439" lon="6.37645">
        <ele>1007.12</ele>
        <time>2015-06-28T11:11:39Z</time>
      </trkpt>
      <trkpt lat="46.7744" lon="6.37646">
        <ele>1007.12</ele>
        <time>2015-06-28T11:11:40Z</time>
      </trkpt>
      <trkpt lat="46.77442" lon="6.37645">
        <ele>1006.64</ele>
        <time>2015-06-28T11:11:41Z</time>
      </trkpt>
      <trkpt lat="46.77443" lon="6.37644">
        <ele>1006.64</ele>
        <time>2015-06-28T11:11:42Z</time>
      </trkpt>
      <trkpt lat="46.77448" lon="6.3764">
        <ele>1007.12</ele>
        <time>2015-06-28T11:11:47Z</time>
      </trkpt>
      <trkpt lat="46.77449" lon="6.37638">
        <ele>1007.6</ele>
        <time>2015-06-28T11:11:48Z</time>
      </trkpt>
      <trkpt lat="46.7745" lon="6.37637">
        <ele>1007.6</ele>
        <time>2015-06-28T11:11:49Z</time>
      </trkpt>
      <trkpt lat="46.77451" lon="6.37636">
        <ele>1008.08</ele>
        <time>2015-06-28T11:11:50Z</time>
      </trkpt>
      <trkpt lat="46.77452" lon="6.37634">
        <ele>1008.08</ele>
        <time>2015-06-28T11:11:51Z</time>
      </trkpt>
      <trkpt lat="46.77453" lon="6.37633">
        <ele>1007.6</ele>
        <time>2015-06-28T11:11:52Z</time>
      </trkpt>
      <trkpt lat="46.7746" lon="6.37625">
        <ele>1008.56</ele>
        <time>2015-06-28T11:12:00Z</time>
      </trkpt>
      <trkpt lat="46.77468" lon="6.37615">
        <ele>1009.04</ele>
        <time>2015-06-28T11:12:08Z</time>
      </trkpt>
      <trkpt lat="46.77469" lon="6.37613">
        <ele>1009.04</ele>
        <time>2015-06-28T11:12:09Z</time>
      </trkpt>
      <trkpt lat="46.7747" lon="6.37612">
        <ele>1009.52</ele>
        <time>2015-06-28T11:12:10Z</time>
      </trkpt>
      <trkpt lat="46.77472" lon="6.37609">
        <ele>1009.52</ele>
        <time>2015-06-28T11:12:12Z</time>
      </trkpt>
      <trkpt lat="46.77473" lon="6.37609">
        <ele>1010</ele>
        <time>2015-06-28T11:12:13Z</time>
      </trkpt>
      <trkpt lat="46.77474" lon="6.37608">
        <ele>1009.52</ele>
        <time>2015-06-28T11:12:14Z</time>
      </trkpt>
      <trkpt lat="46.77475" lon="6.37607">
        <ele>1010</ele>
        <time>2015-06-28T11:12:15Z</time>
      </trkpt>
      <trkpt lat="46.77476" lon="6.37605">
        <ele>1010</ele>
        <time>2015-06-28T11:12:16Z</time>
      </trkpt>
      <trkpt lat="46.77478" lon="6.37602">
        <ele>1009.52</ele>
        <time>2015-06-28T11:12:18Z</time>
      </trkpt>
      <trkpt lat="46.77479" lon="6.37601">
        <ele>1010.48</ele>
        <time>2015-06-28T11:12:19Z</time>
      </trkpt>
      <trkpt lat="46.7748" lon="6.376">
        <ele>1010.48</ele>
        <time>2015-06-28T11:12:20Z</time>
      </trkpt>
      <trkpt lat="46.77487" lon="6.37585">
        <ele>1010.96</ele>
        <time>2015-06-28T11:12:30Z</time>
      </trkpt>
      <trkpt lat="46.77488" lon="6.37585">
        <ele>1010.96</ele>
        <time>2015-06-28T11:12:31Z</time>
      </trkpt>
      <trkpt lat="46.77489" lon="6.37584">
        <ele>1011.93</ele>
        <time>2015-06-28T11:12:32Z</time>
      </trkpt>
      <trkpt lat="46.7749" lon="6.37583">
        <ele>1011.44</ele>
        <time>2015-06-28T11:12:33Z</time>
      </trkpt>
      <trkpt lat="46.77491" lon="6.37581">
        <ele>1011.44</ele>
        <time>2015-06-28T11:12:34Z</time>
      </trkpt>
      <trkpt lat="46.77492" lon="6.37579">
        <ele>1011.93</ele>
        <time>2015-06-28T11:12:35Z</time>
      </trkpt>
      <trkpt lat="46.77493" lon="6.37577">
        <ele>1011.93</ele>
        <time>2015-06-28T11:12:36Z</time>
      </trkpt>
      <trkpt lat="46.77493" lon="6.37576">
        <ele>1011.93</ele>
        <time>2015-06-28T11:12:37Z</time>
      </trkpt>
      <trkpt lat="46.77494" lon="6.37574">
        <ele>1011.93</ele>
        <time>2015-06-28T11:12:38Z</time>
      </trkpt>
      <trkpt lat="46.77494" lon="6.37571">
        <ele>1011.93</ele>
        <time>2015-06-28T11:12:39Z</time>
      </trkpt>
      <trkpt lat="46.77495" lon="6.3757">
        <ele>1012.41</ele>
        <time>2015-06-28T11:12:40Z</time>
      </trkpt>
      <trkpt lat="46.77496" lon="6.37568">
        <ele>1012.89</ele>
        <time>2015-06-28T11:12:41Z</time>
      </trkpt>
      <trkpt lat="46.77497" lon="6.37566">
        <ele>1012.41</ele>
        <time>2015-06-28T11:12:42Z</time>
      </trkpt>
      <trkpt lat="46.77498" lon="6.37565">
        <ele>1012.41</ele>
        <time>2015-06-28T11:12:43Z</time>
      </trkpt>
      <trkpt lat="46.77499" lon="6.37563">
        <ele>1012.89</ele>
        <time>2015-06-28T11:12:44Z</time>
      </trkpt>
      <trkpt lat="46.77509" lon="6.37536">
        <ele>1014.33</ele>
        <time>2015-06-28T11:12:59Z</time>
      </trkpt>
      <trkpt lat="46.77521" lon="6.37509">
        <ele>1015.77</ele>
        <time>2015-06-28T11:13:13Z</time>
      </trkpt>
      <trkpt lat="46.77537" lon="6.37472">
        <ele>1018.17</ele>
        <time>2015-06-28T11:13:29Z</time>
      </trkpt>
      <trkpt lat="46.7753" lon="6.37434">
        <ele>1020.1</ele>
        <time>2015-06-28T11:13:43Z</time>
      </trkpt>
      <trkpt lat="46.77494" lon="6.3741">
        <ele>1021.06</ele>
        <time>2015-06-28T11:13:58Z</time>
      </trkpt>
      <trkpt lat="46.77438" lon="6.37393">
        <ele>1021.54</ele>
        <time>2015-06-28T11:14:15Z</time>
      </trkpt>
      <trkpt lat="46.77385" lon="6.37355">
        <ele>1022.5</ele>
        <time>2015-06-28T11:14:32Z</time>
      </trkpt>
      <trkpt lat="46.77332" lon="6.37315">
        <ele>1023.94</ele>
        <time>2015-06-28T11:14:48Z</time>
      </trkpt>
      <trkpt lat="46.77295" lon="6.37291">
        <ele>1024.42</ele>
        <time>2015-06-28T11:15:03Z</time>
      </trkpt>
      <trkpt lat="46.77253" lon="6.37278">
        <ele>1023.94</ele>
        <time>2015-06-28T11:15:15Z</time>
      </trkpt>
      <trkpt lat="46.77237" lon="6.37263">
        <ele>1023.94</ele>
        <time>2015-06-28T11:15:25Z</time>
      </trkpt>
      <trkpt lat="46.77237" lon="6.3726">
        <ele>1023.46</ele>
        <time>2015-06-28T11:15:26Z</time>
      </trkpt>
      <trkpt lat="46.77237" lon="6.37258">
        <ele>1023.46</ele>
        <time>2015-06-28T11:15:27Z</time>
      </trkpt>
      <trkpt lat="46.77242" lon="6.37208">
        <ele>1023.94</ele>
        <time>2015-06-28T11:15:39Z</time>
      </trkpt>
      <trkpt lat="46.77252" lon="6.37153">
        <ele>1024.9</ele>
        <time>2015-06-28T11:15:52Z</time>
      </trkpt>
      <trkpt lat="46.77259" lon="6.37111">
        <ele>1023.46</ele>
        <time>2015-06-28T11:15:59Z</time>
      </trkpt>
      <trkpt lat="46.77258" lon="6.37091">
        <ele>1022.98</ele>
        <time>2015-06-28T11:16:02Z</time>
      </trkpt>
      <trkpt lat="46.77258" lon="6.37084">
        <ele>1023.46</ele>
        <time>2015-06-28T11:16:03Z</time>
      </trkpt>
      <trkpt lat="46.77246" lon="6.37041">
        <ele>1025.38</ele>
        <time>2015-06-28T11:16:13Z</time>
      </trkpt>
      <trkpt lat="46.7724" lon="6.37029">
        <ele>1024.42</ele>
        <time>2015-06-28T11:16:26Z</time>
      </trkpt>
      <trkpt lat="46.77241" lon="6.3703">
        <ele>1025.38</ele>
        <time>2015-06-28T11:16:28Z</time>
      </trkpt>
      <trkpt lat="46.77246" lon="6.37028">
        <ele>1024.9</ele>
        <time>2015-06-28T11:16:39Z</time>
      </trkpt>
      <trkpt lat="46.77241" lon="6.3703">
        <ele>1024.9</ele>
        <time>2015-06-28T11:16:50Z</time>
      </trkpt>
      <trkpt lat="46.77241" lon="6.37031">
        <ele>1022.5</ele>
        <time>2015-06-28T11:17:21Z</time>
      </trkpt>
      <trkpt lat="46.77241" lon="6.37031">
        <ele>1026.34</ele>
        <time>2015-06-28T11:17:22Z</time>
      </trkpt>
      <trkpt lat="46.7724" lon="6.37031">
        <ele>1022.98</ele>
        <time>2015-06-28T11:17:25Z</time>
      </trkpt>
      <trkpt lat="46.7724" lon="6.37031">
        <ele>1031.63</ele>
        <time>2015-06-28T11:17:27Z</time>
      </trkpt>
      <trkpt lat="46.7724" lon="6.37031">
        <ele>1026.83</ele>
        <time>2015-06-28T11:17:28Z</time>
      </trkpt>
      <trkpt lat="46.7724" lon="6.37031">
        <ele>1033.55</ele>
        <time>2015-06-28T11:17:30Z</time>
      </trkpt>
      <trkpt lat="46.7724" lon="6.37031">
        <ele>1024.9</ele>
        <time>2015-06-28T11:17:31Z</time>
      </trkpt>
      <trkpt lat="46.7724" lon="6.37031">
        <ele>1031.63</ele>
        <time>2015-06-28T11:17:33Z</time>
      </trkpt>
      <trkpt lat="46.7724" lon="6.37031">
        <ele>1026.34</ele>
        <time>2015-06-28T11:17:34Z</time>
      </trkpt>
      <trkpt lat="46.7724" lon="6.37031">
        <ele>1024.9</ele>
        <time>2015-06-28T11:17:36Z</time>
      </trkpt>
      <trkpt lat="46.7724" lon="6.37031">
        <ele>1029.23</ele>
        <time>2015-06-28T11:17:41Z</time>
      </trkpt>
      <trkpt lat="46.7724" lon="6.37031">
        <ele>1024.42</ele>
        <time>2015-06-28T11:17:42Z</time>
      </trkpt>
      <trkpt lat="46.7724" lon="6.37031">
        <ele>1030.67</ele>
        <time>2015-06-28T11:17:43Z</time>
      </trkpt>
      <trkpt lat="46.7724" lon="6.37031">
        <ele>1017.69</ele>
        <time>2015-06-28T11:17:44Z</time>
      </trkpt>
      <trkpt lat="46.7724" lon="6.37031">
        <ele>1025.86</ele>
        <time>2015-06-28T11:17:45Z</time>
      </trkpt>
      <trkpt lat="46.7724" lon="6.37031">
        <ele>1014.81</ele>
        <time>2015-06-28T11:17:47Z</time>
      </trkpt>
      <trkpt lat="46.7724" lon="6.37031">
        <ele>1026.83</ele>
        <time>2015-06-28T11:17:48Z</time>
      </trkpt>
      <trkpt lat="46.7724" lon="6.3703">
        <ele>1030.67</ele>
        <time>2015-06-28T11:17:51Z</time>
      </trkpt>
      <trkpt lat="46.7724" lon="6.3703">
        <ele>1025.86</ele>
        <time>2015-06-28T11:17:52Z</time>
      </trkpt>
      <trkpt lat="46.7724" lon="6.3703">
        <ele>1029.71</ele>
        <time>2015-06-28T11:17:53Z</time>
      </trkpt>
      <trkpt lat="46.7724" lon="6.3703">
        <ele>1024.9</ele>
        <time>2015-06-28T11:17:54Z</time>
      </trkpt>
      <trkpt lat="46.7724" lon="6.3703">
        <ele>1022.98</ele>
        <time>2015-06-28T11:17:56Z</time>
      </trkpt>
      <trkpt lat="46.7724" lon="6.3703">
        <ele>1026.83</ele>
        <time>2015-06-28T11:18:03Z</time>
      </trkpt>
      <trkpt lat="46.7724" lon="6.3703">
        <ele>1033.55</ele>
        <time>2015-06-28T11:18:05Z</time>
      </trkpt>
      <trkpt lat="46.7724" lon="6.3703">
        <ele>1025.86</ele>
        <time>2015-06-28T11:18:06Z</time>
      </trkpt>
      <trkpt lat="46.7724" lon="6.3703">
        <ele>1031.15</ele>
        <time>2015-06-28T11:18:07Z</time>
      </trkpt>
      <trkpt lat="46.7724" lon="6.3703">
        <ele>1025.86</ele>
        <time>2015-06-28T11:18:08Z</time>
      </trkpt>
      <trkpt lat="46.7724" lon="6.3703">
        <ele>1025.38</ele>
        <time>2015-06-28T11:18:10Z</time>
      </trkpt>
      <trkpt lat="46.7724" lon="6.3703">
        <ele>1030.67</ele>
        <time>2015-06-28T11:18:13Z</time>
      </trkpt>
      <trkpt lat="46.7724" lon="6.3703">
        <ele>1027.31</ele>
        <time>2015-06-28T11:18:14Z</time>
      </trkpt>
      <trkpt lat="46.7724" lon="6.3703">
        <ele>1020.58</ele>
        <time>2015-06-28T11:18:15Z</time>
      </trkpt>
      <trkpt lat="46.7724" lon="6.3703">
        <ele>1026.34</ele>
        <time>2015-06-28T11:18:16Z</time>
      </trkpt>
      <trkpt lat="46.7724" lon="6.3703">
        <ele>1022.02</ele>
        <time>2015-06-28T11:18:24Z</time>
      </trkpt>
      <trkpt lat="46.7724" lon="6.3703">
        <ele>1033.55</ele>
        <time>2015-06-28T11:18:25Z</time>
      </trkpt>
      <trkpt lat="46.7724" lon="6.3703">
        <ele>1025.38</ele>
        <time>2015-06-28T11:18:26Z</time>
      </trkpt>
      <trkpt lat="46.7724" lon="6.3703">
        <ele>1019.13</ele>
        <time>2015-06-28T11:18:31Z</time>
      </trkpt>
      <trkpt lat="46.7724" lon="6.3703">
        <ele>1026.83</ele>
        <time>2015-06-28T11:18:32Z</time>
      </trkpt>
      <trkpt lat="46.7724" lon="6.3703">
        <ele>1033.07</ele>
        <time>2015-06-28T11:18:34Z</time>
      </trkpt>
      <trkpt lat="46.7724" lon="6.3703">
        <ele>1020.1</ele>
        <time>2015-06-28T11:18:35Z</time>
      </trkpt>
      <trkpt lat="46.7724" lon="6.3703">
        <ele>1026.34</ele>
        <time>2015-06-28T11:18:36Z</time>
      </trkpt>
      <trkpt lat="46.7724" lon="6.3703">
        <ele>1025.38</ele>
        <time>2015-06-28T11:18:48Z</time>
      </trkpt>
      <trkpt lat="46.77239" lon="6.37034">
        <ele>1024.9</ele>
        <time>2015-06-28T11:18:59Z</time>
      </trkpt>
      <trkpt lat="46.77239" lon="6.37035">
        <ele>1024.9</ele>
        <time>2015-06-28T11:19:27Z</time>
      </trkpt>
      <trkpt lat="46.77239" lon="6.37033">
        <ele>1025.38</ele>
        <time>2015-06-28T11:19:57Z</time>
      </trkpt>
      <trkpt lat="46.77238" lon="6.37032">
        <ele>1024.9</ele>
        <time>2015-06-28T11:20:32Z</time>
      </trkpt>
      <trkpt lat="46.77238" lon="6.37032">
        <ele>1025.38</ele>
        <time>2015-06-28T11:21:08Z</time>
      </trkpt>
      <trkpt lat="46.77238" lon="6.37034">
        <ele>1025.86</ele>
        <time>2015-06-28T11:21:41Z</time>
      </trkpt>
      <trkpt lat="46.77237" lon="6.37036">
        <ele>1025.86</ele>
        <time>2015-06-28T11:22:19Z</time>
      </trkpt>
      <trkpt lat="46.77238" lon="6.37037">
        <ele>1025.38</ele>
        <time>2015-06-28T11:22:54Z</time>
      </trkpt>
      <trkpt lat="46.77238" lon="6.37038">
        <ele>1025.38</ele>
        <time>2015-06-28T11:23:25Z</time>
      </trkpt>
      <trkpt lat="46.77237" lon="6.37037">
        <ele>1025.86</ele>
        <time>2015-06-28T11:23:57Z</time>
      </trkpt>
      <trkpt lat="46.77238" lon="6.37036">
        <ele>1025.86</ele>
        <time>2015-06-28T11:24:31Z</time>
      </trkpt>
      <trkpt lat="46.77237" lon="6.37037">
        <ele>1025.86</ele>
        <time>2015-06-28T11:25:10Z</time>
      </trkpt>
      <trkpt lat="46.77237" lon="6.37037">
        <ele>1025.86</ele>
        <time>2015-06-28T11:25:45Z</time>
      </trkpt>
      <trkpt lat="46.77238" lon="6.37037">
        <ele>1026.34</ele>
        <time>2015-06-28T11:26:21Z</time>
      </trkpt>
      <trkpt lat="46.77237" lon="6.37037">
        <ele>1026.34</ele>
        <time>2015-06-28T11:26:54Z</time>
      </trkpt>
      <trkpt lat="46.77237" lon="6.37036">
        <ele>1026.83</ele>
        <time>2015-06-28T11:27:32Z</time>
      </trkpt>
      <trkpt lat="46.77238" lon="6.37037">
        <ele>1026.83</ele>
        <time>2015-06-28T11:28:07Z</time>
      </trkpt>
      <trkpt lat="46.77238" lon="6.37038">
        <ele>1026.83</ele>
        <time>2015-06-28T11:28:44Z</time>
      </trkpt>
      <trkpt lat="46.7724" lon="6.37038">
        <ele>1026.83</ele>
        <time>2015-06-28T11:29:17Z</time>
      </trkpt>
      <trkpt lat="46.7724" lon="6.37038">
        <ele>1027.31</ele>
        <time>2015-06-28T11:29:49Z</time>
      </trkpt>
      <trkpt lat="46.77238" lon="6.37039">
        <ele>1028.27</ele>
        <time>2015-06-28T11:30:22Z</time>
      </trkpt>
      <trkpt lat="46.77238" lon="6.3704">
        <ele>1027.79</ele>
        <time>2015-06-28T11:30:51Z</time>
      </trkpt>
      <trkpt lat="46.77237" lon="6.37041">
        <ele>1027.79</ele>
        <time>2015-06-28T11:31:25Z</time>
      </trkpt>
      <trkpt lat="46.77238" lon="6.3704">
        <ele>1028.27</ele>
        <time>2015-06-28T11:31:58Z</time>
      </trkpt>
      <trkpt lat="46.77237" lon="6.3704">
        <ele>1028.27</ele>
        <time>2015-06-28T11:32:35Z</time>
      </trkpt>
      <trkpt lat="46.77237" lon="6.37039">
        <ele>1028.75</ele>
        <time>2015-06-28T11:33:09Z</time>
      </trkpt>
      <trkpt lat="46.77237" lon="6.37039">
        <ele>1029.23</ele>
        <time>2015-06-28T11:33:41Z</time>
      </trkpt>
      <trkpt lat="46.77237" lon="6.37039">
        <ele>1028.27</ele>
        <time>2015-06-28T11:34:16Z</time>
      </trkpt>
      <trkpt lat="46.77238" lon="6.37039">
        <ele>1028.75</ele>
        <time>2015-06-28T11:34:51Z</time>
      </trkpt>
      <trkpt lat="46.77237" lon="6.37038">
        <ele>1028.75</ele>
        <time>2015-06-28T11:35:26Z</time>
      </trkpt>
      <trkpt lat="46.77238" lon="6.37036">
        <ele>1029.23</ele>
        <time>2015-06-28T11:36:01Z</time>
      </trkpt>
      <trkpt lat="46.77238" lon="6.37036">
        <ele>1028.75</ele>
        <time>2015-06-28T11:36:33Z</time>
      </trkpt>
      <trkpt lat="46.7724" lon="6.37036">
        <ele>1029.71</ele>
        <time>2015-06-28T11:37:04Z</time>
      </trkpt>
      <trkpt lat="46.77241" lon="6.37035">
        <ele>1029.23</ele>
        <time>2015-06-28T11:37:39Z</time>
      </trkpt>
      <trkpt lat="46.77241" lon="6.37035">
        <ele>1029.71</ele>
        <time>2015-06-28T11:38:10Z</time>
      </trkpt>
      <trkpt lat="46.77241" lon="6.37035">
        <ele>1029.71</ele>
        <time>2015-06-28T11:38:41Z</time>
      </trkpt>
      <trkpt lat="46.7724" lon="6.37034">
        <ele>1029.71</ele>
        <time>2015-06-28T11:39:15Z</time>
      </trkpt>
      <trkpt lat="46.77239" lon="6.37036">
        <ele>1029.71</ele>
        <time>2015-06-28T11:39:47Z</time>
      </trkpt>
      <trkpt lat="46.77239" lon="6.37038">
        <ele>1029.71</ele>
        <time>2015-06-28T11:40:21Z</time>
      </trkpt>
      <trkpt lat="46.77238" lon="6.37037">
        <ele>1029.71</ele>
        <time>2015-06-28T11:40:55Z</time>
      </trkpt>
      <trkpt lat="46.77238" lon="6.37036">
        <ele>1029.71</ele>
        <time>2015-06-28T11:41:28Z</time>
      </trkpt>
      <trkpt lat="46.77237" lon="6.37036">
        <ele>1029.71</ele>
        <time>2015-06-28T11:41:59Z</time>
      </trkpt>
      <trkpt lat="46.77238" lon="6.37038">
        <ele>1029.71</ele>
        <time>2015-06-28T11:42:34Z</time>
      </trkpt>
      <trkpt lat="46.77237" lon="6.37038">
        <ele>1029.23</ele>
        <time>2015-06-28T11:43:10Z</time>
      </trkpt>
      <trkpt lat="46.77237" lon="6.37039">
        <ele>1029.71</ele>
        <time>2015-06-28T11:43:42Z</time>
      </trkpt>
      <trkpt lat="46.77237" lon="6.37038">
        <ele>1029.71</ele>
        <time>2015-06-28T11:44:09Z</time>
      </trkpt>
      <trkpt lat="46.77237" lon="6.37039">
        <ele>1030.19</ele>
        <time>2015-06-28T11:44:46Z</time>
      </trkpt>
      <trkpt lat="46.77237" lon="6.3704">
        <ele>1030.19</ele>
        <time>2015-06-28T11:45:20Z</time>
      </trkpt>
      <trkpt lat="46.77237" lon="6.37039">
        <ele>1030.19</ele>
        <time>2015-06-28T11:45:52Z</time>
      </trkpt>
      <trkpt lat="46.77236" lon="6.37036">
        <ele>1030.67</ele>
        <time>2015-06-28T11:46:25Z</time>
      </trkpt>
      <trkpt lat="46.77237" lon="6.37034">
        <ele>1030.19</ele>
        <time>2015-06-28T11:47:01Z</time>
      </trkpt>
      <trkpt lat="46.77237" lon="6.37034">
        <ele>1030.19</ele>
        <time>2015-06-28T11:47:35Z</time>
      </trkpt>
      <trkpt lat="46.77238" lon="6.37036">
        <ele>1030.67</ele>
        <time>2015-06-28T11:48:09Z</time>
      </trkpt>
      <trkpt lat="46.77238" lon="6.37038">
        <ele>1030.67</ele>
        <time>2015-06-28T11:48:41Z</time>
      </trkpt>
      <trkpt lat="46.77239" lon="6.37039">
        <ele>1030.67</ele>
        <time>2015-06-28T11:49:07Z</time>
      </trkpt>
      <trkpt lat="46.77238" lon="6.37039">
        <ele>1030.67</ele>
        <time>2015-06-28T11:49:40Z</time>
      </trkpt>
      <trkpt lat="46.77238" lon="6.3704">
        <ele>1030.67</ele>
        <time>2015-06-28T11:50:12Z</time>
      </trkpt>
      <trkpt lat="46.77238" lon="6.3704">
        <ele>1030.67</ele>
        <time>2015-06-28T11:50:44Z</time>
      </trkpt>
      <trkpt lat="46.77239" lon="6.37039">
        <ele>1030.67</ele>
        <time>2015-06-28T11:51:22Z</time>
      </trkpt>
      <trkpt lat="46.77238" lon="6.37037">
        <ele>1030.67</ele>
        <time>2015-06-28T11:51:53Z</time>
      </trkpt>
      <trkpt lat="46.77238" lon="6.37036">
        <ele>1031.15</ele>
        <time>2015-06-28T11:52:23Z</time>
      </trkpt>
      <trkpt lat="46.77238" lon="6.37036">
        <ele>1031.15</ele>
        <time>2015-06-28T11:52:56Z</time>
      </trkpt>
      <trkpt lat="46.77238" lon="6.37035">
        <ele>1030.67</ele>
        <time>2015-06-28T11:53:25Z</time>
      </trkpt>
      <trkpt lat="46.77239" lon="6.37033">
        <ele>1031.15</ele>
        <time>2015-06-28T11:53:54Z</time>
      </trkpt>
      <trkpt lat="46.77238" lon="6.37033">
        <ele>1031.15</ele>
        <time>2015-06-28T11:54:24Z</time>
      </trkpt>
      <trkpt lat="46.77238" lon="6.37034">
        <ele>1030.67</ele>
        <time>2015-06-28T11:54:55Z</time>
      </trkpt>
      <trkpt lat="46.77238" lon="6.37034">
        <ele>1030.67</ele>
        <time>2015-06-28T11:55:28Z</time>
      </trkpt>
      <trkpt lat="46.77239" lon="6.37035">
        <ele>1030.19</ele>
        <time>2015-06-28T11:55:58Z</time>
      </trkpt>
      <trkpt lat="46.77238" lon="6.37032">
        <ele>1030.19</ele>
        <time>2015-06-28T11:56:26Z</time>
      </trkpt>
      <trkpt lat="46.7724" lon="6.37032">
        <ele>1030.19</ele>
        <time>2015-06-28T11:56:58Z</time>
      </trkpt>
      <trkpt lat="46.7724" lon="6.37033">
        <ele>1030.67</ele>
        <time>2015-06-28T11:57:33Z</time>
      </trkpt>
      <trkpt lat="46.7724" lon="6.37034">
        <ele>1030.19</ele>
        <time>2015-06-28T11:58:03Z</time>
      </trkpt>
      <trkpt lat="46.77238" lon="6.37035">
        <ele>1030.19</ele>
        <time>2015-06-28T11:58:36Z</time>
      </trkpt>
      <trkpt lat="46.77238" lon="6.37034">
        <ele>1030.19</ele>
        <time>2015-06-28T11:59:12Z</time>
      </trkpt>
      <trkpt lat="46.77238" lon="6.37035">
        <ele>1030.19</ele>
        <time>2015-06-28T11:59:44Z</time>
      </trkpt>
      <trkpt lat="46.77238" lon="6.37036">
        <ele>1030.19</ele>
        <time>2015-06-28T12:00:18Z</time>
      </trkpt>
      <trkpt lat="46.77237" lon="6.37038">
        <ele>1030.19</ele>
        <time>2015-06-28T12:00:55Z</time>
      </trkpt>
      <trkpt lat="46.77237" lon="6.37037">
        <ele>1030.19</ele>
        <time>2015-06-28T12:01:25Z</time>
      </trkpt>
      <trkpt lat="46.77238" lon="6.37035">
        <ele>1030.19</ele>
        <time>2015-06-28T12:02:00Z</time>
      </trkpt>
      <trkpt lat="46.77239" lon="6.37034">
        <ele>1030.19</ele>
        <time>2015-06-28T12:02:32Z</time>
      </trkpt>
      <trkpt lat="46.77238" lon="6.37033">
        <ele>1030.19</ele>
        <time>2015-06-28T12:03:05Z</time>
      </trkpt>
      <trkpt lat="46.77239" lon="6.37033">
        <ele>1030.67</ele>
        <time>2015-06-28T12:03:39Z</time>
      </trkpt>
      <trkpt lat="46.77239" lon="6.37033">
        <ele>1030.67</ele>
        <time>2015-06-28T12:04:13Z</time>
      </trkpt>
      <trkpt lat="46.7724" lon="6.37033">
        <ele>1030.67</ele>
        <time>2015-06-28T12:04:47Z</time>
      </trkpt>
      <trkpt lat="46.7724" lon="6.37032">
        <ele>1030.19</ele>
        <time>2015-06-28T12:05:18Z</time>
      </trkpt>
      <trkpt lat="46.7724" lon="6.37033">
        <ele>1030.67</ele>
        <time>2015-06-28T12:05:55Z</time>
      </trkpt>
      <trkpt lat="46.7724" lon="6.37034">
        <ele>1030.19</ele>
        <time>2015-06-28T12:06:30Z</time>
      </trkpt>
      <trkpt lat="46.7724" lon="6.37036">
        <ele>1030.19</ele>
        <time>2015-06-28T12:07:05Z</time>
      </trkpt>
      <trkpt lat="46.7724" lon="6.37036">
        <ele>1030.19</ele>
        <time>2015-06-28T12:07:37Z</time>
      </trkpt>
      <trkpt lat="46.7724" lon="6.37036">
        <ele>1029.71</ele>
        <time>2015-06-28T12:08:10Z</time>
      </trkpt>
      <trkpt lat="46.7724" lon="6.37037">
        <ele>1029.71</ele>
        <time>2015-06-28T12:08:41Z</time>
      </trkpt>
      <trkpt lat="46.77241" lon="6.37036">
        <ele>1029.71</ele>
        <time>2015-06-28T12:09:14Z</time>
      </trkpt>
      <trkpt lat="46.77241" lon="6.37034">
        <ele>1029.71</ele>
        <time>2015-06-28T12:09:49Z</time>
      </trkpt>
      <trkpt lat="46.7724" lon="6.37034">
        <ele>1029.23</ele>
        <time>2015-06-28T12:10:20Z</time>
      </trkpt>
      <trkpt lat="46.7724" lon="6.37034">
        <ele>1030.19</ele>
        <time>2015-06-28T12:10:44Z</time>
      </trkpt>
      <trkpt lat="46.77238" lon="6.37032">
        <ele>1029.23</ele>
        <time>2015-06-28T12:10:54Z</time>
      </trkpt>
      <trkpt lat="46.77235" lon="6.3703">
        <ele>1029.23</ele>
        <time>2015-06-28T12:10:59Z</time>
      </trkpt>
      <trkpt lat="46.77234" lon="6.37029">
        <ele>1029.23</ele>
        <time>2015-06-28T12:11:00Z</time>
      </trkpt>
      <trkpt lat="46.7723" lon="6.37026">
        <ele>1029.23</ele>
        <time>2015-06-28T12:11:16Z</time>
      </trkpt>
      <trkpt lat="46.77228" lon="6.37022">
        <ele>1028.75</ele>
        <time>2015-06-28T12:11:34Z</time>
      </trkpt>
      <trkpt lat="46.77227" lon="6.3702">
        <ele>1028.75</ele>
        <time>2015-06-28T12:11:35Z</time>
      </trkpt>
      <trkpt lat="46.77226" lon="6.37019">
        <ele>1028.27</ele>
        <time>2015-06-28T12:11:36Z</time>
      </trkpt>
      <trkpt lat="46.77225" lon="6.37018">
        <ele>1028.27</ele>
        <time>2015-06-28T12:11:37Z</time>
      </trkpt>
      <trkpt lat="46.77213" lon="6.37009">
        <ele>1028.27</ele>
        <time>2015-06-28T12:11:49Z</time>
      </trkpt>
      <trkpt lat="46.77194" lon="6.36988">
        <ele>1026.83</ele>
        <time>2015-06-28T12:11:56Z</time>
      </trkpt>
      <trkpt lat="46.77191" lon="6.36984">
        <ele>1026.83</ele>
        <time>2015-06-28T12:11:57Z</time>
      </trkpt>
      <trkpt lat="46.77187" lon="6.3698">
        <ele>1026.83</ele>
        <time>2015-06-28T12:11:58Z</time>
      </trkpt>
      <trkpt lat="46.77184" lon="6.36975">
        <ele>1026.34</ele>
        <time>2015-06-28T12:11:59Z</time>
      </trkpt>
      <trkpt lat="46.77182" lon="6.3697">
        <ele>1026.34</ele>
        <time>2015-06-28T12:12:00Z</time>
      </trkpt>
      <trkpt lat="46.77179" lon="6.36965">
        <ele>1026.34</ele>
        <time>2015-06-28T12:12:01Z</time>
      </trkpt>
      <trkpt lat="46.77177" lon="6.3696">
        <ele>1026.34</ele>
        <time>2015-06-28T12:12:02Z</time>
      </trkpt>
      <trkpt lat="46.77158" lon="6.36932">
        <ele>1025.86</ele>
        <time>2015-06-28T12:12:11Z</time>
      </trkpt>
      <trkpt lat="46.77129" lon="6.36898">
        <ele>1026.34</ele>
        <time>2015-06-28T12:12:23Z</time>
      </trkpt>
      <trkpt lat="46.77103" lon="6.36871">
        <ele>1026.34</ele>
        <time>2015-06-28T12:12:34Z</time>
      </trkpt>
      <trkpt lat="46.7708" lon="6.36843">
        <ele>1027.31</ele>
        <time>2015-06-28T12:12:44Z</time>
      </trkpt>
      <trkpt lat="46.77052" lon="6.36805">
        <ele>1029.23</ele>
        <time>2015-06-28T12:13:00Z</time>
      </trkpt>
      <trkpt lat="46.77026" lon="6.36765">
        <ele>1029.71</ele>
        <time>2015-06-28T12:13:12Z</time>
      </trkpt>
      <trkpt lat="46.76999" lon="6.36727">
        <ele>1032.11</ele>
        <time>2015-06-28T12:13:26Z</time>
      </trkpt>
      <trkpt lat="46.76984" lon="6.367">
        <ele>1033.55</ele>
        <time>2015-06-28T12:13:40Z</time>
      </trkpt>
      <trkpt lat="46.76982" lon="6.36696">
        <ele>1034.04</ele>
        <time>2015-06-28T12:13:43Z</time>
      </trkpt>
      <trkpt lat="46.76981" lon="6.36694">
        <ele>1034.52</ele>
        <time>2015-06-28T12:13:44Z</time>
      </trkpt>
      <trkpt lat="46.76977" lon="6.36679">
        <ele>1035.48</ele>
        <time>2015-06-28T12:13:54Z</time>
      </trkpt>
      <trkpt lat="46.76968" lon="6.36669">
        <ele>1037.88</ele>
        <time>2015-06-28T12:14:01Z</time>
      </trkpt>
      <trkpt lat="46.76967" lon="6.36668">
        <ele>1038.36</ele>
        <time>2015-06-28T12:14:02Z</time>
      </trkpt>
      <trkpt lat="46.76961" lon="6.36664">
        <ele>1038.36</ele>
        <time>2015-06-28T12:14:05Z</time>
      </trkpt>
      <trkpt lat="46.76956" lon="6.36654">
        <ele>1038.36</ele>
        <time>2015-06-28T12:14:11Z</time>
      </trkpt>
      <trkpt lat="46.76956" lon="6.36652">
        <ele>1038.84</ele>
        <time>2015-06-28T12:14:12Z</time>
      </trkpt>
      <trkpt lat="46.76955" lon="6.36649">
        <ele>1038.84</ele>
        <time>2015-06-28T12:14:13Z</time>
      </trkpt>
      <trkpt lat="46.76954" lon="6.36646">
        <ele>1038.36</ele>
        <time>2015-06-28T12:14:14Z</time>
      </trkpt>
      <trkpt lat="46.76953" lon="6.36642">
        <ele>1038.36</ele>
        <time>2015-06-28T12:14:15Z</time>
      </trkpt>
      <trkpt lat="46.76949" lon="6.36589">
        <ele>1037.88</ele>
        <time>2015-06-28T12:14:26Z</time>
      </trkpt>
      <trkpt lat="46.76948" lon="6.3655">
        <ele>1037.4</ele>
        <time>2015-06-28T12:14:35Z</time>
      </trkpt>
      <trkpt lat="46.76947" lon="6.36544">
        <ele>1037.4</ele>
        <time>2015-06-28T12:14:36Z</time>
      </trkpt>
      <trkpt lat="46.76946" lon="6.36537">
        <ele>1036.92</ele>
        <time>2015-06-28T12:14:37Z</time>
      </trkpt>
      <trkpt lat="46.76925" lon="6.3649">
        <ele>1037.88</ele>
        <time>2015-06-28T12:14:48Z</time>
      </trkpt>
      <trkpt lat="46.76905" lon="6.36477">
        <ele>1040.28</ele>
        <time>2015-06-28T12:15:00Z</time>
      </trkpt>
      <trkpt lat="46.76904" lon="6.36475">
        <ele>1040.28</ele>
        <time>2015-06-28T12:15:01Z</time>
      </trkpt>
      <trkpt lat="46.76902" lon="6.36473">
        <ele>1040.28</ele>
        <time>2015-06-28T12:15:02Z</time>
      </trkpt>
      <trkpt lat="46.76901" lon="6.36472">
        <ele>1040.28</ele>
        <time>2015-06-28T12:15:03Z</time>
      </trkpt>
      <trkpt lat="46.769" lon="6.36471">
        <ele>1040.76</ele>
        <time>2015-06-28T12:15:04Z</time>
      </trkpt>
      <trkpt lat="46.76895" lon="6.36465">
        <ele>1041.25</ele>
        <time>2015-06-28T12:15:08Z</time>
      </trkpt>
      <trkpt lat="46.76889" lon="6.3645">
        <ele>1042.21</ele>
        <time>2015-06-28T12:15:16Z</time>
      </trkpt>
      <trkpt lat="46.76888" lon="6.36445">
        <ele>1042.21</ele>
        <time>2015-06-28T12:15:18Z</time>
      </trkpt>
      <trkpt lat="46.76887" lon="6.3644">
        <ele>1043.17</ele>
        <time>2015-06-28T12:15:21Z</time>
      </trkpt>
      <trkpt lat="46.76887" lon="6.36438">
        <ele>1042.69</ele>
        <time>2015-06-28T12:15:22Z</time>
      </trkpt>
      <trkpt lat="46.76887" lon="6.36435">
        <ele>1043.17</ele>
        <time>2015-06-28T12:15:23Z</time>
      </trkpt>
      <trkpt lat="46.76887" lon="6.36433">
        <ele>1042.69</ele>
        <time>2015-06-28T12:15:24Z</time>
      </trkpt>
      <trkpt lat="46.76887" lon="6.36431">
        <ele>1042.69</ele>
        <time>2015-06-28T12:15:25Z</time>
      </trkpt>
      <trkpt lat="46.76888" lon="6.36428">
        <ele>1042.69</ele>
        <time>2015-06-28T12:15:26Z</time>
      </trkpt>
      <trkpt lat="46.76888" lon="6.36425">
        <ele>1043.17</ele>
        <time>2015-06-28T12:15:27Z</time>
      </trkpt>
      <trkpt lat="46.76885" lon="6.36395">
        <ele>1041.73</ele>
        <time>2015-06-28T12:15:33Z</time>
      </trkpt>
      <trkpt lat="46.76885" lon="6.36388">
        <ele>1041.73</ele>
        <time>2015-06-28T12:15:34Z</time>
      </trkpt>
      <trkpt lat="46.76887" lon="6.36312">
        <ele>1039.8</ele>
        <time>2015-06-28T12:15:43Z</time>
      </trkpt>
      <trkpt lat="46.76887" lon="6.36304">
        <ele>1039.8</ele>
        <time>2015-06-28T12:15:44Z</time>
      </trkpt>
      <trkpt lat="46.76892" lon="6.36222">
        <ele>1036.92</ele>
        <time>2015-06-28T12:15:53Z</time>
      </trkpt>
      <trkpt lat="46.76893" lon="6.36171">
        <ele>1033.55</ele>
        <time>2015-06-28T12:15:58Z</time>
      </trkpt>
      <trkpt lat="46.76897" lon="6.36146">
        <ele>1031.63</ele>
        <time>2015-06-28T12:16:00Z</time>
      </trkpt>
      <trkpt lat="46.769" lon="6.36134">
        <ele>1031.63</ele>
        <time>2015-06-28T12:16:01Z</time>
      </trkpt>
      <trkpt lat="46.76902" lon="6.36121">
        <ele>1030.19</ele>
        <time>2015-06-28T12:16:02Z</time>
      </trkpt>
      <trkpt lat="46.76901" lon="6.36109">
        <ele>1029.23</ele>
        <time>2015-06-28T12:16:03Z</time>
      </trkpt>
      <trkpt lat="46.76898" lon="6.36096">
        <ele>1028.27</ele>
        <time>2015-06-28T12:16:04Z</time>
      </trkpt>
      <trkpt lat="46.76896" lon="6.36084">
        <ele>1028.27</ele>
        <time>2015-06-28T12:16:05Z</time>
      </trkpt>
      <trkpt lat="46.76895" lon="6.36072">
        <ele>1027.79</ele>
        <time>2015-06-28T12:16:06Z</time>
      </trkpt>
      <trkpt lat="46.76895" lon="6.36061">
        <ele>1026.83</ele>
        <time>2015-06-28T12:16:07Z</time>
      </trkpt>
      <trkpt lat="46.76896" lon="6.36049">
        <ele>1026.34</ele>
        <time>2015-06-28T12:16:08Z</time>
      </trkpt>
      <trkpt lat="46.76898" lon="6.36025">
        <ele>1024.9</ele>
        <time>2015-06-28T12:16:10Z</time>
      </trkpt>
      <trkpt lat="46.76902" lon="6.35944">
        <ele>1021.54</ele>
        <time>2015-06-28T12:16:16Z</time>
      </trkpt>
      <trkpt lat="46.76893" lon="6.35849">
        <ele>1017.21</ele>
        <time>2015-06-28T12:16:23Z</time>
      </trkpt>
      <trkpt lat="46.76891" lon="6.35836">
        <ele>1017.21</ele>
        <time>2015-06-28T12:16:24Z</time>
      </trkpt>
      <trkpt lat="46.76873" lon="6.35711">
        <ele>1016.25</ele>
        <time>2015-06-28T12:16:35Z</time>
      </trkpt>
      <trkpt lat="46.7687" lon="6.35685">
        <ele>1015.29</ele>
        <time>2015-06-28T12:16:40Z</time>
      </trkpt>
      <trkpt lat="46.76867" lon="6.35681">
        <ele>1015.77</ele>
        <time>2015-06-28T12:16:41Z</time>
      </trkpt>
      <trkpt lat="46.76865" lon="6.35679">
        <ele>1016.25</ele>
        <time>2015-06-28T12:16:42Z</time>
      </trkpt>
      <trkpt lat="46.76847" lon="6.35674">
        <ele>1018.65</ele>
        <time>2015-06-28T12:16:50Z</time>
      </trkpt>
      <trkpt lat="46.76845" lon="6.35675">
        <ele>1018.17</ele>
        <time>2015-06-28T12:16:51Z</time>
      </trkpt>
      <trkpt lat="46.76844" lon="6.35676">
        <ele>1019.13</ele>
        <time>2015-06-28T12:16:52Z</time>
      </trkpt>
      <trkpt lat="46.76833" lon="6.35676">
        <ele>1018.65</ele>
        <time>2015-06-28T12:16:59Z</time>
      </trkpt>
      <trkpt lat="46.76832" lon="6.35677">
        <ele>1019.13</ele>
        <time>2015-06-28T12:17:00Z</time>
      </trkpt>
      <trkpt lat="46.76831" lon="6.35678">
        <ele>1018.65</ele>
        <time>2015-06-28T12:17:01Z</time>
      </trkpt>
      <trkpt lat="46.76829" lon="6.35678">
        <ele>1018.65</ele>
        <time>2015-06-28T12:17:02Z</time>
      </trkpt>
      <trkpt lat="46.76827" lon="6.35681">
        <ele>1019.13</ele>
        <time>2015-06-28T12:17:12Z</time>
      </trkpt>
      <trkpt lat="46.76826" lon="6.35681">
        <ele>1019.13</ele>
        <time>2015-06-28T12:17:32Z</time>
      </trkpt>
      <trkpt lat="46.76825" lon="6.35679">
        <ele>1019.13</ele>
        <time>2015-06-28T12:18:00Z</time>
      </trkpt>
      <trkpt lat="46.76823" lon="6.35679">
        <ele>1020.1</ele>
        <time>2015-06-28T12:18:30Z</time>
      </trkpt>
      <trkpt lat="46.76825" lon="6.35678">
        <ele>1020.1</ele>
        <time>2015-06-28T12:19:04Z</time>
      </trkpt>
      <trkpt lat="46.76826" lon="6.35677">
        <ele>1019.13</ele>
        <time>2015-06-28T12:19:32Z</time>
      </trkpt>
      <trkpt lat="46.76825" lon="6.35676">
        <ele>1019.62</ele>
        <time>2015-06-28T12:20:06Z</time>
      </trkpt>
      <trkpt lat="46.76825" lon="6.35676">
        <ele>1019.62</ele>
        <time>2015-06-28T12:20:36Z</time>
      </trkpt>
      <trkpt lat="46.76825" lon="6.35675">
        <ele>1019.62</ele>
        <time>2015-06-28T12:21:07Z</time>
      </trkpt>
      <trkpt lat="46.76825" lon="6.35672">
        <ele>1019.62</ele>
        <time>2015-06-28T12:21:38Z</time>
      </trkpt>
      <trkpt lat="46.76825" lon="6.3567">
        <ele>1019.62</ele>
        <time>2015-06-28T12:22:07Z</time>
      </trkpt>
      <trkpt lat="46.76824" lon="6.35669">
        <ele>1020.1</ele>
        <time>2015-06-28T12:22:41Z</time>
      </trkpt>
      <trkpt lat="46.76825" lon="6.35668">
        <ele>1020.1</ele>
        <time>2015-06-28T12:23:12Z</time>
      </trkpt>
      <trkpt lat="46.76825" lon="6.35667">
        <ele>1020.1</ele>
        <time>2015-06-28T12:23:40Z</time>
      </trkpt>
      <trkpt lat="46.76824" lon="6.35667">
        <ele>1019.62</ele>
        <time>2015-06-28T12:24:12Z</time>
      </trkpt>
      <trkpt lat="46.76825" lon="6.35665">
        <ele>1020.1</ele>
        <time>2015-06-28T12:24:44Z</time>
      </trkpt>
      <trkpt lat="46.76826" lon="6.35665">
        <ele>1020.1</ele>
        <time>2015-06-28T12:25:16Z</time>
      </trkpt>
      <trkpt lat="46.76825" lon="6.35663">
        <ele>1020.58</ele>
        <time>2015-06-28T12:25:47Z</time>
      </trkpt>
      <trkpt lat="46.76828" lon="6.35663">
        <ele>1020.58</ele>
        <time>2015-06-28T12:27:28Z</time>
      </trkpt>
      <trkpt lat="46.76827" lon="6.35663">
        <ele>1020.58</ele>
        <time>2015-06-28T12:27:56Z</time>
      </trkpt>
      <trkpt lat="46.76822" lon="6.35664">
        <ele>1021.06</ele>
        <time>2015-06-28T12:28:01Z</time>
      </trkpt>
      <trkpt lat="46.7682" lon="6.35663">
        <ele>1020.1</ele>
        <time>2015-06-28T12:28:02Z</time>
      </trkpt>
      <trkpt lat="46.76818" lon="6.35663">
        <ele>1020.58</ele>
        <time>2015-06-28T12:28:03Z</time>
      </trkpt>
      <trkpt lat="46.76816" lon="6.35665">
        <ele>1021.06</ele>
        <time>2015-06-28T12:28:04Z</time>
      </trkpt>
      <trkpt lat="46.76814" lon="6.35666">
        <ele>1021.06</ele>
        <time>2015-06-28T12:28:05Z</time>
      </trkpt>
      <trkpt lat="46.76812" lon="6.35666">
        <ele>1021.54</ele>
        <time>2015-06-28T12:28:06Z</time>
      </trkpt>
      <trkpt lat="46.7681" lon="6.35666">
        <ele>1022.02</ele>
        <time>2015-06-28T12:28:07Z</time>
      </trkpt>
      <trkpt lat="46.76809" lon="6.35665">
        <ele>1021.54</ele>
        <time>2015-06-28T12:28:08Z</time>
      </trkpt>
      <trkpt lat="46.7678" lon="6.35656">
        <ele>1022.02</ele>
        <time>2015-06-28T12:28:21Z</time>
      </trkpt>
      <trkpt lat="46.76775" lon="6.35657">
        <ele>1022.02</ele>
        <time>2015-06-28T12:28:31Z</time>
      </trkpt>
      <trkpt lat="46.76773" lon="6.35652">
        <ele>1022.02</ele>
        <time>2015-06-28T12:28:45Z</time>
      </trkpt>
      <trkpt lat="46.76772" lon="6.35653">
        <ele>1022.02</ele>
        <time>2015-06-28T12:29:01Z</time>
      </trkpt>
      <trkpt lat="46.76771" lon="6.35657">
        <ele>1022.02</ele>
        <time>2015-06-28T12:29:13Z</time>
      </trkpt>
      <trkpt lat="46.76753" lon="6.35662">
        <ele>1022.5</ele>
        <time>2015-06-28T12:29:24Z</time>
      </trkpt>
      <trkpt lat="46.76733" lon="6.35656">
        <ele>1026.83</ele>
        <time>2015-06-28T12:29:29Z</time>
      </trkpt>
      <trkpt lat="46.76718" lon="6.35652">
        <ele>1030.67</ele>
        <time>2015-06-28T12:29:33Z</time>
      </trkpt>
      <trkpt lat="46.76711" lon="6.35651">
        <ele>1032.59</ele>
        <time>2015-06-28T12:29:35Z</time>
      </trkpt>
      <trkpt lat="46.767" lon="6.35649">
        <ele>1035.96</ele>
        <time>2015-06-28T12:29:38Z</time>
      </trkpt>
      <trkpt lat="46.7669" lon="6.35646">
        <ele>1039.8</ele>
        <time>2015-06-28T12:29:41Z</time>
      </trkpt>
      <trkpt lat="46.7668" lon="6.35644">
        <ele>1043.17</ele>
        <time>2015-06-28T12:29:44Z</time>
      </trkpt>
      <trkpt lat="46.76663" lon="6.35641">
        <ele>1046.53</ele>
        <time>2015-06-28T12:29:49Z</time>
      </trkpt>
      <trkpt lat="46.76631" lon="6.35636">
        <ele>1049.42</ele>
        <time>2015-06-28T12:29:58Z</time>
      </trkpt>
      <trkpt lat="46.76609" lon="6.35633">
        <ele>1053.26</ele>
        <time>2015-06-28T12:30:04Z</time>
      </trkpt>
      <trkpt lat="46.76595" lon="6.3563">
        <ele>1056.15</ele>
        <time>2015-06-28T12:30:08Z</time>
      </trkpt>
      <trkpt lat="46.76591" lon="6.35629">
        <ele>1056.15</ele>
        <time>2015-06-28T12:30:09Z</time>
      </trkpt>
      <trkpt lat="46.76577" lon="6.35627">
        <ele>1059.51</ele>
        <time>2015-06-28T12:30:13Z</time>
      </trkpt>
      <trkpt lat="46.76563" lon="6.35624">
        <ele>1062.39</ele>
        <time>2015-06-28T12:30:17Z</time>
      </trkpt>
      <trkpt lat="46.76553" lon="6.35623">
        <ele>1065.76</ele>
        <time>2015-06-28T12:30:20Z</time>
      </trkpt>
      <trkpt lat="46.76527" lon="6.35617">
        <ele>1069.12</ele>
        <time>2015-06-28T12:30:28Z</time>
      </trkpt>
      <trkpt lat="46.76497" lon="6.35612">
        <ele>1072.01</ele>
        <time>2015-06-28T12:30:36Z</time>
      </trkpt>
      <trkpt lat="46.7649" lon="6.35611">
        <ele>1073.45</ele>
        <time>2015-06-28T12:30:38Z</time>
      </trkpt>
      <trkpt lat="46.76473" lon="6.35607">
        <ele>1076.81</ele>
        <time>2015-06-28T12:30:43Z</time>
      </trkpt>
      <trkpt lat="46.7647" lon="6.35607">
        <ele>1077.29</ele>
        <time>2015-06-28T12:30:44Z</time>
      </trkpt>
      <trkpt lat="46.76454" lon="6.35606">
        <ele>1080.66</ele>
        <time>2015-06-28T12:30:54Z</time>
      </trkpt>
      <trkpt lat="46.76444" lon="6.35603">
        <ele>1082.1</ele>
        <time>2015-06-28T12:30:58Z</time>
      </trkpt>
      <trkpt lat="46.76427" lon="6.35602">
        <ele>1085.95</ele>
        <time>2015-06-28T12:31:03Z</time>
      </trkpt>
      <trkpt lat="46.76414" lon="6.35598">
        <ele>1089.79</ele>
        <time>2015-06-28T12:31:07Z</time>
      </trkpt>
      <trkpt lat="46.764" lon="6.35595">
        <ele>1093.16</ele>
        <time>2015-06-28T12:31:11Z</time>
      </trkpt>
      <trkpt lat="46.76387" lon="6.35594">
        <ele>1096.52</ele>
        <time>2015-06-28T12:31:15Z</time>
      </trkpt>
      <trkpt lat="46.76369" lon="6.3559">
        <ele>1099.89</ele>
        <time>2015-06-28T12:31:20Z</time>
      </trkpt>
      <trkpt lat="46.76355" lon="6.35588">
        <ele>1103.25</ele>
        <time>2015-06-28T12:31:24Z</time>
      </trkpt>
      <trkpt lat="46.76336" lon="6.35584">
        <ele>1106.61</ele>
        <time>2015-06-28T12:31:29Z</time>
      </trkpt>
      <trkpt lat="46.76323" lon="6.35582">
        <ele>1110.46</ele>
        <time>2015-06-28T12:31:33Z</time>
      </trkpt>
      <trkpt lat="46.76308" lon="6.3558">
        <ele>1113.34</ele>
        <time>2015-06-28T12:31:37Z</time>
      </trkpt>
      <trkpt lat="46.76294" lon="6.35577">
        <ele>1117.67</ele>
        <time>2015-06-28T12:31:41Z</time>
      </trkpt>
      <trkpt lat="46.76284" lon="6.35575">
        <ele>1121.52</ele>
        <time>2015-06-28T12:31:44Z</time>
      </trkpt>
      <trkpt lat="46.76273" lon="6.35572">
        <ele>1124.88</ele>
        <time>2015-06-28T12:31:47Z</time>
      </trkpt>
      <trkpt lat="46.76263" lon="6.3557">
        <ele>1128.24</ele>
        <time>2015-06-28T12:31:50Z</time>
      </trkpt>
      <trkpt lat="46.76253" lon="6.35568">
        <ele>1132.57</ele>
        <time>2015-06-28T12:31:53Z</time>
      </trkpt>
      <trkpt lat="46.76243" lon="6.35567">
        <ele>1135.94</ele>
        <time>2015-06-28T12:31:56Z</time>
      </trkpt>
      <trkpt lat="46.76236" lon="6.35566">
        <ele>1138.82</ele>
        <time>2015-06-28T12:31:58Z</time>
      </trkpt>
      <trkpt lat="46.76229" lon="6.35565">
        <ele>1142.18</ele>
        <time>2015-06-28T12:32:00Z</time>
      </trkpt>
      <trkpt lat="46.76219" lon="6.35563">
        <ele>1146.03</ele>
        <time>2015-06-28T12:32:03Z</time>
      </trkpt>
      <trkpt lat="46.7621" lon="6.35561">
        <ele>1149.87</ele>
        <time>2015-06-28T12:32:06Z</time>
      </trkpt>
      <trkpt lat="46.76203" lon="6.3556">
        <ele>1153.24</ele>
        <time>2015-06-28T12:32:08Z</time>
      </trkpt>
      <trkpt lat="46.76193" lon="6.35558">
        <ele>1157.08</ele>
        <time>2015-06-28T12:32:11Z</time>
      </trkpt>
      <trkpt lat="46.76186" lon="6.35556">
        <ele>1160.93</ele>
        <time>2015-06-28T12:32:13Z</time>
      </trkpt>
      <trkpt lat="46.7618" lon="6.35555">
        <ele>1163.81</ele>
        <time>2015-06-28T12:32:15Z</time>
      </trkpt>
      <trkpt lat="46.76173" lon="6.35554">
        <ele>1167.18</ele>
        <time>2015-06-28T12:32:17Z</time>
      </trkpt>
      <trkpt lat="46.76164" lon="6.35553">
        <ele>1171.5</ele>
        <time>2015-06-28T12:32:20Z</time>
      </trkpt>
      <trkpt lat="46.76157" lon="6.35552">
        <ele>1174.87</ele>
        <time>2015-06-28T12:32:22Z</time>
      </trkpt>
      <trkpt lat="46.76151" lon="6.3555">
        <ele>1178.23</ele>
        <time>2015-06-28T12:32:24Z</time>
      </trkpt>
      <trkpt lat="46.76144" lon="6.35549">
        <ele>1182.08</ele>
        <time>2015-06-28T12:32:26Z</time>
      </trkpt>
      <trkpt lat="46.76138" lon="6.35548">
        <ele>1186.4</ele>
        <time>2015-06-28T12:32:28Z</time>
      </trkpt>
      <trkpt lat="46.76132" lon="6.35547">
        <ele>1189.77</ele>
        <time>2015-06-28T12:32:30Z</time>
      </trkpt>
      <trkpt lat="46.76122" lon="6.35545">
        <ele>1194.58</ele>
        <time>2015-06-28T12:32:33Z</time>
      </trkpt>
      <trkpt lat="46.76116" lon="6.35544">
        <ele>1198.42</ele>
        <time>2015-06-28T12:32:35Z</time>
      </trkpt>
      <trkpt lat="46.76109" lon="6.35543">
        <ele>1201.79</ele>
        <time>2015-06-28T12:32:37Z</time>
      </trkpt>
      <trkpt lat="46.76103" lon="6.35542">
        <ele>1206.59</ele>
        <time>2015-06-28T12:32:39Z</time>
      </trkpt>
      <trkpt lat="46.76097" lon="6.3554">
        <ele>1210.44</ele>
        <time>2015-06-28T12:32:41Z</time>
      </trkpt>
      <trkpt lat="46.76091" lon="6.35539">
        <ele>1214.28</ele>
        <time>2015-06-28T12:32:43Z</time>
      </trkpt>
      <trkpt lat="46.76085" lon="6.35537">
        <ele>1217.65</ele>
        <time>2015-06-28T12:32:45Z</time>
      </trkpt>
      <trkpt lat="46.76078" lon="6.35537">
        <ele>1221.49</ele>
        <time>2015-06-28T12:32:47Z</time>
      </trkpt>
      <trkpt lat="46.76073" lon="6.35536">
        <ele>1225.82</ele>
        <time>2015-06-28T12:32:49Z</time>
      </trkpt>
      <trkpt lat="46.76067" lon="6.35535">
        <ele>1228.7</ele>
        <time>2015-06-28T12:32:51Z</time>
      </trkpt>
      <trkpt lat="46.76057" lon="6.35534">
        <ele>1232.55</ele>
        <time>2015-06-28T12:32:54Z</time>
      </trkpt>
      <trkpt lat="46.76047" lon="6.35532">
        <ele>1235.91</ele>
        <time>2015-06-28T12:32:57Z</time>
      </trkpt>
      <trkpt lat="46.76037" lon="6.3553">
        <ele>1239.28</ele>
        <time>2015-06-28T12:33:00Z</time>
      </trkpt>
      <trkpt lat="46.76027" lon="6.35529">
        <ele>1242.64</ele>
        <time>2015-06-28T12:33:03Z</time>
      </trkpt>
      <trkpt lat="46.76021" lon="6.35527">
        <ele>1246.01</ele>
        <time>2015-06-28T12:33:05Z</time>
      </trkpt>
      <trkpt lat="46.76006" lon="6.35525">
        <ele>1250.81</ele>
        <time>2015-06-28T12:33:09Z</time>
      </trkpt>
      <trkpt lat="46.75996" lon="6.35523">
        <ele>1254.18</ele>
        <time>2015-06-28T12:33:12Z</time>
      </trkpt>
      <trkpt lat="46.75986" lon="6.35522">
        <ele>1258.02</ele>
        <time>2015-06-28T12:33:15Z</time>
      </trkpt>
      <trkpt lat="46.75976" lon="6.3552">
        <ele>1260.91</ele>
        <time>2015-06-28T12:33:18Z</time>
      </trkpt>
      <trkpt lat="46.75959" lon="6.35517">
        <ele>1264.27</ele>
        <time>2015-06-28T12:33:23Z</time>
      </trkpt>
      <trkpt lat="46.75945" lon="6.35514">
        <ele>1268.12</ele>
        <time>2015-06-28T12:33:27Z</time>
      </trkpt>
      <trkpt lat="46.75938" lon="6.35512">
        <ele>1269.56</ele>
        <time>2015-06-28T12:33:29Z</time>
      </trkpt>
      <trkpt lat="46.75923" lon="6.3551">
        <ele>1272.92</ele>
        <time>2015-06-28T12:33:33Z</time>
      </trkpt>
      <trkpt lat="46.75916" lon="6.35509">
        <ele>1273.88</ele>
        <time>2015-06-28T12:33:35Z</time>
      </trkpt>
      <trkpt lat="46.75905" lon="6.35507">
        <ele>1277.25</ele>
        <time>2015-06-28T12:33:38Z</time>
      </trkpt>
      <trkpt lat="46.75894" lon="6.35505">
        <ele>1280.61</ele>
        <time>2015-06-28T12:33:41Z</time>
      </trkpt>
      <trkpt lat="46.75891" lon="6.35504">
        <ele>1281.09</ele>
        <time>2015-06-28T12:33:42Z</time>
      </trkpt>
      <trkpt lat="46.75877" lon="6.35501">
        <ele>1285.42</ele>
        <time>2015-06-28T12:33:46Z</time>
      </trkpt>
      <trkpt lat="46.75863" lon="6.35499">
        <ele>1288.78</ele>
        <time>2015-06-28T12:33:50Z</time>
      </trkpt>
      <trkpt lat="46.75853" lon="6.35497">
        <ele>1292.15</ele>
        <time>2015-06-28T12:33:53Z</time>
      </trkpt>
      <trkpt lat="46.75833" lon="6.35493">
        <ele>1295.51</ele>
        <time>2015-06-28T12:33:59Z</time>
      </trkpt>
      <trkpt lat="46.75816" lon="6.3549">
        <ele>1297.92</ele>
        <time>2015-06-28T12:34:04Z</time>
      </trkpt>
      <trkpt lat="46.75794" lon="6.35487">
        <ele>1300.8</ele>
        <time>2015-06-28T12:34:10Z</time>
      </trkpt>
      <trkpt lat="46.75772" lon="6.35483">
        <ele>1304.17</ele>
        <time>2015-06-28T12:34:16Z</time>
      </trkpt>
      <trkpt lat="46.75754" lon="6.35479">
        <ele>1307.53</ele>
        <time>2015-06-28T12:34:21Z</time>
      </trkpt>
      <trkpt lat="46.75736" lon="6.35476">
        <ele>1310.9</ele>
        <time>2015-06-28T12:34:26Z</time>
      </trkpt>
      <trkpt lat="46.75722" lon="6.35473">
        <ele>1313.78</ele>
        <time>2015-06-28T12:34:30Z</time>
      </trkpt>
      <trkpt lat="46.75673" lon="6.35464">
        <ele>1316.66</ele>
        <time>2015-06-28T12:34:44Z</time>
      </trkpt>
      <trkpt lat="46.75637" lon="6.35458">
        <ele>1319.55</ele>
        <time>2015-06-28T12:34:54Z</time>
      </trkpt>
      <trkpt lat="46.75616" lon="6.35454">
        <ele>1321.95</ele>
        <time>2015-06-28T12:35:00Z</time>
      </trkpt>
      <trkpt lat="46.75534" lon="6.3544">
        <ele>1324.83</ele>
        <time>2015-06-28T12:35:23Z</time>
      </trkpt>
      <trkpt lat="46.75494" lon="6.35433">
        <ele>1328.68</ele>
        <time>2015-06-28T12:35:34Z</time>
      </trkpt>
      <trkpt lat="46.7549" lon="6.35432">
        <ele>1328.68</ele>
        <time>2015-06-28T12:35:35Z</time>
      </trkpt>
      <trkpt lat="46.75464" lon="6.35429">
        <ele>1332.52</ele>
        <time>2015-06-28T12:35:42Z</time>
      </trkpt>
      <trkpt lat="46.75448" lon="6.35425">
        <ele>1335.89</ele>
        <time>2015-06-28T12:35:48Z</time>
      </trkpt>
      <trkpt lat="46.75447" lon="6.35425">
        <ele>1335.89</ele>
        <time>2015-06-28T12:35:49Z</time>
      </trkpt>
      <trkpt lat="46.75434" lon="6.35422">
        <ele>1338.29</ele>
        <time>2015-06-28T12:36:05Z</time>
      </trkpt>
      <trkpt lat="46.75418" lon="6.35419">
        <ele>1341.66</ele>
        <time>2015-06-28T12:36:16Z</time>
      </trkpt>
      <trkpt lat="46.7541" lon="6.35418">
        <ele>1343.1</ele>
        <time>2015-06-28T12:36:19Z</time>
      </trkpt>
      <trkpt lat="46.754" lon="6.35416">
        <ele>1345.5</ele>
        <time>2015-06-28T12:36:22Z</time>
      </trkpt>
      <trkpt lat="46.75392" lon="6.35415">
        <ele>1346.94</ele>
        <time>2015-06-28T12:36:24Z</time>
      </trkpt>
      <trkpt lat="46.75378" lon="6.35413">
        <ele>1351.27</ele>
        <time>2015-06-28T12:36:28Z</time>
      </trkpt>
      <trkpt lat="46.75361" lon="6.35409">
        <ele>1355.12</ele>
        <time>2015-06-28T12:36:33Z</time>
      </trkpt>
      <trkpt lat="46.75344" lon="6.35407">
        <ele>1358.48</ele>
        <time>2015-06-28T12:36:38Z</time>
      </trkpt>
      <trkpt lat="46.75326" lon="6.35404">
        <ele>1361.84</ele>
        <time>2015-06-28T12:36:43Z</time>
      </trkpt>
      <trkpt lat="46.75322" lon="6.35403">
        <ele>1361.84</ele>
        <time>2015-06-28T12:36:44Z</time>
      </trkpt>
      <trkpt lat="46.75315" lon="6.35401">
        <ele>1363.29</ele>
        <time>2015-06-28T12:36:46Z</time>
      </trkpt>
      <trkpt lat="46.75301" lon="6.354">
        <ele>1366.17</ele>
        <time>2015-06-28T12:36:50Z</time>
      </trkpt>
      <trkpt lat="46.75287" lon="6.35396">
        <ele>1369.05</ele>
        <time>2015-06-28T12:36:54Z</time>
      </trkpt>
      <trkpt lat="46.75273" lon="6.35394">
        <ele>1372.42</ele>
        <time>2015-06-28T12:36:58Z</time>
      </trkpt>
      <trkpt lat="46.75259" lon="6.35392">
        <ele>1375.78</ele>
        <time>2015-06-28T12:37:02Z</time>
      </trkpt>
      <trkpt lat="46.75246" lon="6.35389">
        <ele>1379.15</ele>
        <time>2015-06-28T12:37:06Z</time>
      </trkpt>
      <trkpt lat="46.75232" lon="6.35386">
        <ele>1382.99</ele>
        <time>2015-06-28T12:37:10Z</time>
      </trkpt>
      <trkpt lat="46.75221" lon="6.35384">
        <ele>1386.84</ele>
        <time>2015-06-28T12:37:13Z</time>
      </trkpt>
      <trkpt lat="46.75208" lon="6.35381">
        <ele>1390.68</ele>
        <time>2015-06-28T12:37:17Z</time>
      </trkpt>
      <trkpt lat="46.75197" lon="6.35379">
        <ele>1393.57</ele>
        <time>2015-06-28T12:37:20Z</time>
      </trkpt>
      <trkpt lat="46.75187" lon="6.35378">
        <ele>1397.41</ele>
        <time>2015-06-28T12:37:23Z</time>
      </trkpt>
      <trkpt lat="46.75176" lon="6.35376">
        <ele>1401.26</ele>
        <time>2015-06-28T12:37:26Z</time>
      </trkpt>
      <trkpt lat="46.75166" lon="6.35374">
        <ele>1404.62</ele>
        <time>2015-06-28T12:37:29Z</time>
      </trkpt>
      <trkpt lat="46.75157" lon="6.35372">
        <ele>1407.99</ele>
        <time>2015-06-28T12:37:32Z</time>
      </trkpt>
      <trkpt lat="46.7515" lon="6.35371">
        <ele>1409.43</ele>
        <time>2015-06-28T12:37:34Z</time>
      </trkpt>
      <trkpt lat="46.75135" lon="6.35371">
        <ele>1409.91</ele>
        <time>2015-06-28T12:37:45Z</time>
      </trkpt>
      <trkpt lat="46.75134" lon="6.35371">
        <ele>1409.91</ele>
        <time>2015-06-28T12:37:46Z</time>
      </trkpt>
      <trkpt lat="46.75127" lon="6.35368">
        <ele>1408.95</ele>
        <time>2015-06-28T12:37:56Z</time>
      </trkpt>
      <trkpt lat="46.75126" lon="6.35368">
        <ele>1408.95</ele>
        <time>2015-06-28T12:38:21Z</time>
      </trkpt>
      <trkpt lat="46.75126" lon="6.35368">
        <ele>1409.43</ele>
        <time>2015-06-28T12:38:46Z</time>
      </trkpt>
      <trkpt lat="46.75126" lon="6.35368">
        <ele>1409.43</ele>
        <time>2015-06-28T12:39:10Z</time>
      </trkpt>
      <trkpt lat="46.75125" lon="6.35367">
        <ele>1408.47</ele>
        <time>2015-06-28T12:39:20Z</time>
      </trkpt>
      <trkpt lat="46.75116" lon="6.35365">
        <ele>1408.95</ele>
        <time>2015-06-28T12:39:25Z</time>
      </trkpt>
      <trkpt lat="46.75109" lon="6.35366">
        <ele>1408.95</ele>
        <time>2015-06-28T12:39:28Z</time>
      </trkpt>
      <trkpt lat="46.75095" lon="6.35368">
        <ele>1408.95</ele>
        <time>2015-06-28T12:39:41Z</time>
      </trkpt>
      <trkpt lat="46.75094" lon="6.35368">
        <ele>1418.08</ele>
        <time>2015-06-28T12:39:45Z</time>
      </trkpt>
      <trkpt lat="46.75094" lon="6.35368">
        <ele>1408.95</ele>
        <time>2015-06-28T12:39:46Z</time>
      </trkpt>
      <trkpt lat="46.75093" lon="6.35367">
        <ele>1408.95</ele>
        <time>2015-06-28T12:39:58Z</time>
      </trkpt>
      <trkpt lat="46.75092" lon="6.35366">
        <ele>1408.95</ele>
        <time>2015-06-28T12:40:23Z</time>
      </trkpt>
      <trkpt lat="46.75092" lon="6.35365">
        <ele>1408.95</ele>
        <time>2015-06-28T12:41:06Z</time>
      </trkpt>
      <trkpt lat="46.75091" lon="6.35364">
        <ele>1408.95</ele>
        <time>2015-06-28T12:41:41Z</time>
      </trkpt>
      <trkpt lat="46.75092" lon="6.35364">
        <ele>1409.43</ele>
        <time>2015-06-28T12:42:22Z</time>
      </trkpt>
      <trkpt lat="46.75093" lon="6.35364">
        <ele>1409.43</ele>
        <time>2015-06-28T12:42:53Z</time>
      </trkpt>
      <trkpt lat="46.75093" lon="6.35365">
        <ele>1409.91</ele>
        <time>2015-06-28T12:43:29Z</time>
      </trkpt>
      <trkpt lat="46.75093" lon="6.35366">
        <ele>1410.39</ele>
        <time>2015-06-28T12:44:07Z</time>
      </trkpt>
      <trkpt lat="46.75093" lon="6.35365">
        <ele>1410.39</ele>
        <time>2015-06-28T12:44:42Z</time>
      </trkpt>
      <trkpt lat="46.75092" lon="6.35365">
        <ele>1410.39</ele>
        <time>2015-06-28T12:45:26Z</time>
      </trkpt>
      <trkpt lat="46.75093" lon="6.35365">
        <ele>1410.87</ele>
        <time>2015-06-28T12:46:03Z</time>
      </trkpt>
      <trkpt lat="46.75092" lon="6.35365">
        <ele>1411.35</ele>
        <time>2015-06-28T12:46:40Z</time>
      </trkpt>
      <trkpt lat="46.75092" lon="6.35366">
        <ele>1411.35</ele>
        <time>2015-06-28T12:47:20Z</time>
      </trkpt>
      <trkpt lat="46.75092" lon="6.35367">
        <ele>1411.35</ele>
        <time>2015-06-28T12:47:55Z</time>
      </trkpt>
      <trkpt lat="46.75091" lon="6.35367">
        <ele>1411.35</ele>
        <time>2015-06-28T12:48:26Z</time>
      </trkpt>
      <trkpt lat="46.75091" lon="6.35367">
        <ele>1411.35</ele>
        <time>2015-06-28T12:48:59Z</time>
      </trkpt>
      <trkpt lat="46.7509" lon="6.35366">
        <ele>1411.83</ele>
        <time>2015-06-28T12:49:33Z</time>
      </trkpt>
      <trkpt lat="46.7509" lon="6.35367">
        <ele>1412.31</ele>
        <time>2015-06-28T12:50:10Z</time>
      </trkpt>
      <trkpt lat="46.7509" lon="6.35368">
        <ele>1412.79</ele>
        <time>2015-06-28T12:50:35Z</time>
      </trkpt>
      <trkpt lat="46.7509" lon="6.3537">
        <ele>1411.83</ele>
        <time>2015-06-28T12:51:04Z</time>
      </trkpt>
      <trkpt lat="46.75091" lon="6.35369">
        <ele>1412.79</ele>
        <time>2015-06-28T12:51:38Z</time>
      </trkpt>
      <trkpt lat="46.7509" lon="6.35369">
        <ele>1412.79</ele>
        <time>2015-06-28T12:52:12Z</time>
      </trkpt>
      <trkpt lat="46.7509" lon="6.35369">
        <ele>1413.76</ele>
        <time>2015-06-28T12:52:46Z</time>
      </trkpt>
      <trkpt lat="46.7509" lon="6.35369">
        <ele>1412.79</ele>
        <time>2015-06-28T12:53:16Z</time>
      </trkpt>
      <trkpt lat="46.7509" lon="6.35369">
        <ele>1413.76</ele>
        <time>2015-06-28T12:53:50Z</time>
      </trkpt>
      <trkpt lat="46.75091" lon="6.35369">
        <ele>1413.76</ele>
        <time>2015-06-28T12:54:21Z</time>
      </trkpt>
      <trkpt lat="46.7509" lon="6.35368">
        <ele>1413.76</ele>
        <time>2015-06-28T12:55:01Z</time>
      </trkpt>
      <trkpt lat="46.75091" lon="6.35369">
        <ele>1414.24</ele>
        <time>2015-06-28T12:55:39Z</time>
      </trkpt>
      <trkpt lat="46.75091" lon="6.35369">
        <ele>1414.24</ele>
        <time>2015-06-28T12:56:16Z</time>
      </trkpt>
      <trkpt lat="46.75091" lon="6.35369">
        <ele>1414.72</ele>
        <time>2015-06-28T12:56:52Z</time>
      </trkpt>
      <trkpt lat="46.75091" lon="6.35367">
        <ele>1414.72</ele>
        <time>2015-06-28T12:57:31Z</time>
      </trkpt>
      <trkpt lat="46.75091" lon="6.35366">
        <ele>1414.24</ele>
        <time>2015-06-28T12:58:04Z</time>
      </trkpt>
      <trkpt lat="46.75092" lon="6.35366">
        <ele>1414.72</ele>
        <time>2015-06-28T12:58:39Z</time>
      </trkpt>
      <trkpt lat="46.75092" lon="6.35366">
        <ele>1414.72</ele>
        <time>2015-06-28T12:59:15Z</time>
      </trkpt>
      <trkpt lat="46.75092" lon="6.35366">
        <ele>1415.2</ele>
        <time>2015-06-28T12:59:48Z</time>
      </trkpt>
      <trkpt lat="46.75092" lon="6.35365">
        <ele>1415.2</ele>
        <time>2015-06-28T13:00:12Z</time>
      </trkpt>
      <trkpt lat="46.75091" lon="6.35366">
        <ele>1415.68</ele>
        <time>2015-06-28T13:01:00Z</time>
      </trkpt>
      <trkpt lat="46.75091" lon="6.35366">
        <ele>1416.16</ele>
        <time>2015-06-28T13:01:38Z</time>
      </trkpt>
      <trkpt lat="46.75091" lon="6.35365">
        <ele>1415.68</ele>
        <time>2015-06-28T13:02:14Z</time>
      </trkpt>
      <trkpt lat="46.75091" lon="6.35364">
        <ele>1416.16</ele>
        <time>2015-06-28T13:02:52Z</time>
      </trkpt>
      <trkpt lat="46.75091" lon="6.35365">
        <ele>1416.64</ele>
        <time>2015-06-28T13:03:31Z</time>
      </trkpt>
      <trkpt lat="46.7509" lon="6.35365">
        <ele>1416.64</ele>
        <time>2015-06-28T13:04:06Z</time>
      </trkpt>
      <trkpt lat="46.7509" lon="6.35366">
        <ele>1416.64</ele>
        <time>2015-06-28T13:04:49Z</time>
      </trkpt>
      <trkpt lat="46.7509" lon="6.35366">
        <ele>1417.12</ele>
        <time>2015-06-28T13:05:20Z</time>
      </trkpt>
      <trkpt lat="46.7509" lon="6.35366">
        <ele>1417.12</ele>
        <time>2015-06-28T13:05:55Z</time>
      </trkpt>
      <trkpt lat="46.75089" lon="6.35366">
        <ele>1417.6</ele>
        <time>2015-06-28T13:06:28Z</time>
      </trkpt>
      <trkpt lat="46.75089" lon="6.35366">
        <ele>1418.08</ele>
        <time>2015-06-28T13:06:59Z</time>
      </trkpt>
      <trkpt lat="46.75089" lon="6.35366">
        <ele>1418.08</ele>
        <time>2015-06-28T13:07:00Z</time>
      </trkpt>
      <trkpt lat="46.75093" lon="6.35374">
        <ele>1418.08</ele>
        <time>2015-06-28T13:07:12Z</time>
      </trkpt>
      <trkpt lat="46.75092" lon="6.35376">
        <ele>1418.08</ele>
        <time>2015-06-28T13:07:27Z</time>
      </trkpt>
      <trkpt lat="46.75093" lon="6.35376">
        <ele>1417.6</ele>
        <time>2015-06-28T13:08:01Z</time>
      </trkpt>
      <trkpt lat="46.75093" lon="6.35377">
        <ele>1418.08</ele>
        <time>2015-06-28T13:08:24Z</time>
      </trkpt>
      <trkpt lat="46.75093" lon="6.35376">
        <ele>1417.6</ele>
        <time>2015-06-28T13:08:59Z</time>
      </trkpt>
      <trkpt lat="46.75093" lon="6.35377">
        <ele>1418.56</ele>
        <time>2015-06-28T13:09:35Z</time>
      </trkpt>
      <trkpt lat="46.75093" lon="6.35377">
        <ele>1418.56</ele>
        <time>2015-06-28T13:10:10Z</time>
      </trkpt>
      <trkpt lat="46.75093" lon="6.35377">
        <ele>1419.04</ele>
        <time>2015-06-28T13:10:24Z</time>
      </trkpt>
      <trkpt lat="46.75093" lon="6.35377">
        <ele>1419.04</ele>
        <time>2015-06-28T13:10:31Z</time>
      </trkpt>
      <trkpt lat="46.75099" lon="6.35385">
        <ele>1418.56</ele>
        <time>2015-06-28T13:10:39Z</time>
      </trkpt>
      <trkpt lat="46.751" lon="6.35396">
        <ele>1418.56</ele>
        <time>2015-06-28T13:10:43Z</time>
      </trkpt>
      <trkpt lat="46.75082" lon="6.35416">
        <ele>1416.64</ele>
        <time>2015-06-28T13:10:55Z</time>
      </trkpt>
      <trkpt lat="46.75079" lon="6.35418">
        <ele>1415.68</ele>
        <time>2015-06-28T13:11:11Z</time>
      </trkpt>
      <trkpt lat="46.75073" lon="6.35429">
        <ele>1414.72</ele>
        <time>2015-06-28T13:11:29Z</time>
      </trkpt>
      <trkpt lat="46.75065" lon="6.35438">
        <ele>1411.83</ele>
        <time>2015-06-28T13:11:35Z</time>
      </trkpt>
      <trkpt lat="46.75064" lon="6.3544">
        <ele>1411.35</ele>
        <time>2015-06-28T13:11:36Z</time>
      </trkpt>
      <trkpt lat="46.75058" lon="6.35448">
        <ele>1409.43</ele>
        <time>2015-06-28T13:11:40Z</time>
      </trkpt>
      <trkpt lat="46.75052" lon="6.35455">
        <ele>1407.03</ele>
        <time>2015-06-28T13:11:44Z</time>
      </trkpt>
      <trkpt lat="46.7505" lon="6.35459">
        <ele>1406.07</ele>
        <time>2015-06-28T13:11:46Z</time>
      </trkpt>
      <trkpt lat="46.75043" lon="6.35471">
        <ele>1402.7</ele>
        <time>2015-06-28T13:11:51Z</time>
      </trkpt>
      <trkpt lat="46.75037" lon="6.35483">
        <ele>1400.3</ele>
        <time>2015-06-28T13:11:57Z</time>
      </trkpt>
      <trkpt lat="46.75035" lon="6.35499">
        <ele>1397.41</ele>
        <time>2015-06-28T13:12:05Z</time>
      </trkpt>
      <trkpt lat="46.75032" lon="6.35516">
        <ele>1394.05</ele>
        <time>2015-06-28T13:12:13Z</time>
      </trkpt>
      <trkpt lat="46.75032" lon="6.35527">
        <ele>1391.17</ele>
        <time>2015-06-28T13:12:19Z</time>
      </trkpt>
      <trkpt lat="46.75032" lon="6.35542">
        <ele>1387.8</ele>
        <time>2015-06-28T13:12:24Z</time>
      </trkpt>
      <trkpt lat="46.75032" lon="6.35558">
        <ele>1383.96</ele>
        <time>2015-06-28T13:12:29Z</time>
      </trkpt>
      <trkpt lat="46.75032" lon="6.35572">
        <ele>1381.55</ele>
        <time>2015-06-28T13:12:32Z</time>
      </trkpt>
      <trkpt lat="46.75033" lon="6.35578">
        <ele>1380.11</ele>
        <time>2015-06-28T13:12:33Z</time>
      </trkpt>
      <trkpt lat="46.75034" lon="6.35584">
        <ele>1379.63</ele>
        <time>2015-06-28T13:12:34Z</time>
      </trkpt>
      <trkpt lat="46.75034" lon="6.35597">
        <ele>1378.19</ele>
        <time>2015-06-28T13:12:36Z</time>
      </trkpt>
      <trkpt lat="46.75035" lon="6.35624">
        <ele>1374.82</ele>
        <time>2015-06-28T13:12:41Z</time>
      </trkpt>
      <trkpt lat="46.75035" lon="6.3564">
        <ele>1373.38</ele>
        <time>2015-06-28T13:12:44Z</time>
      </trkpt>
      <trkpt lat="46.75032" lon="6.35656">
        <ele>1371.46</ele>
        <time>2015-06-28T13:12:51Z</time>
      </trkpt>
      <trkpt lat="46.75031" lon="6.35657">
        <ele>1370.5</ele>
        <time>2015-06-28T13:12:52Z</time>
      </trkpt>
      <trkpt lat="46.75028" lon="6.35656">
        <ele>1370.02</ele>
        <time>2015-06-28T13:12:53Z</time>
      </trkpt>
      <trkpt lat="46.75026" lon="6.35655">
        <ele>1369.54</ele>
        <time>2015-06-28T13:12:54Z</time>
      </trkpt>
      <trkpt lat="46.75024" lon="6.35653">
        <ele>1369.54</ele>
        <time>2015-06-28T13:12:55Z</time>
      </trkpt>
      <trkpt lat="46.75021" lon="6.35652">
        <ele>1369.54</ele>
        <time>2015-06-28T13:12:56Z</time>
      </trkpt>
      <trkpt lat="46.75019" lon="6.35651">
        <ele>1369.54</ele>
        <time>2015-06-28T13:12:57Z</time>
      </trkpt>
      <trkpt lat="46.75001" lon="6.3564">
        <ele>1370.5</ele>
        <time>2015-06-28T13:13:10Z</time>
      </trkpt>
      <trkpt lat="46.74977" lon="6.35643">
        <ele>1368.57</ele>
        <time>2015-06-28T13:13:18Z</time>
      </trkpt>
      <trkpt lat="46.74971" lon="6.35646">
        <ele>1367.61</ele>
        <time>2015-06-28T13:13:20Z</time>
      </trkpt>
      <trkpt lat="46.74969" lon="6.35649">
        <ele>1367.61</ele>
        <time>2015-06-28T13:13:21Z</time>
      </trkpt>
      <trkpt lat="46.74968" lon="6.35651">
        <ele>1367.13</ele>
        <time>2015-06-28T13:13:22Z</time>
      </trkpt>
      <trkpt lat="46.74961" lon="6.35661">
        <ele>1365.69</ele>
        <time>2015-06-28T13:13:36Z</time>
      </trkpt>
      <trkpt lat="46.74958" lon="6.35662">
        <ele>1364.73</ele>
        <time>2015-06-28T13:13:53Z</time>
      </trkpt>
      <trkpt lat="46.74957" lon="6.35662">
        <ele>1364.73</ele>
        <time>2015-06-28T13:14:08Z</time>
      </trkpt>
      <trkpt lat="46.74955" lon="6.35663">
        <ele>1364.25</ele>
        <time>2015-06-28T13:14:12Z</time>
      </trkpt>
      <trkpt lat="46.74952" lon="6.35666">
        <ele>1363.77</ele>
        <time>2015-06-28T13:14:14Z</time>
      </trkpt>
      <trkpt lat="46.74945" lon="6.3567">
        <ele>1361.36</ele>
        <time>2015-06-28T13:14:19Z</time>
      </trkpt>
      <trkpt lat="46.74932" lon="6.35674">
        <ele>1358</ele>
        <time>2015-06-28T13:14:27Z</time>
      </trkpt>
      <trkpt lat="46.74931" lon="6.35674">
        <ele>1358</ele>
        <time>2015-06-28T13:14:28Z</time>
      </trkpt>
      <trkpt lat="46.74929" lon="6.35675">
        <ele>1358</ele>
        <time>2015-06-28T13:14:29Z</time>
      </trkpt>
      <trkpt lat="46.74927" lon="6.35676">
        <ele>1357.04</ele>
        <time>2015-06-28T13:14:30Z</time>
      </trkpt>
      <trkpt lat="46.74926" lon="6.35675">
        <ele>1357.04</ele>
        <time>2015-06-28T13:14:31Z</time>
      </trkpt>
      <trkpt lat="46.74924" lon="6.35676">
        <ele>1356.08</ele>
        <time>2015-06-28T13:14:32Z</time>
      </trkpt>
      <trkpt lat="46.74921" lon="6.35676">
        <ele>1356.08</ele>
        <time>2015-06-28T13:14:33Z</time>
      </trkpt>
      <trkpt lat="46.74919" lon="6.35675">
        <ele>1356.08</ele>
        <time>2015-06-28T13:14:34Z</time>
      </trkpt>
      <trkpt lat="46.74916" lon="6.35675">
        <ele>1355.6</ele>
        <time>2015-06-28T13:14:35Z</time>
      </trkpt>
      <trkpt lat="46.74914" lon="6.35675">
        <ele>1355.6</ele>
        <time>2015-06-28T13:14:36Z</time>
      </trkpt>
      <trkpt lat="46.74912" lon="6.35676">
        <ele>1355.6</ele>
        <time>2015-06-28T13:14:37Z</time>
      </trkpt>
      <trkpt lat="46.74909" lon="6.35676">
        <ele>1355.6</ele>
        <time>2015-06-28T13:14:38Z</time>
      </trkpt>
      <trkpt lat="46.74906" lon="6.35676">
        <ele>1355.6</ele>
        <time>2015-06-28T13:14:39Z</time>
      </trkpt>
      <trkpt lat="46.74883" lon="6.35671">
        <ele>1355.6</ele>
        <time>2015-06-28T13:14:47Z</time>
      </trkpt>
      <trkpt lat="46.7488" lon="6.35672">
        <ele>1355.12</ele>
        <time>2015-06-28T13:14:48Z</time>
      </trkpt>
      <trkpt lat="46.74877" lon="6.35674">
        <ele>1355.12</ele>
        <time>2015-06-28T13:14:49Z</time>
      </trkpt>
      <trkpt lat="46.74874" lon="6.35676">
        <ele>1354.63</ele>
        <time>2015-06-28T13:14:50Z</time>
      </trkpt>
      <trkpt lat="46.74871" lon="6.35679">
        <ele>1355.12</ele>
        <time>2015-06-28T13:14:51Z</time>
      </trkpt>
      <trkpt lat="46.74868" lon="6.35682">
        <ele>1355.6</ele>
        <time>2015-06-28T13:14:52Z</time>
      </trkpt>
      <trkpt lat="46.74865" lon="6.35685">
        <ele>1354.63</ele>
        <time>2015-06-28T13:14:53Z</time>
      </trkpt>
      <trkpt lat="46.74828" lon="6.35712">
        <ele>1355.12</ele>
        <time>2015-06-28T13:15:05Z</time>
      </trkpt>
      <trkpt lat="46.748" lon="6.3574">
        <ele>1355.12</ele>
        <time>2015-06-28T13:15:16Z</time>
      </trkpt>
      <trkpt lat="46.74771" lon="6.35756">
        <ele>1355.12</ele>
        <time>2015-06-28T13:15:29Z</time>
      </trkpt>
      <trkpt lat="46.74768" lon="6.35756">
        <ele>1355.12</ele>
        <time>2015-06-28T13:15:32Z</time>
      </trkpt>
      <trkpt lat="46.74767" lon="6.35756">
        <ele>1355.12</ele>
        <time>2015-06-28T13:15:33Z</time>
      </trkpt>
      <trkpt lat="46.74766" lon="6.35757">
        <ele>1354.63</ele>
        <time>2015-06-28T13:15:34Z</time>
      </trkpt>
      <trkpt lat="46.74765" lon="6.35759">
        <ele>1355.12</ele>
        <time>2015-06-28T13:15:35Z</time>
      </trkpt>
      <trkpt lat="46.74766" lon="6.35763">
        <ele>1354.63</ele>
        <time>2015-06-28T13:15:46Z</time>
      </trkpt>
      <trkpt lat="46.74767" lon="6.35764">
        <ele>1355.12</ele>
        <time>2015-06-28T13:16:21Z</time>
      </trkpt>
      <trkpt lat="46.74768" lon="6.35766">
        <ele>1355.12</ele>
        <time>2015-06-28T13:16:35Z</time>
      </trkpt>
      <trkpt lat="46.74768" lon="6.35768">
        <ele>1355.12</ele>
        <time>2015-06-28T13:16:44Z</time>
      </trkpt>
      <trkpt lat="46.74766" lon="6.35779">
        <ele>1355.12</ele>
        <time>2015-06-28T13:16:49Z</time>
      </trkpt>
      <trkpt lat="46.74745" lon="6.35809">
        <ele>1354.63</ele>
        <time>2015-06-28T13:17:01Z</time>
      </trkpt>
      <trkpt lat="46.74729" lon="6.35861">
        <ele>1354.63</ele>
        <time>2015-06-28T13:17:12Z</time>
      </trkpt>
      <trkpt lat="46.74728" lon="6.35874">
        <ele>1355.6</ele>
        <time>2015-06-28T13:17:15Z</time>
      </trkpt>
      <trkpt lat="46.74721" lon="6.35879">
        <ele>1356.08</ele>
        <time>2015-06-28T13:17:19Z</time>
      </trkpt>
      <trkpt lat="46.7471" lon="6.35876">
        <ele>1358</ele>
        <time>2015-06-28T13:17:26Z</time>
      </trkpt>
      <trkpt lat="46.74692" lon="6.35884">
        <ele>1359.92</ele>
        <time>2015-06-28T13:17:37Z</time>
      </trkpt>
      <trkpt lat="46.74686" lon="6.35882">
        <ele>1360.4</ele>
        <time>2015-06-28T13:17:42Z</time>
      </trkpt>
      <trkpt lat="46.74671" lon="6.35881">
        <ele>1363.77</ele>
        <time>2015-06-28T13:17:54Z</time>
      </trkpt>
      <trkpt lat="46.74659" lon="6.35882">
        <ele>1365.69</ele>
        <time>2015-06-28T13:18:05Z</time>
      </trkpt>
      <trkpt lat="46.74643" lon="6.35874">
        <ele>1367.61</ele>
        <time>2015-06-28T13:18:21Z</time>
      </trkpt>
      <trkpt lat="46.74632" lon="6.35872">
        <ele>1370.5</ele>
        <time>2015-06-28T13:18:29Z</time>
      </trkpt>
      <trkpt lat="46.74624" lon="6.35877">
        <ele>1371.46</ele>
        <time>2015-06-28T13:18:46Z</time>
      </trkpt>
      <trkpt lat="46.74617" lon="6.35889">
        <ele>1372.9</ele>
        <time>2015-06-28T13:19:00Z</time>
      </trkpt>
      <trkpt lat="46.74613" lon="6.35888">
        <ele>1373.38</ele>
        <time>2015-06-28T13:19:03Z</time>
      </trkpt>
      <trkpt lat="46.74601" lon="6.35895">
        <ele>1373.38</ele>
        <time>2015-06-28T13:19:11Z</time>
      </trkpt>
      <trkpt lat="46.74588" lon="6.35891">
        <ele>1374.82</ele>
        <time>2015-06-28T13:19:25Z</time>
      </trkpt>
      <trkpt lat="46.74581" lon="6.35874">
        <ele>1377.23</ele>
        <time>2015-06-28T13:19:34Z</time>
      </trkpt>
      <trkpt lat="46.74568" lon="6.35862">
        <ele>1379.15</ele>
        <time>2015-06-28T13:19:45Z</time>
      </trkpt>
      <trkpt lat="46.74566" lon="6.35862">
        <ele>1379.15</ele>
        <time>2015-06-28T13:19:46Z</time>
      </trkpt>
      <trkpt lat="46.7455" lon="6.35851">
        <ele>1380.59</ele>
        <time>2015-06-28T13:19:59Z</time>
      </trkpt>
      <trkpt lat="46.7455" lon="6.35849">
        <ele>1380.11</ele>
        <time>2015-06-28T13:20:00Z</time>
      </trkpt>
      <trkpt lat="46.7454" lon="6.35841">
        <ele>1382.03</ele>
        <time>2015-06-28T13:20:11Z</time>
      </trkpt>
      <trkpt lat="46.74533" lon="6.35838">
        <ele>1383.47</ele>
        <time>2015-06-28T13:20:21Z</time>
      </trkpt>
      <trkpt lat="46.7452" lon="6.35828">
        <ele>1384.92</ele>
        <time>2015-06-28T13:20:34Z</time>
      </trkpt>
      <trkpt lat="46.74509" lon="6.35816">
        <ele>1387.32</ele>
        <time>2015-06-28T13:20:50Z</time>
      </trkpt>
      <trkpt lat="46.74505" lon="6.35817">
        <ele>1387.8</ele>
        <time>2015-06-28T13:21:02Z</time>
      </trkpt>
      <trkpt lat="46.74496" lon="6.35835">
        <ele>1390.68</ele>
        <time>2015-06-28T13:21:13Z</time>
      </trkpt>
      <trkpt lat="46.74488" lon="6.3583">
        <ele>1392.13</ele>
        <time>2015-06-28T13:21:19Z</time>
      </trkpt>
      <trkpt lat="46.74469" lon="6.35811">
        <ele>1392.13</ele>
        <time>2015-06-28T13:21:33Z</time>
      </trkpt>
      <trkpt lat="46.74462" lon="6.35807">
        <ele>1392.61</ele>
        <time>2015-06-28T13:21:38Z</time>
      </trkpt>
      <trkpt lat="46.74457" lon="6.35802">
        <ele>1392.61</ele>
        <time>2015-06-28T13:21:42Z</time>
      </trkpt>
      <trkpt lat="46.74451" lon="6.35798">
        <ele>1394.05</ele>
        <time>2015-06-28T13:21:46Z</time>
      </trkpt>
      <trkpt lat="46.74437" lon="6.35792">
        <ele>1394.53</ele>
        <time>2015-06-28T13:21:56Z</time>
      </trkpt>
      <trkpt lat="46.74411" lon="6.35774">
        <ele>1398.37</ele>
        <time>2015-06-28T13:22:11Z</time>
      </trkpt>
      <trkpt lat="46.7438" lon="6.35745">
        <ele>1397.41</ele>
        <time>2015-06-28T13:22:24Z</time>
      </trkpt>
      <trkpt lat="46.74374" lon="6.3574">
        <ele>1397.89</ele>
        <time>2015-06-28T13:22:27Z</time>
      </trkpt>
      <trkpt lat="46.74366" lon="6.35742">
        <ele>1397.41</ele>
        <time>2015-06-28T13:22:30Z</time>
      </trkpt>
      <trkpt lat="46.74364" lon="6.35744">
        <ele>1396.93</ele>
        <time>2015-06-28T13:22:31Z</time>
      </trkpt>
      <trkpt lat="46.74362" lon="6.35746">
        <ele>1396.45</ele>
        <time>2015-06-28T13:22:32Z</time>
      </trkpt>
      <trkpt lat="46.74361" lon="6.35748">
        <ele>1396.45</ele>
        <time>2015-06-28T13:22:33Z</time>
      </trkpt>
      <trkpt lat="46.74358" lon="6.35749">
        <ele>1395.49</ele>
        <time>2015-06-28T13:22:34Z</time>
      </trkpt>
      <trkpt lat="46.74354" lon="6.3575">
        <ele>1395.49</ele>
        <time>2015-06-28T13:22:35Z</time>
      </trkpt>
      <trkpt lat="46.74349" lon="6.35748">
        <ele>1394.53</ele>
        <time>2015-06-28T13:22:36Z</time>
      </trkpt>
      <trkpt lat="46.74345" lon="6.35744">
        <ele>1394.53</ele>
        <time>2015-06-28T13:22:37Z</time>
      </trkpt>
      <trkpt lat="46.74341" lon="6.3574">
        <ele>1394.53</ele>
        <time>2015-06-28T13:22:38Z</time>
      </trkpt>
      <trkpt lat="46.74337" lon="6.35736">
        <ele>1394.53</ele>
        <time>2015-06-28T13:22:39Z</time>
      </trkpt>
      <trkpt lat="46.74333" lon="6.35732">
        <ele>1394.53</ele>
        <time>2015-06-28T13:22:40Z</time>
      </trkpt>
      <trkpt lat="46.74316" lon="6.3571">
        <ele>1396.93</ele>
        <time>2015-06-28T13:22:50Z</time>
      </trkpt>
      <trkpt lat="46.74289" lon="6.35678">
        <ele>1398.86</ele>
        <time>2015-06-28T13:23:07Z</time>
      </trkpt>
      <trkpt lat="46.74277" lon="6.35641">
        <ele>1399.82</ele>
        <time>2015-06-28T13:23:21Z</time>
      </trkpt>
      <trkpt lat="46.74262" lon="6.35619">
        <ele>1403.18</ele>
        <time>2015-06-28T13:23:30Z</time>
      </trkpt>
      <trkpt lat="46.74236" lon="6.35603">
        <ele>1405.58</ele>
        <time>2015-06-28T13:23:43Z</time>
      </trkpt>
      <trkpt lat="46.74188" lon="6.35614">
        <ele>1404.14</ele>
        <time>2015-06-28T13:23:59Z</time>
      </trkpt>
      <trkpt lat="46.74169" lon="6.35601">
        <ele>1406.07</ele>
        <time>2015-06-28T13:24:08Z</time>
      </trkpt>
      <trkpt lat="46.74145" lon="6.35575">
        <ele>1408.95</ele>
        <time>2015-06-28T13:24:22Z</time>
      </trkpt>
      <trkpt lat="46.7413" lon="6.35562">
        <ele>1410.39</ele>
        <time>2015-06-28T13:24:32Z</time>
      </trkpt>
      <trkpt lat="46.74129" lon="6.35561">
        <ele>1409.91</ele>
        <time>2015-06-28T13:24:33Z</time>
      </trkpt>
      <trkpt lat="46.74127" lon="6.35561">
        <ele>1410.39</ele>
        <time>2015-06-28T13:24:34Z</time>
      </trkpt>
      <trkpt lat="46.74126" lon="6.35561">
        <ele>1410.39</ele>
        <time>2015-06-28T13:24:35Z</time>
      </trkpt>
      <trkpt lat="46.74124" lon="6.35563">
        <ele>1410.39</ele>
        <time>2015-06-28T13:24:45Z</time>
      </trkpt>
      <trkpt lat="46.74124" lon="6.35563">
        <ele>1409.91</ele>
        <time>2015-06-28T13:25:04Z</time>
      </trkpt>
      <trkpt lat="46.74124" lon="6.35563">
        <ele>1410.39</ele>
        <time>2015-06-28T13:25:48Z</time>
      </trkpt>
      <trkpt lat="46.74124" lon="6.35562">
        <ele>1410.87</ele>
        <time>2015-06-28T13:26:39Z</time>
      </trkpt>
      <trkpt lat="46.74122" lon="6.35562">
        <ele>1410.39</ele>
        <time>2015-06-28T13:27:30Z</time>
      </trkpt>
      <trkpt lat="46.74123" lon="6.35563">
        <ele>1410.87</ele>
        <time>2015-06-28T13:28:17Z</time>
      </trkpt>
      <trkpt lat="46.74123" lon="6.35563">
        <ele>1410.87</ele>
        <time>2015-06-28T13:29:06Z</time>
      </trkpt>
      <trkpt lat="46.74123" lon="6.35562">
        <ele>1410.87</ele>
        <time>2015-06-28T13:29:20Z</time>
      </trkpt>
      <trkpt lat="46.74123" lon="6.35562">
        <ele>1410.87</ele>
        <time>2015-06-28T13:29:27Z</time>
      </trkpt>
      <trkpt lat="46.74122" lon="6.35561">
        <ele>1410.87</ele>
        <time>2015-06-28T13:29:28Z</time>
      </trkpt>
      <trkpt lat="46.7412" lon="6.35559">
        <ele>1410.87</ele>
        <time>2015-06-28T13:29:29Z</time>
      </trkpt>
      <trkpt lat="46.74118" lon="6.35557">
        <ele>1410.87</ele>
        <time>2015-06-28T13:29:30Z</time>
      </trkpt>
      <trkpt lat="46.74116" lon="6.35556">
        <ele>1410.39</ele>
        <time>2015-06-28T13:29:31Z</time>
      </trkpt>
      <trkpt lat="46.74081" lon="6.35545">
        <ele>1409.43</ele>
        <time>2015-06-28T13:29:43Z</time>
      </trkpt>
      <trkpt lat="46.74048" lon="6.35538">
        <ele>1410.39</ele>
        <time>2015-06-28T13:29:56Z</time>
      </trkpt>
      <trkpt lat="46.74036" lon="6.35541">
        <ele>1412.31</ele>
        <time>2015-06-28T13:30:02Z</time>
      </trkpt>
      <trkpt lat="46.74013" lon="6.35544">
        <ele>1414.72</ele>
        <time>2015-06-28T13:30:15Z</time>
      </trkpt>
      <trkpt lat="46.73989" lon="6.35541">
        <ele>1416.16</ele>
        <time>2015-06-28T13:30:29Z</time>
      </trkpt>
      <trkpt lat="46.73955" lon="6.35507">
        <ele>1414.72</ele>
        <time>2015-06-28T13:30:43Z</time>
      </trkpt>
      <trkpt lat="46.73907" lon="6.35448">
        <ele>1414.72</ele>
        <time>2015-06-28T13:30:59Z</time>
      </trkpt>
      <trkpt lat="46.73901" lon="6.35446">
        <ele>1415.68</ele>
        <time>2015-06-28T13:31:02Z</time>
      </trkpt>
      <trkpt lat="46.73899" lon="6.35446">
        <ele>1416.16</ele>
        <time>2015-06-28T13:31:03Z</time>
      </trkpt>
      <trkpt lat="46.73897" lon="6.35446">
        <ele>1415.68</ele>
        <time>2015-06-28T13:31:04Z</time>
      </trkpt>
      <trkpt lat="46.73895" lon="6.35445">
        <ele>1416.64</ele>
        <time>2015-06-28T13:31:05Z</time>
      </trkpt>
      <trkpt lat="46.73894" lon="6.35443">
        <ele>1417.6</ele>
        <time>2015-06-28T13:31:06Z</time>
      </trkpt>
      <trkpt lat="46.73892" lon="6.35442">
        <ele>1417.12</ele>
        <time>2015-06-28T13:31:07Z</time>
      </trkpt>
      <trkpt lat="46.7389" lon="6.35442">
        <ele>1417.6</ele>
        <time>2015-06-28T13:31:08Z</time>
      </trkpt>
      <trkpt lat="46.73888" lon="6.35443">
        <ele>1418.08</ele>
        <time>2015-06-28T13:31:09Z</time>
      </trkpt>
      <trkpt lat="46.73887" lon="6.35444">
        <ele>1418.56</ele>
        <time>2015-06-28T13:31:10Z</time>
      </trkpt>
      <trkpt lat="46.73885" lon="6.35445">
        <ele>1418.56</ele>
        <time>2015-06-28T13:31:11Z</time>
      </trkpt>
      <trkpt lat="46.73884" lon="6.35445">
        <ele>1419.52</ele>
        <time>2015-06-28T13:31:21Z</time>
      </trkpt>
      <trkpt lat="46.73882" lon="6.35447">
        <ele>1419.52</ele>
        <time>2015-06-28T13:31:23Z</time>
      </trkpt>
      <trkpt lat="46.73876" lon="6.35451">
        <ele>1420.97</ele>
        <time>2015-06-28T13:31:29Z</time>
      </trkpt>
      <trkpt lat="46.73864" lon="6.35455">
        <ele>1421.45</ele>
        <time>2015-06-28T13:31:42Z</time>
      </trkpt>
      <trkpt lat="46.73857" lon="6.35454">
        <ele>1422.41</ele>
        <time>2015-06-28T13:31:52Z</time>
      </trkpt>
      <trkpt lat="46.73828" lon="6.35449">
        <ele>1423.85</ele>
        <time>2015-06-28T13:32:09Z</time>
      </trkpt>
      <trkpt lat="46.73798" lon="6.35446">
        <ele>1425.77</ele>
        <time>2015-06-28T13:32:26Z</time>
      </trkpt>
      <trkpt lat="46.73771" lon="6.35448">
        <ele>1427.7</ele>
        <time>2015-06-28T13:32:42Z</time>
      </trkpt>
      <trkpt lat="46.73742" lon="6.35452">
        <ele>1428.66</ele>
        <time>2015-06-28T13:32:59Z</time>
      </trkpt>
      <trkpt lat="46.73713" lon="6.35434">
        <ele>1429.62</ele>
        <time>2015-06-28T13:33:13Z</time>
      </trkpt>
      <trkpt lat="46.73706" lon="6.35425">
        <ele>1428.18</ele>
        <time>2015-06-28T13:33:16Z</time>
      </trkpt>
      <trkpt lat="46.73677" lon="6.35398">
        <ele>1425.77</ele>
        <time>2015-06-28T13:33:27Z</time>
      </trkpt>
      <trkpt lat="46.73669" lon="6.35396">
        <ele>1425.77</ele>
        <time>2015-06-28T13:33:29Z</time>
      </trkpt>
      <trkpt lat="46.73664" lon="6.35395">
        <ele>1425.77</ele>
        <time>2015-06-28T13:33:30Z</time>
      </trkpt>
      <trkpt lat="46.7364" lon="6.3539">
        <ele>1425.77</ele>
        <time>2015-06-28T13:33:36Z</time>
      </trkpt>
      <trkpt lat="46.73605" lon="6.3536">
        <ele>1424.33</ele>
        <time>2015-06-28T13:33:49Z</time>
      </trkpt>
      <trkpt lat="46.73604" lon="6.35358">
        <ele>1423.85</ele>
        <time>2015-06-28T13:33:51Z</time>
      </trkpt>
      <trkpt lat="46.73603" lon="6.35358">
        <ele>1423.37</ele>
        <time>2015-06-28T13:34:05Z</time>
      </trkpt>
      <trkpt lat="46.73602" lon="6.35358">
        <ele>1423.37</ele>
        <time>2015-06-28T13:34:29Z</time>
      </trkpt>
      <trkpt lat="46.73598" lon="6.35353">
        <ele>1422.89</ele>
        <time>2015-06-28T13:34:43Z</time>
      </trkpt>
      <trkpt lat="46.73574" lon="6.35343">
        <ele>1420.97</ele>
        <time>2015-06-28T13:34:55Z</time>
      </trkpt>
      <trkpt lat="46.73569" lon="6.35342">
        <ele>1420.97</ele>
        <time>2015-06-28T13:35:06Z</time>
      </trkpt>
      <trkpt lat="46.73565" lon="6.35337">
        <ele>1420</ele>
        <time>2015-06-28T13:35:16Z</time>
      </trkpt>
      <trkpt lat="46.73564" lon="6.35336">
        <ele>1420.49</ele>
        <time>2015-06-28T13:35:17Z</time>
      </trkpt>
      <trkpt lat="46.73561" lon="6.35334">
        <ele>1420</ele>
        <time>2015-06-28T13:35:21Z</time>
      </trkpt>
      <trkpt lat="46.73559" lon="6.35333">
        <ele>1420</ele>
        <time>2015-06-28T13:35:22Z</time>
      </trkpt>
      <trkpt lat="46.73557" lon="6.35332">
        <ele>1420</ele>
        <time>2015-06-28T13:35:23Z</time>
      </trkpt>
      <trkpt lat="46.73554" lon="6.35331">
        <ele>1420</ele>
        <time>2015-06-28T13:35:24Z</time>
      </trkpt>
      <trkpt lat="46.73551" lon="6.3533">
        <ele>1419.52</ele>
        <time>2015-06-28T13:35:25Z</time>
      </trkpt>
      <trkpt lat="46.73548" lon="6.35328">
        <ele>1419.52</ele>
        <time>2015-06-28T13:35:26Z</time>
      </trkpt>
      <trkpt lat="46.73545" lon="6.35327">
        <ele>1419.52</ele>
        <time>2015-06-28T13:35:27Z</time>
      </trkpt>
      <trkpt lat="46.73541" lon="6.35326">
        <ele>1419.52</ele>
        <time>2015-06-28T13:35:28Z</time>
      </trkpt>
      <trkpt lat="46.73515" lon="6.35316">
        <ele>1418.08</ele>
        <time>2015-06-28T13:35:34Z</time>
      </trkpt>
      <trkpt lat="46.7345" lon="6.35283">
        <ele>1416.64</ele>
        <time>2015-06-28T13:35:46Z</time>
      </trkpt>
      <trkpt lat="46.73418" lon="6.3526">
        <ele>1417.6</ele>
        <time>2015-06-28T13:35:57Z</time>
      </trkpt>
      <trkpt lat="46.73415" lon="6.35246">
        <ele>1416.64</ele>
        <time>2015-06-28T13:36:07Z</time>
      </trkpt>
      <trkpt lat="46.73416" lon="6.35245">
        <ele>1416.64</ele>
        <time>2015-06-28T13:36:09Z</time>
      </trkpt>
      <trkpt lat="46.73416" lon="6.35244">
        <ele>1416.16</ele>
        <time>2015-06-28T13:36:21Z</time>
      </trkpt>
      <trkpt lat="46.73416" lon="6.35243">
        <ele>1416.64</ele>
        <time>2015-06-28T13:36:50Z</time>
      </trkpt>
      <trkpt lat="46.73416" lon="6.3524">
        <ele>1416.16</ele>
        <time>2015-06-28T13:37:01Z</time>
      </trkpt>
      <trkpt lat="46.73415" lon="6.35238">
        <ele>1416.16</ele>
        <time>2015-06-28T13:37:02Z</time>
      </trkpt>
      <trkpt lat="46.73415" lon="6.35236">
        <ele>1416.16</ele>
        <time>2015-06-28T13:37:03Z</time>
      </trkpt>
      <trkpt lat="46.73415" lon="6.35234">
        <ele>1416.16</ele>
        <time>2015-06-28T13:37:04Z</time>
      </trkpt>
      <trkpt lat="46.73413" lon="6.35232">
        <ele>1416.16</ele>
        <time>2015-06-28T13:37:05Z</time>
      </trkpt>
      <trkpt lat="46.73412" lon="6.3523">
        <ele>1415.68</ele>
        <time>2015-06-28T13:37:06Z</time>
      </trkpt>
      <trkpt lat="46.7341" lon="6.35229">
        <ele>1415.68</ele>
        <time>2015-06-28T13:37:07Z</time>
      </trkpt>
      <trkpt lat="46.73408" lon="6.35226">
        <ele>1415.2</ele>
        <time>2015-06-28T13:37:08Z</time>
      </trkpt>
      <trkpt lat="46.73407" lon="6.35224">
        <ele>1415.2</ele>
        <time>2015-06-28T13:37:09Z</time>
      </trkpt>
      <trkpt lat="46.73405" lon="6.35222">
        <ele>1414.72</ele>
        <time>2015-06-28T13:37:10Z</time>
      </trkpt>
      <trkpt lat="46.73397" lon="6.35208">
        <ele>1413.28</ele>
        <time>2015-06-28T13:37:20Z</time>
      </trkpt>
      <trkpt lat="46.73381" lon="6.3518">
        <ele>1409.91</ele>
        <time>2015-06-28T13:37:28Z</time>
      </trkpt>
      <trkpt lat="46.73364" lon="6.35146">
        <ele>1406.55</ele>
        <time>2015-06-28T13:37:37Z</time>
      </trkpt>
      <trkpt lat="46.73354" lon="6.35121">
        <ele>1404.14</ele>
        <time>2015-06-28T13:37:42Z</time>
      </trkpt>
      <trkpt lat="46.73349" lon="6.3511">
        <ele>1402.7</ele>
        <time>2015-06-28T13:37:44Z</time>
      </trkpt>
      <trkpt lat="46.73342" lon="6.35091">
        <ele>1401.26</ele>
        <time>2015-06-28T13:37:47Z</time>
      </trkpt>
      <trkpt lat="46.73334" lon="6.35065">
        <ele>1398.37</ele>
        <time>2015-06-28T13:37:51Z</time>
      </trkpt>
      <trkpt lat="46.73326" lon="6.3504">
        <ele>1395.01</ele>
        <time>2015-06-28T13:37:55Z</time>
      </trkpt>
      <trkpt lat="46.73317" lon="6.35017">
        <ele>1392.13</ele>
        <time>2015-06-28T13:38:00Z</time>
      </trkpt>
      <trkpt lat="46.73316" lon="6.35012">
        <ele>1391.17</ele>
        <time>2015-06-28T13:38:02Z</time>
      </trkpt>
      <trkpt lat="46.73316" lon="6.35004">
        <ele>1390.2</ele>
        <time>2015-06-28T13:38:13Z</time>
      </trkpt>
      <trkpt lat="46.73316" lon="6.35001">
        <ele>1389.72</ele>
        <time>2015-06-28T13:38:33Z</time>
      </trkpt>
      <trkpt lat="46.73316" lon="6.34999">
        <ele>1385.88</ele>
        <time>2015-06-28T13:38:41Z</time>
      </trkpt>
      <trkpt lat="46.73316" lon="6.34999">
        <ele>1390.2</ele>
        <time>2015-06-28T13:38:42Z</time>
      </trkpt>
      <trkpt lat="46.73316" lon="6.34999">
        <ele>1395.01</ele>
        <time>2015-06-28T13:38:43Z</time>
      </trkpt>
      <trkpt lat="46.73316" lon="6.34999">
        <ele>1390.2</ele>
        <time>2015-06-28T13:38:44Z</time>
      </trkpt>
      <trkpt lat="46.73316" lon="6.34999">
        <ele>1380.59</ele>
        <time>2015-06-28T13:38:45Z</time>
      </trkpt>
      <trkpt lat="46.73316" lon="6.34999">
        <ele>1390.68</ele>
        <time>2015-06-28T13:38:46Z</time>
      </trkpt>
      <trkpt lat="46.73316" lon="6.34998">
        <ele>1389.72</ele>
        <time>2015-06-28T13:38:52Z</time>
      </trkpt>
      <trkpt lat="46.73318" lon="6.34997">
        <ele>1389.24</ele>
        <time>2015-06-28T13:38:53Z</time>
      </trkpt>
      <trkpt lat="46.73319" lon="6.34997">
        <ele>1389.24</ele>
        <time>2015-06-28T13:38:54Z</time>
      </trkpt>
      <trkpt lat="46.73321" lon="6.34996">
        <ele>1389.72</ele>
        <time>2015-06-28T13:38:55Z</time>
      </trkpt>
      <trkpt lat="46.73323" lon="6.34994">
        <ele>1388.76</ele>
        <time>2015-06-28T13:38:56Z</time>
      </trkpt>
      <trkpt lat="46.73324" lon="6.34992">
        <ele>1388.76</ele>
        <time>2015-06-28T13:38:57Z</time>
      </trkpt>
      <trkpt lat="46.73326" lon="6.3499">
        <ele>1388.76</ele>
        <time>2015-06-28T13:38:58Z</time>
      </trkpt>
      <trkpt lat="46.73328" lon="6.34987">
        <ele>1388.76</ele>
        <time>2015-06-28T13:38:59Z</time>
      </trkpt>
      <trkpt lat="46.7336" lon="6.34968">
        <ele>1387.8</ele>
        <time>2015-06-28T13:39:10Z</time>
      </trkpt>
      <trkpt lat="46.7338" lon="6.34937">
        <ele>1385.4</ele>
        <time>2015-06-28T13:39:17Z</time>
      </trkpt>
      <trkpt lat="46.73383" lon="6.34932">
        <ele>1385.4</ele>
        <time>2015-06-28T13:39:18Z</time>
      </trkpt>
      <trkpt lat="46.73385" lon="6.34925">
        <ele>1384.44</ele>
        <time>2015-06-28T13:39:19Z</time>
      </trkpt>
      <trkpt lat="46.73387" lon="6.34919">
        <ele>1383.96</ele>
        <time>2015-06-28T13:39:20Z</time>
      </trkpt>
      <trkpt lat="46.73388" lon="6.34914">
        <ele>1383.47</ele>
        <time>2015-06-28T13:39:21Z</time>
      </trkpt>
      <trkpt lat="46.73389" lon="6.34902">
        <ele>1382.03</ele>
        <time>2015-06-28T13:39:24Z</time>
      </trkpt>
      <trkpt lat="46.73388" lon="6.34892">
        <ele>1381.07</ele>
        <time>2015-06-28T13:39:34Z</time>
      </trkpt>
      <trkpt lat="46.73388" lon="6.3489">
        <ele>1380.11</ele>
        <time>2015-06-28T13:39:46Z</time>
      </trkpt>
      <trkpt lat="46.73388" lon="6.34858">
        <ele>1376.26</ele>
        <time>2015-06-28T13:39:54Z</time>
      </trkpt>
      <trkpt lat="46.73389" lon="6.34839">
        <ele>1374.34</ele>
        <time>2015-06-28T13:39:58Z</time>
      </trkpt>
      <trkpt lat="46.73394" lon="6.34811">
        <ele>1370.98</ele>
        <time>2015-06-28T13:40:05Z</time>
      </trkpt>
      <trkpt lat="46.73394" lon="6.34806">
        <ele>1370.98</ele>
        <time>2015-06-28T13:40:06Z</time>
      </trkpt>
      <trkpt lat="46.73394" lon="6.34781">
        <ele>1367.13</ele>
        <time>2015-06-28T13:40:14Z</time>
      </trkpt>
      <trkpt lat="46.73394" lon="6.34777">
        <ele>1366.65</ele>
        <time>2015-06-28T13:40:15Z</time>
      </trkpt>
      <trkpt lat="46.73397" lon="6.34752">
        <ele>1362.81</ele>
        <time>2015-06-28T13:40:21Z</time>
      </trkpt>
      <trkpt lat="46.73392" lon="6.34727">
        <ele>1359.44</ele>
        <time>2015-06-28T13:40:28Z</time>
      </trkpt>
      <trkpt lat="46.73392" lon="6.34724">
        <ele>1359.44</ele>
        <time>2015-06-28T13:40:29Z</time>
      </trkpt>
      <trkpt lat="46.73391" lon="6.34707">
        <ele>1356.08</ele>
        <time>2015-06-28T13:40:34Z</time>
      </trkpt>
      <trkpt lat="46.73403" lon="6.34679">
        <ele>1352.23</ele>
        <time>2015-06-28T13:40:42Z</time>
      </trkpt>
      <trkpt lat="46.7341" lon="6.34661">
        <ele>1349.83</ele>
        <time>2015-06-28T13:40:46Z</time>
      </trkpt>
      <trkpt lat="46.73417" lon="6.3464">
        <ele>1348.39</ele>
        <time>2015-06-28T13:40:51Z</time>
      </trkpt>
      <trkpt lat="46.73424" lon="6.34619">
        <ele>1345.5</ele>
        <time>2015-06-28T13:40:56Z</time>
      </trkpt>
      <trkpt lat="46.7343" lon="6.34602">
        <ele>1342.62</ele>
        <time>2015-06-28T13:41:01Z</time>
      </trkpt>
      <trkpt lat="46.73434" lon="6.34587">
        <ele>1341.66</ele>
        <time>2015-06-28T13:41:05Z</time>
      </trkpt>
      <trkpt lat="46.7344" lon="6.34563">
        <ele>1338.77</ele>
        <time>2015-06-28T13:41:14Z</time>
      </trkpt>
      <trkpt lat="46.7344" lon="6.34557">
        <ele>1337.81</ele>
        <time>2015-06-28T13:41:16Z</time>
      </trkpt>
      <trkpt lat="46.73442" lon="6.34551">
        <ele>1336.37</ele>
        <time>2015-06-28T13:41:18Z</time>
      </trkpt>
      <trkpt lat="46.73445" lon="6.34538">
        <ele>1334.93</ele>
        <time>2015-06-28T13:41:22Z</time>
      </trkpt>
      <trkpt lat="46.73448" lon="6.34509">
        <ele>1333.01</ele>
        <time>2015-06-28T13:41:29Z</time>
      </trkpt>
      <trkpt lat="46.73451" lon="6.34496">
        <ele>1332.04</ele>
        <time>2015-06-28T13:41:33Z</time>
      </trkpt>
      <trkpt lat="46.73452" lon="6.34482">
        <ele>1331.56</ele>
        <time>2015-06-28T13:41:37Z</time>
      </trkpt>
      <trkpt lat="46.73459" lon="6.34467">
        <ele>1330.6</ele>
        <time>2015-06-28T13:41:42Z</time>
      </trkpt>
      <trkpt lat="46.73463" lon="6.34428">
        <ele>1327.24</ele>
        <time>2015-06-28T13:41:52Z</time>
      </trkpt>
      <trkpt lat="46.73468" lon="6.34404">
        <ele>1324.83</ele>
        <time>2015-06-28T13:41:59Z</time>
      </trkpt>
      <trkpt lat="46.73469" lon="6.34395">
        <ele>1323.39</ele>
        <time>2015-06-28T13:42:02Z</time>
      </trkpt>
      <trkpt lat="46.7347" lon="6.34382">
        <ele>1321.47</ele>
        <time>2015-06-28T13:42:06Z</time>
      </trkpt>
      <trkpt lat="46.7347" lon="6.3438">
        <ele>1320.99</ele>
        <time>2015-06-28T13:42:07Z</time>
      </trkpt>
      <trkpt lat="46.73468" lon="6.34374">
        <ele>1320.03</ele>
        <time>2015-06-28T13:42:08Z</time>
      </trkpt>
      <trkpt lat="46.73469" lon="6.34352">
        <ele>1319.07</ele>
        <time>2015-06-28T13:42:18Z</time>
      </trkpt>
      <trkpt lat="46.73469" lon="6.34348">
        <ele>1318.59</ele>
        <time>2015-06-28T13:42:32Z</time>
      </trkpt>
      <trkpt lat="46.73469" lon="6.34347">
        <ele>1318.59</ele>
        <time>2015-06-28T13:42:49Z</time>
      </trkpt>
      <trkpt lat="46.73468" lon="6.34345">
        <ele>1319.07</ele>
        <time>2015-06-28T13:43:12Z</time>
      </trkpt>
      <trkpt lat="46.73467" lon="6.34343">
        <ele>1319.55</ele>
        <time>2015-06-28T13:43:40Z</time>
      </trkpt>
      <trkpt lat="46.7347" lon="6.34338">
        <ele>1319.07</ele>
        <time>2015-06-28T13:43:48Z</time>
      </trkpt>
      <trkpt lat="46.73478" lon="6.34321">
        <ele>1317.62</ele>
        <time>2015-06-28T13:43:54Z</time>
      </trkpt>
      <trkpt lat="46.73485" lon="6.34315">
        <ele>1318.1</ele>
        <time>2015-06-28T13:43:57Z</time>
      </trkpt>
      <trkpt lat="46.73488" lon="6.34291">
        <ele>1314.26</ele>
        <time>2015-06-28T13:44:04Z</time>
      </trkpt>
      <trkpt lat="46.73488" lon="6.34281">
        <ele>1312.82</ele>
        <time>2015-06-28T13:44:07Z</time>
      </trkpt>
      <trkpt lat="46.73488" lon="6.34263">
        <ele>1310.41</ele>
        <time>2015-06-28T13:44:11Z</time>
      </trkpt>
      <trkpt lat="46.73489" lon="6.34253">
        <ele>1309.45</ele>
        <time>2015-06-28T13:44:13Z</time>
      </trkpt>
      <trkpt lat="46.73491" lon="6.34232">
        <ele>1307.05</ele>
        <time>2015-06-28T13:44:17Z</time>
      </trkpt>
      <trkpt lat="46.73493" lon="6.34212">
        <ele>1305.61</ele>
        <time>2015-06-28T13:44:20Z</time>
      </trkpt>
      <trkpt lat="46.73502" lon="6.34189">
        <ele>1304.65</ele>
        <time>2015-06-28T13:44:27Z</time>
      </trkpt>
      <trkpt lat="46.73504" lon="6.34182">
        <ele>1304.65</ele>
        <time>2015-06-28T13:44:30Z</time>
      </trkpt>
      <trkpt lat="46.73506" lon="6.34179">
        <ele>1304.17</ele>
        <time>2015-06-28T13:44:32Z</time>
      </trkpt>
      <trkpt lat="46.73504" lon="6.34159">
        <ele>1302.24</ele>
        <time>2015-06-28T13:44:40Z</time>
      </trkpt>
      <trkpt lat="46.73504" lon="6.34151">
        <ele>1300.8</ele>
        <time>2015-06-28T13:44:43Z</time>
      </trkpt>
      <trkpt lat="46.73491" lon="6.34146">
        <ele>1297.92</ele>
        <time>2015-06-28T13:44:52Z</time>
      </trkpt>
      <trkpt lat="46.73491" lon="6.34146">
        <ele>1297.44</ele>
        <time>2015-06-28T13:44:53Z</time>
      </trkpt>
      <trkpt lat="46.73482" lon="6.3414">
        <ele>1296.48</ele>
        <time>2015-06-28T13:44:58Z</time>
      </trkpt>
      <trkpt lat="46.73471" lon="6.34131">
        <ele>1294.55</ele>
        <time>2015-06-28T13:45:08Z</time>
      </trkpt>
      <trkpt lat="46.73466" lon="6.34126">
        <ele>1293.11</ele>
        <time>2015-06-28T13:45:16Z</time>
      </trkpt>
      <trkpt lat="46.73462" lon="6.34125">
        <ele>1292.15</ele>
        <time>2015-06-28T13:45:26Z</time>
      </trkpt>
      <trkpt lat="46.73454" lon="6.34128">
        <ele>1290.23</ele>
        <time>2015-06-28T13:45:36Z</time>
      </trkpt>
      <trkpt lat="46.73449" lon="6.34126">
        <ele>1289.27</ele>
        <time>2015-06-28T13:45:47Z</time>
      </trkpt>
      <trkpt lat="46.73429" lon="6.34117">
        <ele>1286.38</ele>
        <time>2015-06-28T13:45:57Z</time>
      </trkpt>
      <trkpt lat="46.73415" lon="6.34113">
        <ele>1284.46</ele>
        <time>2015-06-28T13:46:01Z</time>
      </trkpt>
      <trkpt lat="46.73406" lon="6.34108">
        <ele>1283.02</ele>
        <time>2015-06-28T13:46:04Z</time>
      </trkpt>
      <trkpt lat="46.73399" lon="6.34106">
        <ele>1282.06</ele>
        <time>2015-06-28T13:46:07Z</time>
      </trkpt>
      <trkpt lat="46.73384" lon="6.34083">
        <ele>1280.13</ele>
        <time>2015-06-28T13:46:20Z</time>
      </trkpt>
      <trkpt lat="46.73382" lon="6.34082">
        <ele>1280.61</ele>
        <time>2015-06-28T13:46:21Z</time>
      </trkpt>
      <trkpt lat="46.73385" lon="6.34068">
        <ele>1279.17</ele>
        <time>2015-06-28T13:46:25Z</time>
      </trkpt>
      <trkpt lat="46.73399" lon="6.34046">
        <ele>1278.21</ele>
        <time>2015-06-28T13:46:33Z</time>
      </trkpt>
      <trkpt lat="46.73406" lon="6.34048">
        <ele>1278.69</ele>
        <time>2015-06-28T13:46:41Z</time>
      </trkpt>
      <trkpt lat="46.73407" lon="6.34048">
        <ele>1278.21</ele>
        <time>2015-06-28T13:46:50Z</time>
      </trkpt>
      <trkpt lat="46.73405" lon="6.34045">
        <ele>1275.81</ele>
        <time>2015-06-28T14:33:44Z</time>
      </trkpt>
      <trkpt lat="46.73404" lon="6.34044">
        <ele>1275.33</ele>
        <time>2015-06-28T14:33:45Z</time>
      </trkpt>
      <trkpt lat="46.73405" lon="6.34035">
        <ele>1274.85</ele>
        <time>2015-06-28T14:34:01Z</time>
      </trkpt>
      <trkpt lat="46.73403" lon="6.34039">
        <ele>1275.33</ele>
        <time>2015-06-28T14:34:21Z</time>
      </trkpt>
      <trkpt lat="46.73401" lon="6.34036">
        <ele>1274.36</ele>
        <time>2015-06-28T14:34:41Z</time>
      </trkpt>
      <trkpt lat="46.73402" lon="6.34035">
        <ele>1274.85</ele>
        <time>2015-06-28T14:34:57Z</time>
      </trkpt>
      <trkpt lat="46.73406" lon="6.34025">
        <ele>1274.36</ele>
        <time>2015-06-28T14:35:07Z</time>
      </trkpt>
      <trkpt lat="46.73415" lon="6.34013">
        <ele>1272.92</ele>
        <time>2015-06-28T14:35:14Z</time>
      </trkpt>
      <trkpt lat="46.73423" lon="6.33995">
        <ele>1273.4</ele>
        <time>2015-06-28T14:35:18Z</time>
      </trkpt>
      <trkpt lat="46.73425" lon="6.33988">
        <ele>1271.48</ele>
        <time>2015-06-28T14:35:19Z</time>
      </trkpt>
      <trkpt lat="46.73433" lon="6.33959">
        <ele>1270.04</ele>
        <time>2015-06-28T14:35:22Z</time>
      </trkpt>
      <trkpt lat="46.73439" lon="6.33937">
        <ele>1267.64</ele>
        <time>2015-06-28T14:35:24Z</time>
      </trkpt>
      <trkpt lat="46.73443" lon="6.33925">
        <ele>1266.67</ele>
        <time>2015-06-28T14:35:25Z</time>
      </trkpt>
      <trkpt lat="46.73452" lon="6.33887">
        <ele>1262.83</ele>
        <time>2015-06-28T14:35:28Z</time>
      </trkpt>
      <trkpt lat="46.73459" lon="6.33855">
        <ele>1258.98</ele>
        <time>2015-06-28T14:35:31Z</time>
      </trkpt>
      <trkpt lat="46.73465" lon="6.33825">
        <ele>1256.58</ele>
        <time>2015-06-28T14:35:35Z</time>
      </trkpt>
      <trkpt lat="46.73467" lon="6.33816">
        <ele>1255.14</ele>
        <time>2015-06-28T14:35:37Z</time>
      </trkpt>
      <trkpt lat="46.73472" lon="6.33775">
        <ele>1252.25</ele>
        <time>2015-06-28T14:35:47Z</time>
      </trkpt>
      <trkpt lat="46.73474" lon="6.33763">
        <ele>1248.89</ele>
        <time>2015-06-28T14:35:57Z</time>
      </trkpt>
      <trkpt lat="46.73475" lon="6.33764">
        <ele>1244.56</ele>
        <time>2015-06-28T14:36:02Z</time>
      </trkpt>
      <trkpt lat="46.73475" lon="6.33764">
        <ele>1249.37</ele>
        <time>2015-06-28T14:36:03Z</time>
      </trkpt>
      <trkpt lat="46.73475" lon="6.33764">
        <ele>1251.29</ele>
        <time>2015-06-28T14:36:05Z</time>
      </trkpt>
      <trkpt lat="46.73477" lon="6.3374">
        <ele>1250.81</ele>
        <time>2015-06-28T14:36:21Z</time>
      </trkpt>
      <trkpt lat="46.73477" lon="6.33734">
        <ele>1250.33</ele>
        <time>2015-06-28T14:36:22Z</time>
      </trkpt>
      <trkpt lat="46.73479" lon="6.33719">
        <ele>1249.37</ele>
        <time>2015-06-28T14:36:24Z</time>
      </trkpt>
      <trkpt lat="46.73481" lon="6.33711">
        <ele>1248.89</ele>
        <time>2015-06-28T14:36:25Z</time>
      </trkpt>
      <trkpt lat="46.73496" lon="6.3364">
        <ele>1245.53</ele>
        <time>2015-06-28T14:36:32Z</time>
      </trkpt>
      <trkpt lat="46.73499" lon="6.33614">
        <ele>1244.56</ele>
        <time>2015-06-28T14:36:34Z</time>
      </trkpt>
      <trkpt lat="46.73505" lon="6.33573">
        <ele>1243.12</ele>
        <time>2015-06-28T14:36:37Z</time>
      </trkpt>
      <trkpt lat="46.73516" lon="6.33514">
        <ele>1239.28</ele>
        <time>2015-06-28T14:36:41Z</time>
      </trkpt>
      <trkpt lat="46.73526" lon="6.33468">
        <ele>1236.39</ele>
        <time>2015-06-28T14:36:44Z</time>
      </trkpt>
      <trkpt lat="46.7353" lon="6.33452">
        <ele>1235.91</ele>
        <time>2015-06-28T14:36:45Z</time>
      </trkpt>
      <trkpt lat="46.73544" lon="6.3339">
        <ele>1233.99</ele>
        <time>2015-06-28T14:36:49Z</time>
      </trkpt>
      <trkpt lat="46.73574" lon="6.33307">
        <ele>1231.11</ele>
        <time>2015-06-28T14:36:55Z</time>
      </trkpt>
      <trkpt lat="46.73589" lon="6.33271">
        <ele>1229.18</ele>
        <time>2015-06-28T14:36:58Z</time>
      </trkpt>
      <trkpt lat="46.73596" lon="6.33262">
        <ele>1229.66</ele>
        <time>2015-06-28T14:36:59Z</time>
      </trkpt>
      <trkpt lat="46.73629" lon="6.3322">
        <ele>1226.78</ele>
        <time>2015-06-28T14:37:05Z</time>
      </trkpt>
      <trkpt lat="46.73633" lon="6.33212">
        <ele>1226.3</ele>
        <time>2015-06-28T14:37:06Z</time>
      </trkpt>
      <trkpt lat="46.73654" lon="6.33178">
        <ele>1223.42</ele>
        <time>2015-06-28T14:37:11Z</time>
      </trkpt>
      <trkpt lat="46.73672" lon="6.33151">
        <ele>1221.97</ele>
        <time>2015-06-28T14:37:15Z</time>
      </trkpt>
      <trkpt lat="46.73679" lon="6.33145">
        <ele>1221.01</ele>
        <time>2015-06-28T14:37:16Z</time>
      </trkpt>
      <trkpt lat="46.73685" lon="6.33141">
        <ele>1221.49</ele>
        <time>2015-06-28T14:37:17Z</time>
      </trkpt>
      <trkpt lat="46.73691" lon="6.33139">
        <ele>1221.49</ele>
        <time>2015-06-28T14:37:18Z</time>
      </trkpt>
      <trkpt lat="46.73697" lon="6.33136">
        <ele>1221.97</ele>
        <time>2015-06-28T14:37:19Z</time>
      </trkpt>
      <trkpt lat="46.737" lon="6.33135">
        <ele>1222.45</ele>
        <time>2015-06-28T14:37:20Z</time>
      </trkpt>
      <trkpt lat="46.73703" lon="6.33134">
        <ele>1222.93</ele>
        <time>2015-06-28T14:37:21Z</time>
      </trkpt>
      <trkpt lat="46.73704" lon="6.33133">
        <ele>1222.93</ele>
        <time>2015-06-28T14:37:22Z</time>
      </trkpt>
      <trkpt lat="46.73706" lon="6.33132">
        <ele>1222.93</ele>
        <time>2015-06-28T14:37:23Z</time>
      </trkpt>
      <trkpt lat="46.73713" lon="6.33129">
        <ele>1223.42</ele>
        <time>2015-06-28T14:37:29Z</time>
      </trkpt>
      <trkpt lat="46.73715" lon="6.3313">
        <ele>1221.97</ele>
        <time>2015-06-28T14:37:30Z</time>
      </trkpt>
      <trkpt lat="46.73717" lon="6.33129">
        <ele>1222.93</ele>
        <time>2015-06-28T14:37:31Z</time>
      </trkpt>
      <trkpt lat="46.73719" lon="6.33129">
        <ele>1222.93</ele>
        <time>2015-06-28T14:37:32Z</time>
      </trkpt>
      <trkpt lat="46.73721" lon="6.33128">
        <ele>1222.93</ele>
        <time>2015-06-28T14:37:33Z</time>
      </trkpt>
      <trkpt lat="46.73739" lon="6.33126">
        <ele>1223.9</ele>
        <time>2015-06-28T14:37:40Z</time>
      </trkpt>
      <trkpt lat="46.73744" lon="6.33127">
        <ele>1224.38</ele>
        <time>2015-06-28T14:37:41Z</time>
      </trkpt>
      <trkpt lat="46.73775" lon="6.3313">
        <ele>1227.26</ele>
        <time>2015-06-28T14:37:51Z</time>
      </trkpt>
      <trkpt lat="46.73776" lon="6.3313">
        <ele>1227.74</ele>
        <time>2015-06-28T14:37:52Z</time>
      </trkpt>
      <trkpt lat="46.73778" lon="6.33129">
        <ele>1227.74</ele>
        <time>2015-06-28T14:37:53Z</time>
      </trkpt>
      <trkpt lat="46.7378" lon="6.3313">
        <ele>1228.22</ele>
        <time>2015-06-28T14:37:54Z</time>
      </trkpt>
      <trkpt lat="46.73783" lon="6.33131">
        <ele>1227.74</ele>
        <time>2015-06-28T14:37:55Z</time>
      </trkpt>
      <trkpt lat="46.73785" lon="6.33132">
        <ele>1228.22</ele>
        <time>2015-06-28T14:37:56Z</time>
      </trkpt>
      <trkpt lat="46.73787" lon="6.33133">
        <ele>1228.7</ele>
        <time>2015-06-28T14:37:57Z</time>
      </trkpt>
      <trkpt lat="46.73789" lon="6.33134">
        <ele>1228.22</ele>
        <time>2015-06-28T14:37:58Z</time>
      </trkpt>
      <trkpt lat="46.73791" lon="6.33136">
        <ele>1229.66</ele>
        <time>2015-06-28T14:37:59Z</time>
      </trkpt>
      <trkpt lat="46.73792" lon="6.33136">
        <ele>1229.18</ele>
        <time>2015-06-28T14:38:00Z</time>
      </trkpt>
      <trkpt lat="46.73794" lon="6.33137">
        <ele>1229.18</ele>
        <time>2015-06-28T14:38:01Z</time>
      </trkpt>
      <trkpt lat="46.73795" lon="6.33138">
        <ele>1229.66</ele>
        <time>2015-06-28T14:38:02Z</time>
      </trkpt>
      <trkpt lat="46.73796" lon="6.33139">
        <ele>1229.66</ele>
        <time>2015-06-28T14:38:03Z</time>
      </trkpt>
      <trkpt lat="46.73797" lon="6.3314">
        <ele>1229.66</ele>
        <time>2015-06-28T14:38:04Z</time>
      </trkpt>
      <trkpt lat="46.738" lon="6.3314">
        <ele>1227.74</ele>
        <time>2015-06-28T14:38:16Z</time>
      </trkpt>
      <trkpt lat="46.738" lon="6.33139">
        <ele>1229.66</ele>
        <time>2015-06-28T14:38:39Z</time>
      </trkpt>
      <trkpt lat="46.73799" lon="6.33138">
        <ele>1236.39</ele>
        <time>2015-06-28T14:38:52Z</time>
      </trkpt>
      <trkpt lat="46.73799" lon="6.33138">
        <ele>1230.14</ele>
        <time>2015-06-28T14:38:53Z</time>
      </trkpt>
      <trkpt lat="46.73799" lon="6.33138">
        <ele>1224.86</ele>
        <time>2015-06-28T14:38:55Z</time>
      </trkpt>
      <trkpt lat="46.73799" lon="6.33138">
        <ele>1238.8</ele>
        <time>2015-06-28T14:38:56Z</time>
      </trkpt>
      <trkpt lat="46.73799" lon="6.33138">
        <ele>1239.28</ele>
        <time>2015-06-28T14:38:57Z</time>
      </trkpt>
      <trkpt lat="46.73799" lon="6.33138">
        <ele>1230.14</ele>
        <time>2015-06-28T14:38:58Z</time>
      </trkpt>
      <trkpt lat="46.73799" lon="6.33138">
        <ele>1230.14</ele>
        <time>2015-06-28T14:38:59Z</time>
      </trkpt>
      <trkpt lat="46.73805" lon="6.33144">
        <ele>1230.62</ele>
        <time>2015-06-28T14:39:09Z</time>
      </trkpt>
      <trkpt lat="46.73829" lon="6.33162">
        <ele>1232.55</ele>
        <time>2015-06-28T14:39:22Z</time>
      </trkpt>
      <trkpt lat="46.7386" lon="6.33196">
        <ele>1235.91</ele>
        <time>2015-06-28T14:39:38Z</time>
      </trkpt>
      <trkpt lat="46.73884" lon="6.33224">
        <ele>1238.8</ele>
        <time>2015-06-28T14:39:53Z</time>
      </trkpt>
      <trkpt lat="46.73888" lon="6.33228">
        <ele>1238.32</ele>
        <time>2015-06-28T14:39:56Z</time>
      </trkpt>
      <trkpt lat="46.7389" lon="6.33226">
        <ele>1238.32</ele>
        <time>2015-06-28T14:40:07Z</time>
      </trkpt>
      <trkpt lat="46.73889" lon="6.33224">
        <ele>1238.32</ele>
        <time>2015-06-28T14:40:32Z</time>
      </trkpt>
      <trkpt lat="46.73889" lon="6.33225">
        <ele>1238.32</ele>
        <time>2015-06-28T14:40:58Z</time>
      </trkpt>
      <trkpt lat="46.73889" lon="6.33226">
        <ele>1244.56</ele>
        <time>2015-06-28T14:41:02Z</time>
      </trkpt>
      <trkpt lat="46.73889" lon="6.33226">
        <ele>1238.32</ele>
        <time>2015-06-28T14:41:03Z</time>
      </trkpt>
      <trkpt lat="46.73888" lon="6.33228">
        <ele>1237.83</ele>
        <time>2015-06-28T14:41:17Z</time>
      </trkpt>
      <trkpt lat="46.7387" lon="6.33205">
        <ele>1236.87</ele>
        <time>2015-06-28T14:41:26Z</time>
      </trkpt>
      <trkpt lat="46.73842" lon="6.33173">
        <ele>1233.51</ele>
        <time>2015-06-28T14:41:34Z</time>
      </trkpt>
      <trkpt lat="46.73811" lon="6.33143">
        <ele>1230.62</ele>
        <time>2015-06-28T14:41:46Z</time>
      </trkpt>
      <trkpt lat="46.73799" lon="6.33137">
        <ele>1229.18</ele>
        <time>2015-06-28T14:41:50Z</time>
      </trkpt>
      <trkpt lat="46.73799" lon="6.33135">
        <ele>1229.18</ele>
        <time>2015-06-28T14:41:51Z</time>
      </trkpt>
      <trkpt lat="46.73799" lon="6.33133">
        <ele>1229.18</ele>
        <time>2015-06-28T14:41:52Z</time>
      </trkpt>
      <trkpt lat="46.738" lon="6.33131">
        <ele>1228.7</ele>
        <time>2015-06-28T14:41:53Z</time>
      </trkpt>
      <trkpt lat="46.738" lon="6.33129">
        <ele>1229.18</ele>
        <time>2015-06-28T14:41:54Z</time>
      </trkpt>
      <trkpt lat="46.73802" lon="6.33126">
        <ele>1229.18</ele>
        <time>2015-06-28T14:41:56Z</time>
      </trkpt>
      <trkpt lat="46.73801" lon="6.33119">
        <ele>1228.7</ele>
        <time>2015-06-28T14:42:04Z</time>
      </trkpt>
      <trkpt lat="46.738" lon="6.33117">
        <ele>1228.7</ele>
        <time>2015-06-28T14:42:05Z</time>
      </trkpt>
      <trkpt lat="46.73799" lon="6.33116">
        <ele>1228.22</ele>
        <time>2015-06-28T14:42:06Z</time>
      </trkpt>
      <trkpt lat="46.73795" lon="6.33116">
        <ele>1227.26</ele>
        <time>2015-06-28T14:42:11Z</time>
      </trkpt>
      <trkpt lat="46.73789" lon="6.3312">
        <ele>1226.78</ele>
        <time>2015-06-28T14:42:17Z</time>
      </trkpt>
      <trkpt lat="46.73788" lon="6.33121">
        <ele>1226.78</ele>
        <time>2015-06-28T14:42:18Z</time>
      </trkpt>
      <trkpt lat="46.73787" lon="6.33123">
        <ele>1226.3</ele>
        <time>2015-06-28T14:42:19Z</time>
      </trkpt>
      <trkpt lat="46.73785" lon="6.33123">
        <ele>1226.3</ele>
        <time>2015-06-28T14:42:20Z</time>
      </trkpt>
      <trkpt lat="46.73783" lon="6.33124">
        <ele>1226.3</ele>
        <time>2015-06-28T14:42:21Z</time>
      </trkpt>
      <trkpt lat="46.73781" lon="6.33124">
        <ele>1226.3</ele>
        <time>2015-06-28T14:42:22Z</time>
      </trkpt>
      <trkpt lat="46.73779" lon="6.33125">
        <ele>1226.3</ele>
        <time>2015-06-28T14:42:23Z</time>
      </trkpt>
      <trkpt lat="46.73776" lon="6.33126">
        <ele>1226.3</ele>
        <time>2015-06-28T14:42:25Z</time>
      </trkpt>
      <trkpt lat="46.73775" lon="6.33127">
        <ele>1226.3</ele>
        <time>2015-06-28T14:42:26Z</time>
      </trkpt>
      <trkpt lat="46.73762" lon="6.33124">
        <ele>1224.38</ele>
        <time>2015-06-28T14:42:34Z</time>
      </trkpt>
      <trkpt lat="46.73761" lon="6.33123">
        <ele>1224.86</ele>
        <time>2015-06-28T14:42:35Z</time>
      </trkpt>
      <trkpt lat="46.7376" lon="6.33123">
        <ele>1223.9</ele>
        <time>2015-06-28T14:42:36Z</time>
      </trkpt>
      <trkpt lat="46.73757" lon="6.33124">
        <ele>1222.93</ele>
        <time>2015-06-28T14:42:50Z</time>
      </trkpt>
      <trkpt lat="46.73756" lon="6.33124">
        <ele>1226.3</ele>
        <time>2015-06-28T14:42:53Z</time>
      </trkpt>
      <trkpt lat="46.73754" lon="6.33124">
        <ele>1222.93</ele>
        <time>2015-06-28T14:43:07Z</time>
      </trkpt>
      <trkpt lat="46.73725" lon="6.33126">
        <ele>1221.97</ele>
        <time>2015-06-28T14:43:20Z</time>
      </trkpt>
      <trkpt lat="46.73697" lon="6.33128">
        <ele>1220.05</ele>
        <time>2015-06-28T14:43:29Z</time>
      </trkpt>
      <trkpt lat="46.73693" lon="6.33126">
        <ele>1220.05</ele>
        <time>2015-06-28T14:43:30Z</time>
      </trkpt>
      <trkpt lat="46.73689" lon="6.33123">
        <ele>1218.61</ele>
        <time>2015-06-28T14:43:31Z</time>
      </trkpt>
      <trkpt lat="46.73686" lon="6.33118">
        <ele>1218.61</ele>
        <time>2015-06-28T14:43:32Z</time>
      </trkpt>
      <trkpt lat="46.73685" lon="6.33113">
        <ele>1218.13</ele>
        <time>2015-06-28T14:43:33Z</time>
      </trkpt>
      <trkpt lat="46.73685" lon="6.33108">
        <ele>1218.13</ele>
        <time>2015-06-28T14:43:34Z</time>
      </trkpt>
      <trkpt lat="46.73686" lon="6.33102">
        <ele>1217.65</ele>
        <time>2015-06-28T14:43:35Z</time>
      </trkpt>
      <trkpt lat="46.73686" lon="6.33095">
        <ele>1217.17</ele>
        <time>2015-06-28T14:43:36Z</time>
      </trkpt>
      <trkpt lat="46.73686" lon="6.33089">
        <ele>1217.17</ele>
        <time>2015-06-28T14:43:37Z</time>
      </trkpt>
      <trkpt lat="46.73686" lon="6.33082">
        <ele>1217.17</ele>
        <time>2015-06-28T14:43:38Z</time>
      </trkpt>
      <trkpt lat="46.73685" lon="6.33075">
        <ele>1217.17</ele>
        <time>2015-06-28T14:43:39Z</time>
      </trkpt>
      <trkpt lat="46.73685" lon="6.33068">
        <ele>1216.21</ele>
        <time>2015-06-28T14:43:40Z</time>
      </trkpt>
      <trkpt lat="46.73683" lon="6.33032">
        <ele>1214.76</ele>
        <time>2015-06-28T14:43:45Z</time>
      </trkpt>
      <trkpt lat="46.73684" lon="6.33">
        <ele>1213.8</ele>
        <time>2015-06-28T14:43:49Z</time>
      </trkpt>
      <trkpt lat="46.73692" lon="6.32957">
        <ele>1211.4</ele>
        <time>2015-06-28T14:43:54Z</time>
      </trkpt>
      <trkpt lat="46.73696" lon="6.32944">
        <ele>1211.4</ele>
        <time>2015-06-28T14:43:56Z</time>
      </trkpt>
      <trkpt lat="46.73697" lon="6.32938">
        <ele>1210.92</ele>
        <time>2015-06-28T14:43:57Z</time>
      </trkpt>
      <trkpt lat="46.73699" lon="6.32932">
        <ele>1210.44</ele>
        <time>2015-06-28T14:43:58Z</time>
      </trkpt>
      <trkpt lat="46.737" lon="6.32926">
        <ele>1210.92</ele>
        <time>2015-06-28T14:43:59Z</time>
      </trkpt>
      <trkpt lat="46.737" lon="6.3292">
        <ele>1210.44</ele>
        <time>2015-06-28T14:44:00Z</time>
      </trkpt>
      <trkpt lat="46.73702" lon="6.32908">
        <ele>1209.96</ele>
        <time>2015-06-28T14:44:02Z</time>
      </trkpt>
      <trkpt lat="46.73704" lon="6.32895">
        <ele>1209</ele>
        <time>2015-06-28T14:44:04Z</time>
      </trkpt>
      <trkpt lat="46.7371" lon="6.32817">
        <ele>1207.07</ele>
        <time>2015-06-28T14:44:18Z</time>
      </trkpt>
      <trkpt lat="46.73715" lon="6.32792">
        <ele>1206.59</ele>
        <time>2015-06-28T14:44:27Z</time>
      </trkpt>
      <trkpt lat="46.73714" lon="6.3279">
        <ele>1206.59</ele>
        <time>2015-06-28T14:44:32Z</time>
      </trkpt>
      <trkpt lat="46.73714" lon="6.32788">
        <ele>1206.11</ele>
        <time>2015-06-28T14:44:33Z</time>
      </trkpt>
      <trkpt lat="46.73714" lon="6.32786">
        <ele>1206.11</ele>
        <time>2015-06-28T14:44:34Z</time>
      </trkpt>
      <trkpt lat="46.7372" lon="6.32739">
        <ele>1205.15</ele>
        <time>2015-06-28T14:44:48Z</time>
      </trkpt>
      <trkpt lat="46.73731" lon="6.3268">
        <ele>1201.79</ele>
        <time>2015-06-28T14:44:55Z</time>
      </trkpt>
      <trkpt lat="46.73745" lon="6.32633">
        <ele>1197.94</ele>
        <time>2015-06-28T14:44:59Z</time>
      </trkpt>
      <trkpt lat="46.73753" lon="6.3261">
        <ele>1196.5</ele>
        <time>2015-06-28T14:45:01Z</time>
      </trkpt>
      <trkpt lat="46.73763" lon="6.32571">
        <ele>1192.17</ele>
        <time>2015-06-28T14:45:05Z</time>
      </trkpt>
      <trkpt lat="46.73773" lon="6.32523">
        <ele>1189.77</ele>
        <time>2015-06-28T14:45:09Z</time>
      </trkpt>
      <trkpt lat="46.73787" lon="6.32458">
        <ele>1185.92</ele>
        <time>2015-06-28T14:45:14Z</time>
      </trkpt>
      <trkpt lat="46.73789" lon="6.32444">
        <ele>1185.92</ele>
        <time>2015-06-28T14:45:15Z</time>
      </trkpt>
      <trkpt lat="46.73791" lon="6.3243">
        <ele>1184.48</ele>
        <time>2015-06-28T14:45:16Z</time>
      </trkpt>
      <trkpt lat="46.73798" lon="6.32403">
        <ele>1182.56</ele>
        <time>2015-06-28T14:45:18Z</time>
      </trkpt>
      <trkpt lat="46.73802" lon="6.3239">
        <ele>1182.56</ele>
        <time>2015-06-28T14:45:19Z</time>
      </trkpt>
      <trkpt lat="46.73809" lon="6.32378">
        <ele>1181.12</ele>
        <time>2015-06-28T14:45:20Z</time>
      </trkpt>
      <trkpt lat="46.73816" lon="6.32366">
        <ele>1180.16</ele>
        <time>2015-06-28T14:45:21Z</time>
      </trkpt>
      <trkpt lat="46.73824" lon="6.32355">
        <ele>1179.19</ele>
        <time>2015-06-28T14:45:22Z</time>
      </trkpt>
      <trkpt lat="46.73833" lon="6.32344">
        <ele>1178.71</ele>
        <time>2015-06-28T14:45:23Z</time>
      </trkpt>
      <trkpt lat="46.73841" lon="6.32333">
        <ele>1177.27</ele>
        <time>2015-06-28T14:45:24Z</time>
      </trkpt>
      <trkpt lat="46.73857" lon="6.32308">
        <ele>1173.91</ele>
        <time>2015-06-28T14:45:26Z</time>
      </trkpt>
      <trkpt lat="46.73878" lon="6.32272">
        <ele>1170.06</ele>
        <time>2015-06-28T14:45:29Z</time>
      </trkpt>
      <trkpt lat="46.73884" lon="6.3226">
        <ele>1168.62</ele>
        <time>2015-06-28T14:45:30Z</time>
      </trkpt>
      <trkpt lat="46.73889" lon="6.32247">
        <ele>1167.18</ele>
        <time>2015-06-28T14:45:31Z</time>
      </trkpt>
      <trkpt lat="46.73893" lon="6.32231">
        <ele>1165.74</ele>
        <time>2015-06-28T14:45:32Z</time>
      </trkpt>
      <trkpt lat="46.73905" lon="6.32181">
        <ele>1161.89</ele>
        <time>2015-06-28T14:45:35Z</time>
      </trkpt>
      <trkpt lat="46.73915" lon="6.32139">
        <ele>1158.05</ele>
        <time>2015-06-28T14:45:38Z</time>
      </trkpt>
      <trkpt lat="46.73926" lon="6.32102">
        <ele>1154.68</ele>
        <time>2015-06-28T14:45:41Z</time>
      </trkpt>
      <trkpt lat="46.73939" lon="6.32054">
        <ele>1151.32</ele>
        <time>2015-06-28T14:45:45Z</time>
      </trkpt>
      <trkpt lat="46.73949" lon="6.32019">
        <ele>1147.95</ele>
        <time>2015-06-28T14:45:48Z</time>
      </trkpt>
      <trkpt lat="46.73961" lon="6.31979">
        <ele>1145.07</ele>
        <time>2015-06-28T14:45:51Z</time>
      </trkpt>
      <trkpt lat="46.73978" lon="6.31936">
        <ele>1141.22</ele>
        <time>2015-06-28T14:45:54Z</time>
      </trkpt>
      <trkpt lat="46.73993" lon="6.31902">
        <ele>1136.9</ele>
        <time>2015-06-28T14:45:57Z</time>
      </trkpt>
      <trkpt lat="46.74009" lon="6.3186">
        <ele>1133.05</ele>
        <time>2015-06-28T14:46:01Z</time>
      </trkpt>
      <trkpt lat="46.74018" lon="6.31837">
        <ele>1131.13</ele>
        <time>2015-06-28T14:46:03Z</time>
      </trkpt>
      <trkpt lat="46.74022" lon="6.31824">
        <ele>1131.13</ele>
        <time>2015-06-28T14:46:04Z</time>
      </trkpt>
      <trkpt lat="46.74026" lon="6.31799">
        <ele>1129.21</ele>
        <time>2015-06-28T14:46:06Z</time>
      </trkpt>
      <trkpt lat="46.74026" lon="6.31786">
        <ele>1128.73</ele>
        <time>2015-06-28T14:46:07Z</time>
      </trkpt>
      <trkpt lat="46.7402" lon="6.31699">
        <ele>1125.84</ele>
        <time>2015-06-28T14:46:13Z</time>
      </trkpt>
      <trkpt lat="46.74018" lon="6.31684">
        <ele>1124.4</ele>
        <time>2015-06-28T14:46:14Z</time>
      </trkpt>
      <trkpt lat="46.74015" lon="6.31671">
        <ele>1123.44</ele>
        <time>2015-06-28T14:46:15Z</time>
      </trkpt>
      <trkpt lat="46.74012" lon="6.31659">
        <ele>1122.48</ele>
        <time>2015-06-28T14:46:16Z</time>
      </trkpt>
      <trkpt lat="46.74008" lon="6.31647">
        <ele>1121.52</ele>
        <time>2015-06-28T14:46:17Z</time>
      </trkpt>
      <trkpt lat="46.74006" lon="6.31637">
        <ele>1121.03</ele>
        <time>2015-06-28T14:46:18Z</time>
      </trkpt>
      <trkpt lat="46.74004" lon="6.31628">
        <ele>1120.07</ele>
        <time>2015-06-28T14:46:19Z</time>
      </trkpt>
      <trkpt lat="46.74003" lon="6.31619">
        <ele>1119.59</ele>
        <time>2015-06-28T14:46:20Z</time>
      </trkpt>
      <trkpt lat="46.74003" lon="6.31611">
        <ele>1119.11</ele>
        <time>2015-06-28T14:46:21Z</time>
      </trkpt>
      <trkpt lat="46.74004" lon="6.31604">
        <ele>1118.15</ele>
        <time>2015-06-28T14:46:22Z</time>
      </trkpt>
      <trkpt lat="46.74007" lon="6.31597">
        <ele>1117.67</ele>
        <time>2015-06-28T14:46:23Z</time>
      </trkpt>
      <trkpt lat="46.74013" lon="6.31593">
        <ele>1116.23</ele>
        <time>2015-06-28T14:46:24Z</time>
      </trkpt>
      <trkpt lat="46.74019" lon="6.31592">
        <ele>1116.23</ele>
        <time>2015-06-28T14:46:25Z</time>
      </trkpt>
      <trkpt lat="46.74026" lon="6.31594">
        <ele>1115.75</ele>
        <time>2015-06-28T14:46:26Z</time>
      </trkpt>
      <trkpt lat="46.74032" lon="6.31597">
        <ele>1114.79</ele>
        <time>2015-06-28T14:46:27Z</time>
      </trkpt>
      <trkpt lat="46.74039" lon="6.316">
        <ele>1114.79</ele>
        <time>2015-06-28T14:46:28Z</time>
      </trkpt>
      <trkpt lat="46.74051" lon="6.3161">
        <ele>1113.82</ele>
        <time>2015-06-28T14:46:30Z</time>
      </trkpt>
      <trkpt lat="46.74063" lon="6.31623">
        <ele>1112.86</ele>
        <time>2015-06-28T14:46:32Z</time>
      </trkpt>
      <trkpt lat="46.74096" lon="6.31667">
        <ele>1109.02</ele>
        <time>2015-06-28T14:46:37Z</time>
      </trkpt>
      <trkpt lat="46.74131" lon="6.31723">
        <ele>1105.65</ele>
        <time>2015-06-28T14:46:43Z</time>
      </trkpt>
      <trkpt lat="46.74164" lon="6.31799">
        <ele>1101.81</ele>
        <time>2015-06-28T14:46:49Z</time>
      </trkpt>
      <trkpt lat="46.74171" lon="6.31812">
        <ele>1101.33</ele>
        <time>2015-06-28T14:46:50Z</time>
      </trkpt>
      <trkpt lat="46.74177" lon="6.31824">
        <ele>1100.37</ele>
        <time>2015-06-28T14:46:51Z</time>
      </trkpt>
      <trkpt lat="46.74184" lon="6.31835">
        <ele>1099.89</ele>
        <time>2015-06-28T14:46:52Z</time>
      </trkpt>
      <trkpt lat="46.74195" lon="6.31857">
        <ele>1097.96</ele>
        <time>2015-06-28T14:46:54Z</time>
      </trkpt>
      <trkpt lat="46.74199" lon="6.31869">
        <ele>1096.52</ele>
        <time>2015-06-28T14:46:55Z</time>
      </trkpt>
      <trkpt lat="46.74213" lon="6.31903">
        <ele>1093.64</ele>
        <time>2015-06-28T14:46:58Z</time>
      </trkpt>
      <trkpt lat="46.74217" lon="6.31917">
        <ele>1093.16</ele>
        <time>2015-06-28T14:46:59Z</time>
      </trkpt>
      <trkpt lat="46.74223" lon="6.31928">
        <ele>1092.2</ele>
        <time>2015-06-28T14:47:00Z</time>
      </trkpt>
      <trkpt lat="46.74241" lon="6.31958">
        <ele>1089.79</ele>
        <time>2015-06-28T14:47:03Z</time>
      </trkpt>
      <trkpt lat="46.74254" lon="6.31971">
        <ele>1087.39</ele>
        <time>2015-06-28T14:47:05Z</time>
      </trkpt>
      <trkpt lat="46.74262" lon="6.31977">
        <ele>1085.95</ele>
        <time>2015-06-28T14:47:06Z</time>
      </trkpt>
      <trkpt lat="46.7427" lon="6.31981">
        <ele>1085.47</ele>
        <time>2015-06-28T14:47:07Z</time>
      </trkpt>
      <trkpt lat="46.74279" lon="6.31984">
        <ele>1084.5</ele>
        <time>2015-06-28T14:47:08Z</time>
      </trkpt>
      <trkpt lat="46.74288" lon="6.31986">
        <ele>1082.58</ele>
        <time>2015-06-28T14:47:09Z</time>
      </trkpt>
      <trkpt lat="46.74325" lon="6.31991">
        <ele>1080.18</ele>
        <time>2015-06-28T14:47:13Z</time>
      </trkpt>
      <trkpt lat="46.74342" lon="6.31995">
        <ele>1079.22</ele>
        <time>2015-06-28T14:47:15Z</time>
      </trkpt>
      <trkpt lat="46.74369" lon="6.31999">
        <ele>1075.85</ele>
        <time>2015-06-28T14:47:18Z</time>
      </trkpt>
      <trkpt lat="46.7439" lon="6.32">
        <ele>1074.41</ele>
        <time>2015-06-28T14:47:20Z</time>
      </trkpt>
      <trkpt lat="46.744" lon="6.32001">
        <ele>1072.97</ele>
        <time>2015-06-28T14:47:21Z</time>
      </trkpt>
      <trkpt lat="46.7441" lon="6.32">
        <ele>1072.49</ele>
        <time>2015-06-28T14:47:22Z</time>
      </trkpt>
      <trkpt lat="46.74438" lon="6.31996">
        <ele>1068.16</ele>
        <time>2015-06-28T14:47:25Z</time>
      </trkpt>
      <trkpt lat="46.74461" lon="6.31992">
        <ele>1065.28</ele>
        <time>2015-06-28T14:47:28Z</time>
      </trkpt>
      <trkpt lat="46.74478" lon="6.31992">
        <ele>1063.84</ele>
        <time>2015-06-28T14:47:31Z</time>
      </trkpt>
      <trkpt lat="46.74483" lon="6.31993">
        <ele>1062.87</ele>
        <time>2015-06-28T14:47:32Z</time>
      </trkpt>
      <trkpt lat="46.74487" lon="6.31992">
        <ele>1061.91</ele>
        <time>2015-06-28T14:47:33Z</time>
      </trkpt>
      <trkpt lat="46.74491" lon="6.31991">
        <ele>1061.43</ele>
        <time>2015-06-28T14:47:34Z</time>
      </trkpt>
      <trkpt lat="46.74496" lon="6.3199">
        <ele>1061.91</ele>
        <time>2015-06-28T14:47:35Z</time>
      </trkpt>
      <trkpt lat="46.745" lon="6.31987">
        <ele>1060.47</ele>
        <time>2015-06-28T14:47:36Z</time>
      </trkpt>
      <trkpt lat="46.74503" lon="6.31984">
        <ele>1060.47</ele>
        <time>2015-06-28T14:47:37Z</time>
      </trkpt>
      <trkpt lat="46.74507" lon="6.3198">
        <ele>1059.99</ele>
        <time>2015-06-28T14:47:38Z</time>
      </trkpt>
      <trkpt lat="46.7451" lon="6.31976">
        <ele>1060.47</ele>
        <time>2015-06-28T14:47:39Z</time>
      </trkpt>
      <trkpt lat="46.74515" lon="6.31966">
        <ele>1058.55</ele>
        <time>2015-06-28T14:47:42Z</time>
      </trkpt>
      <trkpt lat="46.74517" lon="6.31959">
        <ele>1058.55</ele>
        <time>2015-06-28T14:47:55Z</time>
      </trkpt>
      <trkpt lat="46.7452" lon="6.31962">
        <ele>1060.95</ele>
        <time>2015-06-28T14:48:11Z</time>
      </trkpt>
      <trkpt lat="46.7452" lon="6.31962">
        <ele>1046.53</ele>
        <time>2015-06-28T14:48:12Z</time>
      </trkpt>
      <trkpt lat="46.7452" lon="6.31962">
        <ele>1059.99</ele>
        <time>2015-06-28T14:48:13Z</time>
      </trkpt>
      <trkpt lat="46.7452" lon="6.31962">
        <ele>1055.18</ele>
        <time>2015-06-28T14:48:20Z</time>
      </trkpt>
      <trkpt lat="46.7452" lon="6.31962">
        <ele>1061.43</ele>
        <time>2015-06-28T14:48:21Z</time>
      </trkpt>
      <trkpt lat="46.74521" lon="6.31962">
        <ele>1057.11</ele>
        <time>2015-06-28T14:48:25Z</time>
      </trkpt>
      <trkpt lat="46.74521" lon="6.31962">
        <ele>1061.43</ele>
        <time>2015-06-28T14:48:27Z</time>
      </trkpt>
      <trkpt lat="46.7452" lon="6.31962">
        <ele>1058.55</ele>
        <time>2015-06-28T14:48:28Z</time>
      </trkpt>
      <trkpt lat="46.7452" lon="6.31961">
        <ele>1063.84</ele>
        <time>2015-06-28T14:48:32Z</time>
      </trkpt>
      <trkpt lat="46.7452" lon="6.31961">
        <ele>1058.55</ele>
        <time>2015-06-28T14:48:33Z</time>
      </trkpt>
      <trkpt lat="46.7452" lon="6.31961">
        <ele>1055.18</ele>
        <time>2015-06-28T14:48:35Z</time>
      </trkpt>
      <trkpt lat="46.7452" lon="6.31961">
        <ele>1061.91</ele>
        <time>2015-06-28T14:48:36Z</time>
      </trkpt>
      <trkpt lat="46.7452" lon="6.31961">
        <ele>1057.11</ele>
        <time>2015-06-28T14:48:37Z</time>
      </trkpt>
      <trkpt lat="46.7452" lon="6.31961">
        <ele>1051.82</ele>
        <time>2015-06-28T14:48:39Z</time>
      </trkpt>
      <trkpt lat="46.7452" lon="6.31961">
        <ele>1059.03</ele>
        <time>2015-06-28T14:48:40Z</time>
      </trkpt>
      <trkpt lat="46.7452" lon="6.31961">
        <ele>1053.74</ele>
        <time>2015-06-28T14:48:45Z</time>
      </trkpt>
      <trkpt lat="46.7452" lon="6.31961">
        <ele>1058.55</ele>
        <time>2015-06-28T14:48:46Z</time>
      </trkpt>
      <trkpt lat="46.7452" lon="6.31961">
        <ele>1065.28</ele>
        <time>2015-06-28T14:48:47Z</time>
      </trkpt>
      <trkpt lat="46.7452" lon="6.31961">
        <ele>1058.07</ele>
        <time>2015-06-28T14:48:48Z</time>
      </trkpt>
      <trkpt lat="46.74521" lon="6.31961">
        <ele>1061.43</ele>
        <time>2015-06-28T14:48:52Z</time>
      </trkpt>
      <trkpt lat="46.74521" lon="6.31961">
        <ele>1057.59</ele>
        <time>2015-06-28T14:48:53Z</time>
      </trkpt>
      <trkpt lat="46.74522" lon="6.31962">
        <ele>1050.86</ele>
        <time>2015-06-28T14:48:55Z</time>
      </trkpt>
      <trkpt lat="46.74522" lon="6.31962">
        <ele>1059.99</ele>
        <time>2015-06-28T14:48:56Z</time>
      </trkpt>
      <trkpt lat="46.74522" lon="6.31962">
        <ele>1067.2</ele>
        <time>2015-06-28T14:48:57Z</time>
      </trkpt>
      <trkpt lat="46.74523" lon="6.31963">
        <ele>1048.94</ele>
        <time>2015-06-28T14:48:58Z</time>
      </trkpt>
      <trkpt lat="46.74523" lon="6.31963">
        <ele>1058.55</ele>
        <time>2015-06-28T14:48:59Z</time>
      </trkpt>
      <trkpt lat="46.74523" lon="6.3196">
        <ele>1057.11</ele>
        <time>2015-06-28T14:49:04Z</time>
      </trkpt>
      <trkpt lat="46.74522" lon="6.31956">
        <ele>1057.11</ele>
        <time>2015-06-28T14:49:05Z</time>
      </trkpt>
      <trkpt lat="46.74521" lon="6.3195">
        <ele>1056.15</ele>
        <time>2015-06-28T14:49:06Z</time>
      </trkpt>
      <trkpt lat="46.74514" lon="6.31925">
        <ele>1055.18</ele>
        <time>2015-06-28T14:49:09Z</time>
      </trkpt>
      <trkpt lat="46.74505" lon="6.31893">
        <ele>1051.82</ele>
        <time>2015-06-28T14:49:12Z</time>
      </trkpt>
      <trkpt lat="46.74493" lon="6.31853">
        <ele>1048.94</ele>
        <time>2015-06-28T14:49:15Z</time>
      </trkpt>
      <trkpt lat="46.74491" lon="6.31839">
        <ele>1047.49</ele>
        <time>2015-06-28T14:49:16Z</time>
      </trkpt>
      <trkpt lat="46.74491" lon="6.31824">
        <ele>1046.53</ele>
        <time>2015-06-28T14:49:17Z</time>
      </trkpt>
      <trkpt lat="46.74492" lon="6.3181">
        <ele>1045.09</ele>
        <time>2015-06-28T14:49:18Z</time>
      </trkpt>
      <trkpt lat="46.74494" lon="6.31796">
        <ele>1044.13</ele>
        <time>2015-06-28T14:49:19Z</time>
      </trkpt>
      <trkpt lat="46.74498" lon="6.31781">
        <ele>1042.69</ele>
        <time>2015-06-28T14:49:20Z</time>
      </trkpt>
      <trkpt lat="46.74504" lon="6.31766">
        <ele>1041.25</ele>
        <time>2015-06-28T14:49:21Z</time>
      </trkpt>
      <trkpt lat="46.74511" lon="6.3175">
        <ele>1040.28</ele>
        <time>2015-06-28T14:49:22Z</time>
      </trkpt>
      <trkpt lat="46.74519" lon="6.31735">
        <ele>1038.84</ele>
        <time>2015-06-28T14:49:23Z</time>
      </trkpt>
      <trkpt lat="46.74537" lon="6.31705">
        <ele>1035.96</ele>
        <time>2015-06-28T14:49:25Z</time>
      </trkpt>
      <trkpt lat="46.74545" lon="6.31688">
        <ele>1034.52</ele>
        <time>2015-06-28T14:49:26Z</time>
      </trkpt>
      <trkpt lat="46.74562" lon="6.31639">
        <ele>1030.67</ele>
        <time>2015-06-28T14:49:29Z</time>
      </trkpt>
      <trkpt lat="46.74574" lon="6.31602">
        <ele>1028.27</ele>
        <time>2015-06-28T14:49:32Z</time>
      </trkpt>
      <trkpt lat="46.74576" lon="6.31593">
        <ele>1027.31</ele>
        <time>2015-06-28T14:49:33Z</time>
      </trkpt>
      <trkpt lat="46.74577" lon="6.31583">
        <ele>1027.31</ele>
        <time>2015-06-28T14:49:34Z</time>
      </trkpt>
      <trkpt lat="46.74578" lon="6.31572">
        <ele>1026.83</ele>
        <time>2015-06-28T14:49:35Z</time>
      </trkpt>
      <trkpt lat="46.74577" lon="6.31562">
        <ele>1026.34</ele>
        <time>2015-06-28T14:49:36Z</time>
      </trkpt>
      <trkpt lat="46.74576" lon="6.31551">
        <ele>1025.86</ele>
        <time>2015-06-28T14:49:37Z</time>
      </trkpt>
      <trkpt lat="46.74575" lon="6.3154">
        <ele>1025.38</ele>
        <time>2015-06-28T14:49:38Z</time>
      </trkpt>
      <trkpt lat="46.74573" lon="6.31527">
        <ele>1024.42</ele>
        <time>2015-06-28T14:49:39Z</time>
      </trkpt>
      <trkpt lat="46.74572" lon="6.31514">
        <ele>1024.42</ele>
        <time>2015-06-28T14:49:40Z</time>
      </trkpt>
      <trkpt lat="46.74572" lon="6.31498">
        <ele>1022.5</ele>
        <time>2015-06-28T14:49:41Z</time>
      </trkpt>
      <trkpt lat="46.74573" lon="6.31485">
        <ele>1021.54</ele>
        <time>2015-06-28T14:49:42Z</time>
      </trkpt>
      <trkpt lat="46.74575" lon="6.31469">
        <ele>1020.58</ele>
        <time>2015-06-28T14:49:43Z</time>
      </trkpt>
      <trkpt lat="46.74577" lon="6.31452">
        <ele>1019.13</ele>
        <time>2015-06-28T14:49:44Z</time>
      </trkpt>
      <trkpt lat="46.7458" lon="6.31434">
        <ele>1017.69</ele>
        <time>2015-06-28T14:49:45Z</time>
      </trkpt>
      <trkpt lat="46.74583" lon="6.31417">
        <ele>1016.25</ele>
        <time>2015-06-28T14:49:46Z</time>
      </trkpt>
      <trkpt lat="46.74586" lon="6.31403">
        <ele>1014.33</ele>
        <time>2015-06-28T14:49:47Z</time>
      </trkpt>
      <trkpt lat="46.74589" lon="6.31392">
        <ele>1012.89</ele>
        <time>2015-06-28T14:49:48Z</time>
      </trkpt>
      <trkpt lat="46.74593" lon="6.31383">
        <ele>1011.44</ele>
        <time>2015-06-28T14:49:49Z</time>
      </trkpt>
      <trkpt lat="46.74597" lon="6.31376">
        <ele>1010.96</ele>
        <time>2015-06-28T14:49:50Z</time>
      </trkpt>
      <trkpt lat="46.74603" lon="6.31371">
        <ele>1010.48</ele>
        <time>2015-06-28T14:49:51Z</time>
      </trkpt>
      <trkpt lat="46.7461" lon="6.31367">
        <ele>1008.56</ele>
        <time>2015-06-28T14:49:52Z</time>
      </trkpt>
      <trkpt lat="46.74617" lon="6.31367">
        <ele>1007.6</ele>
        <time>2015-06-28T14:49:53Z</time>
      </trkpt>
      <trkpt lat="46.74625" lon="6.3137">
        <ele>1006.64</ele>
        <time>2015-06-28T14:49:54Z</time>
      </trkpt>
      <trkpt lat="46.74634" lon="6.31374">
        <ele>1005.68</ele>
        <time>2015-06-28T14:49:55Z</time>
      </trkpt>
      <trkpt lat="46.74659" lon="6.31388">
        <ele>1001.83</ele>
        <time>2015-06-28T14:49:58Z</time>
      </trkpt>
      <trkpt lat="46.74669" lon="6.31391">
        <ele>1000.39</ele>
        <time>2015-06-28T14:49:59Z</time>
      </trkpt>
      <trkpt lat="46.74679" lon="6.31391">
        <ele>998.95</ele>
        <time>2015-06-28T14:50:00Z</time>
      </trkpt>
      <trkpt lat="46.74689" lon="6.31387">
        <ele>997.99</ele>
        <time>2015-06-28T14:50:01Z</time>
      </trkpt>
      <trkpt lat="46.74699" lon="6.31382">
        <ele>997.02</ele>
        <time>2015-06-28T14:50:02Z</time>
      </trkpt>
      <trkpt lat="46.74707" lon="6.31377">
        <ele>996.54</ele>
        <time>2015-06-28T14:50:03Z</time>
      </trkpt>
      <trkpt lat="46.74716" lon="6.31374">
        <ele>995.58</ele>
        <time>2015-06-28T14:50:04Z</time>
      </trkpt>
      <trkpt lat="46.74725" lon="6.31373">
        <ele>994.62</ele>
        <time>2015-06-28T14:50:05Z</time>
      </trkpt>
      <trkpt lat="46.74734" lon="6.31374">
        <ele>993.18</ele>
        <time>2015-06-28T14:50:06Z</time>
      </trkpt>
      <trkpt lat="46.74743" lon="6.31377">
        <ele>992.7</ele>
        <time>2015-06-28T14:50:07Z</time>
      </trkpt>
      <trkpt lat="46.74761" lon="6.31381">
        <ele>991.74</ele>
        <time>2015-06-28T14:50:09Z</time>
      </trkpt>
      <trkpt lat="46.74796" lon="6.31385">
        <ele>988.37</ele>
        <time>2015-06-28T14:50:13Z</time>
      </trkpt>
      <trkpt lat="46.74812" lon="6.31384">
        <ele>987.41</ele>
        <time>2015-06-28T14:50:15Z</time>
      </trkpt>
      <trkpt lat="46.7482" lon="6.31381">
        <ele>986.45</ele>
        <time>2015-06-28T14:50:16Z</time>
      </trkpt>
      <trkpt lat="46.74827" lon="6.31377">
        <ele>985.01</ele>
        <time>2015-06-28T14:50:17Z</time>
      </trkpt>
      <trkpt lat="46.74834" lon="6.31371">
        <ele>983.57</ele>
        <time>2015-06-28T14:50:18Z</time>
      </trkpt>
      <trkpt lat="46.74841" lon="6.31364">
        <ele>982.6</ele>
        <time>2015-06-28T14:50:19Z</time>
      </trkpt>
      <trkpt lat="46.74847" lon="6.31357">
        <ele>982.12</ele>
        <time>2015-06-28T14:50:20Z</time>
      </trkpt>
      <trkpt lat="46.74855" lon="6.3135">
        <ele>982.12</ele>
        <time>2015-06-28T14:50:21Z</time>
      </trkpt>
      <trkpt lat="46.74864" lon="6.31345">
        <ele>980.68</ele>
        <time>2015-06-28T14:50:22Z</time>
      </trkpt>
      <trkpt lat="46.74873" lon="6.31342">
        <ele>979.24</ele>
        <time>2015-06-28T14:50:23Z</time>
      </trkpt>
      <trkpt lat="46.74883" lon="6.31339">
        <ele>978.28</ele>
        <time>2015-06-28T14:50:24Z</time>
      </trkpt>
      <trkpt lat="46.74894" lon="6.31337">
        <ele>977.32</ele>
        <time>2015-06-28T14:50:25Z</time>
      </trkpt>
      <trkpt lat="46.74927" lon="6.31327">
        <ele>972.99</ele>
        <time>2015-06-28T14:50:29Z</time>
      </trkpt>
      <trkpt lat="46.74933" lon="6.31322">
        <ele>972.03</ele>
        <time>2015-06-28T14:50:30Z</time>
      </trkpt>
      <trkpt lat="46.74939" lon="6.31315">
        <ele>971.07</ele>
        <time>2015-06-28T14:50:31Z</time>
      </trkpt>
      <trkpt lat="46.74944" lon="6.31305">
        <ele>970.59</ele>
        <time>2015-06-28T14:50:32Z</time>
      </trkpt>
      <trkpt lat="46.74948" lon="6.31293">
        <ele>969.15</ele>
        <time>2015-06-28T14:50:33Z</time>
      </trkpt>
      <trkpt lat="46.74953" lon="6.3128">
        <ele>968.67</ele>
        <time>2015-06-28T14:50:34Z</time>
      </trkpt>
      <trkpt lat="46.74965" lon="6.31241">
        <ele>965.78</ele>
        <time>2015-06-28T14:50:37Z</time>
      </trkpt>
      <trkpt lat="46.74967" lon="6.31226">
        <ele>964.82</ele>
        <time>2015-06-28T14:50:38Z</time>
      </trkpt>
      <trkpt lat="46.74967" lon="6.31179">
        <ele>960.01</ele>
        <time>2015-06-28T14:50:41Z</time>
      </trkpt>
      <trkpt lat="46.7497" lon="6.31164">
        <ele>958.57</ele>
        <time>2015-06-28T14:50:42Z</time>
      </trkpt>
      <trkpt lat="46.74974" lon="6.3115">
        <ele>958.09</ele>
        <time>2015-06-28T14:50:43Z</time>
      </trkpt>
      <trkpt lat="46.74979" lon="6.31138">
        <ele>957.13</ele>
        <time>2015-06-28T14:50:44Z</time>
      </trkpt>
      <trkpt lat="46.74985" lon="6.31128">
        <ele>956.17</ele>
        <time>2015-06-28T14:50:45Z</time>
      </trkpt>
      <trkpt lat="46.74991" lon="6.31118">
        <ele>955.21</ele>
        <time>2015-06-28T14:50:46Z</time>
      </trkpt>
      <trkpt lat="46.74997" lon="6.31109">
        <ele>954.25</ele>
        <time>2015-06-28T14:50:47Z</time>
      </trkpt>
      <trkpt lat="46.75005" lon="6.31101">
        <ele>953.77</ele>
        <time>2015-06-28T14:50:48Z</time>
      </trkpt>
      <trkpt lat="46.75012" lon="6.31092">
        <ele>952.32</ele>
        <time>2015-06-28T14:50:49Z</time>
      </trkpt>
      <trkpt lat="46.75031" lon="6.31067">
        <ele>948.96</ele>
        <time>2015-06-28T14:50:52Z</time>
      </trkpt>
      <trkpt lat="46.75048" lon="6.31043">
        <ele>945.59</ele>
        <time>2015-06-28T14:50:55Z</time>
      </trkpt>
      <trkpt lat="46.75066" lon="6.31017">
        <ele>942.23</ele>
        <time>2015-06-28T14:50:59Z</time>
      </trkpt>
      <trkpt lat="46.75082" lon="6.30987">
        <ele>938.86</ele>
        <time>2015-06-28T14:51:08Z</time>
      </trkpt>
      <trkpt lat="46.75083" lon="6.30985">
        <ele>938.38</ele>
        <time>2015-06-28T14:51:21Z</time>
      </trkpt>
      <trkpt lat="46.75088" lon="6.3098">
        <ele>937.42</ele>
        <time>2015-06-28T14:51:42Z</time>
      </trkpt>
      <trkpt lat="46.7509" lon="6.30981">
        <ele>937.42</ele>
        <time>2015-06-28T14:51:43Z</time>
      </trkpt>
      <trkpt lat="46.75092" lon="6.30982">
        <ele>936.94</ele>
        <time>2015-06-28T14:51:44Z</time>
      </trkpt>
      <trkpt lat="46.75095" lon="6.30983">
        <ele>936.46</ele>
        <time>2015-06-28T14:51:53Z</time>
      </trkpt>
      <trkpt lat="46.75098" lon="6.30985">
        <ele>936.46</ele>
        <time>2015-06-28T14:52:01Z</time>
      </trkpt>
      <trkpt lat="46.751" lon="6.30986">
        <ele>936.46</ele>
        <time>2015-06-28T14:52:02Z</time>
      </trkpt>
      <trkpt lat="46.75102" lon="6.30987">
        <ele>936.46</ele>
        <time>2015-06-28T14:52:03Z</time>
      </trkpt>
      <trkpt lat="46.75105" lon="6.30988">
        <ele>935.5</ele>
        <time>2015-06-28T14:52:04Z</time>
      </trkpt>
      <trkpt lat="46.75109" lon="6.30991">
        <ele>935.5</ele>
        <time>2015-06-28T14:52:05Z</time>
      </trkpt>
      <trkpt lat="46.75113" lon="6.30994">
        <ele>935.5</ele>
        <time>2015-06-28T14:52:06Z</time>
      </trkpt>
      <trkpt lat="46.75117" lon="6.30998">
        <ele>935.02</ele>
        <time>2015-06-28T14:52:07Z</time>
      </trkpt>
      <trkpt lat="46.75137" lon="6.31013">
        <ele>933.58</ele>
        <time>2015-06-28T14:52:13Z</time>
      </trkpt>
      <trkpt lat="46.7514" lon="6.31013">
        <ele>934.06</ele>
        <time>2015-06-28T14:52:14Z</time>
      </trkpt>
      <trkpt lat="46.75136" lon="6.30992">
        <ele>933.1</ele>
        <time>2015-06-28T14:52:19Z</time>
      </trkpt>
      <trkpt lat="46.75134" lon="6.30987">
        <ele>933.58</ele>
        <time>2015-06-28T14:52:20Z</time>
      </trkpt>
      <trkpt lat="46.75104" lon="6.30935">
        <ele>932.62</ele>
        <time>2015-06-28T14:52:30Z</time>
      </trkpt>
      <trkpt lat="46.75049" lon="6.30839">
        <ele>931.17</ele>
        <time>2015-06-28T14:52:47Z</time>
      </trkpt>
      <trkpt lat="46.75039" lon="6.30817">
        <ele>930.69</ele>
        <time>2015-06-28T14:52:51Z</time>
      </trkpt>
      <trkpt lat="46.75025" lon="6.30785">
        <ele>930.69</ele>
        <time>2015-06-28T14:52:58Z</time>
      </trkpt>
      <trkpt lat="46.75025" lon="6.30782">
        <ele>930.69</ele>
        <time>2015-06-28T14:52:59Z</time>
      </trkpt>
      <trkpt lat="46.75025" lon="6.3078">
        <ele>930.69</ele>
        <time>2015-06-28T14:53:11Z</time>
      </trkpt>
      <trkpt lat="46.75025" lon="6.30779">
        <ele>934.54</ele>
        <time>2015-06-28T14:53:15Z</time>
      </trkpt>
      <trkpt lat="46.75025" lon="6.30779">
        <ele>934.06</ele>
        <time>2015-06-28T14:53:16Z</time>
      </trkpt>
      <trkpt lat="46.75025" lon="6.30779">
        <ele>929.25</ele>
        <time>2015-06-28T14:53:18Z</time>
      </trkpt>
      <trkpt lat="46.75025" lon="6.30779">
        <ele>929.25</ele>
        <time>2015-06-28T14:53:19Z</time>
      </trkpt>
      <trkpt lat="46.75025" lon="6.30779">
        <ele>935.02</ele>
        <time>2015-06-28T14:53:22Z</time>
      </trkpt>
      <trkpt lat="46.75025" lon="6.30779">
        <ele>930.21</ele>
        <time>2015-06-28T14:53:23Z</time>
      </trkpt>
      <trkpt lat="46.75025" lon="6.30779">
        <ele>936.94</ele>
        <time>2015-06-28T14:53:28Z</time>
      </trkpt>
      <trkpt lat="46.75025" lon="6.30779">
        <ele>929.73</ele>
        <time>2015-06-28T14:53:29Z</time>
      </trkpt>
      <trkpt lat="46.75026" lon="6.30779">
        <ele>930.21</ele>
        <time>2015-06-28T14:53:43Z</time>
      </trkpt>
      <trkpt lat="46.75028" lon="6.30778">
        <ele>929.25</ele>
        <time>2015-06-28T14:53:59Z</time>
      </trkpt>
      <trkpt lat="46.7503" lon="6.30778">
        <ele>929.73</ele>
        <time>2015-06-28T14:54:03Z</time>
      </trkpt>
      <trkpt lat="46.75037" lon="6.30777">
        <ele>929.25</ele>
        <time>2015-06-28T14:54:10Z</time>
      </trkpt>
      <trkpt lat="46.75039" lon="6.30775">
        <ele>929.73</ele>
        <time>2015-06-28T14:54:11Z</time>
      </trkpt>
      <trkpt lat="46.75042" lon="6.30772">
        <ele>929.25</ele>
        <time>2015-06-28T14:54:12Z</time>
      </trkpt>
      <trkpt lat="46.7509" lon="6.30714">
        <ele>926.37</ele>
        <time>2015-06-28T14:54:24Z</time>
      </trkpt>
      <trkpt lat="46.75139" lon="6.30658">
        <ele>923</ele>
        <time>2015-06-28T14:54:32Z</time>
      </trkpt>
      <trkpt lat="46.75185" lon="6.30604">
        <ele>919.64</ele>
        <time>2015-06-28T14:54:41Z</time>
      </trkpt>
      <trkpt lat="46.75223" lon="6.30558">
        <ele>916.75</ele>
        <time>2015-06-28T14:54:50Z</time>
      </trkpt>
      <trkpt lat="46.75257" lon="6.30518">
        <ele>915.31</ele>
        <time>2015-06-28T14:54:57Z</time>
      </trkpt>
      <trkpt lat="46.75287" lon="6.30481">
        <ele>914.83</ele>
        <time>2015-06-28T14:55:05Z</time>
      </trkpt>
      <trkpt lat="46.75287" lon="6.30478">
        <ele>914.83</ele>
        <time>2015-06-28T14:55:06Z</time>
      </trkpt>
      <trkpt lat="46.75287" lon="6.30479">
        <ele>914.35</ele>
        <time>2015-06-28T14:55:19Z</time>
      </trkpt>
      <trkpt lat="46.75287" lon="6.30479">
        <ele>910.51</ele>
        <time>2015-06-28T14:55:29Z</time>
      </trkpt>
      <trkpt lat="46.75287" lon="6.30479">
        <ele>918.68</ele>
        <time>2015-06-28T14:55:30Z</time>
      </trkpt>
      <trkpt lat="46.75287" lon="6.30479">
        <ele>914.83</ele>
        <time>2015-06-28T14:55:31Z</time>
      </trkpt>
      <trkpt lat="46.75287" lon="6.30481">
        <ele>914.35</ele>
        <time>2015-06-28T14:55:41Z</time>
      </trkpt>
      <trkpt lat="46.75287" lon="6.30483">
        <ele>913.87</ele>
        <time>2015-06-28T14:55:42Z</time>
      </trkpt>
      <trkpt lat="46.75287" lon="6.30486">
        <ele>914.35</ele>
        <time>2015-06-28T14:55:43Z</time>
      </trkpt>
      <trkpt lat="46.75289" lon="6.30489">
        <ele>914.35</ele>
        <time>2015-06-28T14:55:44Z</time>
      </trkpt>
      <trkpt lat="46.75291" lon="6.30492">
        <ele>914.35</ele>
        <time>2015-06-28T14:55:45Z</time>
      </trkpt>
      <trkpt lat="46.75304" lon="6.30517">
        <ele>913.87</ele>
        <time>2015-06-28T14:55:53Z</time>
      </trkpt>
      <trkpt lat="46.75337" lon="6.30558">
        <ele>913.87</ele>
        <time>2015-06-28T14:56:08Z</time>
      </trkpt>
      <trkpt lat="46.75366" lon="6.30593">
        <ele>913.39</ele>
        <time>2015-06-28T14:56:21Z</time>
      </trkpt>
      <trkpt lat="46.75383" lon="6.30617">
        <ele>913.87</ele>
        <time>2015-06-28T14:56:28Z</time>
      </trkpt>
      <trkpt lat="46.75386" lon="6.30618">
        <ele>913.39</ele>
        <time>2015-06-28T14:56:29Z</time>
      </trkpt>
      <trkpt lat="46.75388" lon="6.30619">
        <ele>913.87</ele>
        <time>2015-06-28T14:56:30Z</time>
      </trkpt>
      <trkpt lat="46.75391" lon="6.3062">
        <ele>913.87</ele>
        <time>2015-06-28T14:56:31Z</time>
      </trkpt>
      <trkpt lat="46.75393" lon="6.30622">
        <ele>913.87</ele>
        <time>2015-06-28T14:56:32Z</time>
      </trkpt>
      <trkpt lat="46.75409" lon="6.30634">
        <ele>914.35</ele>
        <time>2015-06-28T14:56:40Z</time>
      </trkpt>
      <trkpt lat="46.7541" lon="6.30631">
        <ele>913.87</ele>
        <time>2015-06-28T14:56:41Z</time>
      </trkpt>
      <trkpt lat="46.75411" lon="6.30628">
        <ele>913.87</ele>
        <time>2015-06-28T14:56:42Z</time>
      </trkpt>
      <trkpt lat="46.75411" lon="6.30625">
        <ele>913.87</ele>
        <time>2015-06-28T14:56:43Z</time>
      </trkpt>
      <trkpt lat="46.75412" lon="6.3062">
        <ele>913.39</ele>
        <time>2015-06-28T14:56:44Z</time>
      </trkpt>
      <trkpt lat="46.75414" lon="6.30615">
        <ele>913.39</ele>
        <time>2015-06-28T14:56:45Z</time>
      </trkpt>
      <trkpt lat="46.75415" lon="6.3061">
        <ele>912.91</ele>
        <time>2015-06-28T14:56:46Z</time>
      </trkpt>
      <trkpt lat="46.75427" lon="6.30582">
        <ele>910.99</ele>
        <time>2015-06-28T14:56:57Z</time>
      </trkpt>
      <trkpt lat="46.75429" lon="6.30582">
        <ele>910.51</ele>
        <time>2015-06-28T14:56:58Z</time>
      </trkpt>
      <trkpt lat="46.7543" lon="6.30581">
        <ele>910.51</ele>
        <time>2015-06-28T14:56:59Z</time>
      </trkpt>
      <trkpt lat="46.75432" lon="6.30579">
        <ele>910.99</ele>
        <time>2015-06-28T14:57:00Z</time>
      </trkpt>
      <trkpt lat="46.75433" lon="6.30578">
        <ele>910.51</ele>
        <time>2015-06-28T14:57:01Z</time>
      </trkpt>
      <trkpt lat="46.75455" lon="6.30541">
        <ele>910.03</ele>
        <time>2015-06-28T14:57:13Z</time>
      </trkpt>
      <trkpt lat="46.75473" lon="6.30488">
        <ele>910.03</ele>
        <time>2015-06-28T14:57:27Z</time>
      </trkpt>
      <trkpt lat="46.75497" lon="6.3044">
        <ele>909.54</ele>
        <time>2015-06-28T14:57:44Z</time>
      </trkpt>
      <trkpt lat="46.75499" lon="6.30435">
        <ele>909.54</ele>
        <time>2015-06-28T14:57:56Z</time>
      </trkpt>
      <trkpt lat="46.75506" lon="6.30431">
        <ele>909.54</ele>
        <time>2015-06-28T14:58:12Z</time>
      </trkpt>
      <trkpt lat="46.75506" lon="6.30431">
        <ele>909.54</ele>
        <time>2015-06-28T14:58:14Z</time>
      </trkpt>
      <trkpt lat="46.75508" lon="6.30428">
        <ele>909.54</ele>
        <time>2015-06-28T14:58:17Z</time>
      </trkpt>
      <trkpt lat="46.75513" lon="6.30414">
        <ele>909.06</ele>
        <time>2015-06-28T14:58:30Z</time>
      </trkpt>
      <trkpt lat="46.75516" lon="6.30404">
        <ele>908.58</ele>
        <time>2015-06-28T14:58:34Z</time>
      </trkpt>
      <trkpt lat="46.75531" lon="6.30371">
        <ele>908.1</ele>
        <time>2015-06-28T14:58:46Z</time>
      </trkpt>
      <trkpt lat="46.75539" lon="6.30349">
        <ele>907.62</ele>
        <time>2015-06-28T14:58:55Z</time>
      </trkpt>
      <trkpt lat="46.75539" lon="6.30344">
        <ele>907.14</ele>
        <time>2015-06-28T14:58:57Z</time>
      </trkpt>
      <trkpt lat="46.75549" lon="6.30332">
        <ele>907.62</ele>
        <time>2015-06-28T14:59:03Z</time>
      </trkpt>
      <trkpt lat="46.75547" lon="6.30325">
        <ele>907.62</ele>
        <time>2015-06-28T14:59:09Z</time>
      </trkpt>
      <trkpt lat="46.75554" lon="6.30303">
        <ele>908.58</ele>
        <time>2015-06-28T14:59:18Z</time>
      </trkpt>
      <trkpt lat="46.75554" lon="6.30289">
        <ele>908.1</ele>
        <time>2015-06-28T14:59:30Z</time>
      </trkpt>
      <trkpt lat="46.75554" lon="6.30287">
        <ele>907.62</ele>
        <time>2015-06-28T14:59:55Z</time>
      </trkpt>
      <trkpt lat="46.75553" lon="6.30286">
        <ele>906.66</ele>
        <time>2015-06-28T15:00:09Z</time>
      </trkpt>
      <trkpt lat="46.75553" lon="6.30286">
        <ele>907.14</ele>
        <time>2015-06-28T15:00:42Z</time>
      </trkpt>
      <trkpt lat="46.75553" lon="6.30285">
        <ele>915.31</ele>
        <time>2015-06-28T15:01:04Z</time>
      </trkpt>
      <trkpt lat="46.75553" lon="6.30285">
        <ele>899.45</ele>
        <time>2015-06-28T15:01:05Z</time>
      </trkpt>
      <trkpt lat="46.75553" lon="6.30285">
        <ele>909.06</ele>
        <time>2015-06-28T15:01:06Z</time>
      </trkpt>
      <trkpt lat="46.75553" lon="6.30285">
        <ele>898.97</ele>
        <time>2015-06-28T15:01:07Z</time>
      </trkpt>
      <trkpt lat="46.75553" lon="6.30285">
        <ele>908.58</ele>
        <time>2015-06-28T15:01:08Z</time>
      </trkpt>
      <trkpt lat="46.75553" lon="6.30285">
        <ele>907.62</ele>
        <time>2015-06-28T15:01:30Z</time>
      </trkpt>
      <trkpt lat="46.75553" lon="6.30284">
        <ele>906.18</ele>
        <time>2015-06-28T15:01:50Z</time>
      </trkpt>
      <trkpt lat="46.75553" lon="6.30284">
        <ele>908.58</ele>
        <time>2015-06-28T15:01:53Z</time>
      </trkpt>
      <trkpt lat="46.75553" lon="6.30284">
        <ele>901.37</ele>
        <time>2015-06-28T15:01:54Z</time>
      </trkpt>
      <trkpt lat="46.75553" lon="6.30284">
        <ele>908.58</ele>
        <time>2015-06-28T15:01:55Z</time>
      </trkpt>
      <trkpt lat="46.75553" lon="6.30284">
        <ele>920.6</ele>
        <time>2015-06-28T15:01:56Z</time>
      </trkpt>
      <trkpt lat="46.75553" lon="6.30284">
        <ele>907.14</ele>
        <time>2015-06-28T15:01:57Z</time>
      </trkpt>
      <trkpt lat="46.75553" lon="6.30284">
        <ele>912.91</ele>
        <time>2015-06-28T15:02:25Z</time>
      </trkpt>
      <trkpt lat="46.75553" lon="6.30284">
        <ele>906.66</ele>
        <time>2015-06-28T15:02:26Z</time>
      </trkpt>
      <trkpt lat="46.75553" lon="6.30284">
        <ele>899.45</ele>
        <time>2015-06-28T15:02:29Z</time>
      </trkpt>
      <trkpt lat="46.75553" lon="6.30284">
        <ele>908.1</ele>
        <time>2015-06-28T15:02:30Z</time>
      </trkpt>
      <trkpt lat="46.75552" lon="6.30291">
        <ele>906.66</ele>
        <time>2015-06-28T15:02:46Z</time>
      </trkpt>
      <trkpt lat="46.75552" lon="6.30294">
        <ele>906.66</ele>
        <time>2015-06-28T15:02:51Z</time>
      </trkpt>
      <trkpt lat="46.75546" lon="6.30312">
        <ele>906.66</ele>
        <time>2015-06-28T15:03:00Z</time>
      </trkpt>
      <trkpt lat="46.75545" lon="6.3032">
        <ele>906.18</ele>
        <time>2015-06-28T15:03:03Z</time>
      </trkpt>
      <trkpt lat="46.75538" lon="6.30338">
        <ele>905.7</ele>
        <time>2015-06-28T15:03:10Z</time>
      </trkpt>
      <trkpt lat="46.75523" lon="6.30389">
        <ele>906.18</ele>
        <time>2015-06-28T15:03:22Z</time>
      </trkpt>
      <trkpt lat="46.75516" lon="6.30405">
        <ele>906.18</ele>
        <time>2015-06-28T15:03:30Z</time>
      </trkpt>
      <trkpt lat="46.75514" lon="6.30408">
        <ele>906.66</ele>
        <time>2015-06-28T15:03:33Z</time>
      </trkpt>
      <trkpt lat="46.75512" lon="6.30418">
        <ele>906.66</ele>
        <time>2015-06-28T15:03:38Z</time>
      </trkpt>
      <trkpt lat="46.75507" lon="6.30431">
        <ele>907.14</ele>
        <time>2015-06-28T15:03:45Z</time>
      </trkpt>
      <trkpt lat="46.75503" lon="6.30437">
        <ele>907.14</ele>
        <time>2015-06-28T15:03:50Z</time>
      </trkpt>
      <trkpt lat="46.755" lon="6.30438">
        <ele>906.66</ele>
        <time>2015-06-28T15:04:00Z</time>
      </trkpt>
      <trkpt lat="46.75503" lon="6.30436">
        <ele>906.18</ele>
        <time>2015-06-28T15:04:09Z</time>
      </trkpt>
      <trkpt lat="46.75506" lon="6.30434">
        <ele>906.66</ele>
        <time>2015-06-28T15:04:24Z</time>
      </trkpt>
      <trkpt lat="46.75506" lon="6.30433">
        <ele>906.66</ele>
        <time>2015-06-28T15:04:33Z</time>
      </trkpt>
      <trkpt lat="46.75383" lon="6.30619">
        <ele>909.54</ele>
        <time>2015-06-28T15:47:23Z</time>
      </trkpt>
      <trkpt lat="46.75353" lon="6.30581">
        <ele>907.14</ele>
        <time>2015-06-28T15:47:37Z</time>
      </trkpt>
      <trkpt lat="46.75314" lon="6.30532">
        <ele>905.22</ele>
        <time>2015-06-28T15:47:54Z</time>
      </trkpt>
      <trkpt lat="46.75292" lon="6.30493">
        <ele>904.26</ele>
        <time>2015-06-28T15:48:06Z</time>
      </trkpt>
      <trkpt lat="46.75266" lon="6.30506">
        <ele>904.74</ele>
        <time>2015-06-28T15:48:16Z</time>
      </trkpt>
      <trkpt lat="46.75233" lon="6.30546">
        <ele>905.22</ele>
        <time>2015-06-28T15:48:29Z</time>
      </trkpt>
      <trkpt lat="46.75197" lon="6.3059">
        <ele>907.14</ele>
        <time>2015-06-28T15:48:45Z</time>
      </trkpt>
      <trkpt lat="46.75162" lon="6.30632">
        <ele>910.03</ele>
        <time>2015-06-28T15:49:01Z</time>
      </trkpt>
      <trkpt lat="46.75121" lon="6.30679">
        <ele>911.95</ele>
        <time>2015-06-28T15:49:20Z</time>
      </trkpt>
      <trkpt lat="46.75088" lon="6.30719">
        <ele>913.87</ele>
        <time>2015-06-28T15:49:37Z</time>
      </trkpt>
      <trkpt lat="46.75056" lon="6.3076">
        <ele>916.27</ele>
        <time>2015-06-28T15:49:53Z</time>
      </trkpt>
      <trkpt lat="46.75031" lon="6.30788">
        <ele>917.72</ele>
        <time>2015-06-28T15:50:05Z</time>
      </trkpt>
      <trkpt lat="46.75019" lon="6.30782">
        <ele>917.72</ele>
        <time>2015-06-28T15:50:10Z</time>
      </trkpt>
      <trkpt lat="46.74976" lon="6.30716">
        <ele>917.24</ele>
        <time>2015-06-28T15:50:26Z</time>
      </trkpt>
      <trkpt lat="46.74929" lon="6.30638">
        <ele>915.79</ele>
        <time>2015-06-28T15:50:42Z</time>
      </trkpt>
      <trkpt lat="46.74878" lon="6.30552">
        <ele>915.79</ele>
        <time>2015-06-28T15:50:58Z</time>
      </trkpt>
      <trkpt lat="46.74863" lon="6.30521">
        <ele>916.27</ele>
        <time>2015-06-28T15:51:04Z</time>
      </trkpt>
      <trkpt lat="46.7486" lon="6.30516">
        <ele>917.24</ele>
        <time>2015-06-28T15:51:05Z</time>
      </trkpt>
      <trkpt lat="46.74858" lon="6.3051">
        <ele>916.27</ele>
        <time>2015-06-28T15:51:06Z</time>
      </trkpt>
      <trkpt lat="46.74832" lon="6.30447">
        <ele>917.72</ele>
        <time>2015-06-28T15:51:19Z</time>
      </trkpt>
      <trkpt lat="46.74811" lon="6.30388">
        <ele>918.2</ele>
        <time>2015-06-28T15:51:32Z</time>
      </trkpt>
      <trkpt lat="46.74796" lon="6.30345">
        <ele>918.2</ele>
        <time>2015-06-28T15:51:41Z</time>
      </trkpt>
      <trkpt lat="46.74762" lon="6.30248">
        <ele>917.24</ele>
        <time>2015-06-28T15:51:59Z</time>
      </trkpt>
      <trkpt lat="46.74725" lon="6.30152">
        <ele>915.31</ele>
        <time>2015-06-28T15:52:14Z</time>
      </trkpt>
      <trkpt lat="46.74686" lon="6.30051">
        <ele>912.91</ele>
        <time>2015-06-28T15:52:27Z</time>
      </trkpt>
      <trkpt lat="46.74656" lon="6.29957">
        <ele>911.95</ele>
        <time>2015-06-28T15:52:38Z</time>
      </trkpt>
      <trkpt lat="46.74656" lon="6.2995">
        <ele>911.95</ele>
        <time>2015-06-28T15:52:39Z</time>
      </trkpt>
      <trkpt lat="46.74655" lon="6.29922">
        <ele>912.91</ele>
        <time>2015-06-28T15:52:43Z</time>
      </trkpt>
      <trkpt lat="46.74666" lon="6.29864">
        <ele>912.43</ele>
        <time>2015-06-28T15:52:53Z</time>
      </trkpt>
      <trkpt lat="46.74694" lon="6.29795">
        <ele>912.91</ele>
        <time>2015-06-28T15:53:07Z</time>
      </trkpt>
      <trkpt lat="46.74701" lon="6.29755">
        <ele>912.91</ele>
        <time>2015-06-28T15:53:14Z</time>
      </trkpt>
      <trkpt lat="46.74701" lon="6.29749">
        <ele>913.39</ele>
        <time>2015-06-28T15:53:15Z</time>
      </trkpt>
      <trkpt lat="46.74702" lon="6.29744">
        <ele>913.87</ele>
        <time>2015-06-28T15:53:16Z</time>
      </trkpt>
      <trkpt lat="46.74702" lon="6.29738">
        <ele>913.39</ele>
        <time>2015-06-28T15:53:17Z</time>
      </trkpt>
      <trkpt lat="46.74702" lon="6.29733">
        <ele>913.87</ele>
        <time>2015-06-28T15:53:18Z</time>
      </trkpt>
      <trkpt lat="46.74689" lon="6.29668">
        <ele>915.79</ele>
        <time>2015-06-28T15:53:32Z</time>
      </trkpt>
      <trkpt lat="46.74672" lon="6.29612">
        <ele>917.24</ele>
        <time>2015-06-28T15:53:46Z</time>
      </trkpt>
      <trkpt lat="46.74665" lon="6.29606">
        <ele>918.2</ele>
        <time>2015-06-28T15:53:49Z</time>
      </trkpt>
      <trkpt lat="46.74662" lon="6.29605">
        <ele>918.2</ele>
        <time>2015-06-28T15:53:50Z</time>
      </trkpt>
      <trkpt lat="46.74657" lon="6.29605">
        <ele>918.68</ele>
        <time>2015-06-28T15:53:52Z</time>
      </trkpt>
      <trkpt lat="46.74655" lon="6.29603">
        <ele>918.68</ele>
        <time>2015-06-28T15:53:53Z</time>
      </trkpt>
      <trkpt lat="46.74634" lon="6.2959">
        <ele>920.12</ele>
        <time>2015-06-28T15:54:02Z</time>
      </trkpt>
      <trkpt lat="46.74633" lon="6.29588">
        <ele>921.08</ele>
        <time>2015-06-28T15:54:03Z</time>
      </trkpt>
      <trkpt lat="46.74611" lon="6.29563">
        <ele>922.52</ele>
        <time>2015-06-28T15:54:15Z</time>
      </trkpt>
      <trkpt lat="46.74608" lon="6.29562">
        <ele>923</ele>
        <time>2015-06-28T15:54:16Z</time>
      </trkpt>
      <trkpt lat="46.74606" lon="6.2956">
        <ele>923</ele>
        <time>2015-06-28T15:54:17Z</time>
      </trkpt>
      <trkpt lat="46.74582" lon="6.29527">
        <ele>925.41</ele>
        <time>2015-06-28T15:54:31Z</time>
      </trkpt>
      <trkpt lat="46.74573" lon="6.29503">
        <ele>925.41</ele>
        <time>2015-06-28T15:54:41Z</time>
      </trkpt>
      <trkpt lat="46.74572" lon="6.29501">
        <ele>925.89</ele>
        <time>2015-06-28T15:54:42Z</time>
      </trkpt>
      <trkpt lat="46.74571" lon="6.29498">
        <ele>925.41</ele>
        <time>2015-06-28T15:54:43Z</time>
      </trkpt>
      <trkpt lat="46.7457" lon="6.2946">
        <ele>926.37</ele>
        <time>2015-06-28T15:54:55Z</time>
      </trkpt>
      <trkpt lat="46.74571" lon="6.29459">
        <ele>925.89</ele>
        <time>2015-06-28T15:54:56Z</time>
      </trkpt>
      <trkpt lat="46.74573" lon="6.29459">
        <ele>925.89</ele>
        <time>2015-06-28T15:54:57Z</time>
      </trkpt>
      <trkpt lat="46.74575" lon="6.29458">
        <ele>925.89</ele>
        <time>2015-06-28T15:54:58Z</time>
      </trkpt>
      <trkpt lat="46.74576" lon="6.29457">
        <ele>925.89</ele>
        <time>2015-06-28T15:54:59Z</time>
      </trkpt>
      <trkpt lat="46.74577" lon="6.29456">
        <ele>926.37</ele>
        <time>2015-06-28T15:55:00Z</time>
      </trkpt>
      <trkpt lat="46.74578" lon="6.29455">
        <ele>926.37</ele>
        <time>2015-06-28T15:55:01Z</time>
      </trkpt>
      <trkpt lat="46.7458" lon="6.29453">
        <ele>926.37</ele>
        <time>2015-06-28T15:55:02Z</time>
      </trkpt>
      <trkpt lat="46.74589" lon="6.29449">
        <ele>925.89</ele>
        <time>2015-06-28T15:55:09Z</time>
      </trkpt>
      <trkpt lat="46.7459" lon="6.2945">
        <ele>926.37</ele>
        <time>2015-06-28T15:55:10Z</time>
      </trkpt>
      <trkpt lat="46.74591" lon="6.29451">
        <ele>926.37</ele>
        <time>2015-06-28T15:55:11Z</time>
      </trkpt>
      <trkpt lat="46.74592" lon="6.29453">
        <ele>926.37</ele>
        <time>2015-06-28T15:55:12Z</time>
      </trkpt>
      <trkpt lat="46.74593" lon="6.29455">
        <ele>925.89</ele>
        <time>2015-06-28T15:55:13Z</time>
      </trkpt>
      <trkpt lat="46.74593" lon="6.29457">
        <ele>925.89</ele>
        <time>2015-06-28T15:55:14Z</time>
      </trkpt>
      <trkpt lat="46.74595" lon="6.29459">
        <ele>925.89</ele>
        <time>2015-06-28T15:55:15Z</time>
      </trkpt>
      <trkpt lat="46.74597" lon="6.29459">
        <ele>925.89</ele>
        <time>2015-06-28T15:55:16Z</time>
      </trkpt>
      <trkpt lat="46.74599" lon="6.29457">
        <ele>925.89</ele>
        <time>2015-06-28T15:55:17Z</time>
      </trkpt>
      <trkpt lat="46.74599" lon="6.29453">
        <ele>925.89</ele>
        <time>2015-06-28T15:55:18Z</time>
      </trkpt>
      <trkpt lat="46.74596" lon="6.29452">
        <ele>925.89</ele>
        <time>2015-06-28T15:55:19Z</time>
      </trkpt>
      <trkpt lat="46.74593" lon="6.29452">
        <ele>925.89</ele>
        <time>2015-06-28T15:55:20Z</time>
      </trkpt>
      <trkpt lat="46.7459" lon="6.29452">
        <ele>926.37</ele>
        <time>2015-06-28T15:55:21Z</time>
      </trkpt>
      <trkpt lat="46.74587" lon="6.29451">
        <ele>925.89</ele>
        <time>2015-06-28T15:55:22Z</time>
      </trkpt>
      <trkpt lat="46.74584" lon="6.29451">
        <ele>925.89</ele>
        <time>2015-06-28T15:55:23Z</time>
      </trkpt>
      <trkpt lat="46.74582" lon="6.29454">
        <ele>925.89</ele>
        <time>2015-06-28T15:55:24Z</time>
      </trkpt>
      <trkpt lat="46.74582" lon="6.29456">
        <ele>925.89</ele>
        <time>2015-06-28T15:55:25Z</time>
      </trkpt>
      <trkpt lat="46.74585" lon="6.2946">
        <ele>925.89</ele>
        <time>2015-06-28T15:55:37Z</time>
      </trkpt>
      <trkpt lat="46.74585" lon="6.29461">
        <ele>925.89</ele>
        <time>2015-06-28T15:55:50Z</time>
      </trkpt>
      <trkpt lat="46.74584" lon="6.29462">
        <ele>925.89</ele>
        <time>2015-06-28T15:56:07Z</time>
      </trkpt>
      <trkpt lat="46.74582" lon="6.29464">
        <ele>925.41</ele>
        <time>2015-06-28T15:56:38Z</time>
      </trkpt>
      <trkpt lat="46.74583" lon="6.2946">
        <ele>925.41</ele>
        <time>2015-06-28T15:57:02Z</time>
      </trkpt>
      <trkpt lat="46.74587" lon="6.29454">
        <ele>924.93</ele>
        <time>2015-06-28T15:57:16Z</time>
      </trkpt>
      <trkpt lat="46.7459" lon="6.29455">
        <ele>925.89</ele>
        <time>2015-06-28T15:57:20Z</time>
      </trkpt>
      <trkpt lat="46.7459" lon="6.29455">
        <ele>925.89</ele>
        <time>2015-06-28T15:57:21Z</time>
      </trkpt>
      <trkpt lat="46.74591" lon="6.29457">
        <ele>925.41</ele>
        <time>2015-06-28T15:57:27Z</time>
      </trkpt>
      <trkpt lat="46.74596" lon="6.29462">
        <ele>925.41</ele>
        <time>2015-06-28T15:57:34Z</time>
      </trkpt>
      <trkpt lat="46.74597" lon="6.29464">
        <ele>925.41</ele>
        <time>2015-06-28T15:57:35Z</time>
      </trkpt>
      <trkpt lat="46.74598" lon="6.29467">
        <ele>924.93</ele>
        <time>2015-06-28T15:57:36Z</time>
      </trkpt>
      <trkpt lat="46.74607" lon="6.29491">
        <ele>923.96</ele>
        <time>2015-06-28T15:57:43Z</time>
      </trkpt>
      <trkpt lat="46.74609" lon="6.29493">
        <ele>924.45</ele>
        <time>2015-06-28T15:57:44Z</time>
      </trkpt>
      <trkpt lat="46.74611" lon="6.29493">
        <ele>924.93</ele>
        <time>2015-06-28T15:57:45Z</time>
      </trkpt>
      <trkpt lat="46.74614" lon="6.29492">
        <ele>924.45</ele>
        <time>2015-06-28T15:57:53Z</time>
      </trkpt>
    </trkseg>
  </trk>
</gpx>